<?xml version="1.0" encoding="UTF-8" standalone="no" ?>
<gpx xmlns="http://www.topografix.com/GPX/1/1" xmlns:xsi="http://www.w3.org/2001/XMLSchema-instance" xsi:schemaLocation="http://www.topografix.com/GPX/1/1 http://www.topografix.com/GPX/1/1/gpx.xsd" version="1.1" creator="VisuGPX - https://www.visugpx.com">
  <metadata>
    <name>Course à pied le midi</name>
  </metadata>
  <trk>
    <name><![CDATA[Course à pied le midi_1]]></name>
    <trkseg>
      <trkpt lat="43.65177" lon="1.37808">
        <ele>141</ele>
        <time>2025-01-10T11:04:59Z</time>
      </trkpt>
      <trkpt lat="43.65179" lon="1.37808">
        <ele>141</ele>
        <time>2025-01-10T11:05:00Z</time>
      </trkpt>
      <trkpt lat="43.65181" lon="1.37808">
        <ele>141</ele>
        <time>2025-01-10T11:05:01Z</time>
      </trkpt>
      <trkpt lat="43.65183" lon="1.37807">
        <ele>141</ele>
        <time>2025-01-10T11:05:02Z</time>
      </trkpt>
      <trkpt lat="43.65185" lon="1.37807">
        <ele>141</ele>
        <time>2025-01-10T11:05:03Z</time>
      </trkpt>
      <trkpt lat="43.65187" lon="1.37807">
        <ele>141</ele>
        <time>2025-01-10T11:05:04Z</time>
      </trkpt>
      <trkpt lat="43.65188" lon="1.37808">
        <ele>141</ele>
        <time>2025-01-10T11:05:05Z</time>
      </trkpt>
      <trkpt lat="43.6519" lon="1.37809">
        <ele>141</ele>
        <time>2025-01-10T11:05:06Z</time>
      </trkpt>
      <trkpt lat="43.65191" lon="1.3781">
        <ele>141</ele>
        <time>2025-01-10T11:05:07Z</time>
      </trkpt>
      <trkpt lat="43.65192" lon="1.37811">
        <ele>140</ele>
        <time>2025-01-10T11:05:08Z</time>
      </trkpt>
      <trkpt lat="43.65194" lon="1.37812">
        <ele>140</ele>
        <time>2025-01-10T11:05:09Z</time>
      </trkpt>
      <trkpt lat="43.65195" lon="1.37813">
        <ele>140</ele>
        <time>2025-01-10T11:05:10Z</time>
      </trkpt>
      <trkpt lat="43.65198" lon="1.37816">
        <ele>140</ele>
        <time>2025-01-10T11:05:11Z</time>
      </trkpt>
      <trkpt lat="43.652" lon="1.37818">
        <ele>140</ele>
        <time>2025-01-10T11:05:12Z</time>
      </trkpt>
      <trkpt lat="43.65203" lon="1.3782">
        <ele>140</ele>
        <time>2025-01-10T11:05:13Z</time>
      </trkpt>
      <trkpt lat="43.65204" lon="1.37821">
        <ele>140</ele>
        <time>2025-01-10T11:05:14Z</time>
      </trkpt>
      <trkpt lat="43.65205" lon="1.37822">
        <ele>140</ele>
        <time>2025-01-10T11:05:15Z</time>
      </trkpt>
      <trkpt lat="43.65206" lon="1.37823">
        <ele>141</ele>
        <time>2025-01-10T11:05:16Z</time>
      </trkpt>
      <trkpt lat="43.65207" lon="1.37824">
        <ele>141</ele>
        <time>2025-01-10T11:05:17Z</time>
      </trkpt>
      <trkpt lat="43.65208" lon="1.37824">
        <ele>141</ele>
        <time>2025-01-10T11:05:18Z</time>
      </trkpt>
      <trkpt lat="43.65214" lon="1.3783">
        <ele>141</ele>
        <time>2025-01-10T11:05:19Z</time>
      </trkpt>
      <trkpt lat="43.65216" lon="1.37831">
        <ele>141</ele>
        <time>2025-01-10T11:05:20Z</time>
      </trkpt>
      <trkpt lat="43.65218" lon="1.37833">
        <ele>141</ele>
        <time>2025-01-10T11:05:21Z</time>
      </trkpt>
      <trkpt lat="43.6522" lon="1.37834">
        <ele>141</ele>
        <time>2025-01-10T11:05:22Z</time>
      </trkpt>
      <trkpt lat="43.65222" lon="1.37835">
        <ele>141</ele>
        <time>2025-01-10T11:05:23Z</time>
      </trkpt>
      <trkpt lat="43.65224" lon="1.37837">
        <ele>141</ele>
        <time>2025-01-10T11:05:24Z</time>
      </trkpt>
      <trkpt lat="43.65226" lon="1.37838">
        <ele>140</ele>
        <time>2025-01-10T11:05:25Z</time>
      </trkpt>
      <trkpt lat="43.65228" lon="1.37839">
        <ele>140</ele>
        <time>2025-01-10T11:05:26Z</time>
      </trkpt>
      <trkpt lat="43.65231" lon="1.37841">
        <ele>141</ele>
        <time>2025-01-10T11:05:27Z</time>
      </trkpt>
      <trkpt lat="43.65233" lon="1.37843">
        <ele>141</ele>
        <time>2025-01-10T11:05:28Z</time>
      </trkpt>
      <trkpt lat="43.65235" lon="1.37845">
        <ele>141</ele>
        <time>2025-01-10T11:05:29Z</time>
      </trkpt>
      <trkpt lat="43.65237" lon="1.37848">
        <ele>141</ele>
        <time>2025-01-10T11:05:30Z</time>
      </trkpt>
      <trkpt lat="43.6524" lon="1.3785">
        <ele>140</ele>
        <time>2025-01-10T11:05:31Z</time>
      </trkpt>
      <trkpt lat="43.65242" lon="1.37852">
        <ele>140</ele>
        <time>2025-01-10T11:05:32Z</time>
      </trkpt>
      <trkpt lat="43.65244" lon="1.37854">
        <ele>141</ele>
        <time>2025-01-10T11:05:33Z</time>
      </trkpt>
      <trkpt lat="43.65245" lon="1.37856">
        <ele>141</ele>
        <time>2025-01-10T11:05:34Z</time>
      </trkpt>
      <trkpt lat="43.65247" lon="1.37858">
        <ele>141</ele>
        <time>2025-01-10T11:05:35Z</time>
      </trkpt>
      <trkpt lat="43.65249" lon="1.37858">
        <ele>141</ele>
        <time>2025-01-10T11:05:36Z</time>
      </trkpt>
      <trkpt lat="43.6525" lon="1.37859">
        <ele>141</ele>
        <time>2025-01-10T11:05:37Z</time>
      </trkpt>
      <trkpt lat="43.65251" lon="1.37859">
        <ele>141</ele>
        <time>2025-01-10T11:05:38Z</time>
      </trkpt>
      <trkpt lat="43.65252" lon="1.3786">
        <ele>141</ele>
        <time>2025-01-10T11:05:39Z</time>
      </trkpt>
      <trkpt lat="43.65258" lon="1.37865">
        <ele>141</ele>
        <time>2025-01-10T11:05:40Z</time>
      </trkpt>
      <trkpt lat="43.65259" lon="1.37868">
        <ele>140</ele>
        <time>2025-01-10T11:05:41Z</time>
      </trkpt>
      <trkpt lat="43.65261" lon="1.37871">
        <ele>140</ele>
        <time>2025-01-10T11:05:42Z</time>
      </trkpt>
      <trkpt lat="43.65262" lon="1.37874">
        <ele>140</ele>
        <time>2025-01-10T11:05:43Z</time>
      </trkpt>
      <trkpt lat="43.65262" lon="1.37875">
        <ele>140</ele>
        <time>2025-01-10T11:05:44Z</time>
      </trkpt>
      <trkpt lat="43.65262" lon="1.37877">
        <ele>140</ele>
        <time>2025-01-10T11:05:45Z</time>
      </trkpt>
      <trkpt lat="43.65263" lon="1.37878">
        <ele>140</ele>
        <time>2025-01-10T11:05:46Z</time>
      </trkpt>
      <trkpt lat="43.65263" lon="1.3788">
        <ele>140</ele>
        <time>2025-01-10T11:05:47Z</time>
      </trkpt>
      <trkpt lat="43.65263" lon="1.37881">
        <ele>140</ele>
        <time>2025-01-10T11:05:48Z</time>
      </trkpt>
      <trkpt lat="43.65265" lon="1.3789">
        <ele>140</ele>
        <time>2025-01-10T11:05:49Z</time>
      </trkpt>
      <trkpt lat="43.65265" lon="1.37893">
        <ele>140</ele>
        <time>2025-01-10T11:05:50Z</time>
      </trkpt>
      <trkpt lat="43.65265" lon="1.37895">
        <ele>140</ele>
        <time>2025-01-10T11:05:51Z</time>
      </trkpt>
      <trkpt lat="43.65265" lon="1.37898">
        <ele>140</ele>
        <time>2025-01-10T11:05:52Z</time>
      </trkpt>
      <trkpt lat="43.65266" lon="1.379">
        <ele>140</ele>
        <time>2025-01-10T11:05:53Z</time>
      </trkpt>
      <trkpt lat="43.65266" lon="1.37903">
        <ele>140</ele>
        <time>2025-01-10T11:05:54Z</time>
      </trkpt>
      <trkpt lat="43.65266" lon="1.37906">
        <ele>140</ele>
        <time>2025-01-10T11:05:56Z</time>
      </trkpt>
      <trkpt lat="43.65266" lon="1.37909">
        <ele>140</ele>
        <time>2025-01-10T11:05:57Z</time>
      </trkpt>
      <trkpt lat="43.65266" lon="1.37912">
        <ele>140</ele>
        <time>2025-01-10T11:05:58Z</time>
      </trkpt>
      <trkpt lat="43.65266" lon="1.37915">
        <ele>140</ele>
        <time>2025-01-10T11:05:59Z</time>
      </trkpt>
      <trkpt lat="43.65266" lon="1.37917">
        <ele>140</ele>
        <time>2025-01-10T11:06:00Z</time>
      </trkpt>
      <trkpt lat="43.65267" lon="1.37919">
        <ele>140</ele>
        <time>2025-01-10T11:06:01Z</time>
      </trkpt>
      <trkpt lat="43.65267" lon="1.37921">
        <ele>140</ele>
        <time>2025-01-10T11:06:02Z</time>
      </trkpt>
      <trkpt lat="43.65268" lon="1.37923">
        <ele>140</ele>
        <time>2025-01-10T11:06:03Z</time>
      </trkpt>
      <trkpt lat="43.65268" lon="1.37925">
        <ele>140</ele>
        <time>2025-01-10T11:06:04Z</time>
      </trkpt>
      <trkpt lat="43.65269" lon="1.37927">
        <ele>140</ele>
        <time>2025-01-10T11:06:05Z</time>
      </trkpt>
      <trkpt lat="43.65269" lon="1.37929">
        <ele>140</ele>
        <time>2025-01-10T11:06:06Z</time>
      </trkpt>
      <trkpt lat="43.65269" lon="1.37932">
        <ele>140</ele>
        <time>2025-01-10T11:06:07Z</time>
      </trkpt>
      <trkpt lat="43.65269" lon="1.37934">
        <ele>140</ele>
        <time>2025-01-10T11:06:08Z</time>
      </trkpt>
      <trkpt lat="43.65269" lon="1.37944">
        <ele>140</ele>
        <time>2025-01-10T11:06:09Z</time>
      </trkpt>
      <trkpt lat="43.65269" lon="1.37947">
        <ele>140</ele>
        <time>2025-01-10T11:06:10Z</time>
      </trkpt>
      <trkpt lat="43.65269" lon="1.3795">
        <ele>140</ele>
        <time>2025-01-10T11:06:11Z</time>
      </trkpt>
      <trkpt lat="43.65269" lon="1.37952">
        <ele>140</ele>
        <time>2025-01-10T11:06:12Z</time>
      </trkpt>
      <trkpt lat="43.6527" lon="1.37955">
        <ele>140</ele>
        <time>2025-01-10T11:06:13Z</time>
      </trkpt>
      <trkpt lat="43.6527" lon="1.37958">
        <ele>140</ele>
        <time>2025-01-10T11:06:14Z</time>
      </trkpt>
      <trkpt lat="43.65271" lon="1.37961">
        <ele>140</ele>
        <time>2025-01-10T11:06:15Z</time>
      </trkpt>
      <trkpt lat="43.65271" lon="1.37965">
        <ele>140</ele>
        <time>2025-01-10T11:06:16Z</time>
      </trkpt>
      <trkpt lat="43.65272" lon="1.37968">
        <ele>140</ele>
        <time>2025-01-10T11:06:17Z</time>
      </trkpt>
      <trkpt lat="43.65272" lon="1.37971">
        <ele>140</ele>
        <time>2025-01-10T11:06:18Z</time>
      </trkpt>
      <trkpt lat="43.65272" lon="1.37974">
        <ele>140</ele>
        <time>2025-01-10T11:06:19Z</time>
      </trkpt>
      <trkpt lat="43.65272" lon="1.37978">
        <ele>140</ele>
        <time>2025-01-10T11:06:20Z</time>
      </trkpt>
      <trkpt lat="43.65273" lon="1.37981">
        <ele>139</ele>
        <time>2025-01-10T11:06:21Z</time>
      </trkpt>
      <trkpt lat="43.65273" lon="1.37983">
        <ele>139</ele>
        <time>2025-01-10T11:06:22Z</time>
      </trkpt>
      <trkpt lat="43.65273" lon="1.37986">
        <ele>139</ele>
        <time>2025-01-10T11:06:23Z</time>
      </trkpt>
      <trkpt lat="43.65274" lon="1.37989">
        <ele>139</ele>
        <time>2025-01-10T11:06:24Z</time>
      </trkpt>
      <trkpt lat="43.65274" lon="1.37992">
        <ele>139</ele>
        <time>2025-01-10T11:06:25Z</time>
      </trkpt>
      <trkpt lat="43.65275" lon="1.37994">
        <ele>139</ele>
        <time>2025-01-10T11:06:26Z</time>
      </trkpt>
      <trkpt lat="43.65275" lon="1.37998">
        <ele>139</ele>
        <time>2025-01-10T11:06:27Z</time>
      </trkpt>
      <trkpt lat="43.65276" lon="1.38001">
        <ele>139</ele>
        <time>2025-01-10T11:06:28Z</time>
      </trkpt>
      <trkpt lat="43.65276" lon="1.38005">
        <ele>139</ele>
        <time>2025-01-10T11:06:29Z</time>
      </trkpt>
      <trkpt lat="43.65276" lon="1.38008">
        <ele>139</ele>
        <time>2025-01-10T11:06:30Z</time>
      </trkpt>
      <trkpt lat="43.65277" lon="1.38012">
        <ele>139</ele>
        <time>2025-01-10T11:06:31Z</time>
      </trkpt>
      <trkpt lat="43.65277" lon="1.38015">
        <ele>139</ele>
        <time>2025-01-10T11:06:32Z</time>
      </trkpt>
      <trkpt lat="43.65278" lon="1.38019">
        <ele>139</ele>
        <time>2025-01-10T11:06:33Z</time>
      </trkpt>
      <trkpt lat="43.65278" lon="1.38022">
        <ele>139</ele>
        <time>2025-01-10T11:06:34Z</time>
      </trkpt>
      <trkpt lat="43.65278" lon="1.38023">
        <ele>139</ele>
        <time>2025-01-10T11:06:35Z</time>
      </trkpt>
      <trkpt lat="43.65279" lon="1.38025">
        <ele>139</ele>
        <time>2025-01-10T11:06:36Z</time>
      </trkpt>
      <trkpt lat="43.65279" lon="1.38026">
        <ele>139</ele>
        <time>2025-01-10T11:06:37Z</time>
      </trkpt>
      <trkpt lat="43.65279" lon="1.38028">
        <ele>139</ele>
        <time>2025-01-10T11:06:38Z</time>
      </trkpt>
      <trkpt lat="43.6528" lon="1.38029">
        <ele>139</ele>
        <time>2025-01-10T11:06:39Z</time>
      </trkpt>
      <trkpt lat="43.65282" lon="1.38038">
        <ele>139</ele>
        <time>2025-01-10T11:06:40Z</time>
      </trkpt>
      <trkpt lat="43.65282" lon="1.38041">
        <ele>139</ele>
        <time>2025-01-10T11:06:41Z</time>
      </trkpt>
      <trkpt lat="43.65283" lon="1.38043">
        <ele>139</ele>
        <time>2025-01-10T11:06:42Z</time>
      </trkpt>
      <trkpt lat="43.65283" lon="1.38045">
        <ele>139</ele>
        <time>2025-01-10T11:06:43Z</time>
      </trkpt>
      <trkpt lat="43.65284" lon="1.38048">
        <ele>139</ele>
        <time>2025-01-10T11:06:44Z</time>
      </trkpt>
      <trkpt lat="43.65284" lon="1.3805">
        <ele>139</ele>
        <time>2025-01-10T11:06:45Z</time>
      </trkpt>
      <trkpt lat="43.65285" lon="1.38052">
        <ele>139</ele>
        <time>2025-01-10T11:06:46Z</time>
      </trkpt>
      <trkpt lat="43.65285" lon="1.38055">
        <ele>139</ele>
        <time>2025-01-10T11:06:47Z</time>
      </trkpt>
      <trkpt lat="43.65285" lon="1.38057">
        <ele>139</ele>
        <time>2025-01-10T11:06:48Z</time>
      </trkpt>
      <trkpt lat="43.65286" lon="1.38059">
        <ele>139</ele>
        <time>2025-01-10T11:06:49Z</time>
      </trkpt>
      <trkpt lat="43.65286" lon="1.38061">
        <ele>139</ele>
        <time>2025-01-10T11:06:50Z</time>
      </trkpt>
      <trkpt lat="43.65286" lon="1.38061">
        <ele>139</ele>
        <time>2025-01-10T11:06:51Z</time>
      </trkpt>
      <trkpt lat="43.65289" lon="1.38075">
        <ele>139</ele>
        <time>2025-01-10T11:06:53Z</time>
      </trkpt>
      <trkpt lat="43.6529" lon="1.38077">
        <ele>139</ele>
        <time>2025-01-10T11:06:54Z</time>
      </trkpt>
      <trkpt lat="43.65292" lon="1.3808">
        <ele>139</ele>
        <time>2025-01-10T11:06:55Z</time>
      </trkpt>
      <trkpt lat="43.65293" lon="1.38082">
        <ele>139</ele>
        <time>2025-01-10T11:06:56Z</time>
      </trkpt>
      <trkpt lat="43.65295" lon="1.38085">
        <ele>139</ele>
        <time>2025-01-10T11:06:57Z</time>
      </trkpt>
      <trkpt lat="43.65295" lon="1.38087">
        <ele>139</ele>
        <time>2025-01-10T11:06:58Z</time>
      </trkpt>
      <trkpt lat="43.65296" lon="1.3809">
        <ele>139</ele>
        <time>2025-01-10T11:06:59Z</time>
      </trkpt>
      <trkpt lat="43.65297" lon="1.38092">
        <ele>139</ele>
        <time>2025-01-10T11:07:00Z</time>
      </trkpt>
      <trkpt lat="43.65297" lon="1.38095">
        <ele>139</ele>
        <time>2025-01-10T11:07:01Z</time>
      </trkpt>
      <trkpt lat="43.65298" lon="1.38098">
        <ele>139</ele>
        <time>2025-01-10T11:07:02Z</time>
      </trkpt>
      <trkpt lat="43.65297" lon="1.381">
        <ele>139</ele>
        <time>2025-01-10T11:07:03Z</time>
      </trkpt>
      <trkpt lat="43.65297" lon="1.38103">
        <ele>139</ele>
        <time>2025-01-10T11:07:04Z</time>
      </trkpt>
      <trkpt lat="43.65296" lon="1.38106">
        <ele>139</ele>
        <time>2025-01-10T11:07:05Z</time>
      </trkpt>
      <trkpt lat="43.65296" lon="1.38108">
        <ele>139</ele>
        <time>2025-01-10T11:07:06Z</time>
      </trkpt>
      <trkpt lat="43.65295" lon="1.38111">
        <ele>139</ele>
        <time>2025-01-10T11:07:07Z</time>
      </trkpt>
      <trkpt lat="43.65296" lon="1.38114">
        <ele>139</ele>
        <time>2025-01-10T11:07:08Z</time>
      </trkpt>
      <trkpt lat="43.65296" lon="1.38117">
        <ele>139</ele>
        <time>2025-01-10T11:07:09Z</time>
      </trkpt>
      <trkpt lat="43.65296" lon="1.3812">
        <ele>139</ele>
        <time>2025-01-10T11:07:10Z</time>
      </trkpt>
      <trkpt lat="43.65296" lon="1.38123">
        <ele>139</ele>
        <time>2025-01-10T11:07:11Z</time>
      </trkpt>
      <trkpt lat="43.65296" lon="1.38126">
        <ele>139</ele>
        <time>2025-01-10T11:07:12Z</time>
      </trkpt>
      <trkpt lat="43.65296" lon="1.38129">
        <ele>139</ele>
        <time>2025-01-10T11:07:13Z</time>
      </trkpt>
      <trkpt lat="43.65297" lon="1.38132">
        <ele>139</ele>
        <time>2025-01-10T11:07:14Z</time>
      </trkpt>
      <trkpt lat="43.65297" lon="1.38135">
        <ele>139</ele>
        <time>2025-01-10T11:07:15Z</time>
      </trkpt>
      <trkpt lat="43.65298" lon="1.38139">
        <ele>139</ele>
        <time>2025-01-10T11:07:16Z</time>
      </trkpt>
      <trkpt lat="43.65299" lon="1.38143">
        <ele>138</ele>
        <time>2025-01-10T11:07:17Z</time>
      </trkpt>
      <trkpt lat="43.653" lon="1.38147">
        <ele>138</ele>
        <time>2025-01-10T11:07:18Z</time>
      </trkpt>
      <trkpt lat="43.65301" lon="1.38151">
        <ele>138</ele>
        <time>2025-01-10T11:07:19Z</time>
      </trkpt>
      <trkpt lat="43.65301" lon="1.38154">
        <ele>138</ele>
        <time>2025-01-10T11:07:20Z</time>
      </trkpt>
      <trkpt lat="43.65301" lon="1.38156">
        <ele>138</ele>
        <time>2025-01-10T11:07:21Z</time>
      </trkpt>
      <trkpt lat="43.65302" lon="1.38159">
        <ele>138</ele>
        <time>2025-01-10T11:07:22Z</time>
      </trkpt>
      <trkpt lat="43.65302" lon="1.38161">
        <ele>138</ele>
        <time>2025-01-10T11:07:23Z</time>
      </trkpt>
      <trkpt lat="43.65302" lon="1.38164">
        <ele>138</ele>
        <time>2025-01-10T11:07:24Z</time>
      </trkpt>
      <trkpt lat="43.65303" lon="1.38166">
        <ele>138</ele>
        <time>2025-01-10T11:07:25Z</time>
      </trkpt>
      <trkpt lat="43.65304" lon="1.38169">
        <ele>138</ele>
        <time>2025-01-10T11:07:26Z</time>
      </trkpt>
      <trkpt lat="43.65304" lon="1.38171">
        <ele>138</ele>
        <time>2025-01-10T11:07:27Z</time>
      </trkpt>
      <trkpt lat="43.65305" lon="1.38174">
        <ele>138</ele>
        <time>2025-01-10T11:07:28Z</time>
      </trkpt>
      <trkpt lat="43.65306" lon="1.38177">
        <ele>138</ele>
        <time>2025-01-10T11:07:29Z</time>
      </trkpt>
      <trkpt lat="43.65306" lon="1.3818">
        <ele>138</ele>
        <time>2025-01-10T11:07:30Z</time>
      </trkpt>
      <trkpt lat="43.65307" lon="1.38184">
        <ele>138</ele>
        <time>2025-01-10T11:07:31Z</time>
      </trkpt>
      <trkpt lat="43.65308" lon="1.38187">
        <ele>138</ele>
        <time>2025-01-10T11:07:32Z</time>
      </trkpt>
      <trkpt lat="43.65309" lon="1.38191">
        <ele>138</ele>
        <time>2025-01-10T11:07:33Z</time>
      </trkpt>
      <trkpt lat="43.65309" lon="1.38193">
        <ele>138</ele>
        <time>2025-01-10T11:07:34Z</time>
      </trkpt>
      <trkpt lat="43.65309" lon="1.38194">
        <ele>138</ele>
        <time>2025-01-10T11:07:35Z</time>
      </trkpt>
      <trkpt lat="43.65309" lon="1.38196">
        <ele>139</ele>
        <time>2025-01-10T11:07:36Z</time>
      </trkpt>
      <trkpt lat="43.65309" lon="1.38197">
        <ele>139</ele>
        <time>2025-01-10T11:07:37Z</time>
      </trkpt>
      <trkpt lat="43.65309" lon="1.38199">
        <ele>139</ele>
        <time>2025-01-10T11:07:38Z</time>
      </trkpt>
      <trkpt lat="43.6531" lon="1.38209">
        <ele>138</ele>
        <time>2025-01-10T11:07:39Z</time>
      </trkpt>
      <trkpt lat="43.6531" lon="1.38212">
        <ele>138</ele>
        <time>2025-01-10T11:07:40Z</time>
      </trkpt>
      <trkpt lat="43.65311" lon="1.38215">
        <ele>138</ele>
        <time>2025-01-10T11:07:41Z</time>
      </trkpt>
      <trkpt lat="43.65311" lon="1.38218">
        <ele>138</ele>
        <time>2025-01-10T11:07:42Z</time>
      </trkpt>
      <trkpt lat="43.65311" lon="1.3822">
        <ele>138</ele>
        <time>2025-01-10T11:07:43Z</time>
      </trkpt>
      <trkpt lat="43.65312" lon="1.38223">
        <ele>138</ele>
        <time>2025-01-10T11:07:44Z</time>
      </trkpt>
      <trkpt lat="43.65313" lon="1.38225">
        <ele>138</ele>
        <time>2025-01-10T11:07:45Z</time>
      </trkpt>
      <trkpt lat="43.65313" lon="1.38228">
        <ele>139</ele>
        <time>2025-01-10T11:07:46Z</time>
      </trkpt>
      <trkpt lat="43.65314" lon="1.3823">
        <ele>139</ele>
        <time>2025-01-10T11:07:47Z</time>
      </trkpt>
      <trkpt lat="43.65314" lon="1.38232">
        <ele>139</ele>
        <time>2025-01-10T11:07:48Z</time>
      </trkpt>
      <trkpt lat="43.65315" lon="1.38236">
        <ele>139</ele>
        <time>2025-01-10T11:07:49Z</time>
      </trkpt>
      <trkpt lat="43.65315" lon="1.38239">
        <ele>139</ele>
        <time>2025-01-10T11:07:50Z</time>
      </trkpt>
      <trkpt lat="43.65316" lon="1.38242">
        <ele>139</ele>
        <time>2025-01-10T11:07:51Z</time>
      </trkpt>
      <trkpt lat="43.65317" lon="1.38246">
        <ele>139</ele>
        <time>2025-01-10T11:07:52Z</time>
      </trkpt>
      <trkpt lat="43.65317" lon="1.38248">
        <ele>139</ele>
        <time>2025-01-10T11:07:53Z</time>
      </trkpt>
      <trkpt lat="43.65318" lon="1.3825">
        <ele>139</ele>
        <time>2025-01-10T11:07:54Z</time>
      </trkpt>
      <trkpt lat="43.65318" lon="1.38252">
        <ele>139</ele>
        <time>2025-01-10T11:07:55Z</time>
      </trkpt>
      <trkpt lat="43.65319" lon="1.38254">
        <ele>139</ele>
        <time>2025-01-10T11:07:56Z</time>
      </trkpt>
      <trkpt lat="43.6532" lon="1.38256">
        <ele>139</ele>
        <time>2025-01-10T11:07:57Z</time>
      </trkpt>
      <trkpt lat="43.6532" lon="1.38259">
        <ele>139</ele>
        <time>2025-01-10T11:07:58Z</time>
      </trkpt>
      <trkpt lat="43.65322" lon="1.38262">
        <ele>139</ele>
        <time>2025-01-10T11:07:59Z</time>
      </trkpt>
      <trkpt lat="43.65323" lon="1.38266">
        <ele>139</ele>
        <time>2025-01-10T11:08:00Z</time>
      </trkpt>
      <trkpt lat="43.65325" lon="1.3827">
        <ele>139</ele>
        <time>2025-01-10T11:08:01Z</time>
      </trkpt>
      <trkpt lat="43.65325" lon="1.38271">
        <ele>139</ele>
        <time>2025-01-10T11:08:02Z</time>
      </trkpt>
      <trkpt lat="43.65326" lon="1.38272">
        <ele>139</ele>
        <time>2025-01-10T11:08:03Z</time>
      </trkpt>
      <trkpt lat="43.65326" lon="1.38273">
        <ele>139</ele>
        <time>2025-01-10T11:08:04Z</time>
      </trkpt>
      <trkpt lat="43.65327" lon="1.38275">
        <ele>139</ele>
        <time>2025-01-10T11:08:05Z</time>
      </trkpt>
      <trkpt lat="43.65327" lon="1.38276">
        <ele>139</ele>
        <time>2025-01-10T11:08:06Z</time>
      </trkpt>
      <trkpt lat="43.65328" lon="1.38277">
        <ele>139</ele>
        <time>2025-01-10T11:08:07Z</time>
      </trkpt>
      <trkpt lat="43.65331" lon="1.38286">
        <ele>139</ele>
        <time>2025-01-10T11:08:08Z</time>
      </trkpt>
      <trkpt lat="43.65332" lon="1.38289">
        <ele>139</ele>
        <time>2025-01-10T11:08:09Z</time>
      </trkpt>
      <trkpt lat="43.65333" lon="1.38292">
        <ele>139</ele>
        <time>2025-01-10T11:08:10Z</time>
      </trkpt>
      <trkpt lat="43.65334" lon="1.38294">
        <ele>139</ele>
        <time>2025-01-10T11:08:11Z</time>
      </trkpt>
      <trkpt lat="43.65334" lon="1.38297">
        <ele>139</ele>
        <time>2025-01-10T11:08:12Z</time>
      </trkpt>
      <trkpt lat="43.65335" lon="1.38298">
        <ele>139</ele>
        <time>2025-01-10T11:08:13Z</time>
      </trkpt>
      <trkpt lat="43.65335" lon="1.383">
        <ele>139</ele>
        <time>2025-01-10T11:08:14Z</time>
      </trkpt>
      <trkpt lat="43.65335" lon="1.38302">
        <ele>139</ele>
        <time>2025-01-10T11:08:15Z</time>
      </trkpt>
      <trkpt lat="43.65336" lon="1.38304">
        <ele>139</ele>
        <time>2025-01-10T11:08:16Z</time>
      </trkpt>
      <trkpt lat="43.65338" lon="1.38314">
        <ele>139</ele>
        <time>2025-01-10T11:08:17Z</time>
      </trkpt>
      <trkpt lat="43.65339" lon="1.38316">
        <ele>139</ele>
        <time>2025-01-10T11:08:18Z</time>
      </trkpt>
      <trkpt lat="43.6534" lon="1.38318">
        <ele>139</ele>
        <time>2025-01-10T11:08:19Z</time>
      </trkpt>
      <trkpt lat="43.65341" lon="1.3832">
        <ele>139</ele>
        <time>2025-01-10T11:08:20Z</time>
      </trkpt>
      <trkpt lat="43.65342" lon="1.38322">
        <ele>139</ele>
        <time>2025-01-10T11:08:21Z</time>
      </trkpt>
      <trkpt lat="43.65343" lon="1.38324">
        <ele>139</ele>
        <time>2025-01-10T11:08:22Z</time>
      </trkpt>
      <trkpt lat="43.65343" lon="1.38324">
        <ele>140</ele>
        <time>2025-01-10T11:08:23Z</time>
      </trkpt>
      <trkpt lat="43.65343" lon="1.38324">
        <ele>140</ele>
        <time>2025-01-10T11:08:24Z</time>
      </trkpt>
      <trkpt lat="43.65343" lon="1.38324">
        <ele>140</ele>
        <time>2025-01-10T11:08:25Z</time>
      </trkpt>
      <trkpt lat="43.65343" lon="1.38324">
        <ele>140</ele>
        <time>2025-01-10T11:08:26Z</time>
      </trkpt>
      <trkpt lat="43.65354" lon="1.38331">
        <ele>140</ele>
        <time>2025-01-10T11:08:28Z</time>
      </trkpt>
      <trkpt lat="43.65355" lon="1.38331">
        <ele>140</ele>
        <time>2025-01-10T11:08:29Z</time>
      </trkpt>
      <trkpt lat="43.65356" lon="1.38332">
        <ele>140</ele>
        <time>2025-01-10T11:08:30Z</time>
      </trkpt>
      <trkpt lat="43.65358" lon="1.38332">
        <ele>140</ele>
        <time>2025-01-10T11:08:31Z</time>
      </trkpt>
      <trkpt lat="43.65359" lon="1.38332">
        <ele>140</ele>
        <time>2025-01-10T11:08:32Z</time>
      </trkpt>
      <trkpt lat="43.6536" lon="1.38333">
        <ele>140</ele>
        <time>2025-01-10T11:08:33Z</time>
      </trkpt>
      <trkpt lat="43.65367" lon="1.38335">
        <ele>139</ele>
        <time>2025-01-10T11:08:34Z</time>
      </trkpt>
      <trkpt lat="43.65369" lon="1.38335">
        <ele>139</ele>
        <time>2025-01-10T11:08:35Z</time>
      </trkpt>
      <trkpt lat="43.65371" lon="1.38335">
        <ele>139</ele>
        <time>2025-01-10T11:08:36Z</time>
      </trkpt>
      <trkpt lat="43.65373" lon="1.38335">
        <ele>139</ele>
        <time>2025-01-10T11:08:37Z</time>
      </trkpt>
      <trkpt lat="43.65375" lon="1.38334">
        <ele>139</ele>
        <time>2025-01-10T11:08:38Z</time>
      </trkpt>
      <trkpt lat="43.65375" lon="1.38334">
        <ele>139</ele>
        <time>2025-01-10T11:08:39Z</time>
      </trkpt>
      <trkpt lat="43.65376" lon="1.38333">
        <ele>139</ele>
        <time>2025-01-10T11:08:40Z</time>
      </trkpt>
      <trkpt lat="43.65377" lon="1.38332">
        <ele>139</ele>
        <time>2025-01-10T11:08:41Z</time>
      </trkpt>
      <trkpt lat="43.65378" lon="1.38331">
        <ele>139</ele>
        <time>2025-01-10T11:08:42Z</time>
      </trkpt>
      <trkpt lat="43.65379" lon="1.38331">
        <ele>139</ele>
        <time>2025-01-10T11:08:43Z</time>
      </trkpt>
      <trkpt lat="43.65386" lon="1.38325">
        <ele>139</ele>
        <time>2025-01-10T11:08:44Z</time>
      </trkpt>
      <trkpt lat="43.65387" lon="1.38323">
        <ele>139</ele>
        <time>2025-01-10T11:08:45Z</time>
      </trkpt>
      <trkpt lat="43.65389" lon="1.38322">
        <ele>139</ele>
        <time>2025-01-10T11:08:46Z</time>
      </trkpt>
      <trkpt lat="43.65391" lon="1.3832">
        <ele>139</ele>
        <time>2025-01-10T11:08:47Z</time>
      </trkpt>
      <trkpt lat="43.65393" lon="1.38318">
        <ele>139</ele>
        <time>2025-01-10T11:08:48Z</time>
      </trkpt>
      <trkpt lat="43.65394" lon="1.38317">
        <ele>139</ele>
        <time>2025-01-10T11:08:49Z</time>
      </trkpt>
      <trkpt lat="43.65396" lon="1.38316">
        <ele>139</ele>
        <time>2025-01-10T11:08:50Z</time>
      </trkpt>
      <trkpt lat="43.65397" lon="1.38314">
        <ele>139</ele>
        <time>2025-01-10T11:08:51Z</time>
      </trkpt>
      <trkpt lat="43.65399" lon="1.38313">
        <ele>139</ele>
        <time>2025-01-10T11:08:52Z</time>
      </trkpt>
      <trkpt lat="43.654" lon="1.38311">
        <ele>139</ele>
        <time>2025-01-10T11:08:53Z</time>
      </trkpt>
      <trkpt lat="43.65402" lon="1.38311">
        <ele>139</ele>
        <time>2025-01-10T11:08:54Z</time>
      </trkpt>
      <trkpt lat="43.65403" lon="1.3831">
        <ele>139</ele>
        <time>2025-01-10T11:08:55Z</time>
      </trkpt>
      <trkpt lat="43.65404" lon="1.38309">
        <ele>139</ele>
        <time>2025-01-10T11:08:56Z</time>
      </trkpt>
      <trkpt lat="43.65405" lon="1.38308">
        <ele>139</ele>
        <time>2025-01-10T11:08:57Z</time>
      </trkpt>
      <trkpt lat="43.65412" lon="1.38304">
        <ele>139</ele>
        <time>2025-01-10T11:08:58Z</time>
      </trkpt>
      <trkpt lat="43.65413" lon="1.38303">
        <ele>139</ele>
        <time>2025-01-10T11:08:59Z</time>
      </trkpt>
      <trkpt lat="43.65415" lon="1.38302">
        <ele>139</ele>
        <time>2025-01-10T11:09:00Z</time>
      </trkpt>
      <trkpt lat="43.65416" lon="1.383">
        <ele>139</ele>
        <time>2025-01-10T11:09:01Z</time>
      </trkpt>
      <trkpt lat="43.65418" lon="1.38299">
        <ele>139</ele>
        <time>2025-01-10T11:09:02Z</time>
      </trkpt>
      <trkpt lat="43.65419" lon="1.38298">
        <ele>139</ele>
        <time>2025-01-10T11:09:03Z</time>
      </trkpt>
      <trkpt lat="43.65421" lon="1.38297">
        <ele>139</ele>
        <time>2025-01-10T11:09:04Z</time>
      </trkpt>
      <trkpt lat="43.65422" lon="1.38296">
        <ele>139</ele>
        <time>2025-01-10T11:09:05Z</time>
      </trkpt>
      <trkpt lat="43.65424" lon="1.38294">
        <ele>139</ele>
        <time>2025-01-10T11:09:06Z</time>
      </trkpt>
      <trkpt lat="43.65426" lon="1.38293">
        <ele>139</ele>
        <time>2025-01-10T11:09:07Z</time>
      </trkpt>
      <trkpt lat="43.65428" lon="1.38292">
        <ele>139</ele>
        <time>2025-01-10T11:09:08Z</time>
      </trkpt>
      <trkpt lat="43.6543" lon="1.38291">
        <ele>139</ele>
        <time>2025-01-10T11:09:09Z</time>
      </trkpt>
      <trkpt lat="43.65431" lon="1.3829">
        <ele>139</ele>
        <time>2025-01-10T11:09:10Z</time>
      </trkpt>
      <trkpt lat="43.65433" lon="1.38289">
        <ele>139</ele>
        <time>2025-01-10T11:09:11Z</time>
      </trkpt>
      <trkpt lat="43.65435" lon="1.38287">
        <ele>139</ele>
        <time>2025-01-10T11:09:12Z</time>
      </trkpt>
      <trkpt lat="43.65437" lon="1.38286">
        <ele>139</ele>
        <time>2025-01-10T11:09:13Z</time>
      </trkpt>
      <trkpt lat="43.65439" lon="1.38284">
        <ele>139</ele>
        <time>2025-01-10T11:09:14Z</time>
      </trkpt>
      <trkpt lat="43.65441" lon="1.38283">
        <ele>139</ele>
        <time>2025-01-10T11:09:15Z</time>
      </trkpt>
      <trkpt lat="43.65443" lon="1.38281">
        <ele>139</ele>
        <time>2025-01-10T11:09:16Z</time>
      </trkpt>
      <trkpt lat="43.65446" lon="1.38279">
        <ele>139</ele>
        <time>2025-01-10T11:09:17Z</time>
      </trkpt>
      <trkpt lat="43.65447" lon="1.38278">
        <ele>140</ele>
        <time>2025-01-10T11:09:18Z</time>
      </trkpt>
      <trkpt lat="43.65448" lon="1.38277">
        <ele>140</ele>
        <time>2025-01-10T11:09:19Z</time>
      </trkpt>
      <trkpt lat="43.6545" lon="1.38276">
        <ele>140</ele>
        <time>2025-01-10T11:09:20Z</time>
      </trkpt>
      <trkpt lat="43.65451" lon="1.38275">
        <ele>140</ele>
        <time>2025-01-10T11:09:21Z</time>
      </trkpt>
      <trkpt lat="43.65453" lon="1.38274">
        <ele>140</ele>
        <time>2025-01-10T11:09:22Z</time>
      </trkpt>
      <trkpt lat="43.65454" lon="1.38273">
        <ele>140</ele>
        <time>2025-01-10T11:09:23Z</time>
      </trkpt>
      <trkpt lat="43.65456" lon="1.38271">
        <ele>140</ele>
        <time>2025-01-10T11:09:24Z</time>
      </trkpt>
      <trkpt lat="43.65458" lon="1.3827">
        <ele>140</ele>
        <time>2025-01-10T11:09:25Z</time>
      </trkpt>
      <trkpt lat="43.6546" lon="1.38268">
        <ele>140</ele>
        <time>2025-01-10T11:09:26Z</time>
      </trkpt>
      <trkpt lat="43.65462" lon="1.38266">
        <ele>140</ele>
        <time>2025-01-10T11:09:27Z</time>
      </trkpt>
      <trkpt lat="43.65464" lon="1.38265">
        <ele>140</ele>
        <time>2025-01-10T11:09:28Z</time>
      </trkpt>
      <trkpt lat="43.65466" lon="1.38264">
        <ele>140</ele>
        <time>2025-01-10T11:09:29Z</time>
      </trkpt>
      <trkpt lat="43.65468" lon="1.38262">
        <ele>140</ele>
        <time>2025-01-10T11:09:30Z</time>
      </trkpt>
      <trkpt lat="43.6547" lon="1.38261">
        <ele>140</ele>
        <time>2025-01-10T11:09:31Z</time>
      </trkpt>
      <trkpt lat="43.65472" lon="1.3826">
        <ele>140</ele>
        <time>2025-01-10T11:09:32Z</time>
      </trkpt>
      <trkpt lat="43.65474" lon="1.38258">
        <ele>140</ele>
        <time>2025-01-10T11:09:33Z</time>
      </trkpt>
      <trkpt lat="43.65476" lon="1.38257">
        <ele>140</ele>
        <time>2025-01-10T11:09:34Z</time>
      </trkpt>
      <trkpt lat="43.65478" lon="1.38255">
        <ele>140</ele>
        <time>2025-01-10T11:09:35Z</time>
      </trkpt>
      <trkpt lat="43.6548" lon="1.38253">
        <ele>140</ele>
        <time>2025-01-10T11:09:36Z</time>
      </trkpt>
      <trkpt lat="43.65482" lon="1.38252">
        <ele>140</ele>
        <time>2025-01-10T11:09:37Z</time>
      </trkpt>
      <trkpt lat="43.65484" lon="1.3825">
        <ele>140</ele>
        <time>2025-01-10T11:09:38Z</time>
      </trkpt>
      <trkpt lat="43.65486" lon="1.38249">
        <ele>140</ele>
        <time>2025-01-10T11:09:39Z</time>
      </trkpt>
      <trkpt lat="43.65488" lon="1.38247">
        <ele>141</ele>
        <time>2025-01-10T11:09:40Z</time>
      </trkpt>
      <trkpt lat="43.6549" lon="1.38246">
        <ele>141</ele>
        <time>2025-01-10T11:09:41Z</time>
      </trkpt>
      <trkpt lat="43.65491" lon="1.38244">
        <ele>141</ele>
        <time>2025-01-10T11:09:42Z</time>
      </trkpt>
      <trkpt lat="43.65492" lon="1.38242">
        <ele>141</ele>
        <time>2025-01-10T11:09:43Z</time>
      </trkpt>
      <trkpt lat="43.65494" lon="1.3824">
        <ele>141</ele>
        <time>2025-01-10T11:09:44Z</time>
      </trkpt>
      <trkpt lat="43.655" lon="1.38234">
        <ele>141</ele>
        <time>2025-01-10T11:09:45Z</time>
      </trkpt>
      <trkpt lat="43.65501" lon="1.38233">
        <ele>141</ele>
        <time>2025-01-10T11:09:46Z</time>
      </trkpt>
      <trkpt lat="43.65503" lon="1.38232">
        <ele>141</ele>
        <time>2025-01-10T11:09:47Z</time>
      </trkpt>
      <trkpt lat="43.65505" lon="1.38232">
        <ele>141</ele>
        <time>2025-01-10T11:09:48Z</time>
      </trkpt>
      <trkpt lat="43.65506" lon="1.38231">
        <ele>141</ele>
        <time>2025-01-10T11:09:49Z</time>
      </trkpt>
      <trkpt lat="43.65508" lon="1.3823">
        <ele>141</ele>
        <time>2025-01-10T11:09:50Z</time>
      </trkpt>
      <trkpt lat="43.6551" lon="1.38229">
        <ele>141</ele>
        <time>2025-01-10T11:09:51Z</time>
      </trkpt>
      <trkpt lat="43.65512" lon="1.38229">
        <ele>141</ele>
        <time>2025-01-10T11:09:52Z</time>
      </trkpt>
      <trkpt lat="43.65514" lon="1.38228">
        <ele>141</ele>
        <time>2025-01-10T11:09:53Z</time>
      </trkpt>
      <trkpt lat="43.65516" lon="1.38228">
        <ele>141</ele>
        <time>2025-01-10T11:09:54Z</time>
      </trkpt>
      <trkpt lat="43.65518" lon="1.38227">
        <ele>140</ele>
        <time>2025-01-10T11:09:55Z</time>
      </trkpt>
      <trkpt lat="43.65519" lon="1.38229">
        <ele>140</ele>
        <time>2025-01-10T11:09:56Z</time>
      </trkpt>
      <trkpt lat="43.6552" lon="1.38231">
        <ele>140</ele>
        <time>2025-01-10T11:09:57Z</time>
      </trkpt>
      <trkpt lat="43.65521" lon="1.38234">
        <ele>140</ele>
        <time>2025-01-10T11:09:58Z</time>
      </trkpt>
      <trkpt lat="43.65522" lon="1.38236">
        <ele>140</ele>
        <time>2025-01-10T11:09:59Z</time>
      </trkpt>
      <trkpt lat="43.65523" lon="1.38238">
        <ele>140</ele>
        <time>2025-01-10T11:10:00Z</time>
      </trkpt>
      <trkpt lat="43.65524" lon="1.38241">
        <ele>140</ele>
        <time>2025-01-10T11:10:01Z</time>
      </trkpt>
      <trkpt lat="43.65525" lon="1.38245">
        <ele>140</ele>
        <time>2025-01-10T11:10:02Z</time>
      </trkpt>
      <trkpt lat="43.65526" lon="1.38248">
        <ele>140</ele>
        <time>2025-01-10T11:10:03Z</time>
      </trkpt>
      <trkpt lat="43.65527" lon="1.38251">
        <ele>140</ele>
        <time>2025-01-10T11:10:04Z</time>
      </trkpt>
      <trkpt lat="43.65527" lon="1.38254">
        <ele>140</ele>
        <time>2025-01-10T11:10:05Z</time>
      </trkpt>
      <trkpt lat="43.65528" lon="1.38256">
        <ele>140</ele>
        <time>2025-01-10T11:10:06Z</time>
      </trkpt>
      <trkpt lat="43.65528" lon="1.38258">
        <ele>140</ele>
        <time>2025-01-10T11:10:07Z</time>
      </trkpt>
      <trkpt lat="43.65528" lon="1.38261">
        <ele>140</ele>
        <time>2025-01-10T11:10:08Z</time>
      </trkpt>
      <trkpt lat="43.65529" lon="1.38263">
        <ele>140</ele>
        <time>2025-01-10T11:10:09Z</time>
      </trkpt>
      <trkpt lat="43.65529" lon="1.38265">
        <ele>141</ele>
        <time>2025-01-10T11:10:10Z</time>
      </trkpt>
      <trkpt lat="43.6553" lon="1.38268">
        <ele>141</ele>
        <time>2025-01-10T11:10:11Z</time>
      </trkpt>
      <trkpt lat="43.65531" lon="1.38272">
        <ele>141</ele>
        <time>2025-01-10T11:10:12Z</time>
      </trkpt>
      <trkpt lat="43.65532" lon="1.38275">
        <ele>141</ele>
        <time>2025-01-10T11:10:13Z</time>
      </trkpt>
      <trkpt lat="43.65533" lon="1.38278">
        <ele>141</ele>
        <time>2025-01-10T11:10:14Z</time>
      </trkpt>
      <trkpt lat="43.65534" lon="1.38281">
        <ele>141</ele>
        <time>2025-01-10T11:10:15Z</time>
      </trkpt>
      <trkpt lat="43.65534" lon="1.38284">
        <ele>141</ele>
        <time>2025-01-10T11:10:16Z</time>
      </trkpt>
      <trkpt lat="43.65535" lon="1.38287">
        <ele>141</ele>
        <time>2025-01-10T11:10:17Z</time>
      </trkpt>
      <trkpt lat="43.65536" lon="1.38289">
        <ele>140</ele>
        <time>2025-01-10T11:10:18Z</time>
      </trkpt>
      <trkpt lat="43.65536" lon="1.38292">
        <ele>140</ele>
        <time>2025-01-10T11:10:19Z</time>
      </trkpt>
      <trkpt lat="43.65537" lon="1.38297">
        <ele>140</ele>
        <time>2025-01-10T11:10:20Z</time>
      </trkpt>
      <trkpt lat="43.65537" lon="1.38301">
        <ele>140</ele>
        <time>2025-01-10T11:10:22Z</time>
      </trkpt>
      <trkpt lat="43.65538" lon="1.38306">
        <ele>140</ele>
        <time>2025-01-10T11:10:23Z</time>
      </trkpt>
      <trkpt lat="43.65536" lon="1.38308">
        <ele>139</ele>
        <time>2025-01-10T11:10:24Z</time>
      </trkpt>
      <trkpt lat="43.65534" lon="1.3831">
        <ele>139</ele>
        <time>2025-01-10T11:10:25Z</time>
      </trkpt>
      <trkpt lat="43.65532" lon="1.38313">
        <ele>139</ele>
        <time>2025-01-10T11:10:26Z</time>
      </trkpt>
      <trkpt lat="43.6553" lon="1.38315">
        <ele>139</ele>
        <time>2025-01-10T11:10:27Z</time>
      </trkpt>
      <trkpt lat="43.65527" lon="1.38317">
        <ele>139</ele>
        <time>2025-01-10T11:10:28Z</time>
      </trkpt>
      <trkpt lat="43.65524" lon="1.38319">
        <ele>139</ele>
        <time>2025-01-10T11:10:29Z</time>
      </trkpt>
      <trkpt lat="43.65521" lon="1.3832">
        <ele>139</ele>
        <time>2025-01-10T11:10:30Z</time>
      </trkpt>
      <trkpt lat="43.65517" lon="1.38324">
        <ele>139</ele>
        <time>2025-01-10T11:10:31Z</time>
      </trkpt>
      <trkpt lat="43.65514" lon="1.38328">
        <ele>139</ele>
        <time>2025-01-10T11:10:32Z</time>
      </trkpt>
      <trkpt lat="43.65513" lon="1.38328">
        <ele>139</ele>
        <time>2025-01-10T11:10:33Z</time>
      </trkpt>
      <trkpt lat="43.65511" lon="1.38329">
        <ele>139</ele>
        <time>2025-01-10T11:10:34Z</time>
      </trkpt>
      <trkpt lat="43.6551" lon="1.3833">
        <ele>139</ele>
        <time>2025-01-10T11:10:35Z</time>
      </trkpt>
      <trkpt lat="43.65509" lon="1.3833">
        <ele>139</ele>
        <time>2025-01-10T11:10:36Z</time>
      </trkpt>
      <trkpt lat="43.655" lon="1.38334">
        <ele>139</ele>
        <time>2025-01-10T11:10:37Z</time>
      </trkpt>
      <trkpt lat="43.65498" lon="1.38336">
        <ele>139</ele>
        <time>2025-01-10T11:10:38Z</time>
      </trkpt>
      <trkpt lat="43.65495" lon="1.38337">
        <ele>139</ele>
        <time>2025-01-10T11:10:39Z</time>
      </trkpt>
      <trkpt lat="43.65493" lon="1.38339">
        <ele>139</ele>
        <time>2025-01-10T11:10:40Z</time>
      </trkpt>
      <trkpt lat="43.6549" lon="1.38341">
        <ele>139</ele>
        <time>2025-01-10T11:10:41Z</time>
      </trkpt>
      <trkpt lat="43.65488" lon="1.38342">
        <ele>139</ele>
        <time>2025-01-10T11:10:42Z</time>
      </trkpt>
      <trkpt lat="43.65486" lon="1.38344">
        <ele>139</ele>
        <time>2025-01-10T11:10:43Z</time>
      </trkpt>
      <trkpt lat="43.65484" lon="1.38346">
        <ele>139</ele>
        <time>2025-01-10T11:10:44Z</time>
      </trkpt>
      <trkpt lat="43.65483" lon="1.38347">
        <ele>139</ele>
        <time>2025-01-10T11:10:45Z</time>
      </trkpt>
      <trkpt lat="43.65481" lon="1.38349">
        <ele>139</ele>
        <time>2025-01-10T11:10:46Z</time>
      </trkpt>
      <trkpt lat="43.65479" lon="1.38351">
        <ele>139</ele>
        <time>2025-01-10T11:10:47Z</time>
      </trkpt>
      <trkpt lat="43.65477" lon="1.38352">
        <ele>139</ele>
        <time>2025-01-10T11:10:48Z</time>
      </trkpt>
      <trkpt lat="43.65475" lon="1.38355">
        <ele>139</ele>
        <time>2025-01-10T11:10:49Z</time>
      </trkpt>
      <trkpt lat="43.65473" lon="1.38357">
        <ele>139</ele>
        <time>2025-01-10T11:10:50Z</time>
      </trkpt>
      <trkpt lat="43.65471" lon="1.38359">
        <ele>139</ele>
        <time>2025-01-10T11:10:51Z</time>
      </trkpt>
      <trkpt lat="43.65468" lon="1.38361">
        <ele>139</ele>
        <time>2025-01-10T11:10:52Z</time>
      </trkpt>
      <trkpt lat="43.65466" lon="1.38364">
        <ele>139</ele>
        <time>2025-01-10T11:10:53Z</time>
      </trkpt>
      <trkpt lat="43.65464" lon="1.38366">
        <ele>139</ele>
        <time>2025-01-10T11:10:54Z</time>
      </trkpt>
      <trkpt lat="43.65462" lon="1.38368">
        <ele>139</ele>
        <time>2025-01-10T11:10:55Z</time>
      </trkpt>
      <trkpt lat="43.6546" lon="1.38371">
        <ele>139</ele>
        <time>2025-01-10T11:10:56Z</time>
      </trkpt>
      <trkpt lat="43.65458" lon="1.38372">
        <ele>138</ele>
        <time>2025-01-10T11:10:57Z</time>
      </trkpt>
      <trkpt lat="43.65456" lon="1.38373">
        <ele>138</ele>
        <time>2025-01-10T11:10:58Z</time>
      </trkpt>
      <trkpt lat="43.65454" lon="1.38374">
        <ele>138</ele>
        <time>2025-01-10T11:10:59Z</time>
      </trkpt>
      <trkpt lat="43.65448" lon="1.3838">
        <ele>138</ele>
        <time>2025-01-10T11:11:00Z</time>
      </trkpt>
      <trkpt lat="43.65447" lon="1.38381">
        <ele>138</ele>
        <time>2025-01-10T11:11:01Z</time>
      </trkpt>
      <trkpt lat="43.65445" lon="1.38383">
        <ele>138</ele>
        <time>2025-01-10T11:11:02Z</time>
      </trkpt>
      <trkpt lat="43.65444" lon="1.38385">
        <ele>138</ele>
        <time>2025-01-10T11:11:03Z</time>
      </trkpt>
      <trkpt lat="43.65443" lon="1.38387">
        <ele>139</ele>
        <time>2025-01-10T11:11:04Z</time>
      </trkpt>
      <trkpt lat="43.65442" lon="1.3839">
        <ele>139</ele>
        <time>2025-01-10T11:11:05Z</time>
      </trkpt>
      <trkpt lat="43.65441" lon="1.38393">
        <ele>138</ele>
        <time>2025-01-10T11:11:06Z</time>
      </trkpt>
      <trkpt lat="43.65441" lon="1.38396">
        <ele>138</ele>
        <time>2025-01-10T11:11:07Z</time>
      </trkpt>
      <trkpt lat="43.6544" lon="1.38399">
        <ele>138</ele>
        <time>2025-01-10T11:11:08Z</time>
      </trkpt>
      <trkpt lat="43.6544" lon="1.38402">
        <ele>138</ele>
        <time>2025-01-10T11:11:09Z</time>
      </trkpt>
      <trkpt lat="43.65439" lon="1.38405">
        <ele>138</ele>
        <time>2025-01-10T11:11:10Z</time>
      </trkpt>
      <trkpt lat="43.65439" lon="1.38407">
        <ele>138</ele>
        <time>2025-01-10T11:11:11Z</time>
      </trkpt>
      <trkpt lat="43.65439" lon="1.3841">
        <ele>138</ele>
        <time>2025-01-10T11:11:12Z</time>
      </trkpt>
      <trkpt lat="43.65439" lon="1.38413">
        <ele>138</ele>
        <time>2025-01-10T11:11:13Z</time>
      </trkpt>
      <trkpt lat="43.65439" lon="1.38413">
        <ele>138</ele>
        <time>2025-01-10T11:11:14Z</time>
      </trkpt>
      <trkpt lat="43.65439" lon="1.38413">
        <ele>138</ele>
        <time>2025-01-10T11:11:15Z</time>
      </trkpt>
      <trkpt lat="43.65439" lon="1.38413">
        <ele>138</ele>
        <time>2025-01-10T11:11:16Z</time>
      </trkpt>
      <trkpt lat="43.6544" lon="1.38425">
        <ele>138</ele>
        <time>2025-01-10T11:11:17Z</time>
      </trkpt>
      <trkpt lat="43.6544" lon="1.38425">
        <ele>138</ele>
        <time>2025-01-10T11:11:19Z</time>
      </trkpt>
      <trkpt lat="43.6544" lon="1.38429">
        <ele>138</ele>
        <time>2025-01-10T11:11:20Z</time>
      </trkpt>
      <trkpt lat="43.65441" lon="1.38432">
        <ele>137</ele>
        <time>2025-01-10T11:11:21Z</time>
      </trkpt>
      <trkpt lat="43.65441" lon="1.38436">
        <ele>137</ele>
        <time>2025-01-10T11:11:22Z</time>
      </trkpt>
      <trkpt lat="43.65442" lon="1.38439">
        <ele>137</ele>
        <time>2025-01-10T11:11:23Z</time>
      </trkpt>
      <trkpt lat="43.65442" lon="1.38442">
        <ele>137</ele>
        <time>2025-01-10T11:11:24Z</time>
      </trkpt>
      <trkpt lat="43.65443" lon="1.38445">
        <ele>137</ele>
        <time>2025-01-10T11:11:25Z</time>
      </trkpt>
      <trkpt lat="43.65443" lon="1.38448">
        <ele>137</ele>
        <time>2025-01-10T11:11:26Z</time>
      </trkpt>
      <trkpt lat="43.65443" lon="1.38451">
        <ele>137</ele>
        <time>2025-01-10T11:11:27Z</time>
      </trkpt>
      <trkpt lat="43.65444" lon="1.38454">
        <ele>137</ele>
        <time>2025-01-10T11:11:28Z</time>
      </trkpt>
      <trkpt lat="43.65444" lon="1.38457">
        <ele>137</ele>
        <time>2025-01-10T11:11:29Z</time>
      </trkpt>
      <trkpt lat="43.65445" lon="1.3846">
        <ele>137</ele>
        <time>2025-01-10T11:11:30Z</time>
      </trkpt>
      <trkpt lat="43.65445" lon="1.38464">
        <ele>137</ele>
        <time>2025-01-10T11:11:31Z</time>
      </trkpt>
      <trkpt lat="43.65446" lon="1.38467">
        <ele>137</ele>
        <time>2025-01-10T11:11:32Z</time>
      </trkpt>
      <trkpt lat="43.65446" lon="1.38469">
        <ele>137</ele>
        <time>2025-01-10T11:11:33Z</time>
      </trkpt>
      <trkpt lat="43.65446" lon="1.38472">
        <ele>137</ele>
        <time>2025-01-10T11:11:34Z</time>
      </trkpt>
      <trkpt lat="43.65447" lon="1.38474">
        <ele>137</ele>
        <time>2025-01-10T11:11:35Z</time>
      </trkpt>
      <trkpt lat="43.65447" lon="1.38477">
        <ele>137</ele>
        <time>2025-01-10T11:11:36Z</time>
      </trkpt>
      <trkpt lat="43.65447" lon="1.3848">
        <ele>137</ele>
        <time>2025-01-10T11:11:37Z</time>
      </trkpt>
      <trkpt lat="43.65447" lon="1.38483">
        <ele>137</ele>
        <time>2025-01-10T11:11:38Z</time>
      </trkpt>
      <trkpt lat="43.65448" lon="1.38487">
        <ele>137</ele>
        <time>2025-01-10T11:11:39Z</time>
      </trkpt>
      <trkpt lat="43.65448" lon="1.3849">
        <ele>137</ele>
        <time>2025-01-10T11:11:40Z</time>
      </trkpt>
      <trkpt lat="43.65449" lon="1.38494">
        <ele>137</ele>
        <time>2025-01-10T11:11:41Z</time>
      </trkpt>
      <trkpt lat="43.65449" lon="1.38496">
        <ele>137</ele>
        <time>2025-01-10T11:11:42Z</time>
      </trkpt>
      <trkpt lat="43.65449" lon="1.38499">
        <ele>137</ele>
        <time>2025-01-10T11:11:43Z</time>
      </trkpt>
      <trkpt lat="43.65449" lon="1.38502">
        <ele>137</ele>
        <time>2025-01-10T11:11:44Z</time>
      </trkpt>
      <trkpt lat="43.6545" lon="1.38504">
        <ele>137</ele>
        <time>2025-01-10T11:11:45Z</time>
      </trkpt>
      <trkpt lat="43.6545" lon="1.38507">
        <ele>137</ele>
        <time>2025-01-10T11:11:46Z</time>
      </trkpt>
      <trkpt lat="43.6545" lon="1.3851">
        <ele>137</ele>
        <time>2025-01-10T11:11:47Z</time>
      </trkpt>
      <trkpt lat="43.6545" lon="1.38513">
        <ele>137</ele>
        <time>2025-01-10T11:11:48Z</time>
      </trkpt>
      <trkpt lat="43.6545" lon="1.38517">
        <ele>137</ele>
        <time>2025-01-10T11:11:49Z</time>
      </trkpt>
      <trkpt lat="43.6545" lon="1.3852">
        <ele>137</ele>
        <time>2025-01-10T11:11:50Z</time>
      </trkpt>
      <trkpt lat="43.6545" lon="1.38523">
        <ele>137</ele>
        <time>2025-01-10T11:11:51Z</time>
      </trkpt>
      <trkpt lat="43.6545" lon="1.38525">
        <ele>137</ele>
        <time>2025-01-10T11:11:52Z</time>
      </trkpt>
      <trkpt lat="43.6545" lon="1.38526">
        <ele>137</ele>
        <time>2025-01-10T11:11:53Z</time>
      </trkpt>
      <trkpt lat="43.6545" lon="1.38528">
        <ele>137</ele>
        <time>2025-01-10T11:11:54Z</time>
      </trkpt>
      <trkpt lat="43.6545" lon="1.3853">
        <ele>137</ele>
        <time>2025-01-10T11:11:55Z</time>
      </trkpt>
      <trkpt lat="43.65451" lon="1.3854">
        <ele>137</ele>
        <time>2025-01-10T11:11:56Z</time>
      </trkpt>
      <trkpt lat="43.65451" lon="1.38543">
        <ele>137</ele>
        <time>2025-01-10T11:11:57Z</time>
      </trkpt>
      <trkpt lat="43.65451" lon="1.38545">
        <ele>137</ele>
        <time>2025-01-10T11:11:58Z</time>
      </trkpt>
      <trkpt lat="43.65451" lon="1.38548">
        <ele>137</ele>
        <time>2025-01-10T11:11:59Z</time>
      </trkpt>
      <trkpt lat="43.65452" lon="1.38551">
        <ele>137</ele>
        <time>2025-01-10T11:12:00Z</time>
      </trkpt>
      <trkpt lat="43.65453" lon="1.38555">
        <ele>137</ele>
        <time>2025-01-10T11:12:01Z</time>
      </trkpt>
      <trkpt lat="43.65455" lon="1.38559">
        <ele>137</ele>
        <time>2025-01-10T11:12:02Z</time>
      </trkpt>
      <trkpt lat="43.65456" lon="1.38563">
        <ele>137</ele>
        <time>2025-01-10T11:12:03Z</time>
      </trkpt>
      <trkpt lat="43.65457" lon="1.38565">
        <ele>137</ele>
        <time>2025-01-10T11:12:04Z</time>
      </trkpt>
      <trkpt lat="43.65459" lon="1.38568">
        <ele>137</ele>
        <time>2025-01-10T11:12:05Z</time>
      </trkpt>
      <trkpt lat="43.6546" lon="1.38571">
        <ele>137</ele>
        <time>2025-01-10T11:12:06Z</time>
      </trkpt>
      <trkpt lat="43.65461" lon="1.38574">
        <ele>136</ele>
        <time>2025-01-10T11:12:07Z</time>
      </trkpt>
      <trkpt lat="43.65462" lon="1.38576">
        <ele>136</ele>
        <time>2025-01-10T11:12:08Z</time>
      </trkpt>
      <trkpt lat="43.65463" lon="1.38577">
        <ele>136</ele>
        <time>2025-01-10T11:12:09Z</time>
      </trkpt>
      <trkpt lat="43.65464" lon="1.38579">
        <ele>136</ele>
        <time>2025-01-10T11:12:10Z</time>
      </trkpt>
      <trkpt lat="43.65464" lon="1.3858">
        <ele>135</ele>
        <time>2025-01-10T11:12:11Z</time>
      </trkpt>
      <trkpt lat="43.65468" lon="1.38589">
        <ele>135</ele>
        <time>2025-01-10T11:12:12Z</time>
      </trkpt>
      <trkpt lat="43.65469" lon="1.38592">
        <ele>135</ele>
        <time>2025-01-10T11:12:13Z</time>
      </trkpt>
      <trkpt lat="43.6547" lon="1.38594">
        <ele>135</ele>
        <time>2025-01-10T11:12:14Z</time>
      </trkpt>
      <trkpt lat="43.65471" lon="1.38597">
        <ele>135</ele>
        <time>2025-01-10T11:12:15Z</time>
      </trkpt>
      <trkpt lat="43.65471" lon="1.38599">
        <ele>135</ele>
        <time>2025-01-10T11:12:16Z</time>
      </trkpt>
      <trkpt lat="43.65472" lon="1.38601">
        <ele>135</ele>
        <time>2025-01-10T11:12:17Z</time>
      </trkpt>
      <trkpt lat="43.65473" lon="1.38604">
        <ele>135</ele>
        <time>2025-01-10T11:12:18Z</time>
      </trkpt>
      <trkpt lat="43.65473" lon="1.38606">
        <ele>135</ele>
        <time>2025-01-10T11:12:19Z</time>
      </trkpt>
      <trkpt lat="43.65474" lon="1.38608">
        <ele>135</ele>
        <time>2025-01-10T11:12:20Z</time>
      </trkpt>
      <trkpt lat="43.65475" lon="1.3861">
        <ele>135</ele>
        <time>2025-01-10T11:12:21Z</time>
      </trkpt>
      <trkpt lat="43.65475" lon="1.38613">
        <ele>135</ele>
        <time>2025-01-10T11:12:22Z</time>
      </trkpt>
      <trkpt lat="43.65476" lon="1.38615">
        <ele>135</ele>
        <time>2025-01-10T11:12:23Z</time>
      </trkpt>
      <trkpt lat="43.65477" lon="1.38618">
        <ele>135</ele>
        <time>2025-01-10T11:12:24Z</time>
      </trkpt>
      <trkpt lat="43.65477" lon="1.38621">
        <ele>135</ele>
        <time>2025-01-10T11:12:25Z</time>
      </trkpt>
      <trkpt lat="43.65478" lon="1.38624">
        <ele>135</ele>
        <time>2025-01-10T11:12:26Z</time>
      </trkpt>
      <trkpt lat="43.65479" lon="1.38627">
        <ele>135</ele>
        <time>2025-01-10T11:12:27Z</time>
      </trkpt>
      <trkpt lat="43.65479" lon="1.38628">
        <ele>135</ele>
        <time>2025-01-10T11:12:28Z</time>
      </trkpt>
      <trkpt lat="43.6548" lon="1.3863">
        <ele>135</ele>
        <time>2025-01-10T11:12:29Z</time>
      </trkpt>
      <trkpt lat="43.6548" lon="1.38632">
        <ele>135</ele>
        <time>2025-01-10T11:12:30Z</time>
      </trkpt>
      <trkpt lat="43.65481" lon="1.38633">
        <ele>135</ele>
        <time>2025-01-10T11:12:31Z</time>
      </trkpt>
      <trkpt lat="43.65484" lon="1.38643">
        <ele>135</ele>
        <time>2025-01-10T11:12:32Z</time>
      </trkpt>
      <trkpt lat="43.65485" lon="1.38646">
        <ele>135</ele>
        <time>2025-01-10T11:12:33Z</time>
      </trkpt>
      <trkpt lat="43.65486" lon="1.38649">
        <ele>135</ele>
        <time>2025-01-10T11:12:34Z</time>
      </trkpt>
      <trkpt lat="43.65486" lon="1.38652">
        <ele>135</ele>
        <time>2025-01-10T11:12:35Z</time>
      </trkpt>
      <trkpt lat="43.65487" lon="1.38654">
        <ele>135</ele>
        <time>2025-01-10T11:12:36Z</time>
      </trkpt>
      <trkpt lat="43.65488" lon="1.38657">
        <ele>134</ele>
        <time>2025-01-10T11:12:37Z</time>
      </trkpt>
      <trkpt lat="43.65488" lon="1.3866">
        <ele>134</ele>
        <time>2025-01-10T11:12:38Z</time>
      </trkpt>
      <trkpt lat="43.65489" lon="1.38662">
        <ele>134</ele>
        <time>2025-01-10T11:12:39Z</time>
      </trkpt>
      <trkpt lat="43.65489" lon="1.38665">
        <ele>134</ele>
        <time>2025-01-10T11:12:40Z</time>
      </trkpt>
      <trkpt lat="43.6549" lon="1.38667">
        <ele>134</ele>
        <time>2025-01-10T11:12:41Z</time>
      </trkpt>
      <trkpt lat="43.65491" lon="1.38671">
        <ele>134</ele>
        <time>2025-01-10T11:12:42Z</time>
      </trkpt>
      <trkpt lat="43.65491" lon="1.38674">
        <ele>134</ele>
        <time>2025-01-10T11:12:43Z</time>
      </trkpt>
      <trkpt lat="43.65492" lon="1.38678">
        <ele>134</ele>
        <time>2025-01-10T11:12:44Z</time>
      </trkpt>
      <trkpt lat="43.65493" lon="1.38681">
        <ele>134</ele>
        <time>2025-01-10T11:12:45Z</time>
      </trkpt>
      <trkpt lat="43.65493" lon="1.38684">
        <ele>134</ele>
        <time>2025-01-10T11:12:46Z</time>
      </trkpt>
      <trkpt lat="43.65494" lon="1.38686">
        <ele>134</ele>
        <time>2025-01-10T11:12:47Z</time>
      </trkpt>
      <trkpt lat="43.65494" lon="1.38689">
        <ele>134</ele>
        <time>2025-01-10T11:12:48Z</time>
      </trkpt>
      <trkpt lat="43.65495" lon="1.38692">
        <ele>134</ele>
        <time>2025-01-10T11:12:49Z</time>
      </trkpt>
      <trkpt lat="43.65496" lon="1.38694">
        <ele>134</ele>
        <time>2025-01-10T11:12:50Z</time>
      </trkpt>
      <trkpt lat="43.65496" lon="1.38698">
        <ele>134</ele>
        <time>2025-01-10T11:12:51Z</time>
      </trkpt>
      <trkpt lat="43.65497" lon="1.38702">
        <ele>135</ele>
        <time>2025-01-10T11:12:52Z</time>
      </trkpt>
      <trkpt lat="43.65498" lon="1.38707">
        <ele>135</ele>
        <time>2025-01-10T11:12:53Z</time>
      </trkpt>
      <trkpt lat="43.65498" lon="1.38709">
        <ele>135</ele>
        <time>2025-01-10T11:12:54Z</time>
      </trkpt>
      <trkpt lat="43.65499" lon="1.38712">
        <ele>135</ele>
        <time>2025-01-10T11:12:55Z</time>
      </trkpt>
      <trkpt lat="43.65499" lon="1.38714">
        <ele>135</ele>
        <time>2025-01-10T11:12:56Z</time>
      </trkpt>
      <trkpt lat="43.655" lon="1.38717">
        <ele>135</ele>
        <time>2025-01-10T11:12:57Z</time>
      </trkpt>
      <trkpt lat="43.655" lon="1.38719">
        <ele>135</ele>
        <time>2025-01-10T11:12:58Z</time>
      </trkpt>
      <trkpt lat="43.65501" lon="1.38723">
        <ele>135</ele>
        <time>2025-01-10T11:12:59Z</time>
      </trkpt>
      <trkpt lat="43.65501" lon="1.38726">
        <ele>135</ele>
        <time>2025-01-10T11:13:00Z</time>
      </trkpt>
      <trkpt lat="43.65502" lon="1.38729">
        <ele>135</ele>
        <time>2025-01-10T11:13:01Z</time>
      </trkpt>
      <trkpt lat="43.65502" lon="1.38733">
        <ele>135</ele>
        <time>2025-01-10T11:13:02Z</time>
      </trkpt>
      <trkpt lat="43.65503" lon="1.38736">
        <ele>135</ele>
        <time>2025-01-10T11:13:03Z</time>
      </trkpt>
      <trkpt lat="43.65503" lon="1.3874">
        <ele>135</ele>
        <time>2025-01-10T11:13:04Z</time>
      </trkpt>
      <trkpt lat="43.65504" lon="1.38743">
        <ele>135</ele>
        <time>2025-01-10T11:13:05Z</time>
      </trkpt>
      <trkpt lat="43.65505" lon="1.38746">
        <ele>135</ele>
        <time>2025-01-10T11:13:06Z</time>
      </trkpt>
      <trkpt lat="43.65505" lon="1.38746">
        <ele>135</ele>
        <time>2025-01-10T11:13:07Z</time>
      </trkpt>
      <trkpt lat="43.65505" lon="1.38746">
        <ele>135</ele>
        <time>2025-01-10T11:13:08Z</time>
      </trkpt>
      <trkpt lat="43.65505" lon="1.38746">
        <ele>135</ele>
        <time>2025-01-10T11:13:09Z</time>
      </trkpt>
      <trkpt lat="43.65505" lon="1.38746">
        <ele>134</ele>
        <time>2025-01-10T11:13:10Z</time>
      </trkpt>
      <trkpt lat="43.65509" lon="1.38759">
        <ele>134</ele>
        <time>2025-01-10T11:13:11Z</time>
      </trkpt>
      <trkpt lat="43.65509" lon="1.38759">
        <ele>135</ele>
        <time>2025-01-10T11:13:13Z</time>
      </trkpt>
      <trkpt lat="43.65511" lon="1.38765">
        <ele>135</ele>
        <time>2025-01-10T11:13:14Z</time>
      </trkpt>
      <trkpt lat="43.65514" lon="1.38771">
        <ele>135</ele>
        <time>2025-01-10T11:13:15Z</time>
      </trkpt>
      <trkpt lat="43.65514" lon="1.38772">
        <ele>135</ele>
        <time>2025-01-10T11:13:16Z</time>
      </trkpt>
      <trkpt lat="43.65515" lon="1.38774">
        <ele>135</ele>
        <time>2025-01-10T11:13:17Z</time>
      </trkpt>
      <trkpt lat="43.65516" lon="1.38775">
        <ele>135</ele>
        <time>2025-01-10T11:13:18Z</time>
      </trkpt>
      <trkpt lat="43.65516" lon="1.38776">
        <ele>135</ele>
        <time>2025-01-10T11:13:19Z</time>
      </trkpt>
      <trkpt lat="43.65517" lon="1.38777">
        <ele>135</ele>
        <time>2025-01-10T11:13:20Z</time>
      </trkpt>
      <trkpt lat="43.65521" lon="1.38785">
        <ele>135</ele>
        <time>2025-01-10T11:13:21Z</time>
      </trkpt>
      <trkpt lat="43.65522" lon="1.38788">
        <ele>135</ele>
        <time>2025-01-10T11:13:22Z</time>
      </trkpt>
      <trkpt lat="43.65522" lon="1.3879">
        <ele>135</ele>
        <time>2025-01-10T11:13:23Z</time>
      </trkpt>
      <trkpt lat="43.65523" lon="1.38793">
        <ele>135</ele>
        <time>2025-01-10T11:13:24Z</time>
      </trkpt>
      <trkpt lat="43.65523" lon="1.38795">
        <ele>135</ele>
        <time>2025-01-10T11:13:25Z</time>
      </trkpt>
      <trkpt lat="43.65524" lon="1.38797">
        <ele>135</ele>
        <time>2025-01-10T11:13:26Z</time>
      </trkpt>
      <trkpt lat="43.65524" lon="1.38797">
        <ele>135</ele>
        <time>2025-01-10T11:13:27Z</time>
      </trkpt>
      <trkpt lat="43.65524" lon="1.38797">
        <ele>135</ele>
        <time>2025-01-10T11:13:28Z</time>
      </trkpt>
      <trkpt lat="43.65524" lon="1.38797">
        <ele>135</ele>
        <time>2025-01-10T11:13:29Z</time>
      </trkpt>
      <trkpt lat="43.65527" lon="1.38811">
        <ele>135</ele>
        <time>2025-01-10T11:13:30Z</time>
      </trkpt>
      <trkpt lat="43.65527" lon="1.38811">
        <ele>135</ele>
        <time>2025-01-10T11:13:32Z</time>
      </trkpt>
      <trkpt lat="43.65527" lon="1.38814">
        <ele>135</ele>
        <time>2025-01-10T11:13:33Z</time>
      </trkpt>
      <trkpt lat="43.65528" lon="1.38816">
        <ele>135</ele>
        <time>2025-01-10T11:13:34Z</time>
      </trkpt>
      <trkpt lat="43.65528" lon="1.38819">
        <ele>135</ele>
        <time>2025-01-10T11:13:35Z</time>
      </trkpt>
      <trkpt lat="43.65531" lon="1.3883">
        <ele>135</ele>
        <time>2025-01-10T11:13:36Z</time>
      </trkpt>
      <trkpt lat="43.65531" lon="1.38833">
        <ele>135</ele>
        <time>2025-01-10T11:13:37Z</time>
      </trkpt>
      <trkpt lat="43.65532" lon="1.38836">
        <ele>135</ele>
        <time>2025-01-10T11:13:38Z</time>
      </trkpt>
      <trkpt lat="43.65533" lon="1.38839">
        <ele>135</ele>
        <time>2025-01-10T11:13:39Z</time>
      </trkpt>
      <trkpt lat="43.65533" lon="1.38841">
        <ele>135</ele>
        <time>2025-01-10T11:13:40Z</time>
      </trkpt>
      <trkpt lat="43.65534" lon="1.38843">
        <ele>135</ele>
        <time>2025-01-10T11:13:41Z</time>
      </trkpt>
      <trkpt lat="43.65535" lon="1.38845">
        <ele>135</ele>
        <time>2025-01-10T11:13:42Z</time>
      </trkpt>
      <trkpt lat="43.65535" lon="1.38847">
        <ele>135</ele>
        <time>2025-01-10T11:13:43Z</time>
      </trkpt>
      <trkpt lat="43.65536" lon="1.38849">
        <ele>135</ele>
        <time>2025-01-10T11:13:44Z</time>
      </trkpt>
      <trkpt lat="43.65537" lon="1.38851">
        <ele>135</ele>
        <time>2025-01-10T11:13:45Z</time>
      </trkpt>
      <trkpt lat="43.65537" lon="1.38854">
        <ele>135</ele>
        <time>2025-01-10T11:13:46Z</time>
      </trkpt>
      <trkpt lat="43.65538" lon="1.38856">
        <ele>135</ele>
        <time>2025-01-10T11:13:47Z</time>
      </trkpt>
      <trkpt lat="43.65538" lon="1.38859">
        <ele>135</ele>
        <time>2025-01-10T11:13:48Z</time>
      </trkpt>
      <trkpt lat="43.65539" lon="1.38862">
        <ele>135</ele>
        <time>2025-01-10T11:13:49Z</time>
      </trkpt>
      <trkpt lat="43.65539" lon="1.38864">
        <ele>135</ele>
        <time>2025-01-10T11:13:50Z</time>
      </trkpt>
      <trkpt lat="43.6554" lon="1.38866">
        <ele>135</ele>
        <time>2025-01-10T11:13:51Z</time>
      </trkpt>
      <trkpt lat="43.6554" lon="1.38869">
        <ele>135</ele>
        <time>2025-01-10T11:13:52Z</time>
      </trkpt>
      <trkpt lat="43.65541" lon="1.38871">
        <ele>136</ele>
        <time>2025-01-10T11:13:53Z</time>
      </trkpt>
      <trkpt lat="43.65542" lon="1.38881">
        <ele>136</ele>
        <time>2025-01-10T11:13:54Z</time>
      </trkpt>
      <trkpt lat="43.65542" lon="1.38883">
        <ele>136</ele>
        <time>2025-01-10T11:13:55Z</time>
      </trkpt>
      <trkpt lat="43.65543" lon="1.38885">
        <ele>136</ele>
        <time>2025-01-10T11:13:56Z</time>
      </trkpt>
      <trkpt lat="43.65543" lon="1.38888">
        <ele>136</ele>
        <time>2025-01-10T11:13:57Z</time>
      </trkpt>
      <trkpt lat="43.65543" lon="1.3889">
        <ele>137</ele>
        <time>2025-01-10T11:13:58Z</time>
      </trkpt>
      <trkpt lat="43.65543" lon="1.38893">
        <ele>137</ele>
        <time>2025-01-10T11:13:59Z</time>
      </trkpt>
      <trkpt lat="43.65543" lon="1.38896">
        <ele>136</ele>
        <time>2025-01-10T11:14:00Z</time>
      </trkpt>
      <trkpt lat="43.65543" lon="1.38899">
        <ele>136</ele>
        <time>2025-01-10T11:14:01Z</time>
      </trkpt>
      <trkpt lat="43.65544" lon="1.38902">
        <ele>137</ele>
        <time>2025-01-10T11:14:02Z</time>
      </trkpt>
      <trkpt lat="43.65544" lon="1.38905">
        <ele>137</ele>
        <time>2025-01-10T11:14:03Z</time>
      </trkpt>
      <trkpt lat="43.65544" lon="1.38908">
        <ele>137</ele>
        <time>2025-01-10T11:14:04Z</time>
      </trkpt>
      <trkpt lat="43.65544" lon="1.38911">
        <ele>137</ele>
        <time>2025-01-10T11:14:05Z</time>
      </trkpt>
      <trkpt lat="43.65544" lon="1.38914">
        <ele>137</ele>
        <time>2025-01-10T11:14:06Z</time>
      </trkpt>
      <trkpt lat="43.65544" lon="1.38917">
        <ele>137</ele>
        <time>2025-01-10T11:14:07Z</time>
      </trkpt>
      <trkpt lat="43.65544" lon="1.38921">
        <ele>137</ele>
        <time>2025-01-10T11:14:08Z</time>
      </trkpt>
      <trkpt lat="43.65546" lon="1.38925">
        <ele>137</ele>
        <time>2025-01-10T11:14:10Z</time>
      </trkpt>
      <trkpt lat="43.65548" lon="1.38929">
        <ele>137</ele>
        <time>2025-01-10T11:14:11Z</time>
      </trkpt>
      <trkpt lat="43.6555" lon="1.38934">
        <ele>137</ele>
        <time>2025-01-10T11:14:12Z</time>
      </trkpt>
      <trkpt lat="43.65551" lon="1.38936">
        <ele>137</ele>
        <time>2025-01-10T11:14:13Z</time>
      </trkpt>
      <trkpt lat="43.65552" lon="1.38939">
        <ele>137</ele>
        <time>2025-01-10T11:14:14Z</time>
      </trkpt>
      <trkpt lat="43.65553" lon="1.38942">
        <ele>137</ele>
        <time>2025-01-10T11:14:15Z</time>
      </trkpt>
      <trkpt lat="43.65554" lon="1.38945">
        <ele>137</ele>
        <time>2025-01-10T11:14:16Z</time>
      </trkpt>
      <trkpt lat="43.65555" lon="1.38948">
        <ele>137</ele>
        <time>2025-01-10T11:14:17Z</time>
      </trkpt>
      <trkpt lat="43.65556" lon="1.38949">
        <ele>137</ele>
        <time>2025-01-10T11:14:18Z</time>
      </trkpt>
      <trkpt lat="43.65556" lon="1.38951">
        <ele>137</ele>
        <time>2025-01-10T11:14:19Z</time>
      </trkpt>
      <trkpt lat="43.65557" lon="1.38953">
        <ele>137</ele>
        <time>2025-01-10T11:14:20Z</time>
      </trkpt>
      <trkpt lat="43.65557" lon="1.38954">
        <ele>137</ele>
        <time>2025-01-10T11:14:21Z</time>
      </trkpt>
      <trkpt lat="43.6556" lon="1.38962">
        <ele>137</ele>
        <time>2025-01-10T11:14:22Z</time>
      </trkpt>
      <trkpt lat="43.65561" lon="1.38964">
        <ele>137</ele>
        <time>2025-01-10T11:14:23Z</time>
      </trkpt>
      <trkpt lat="43.65561" lon="1.38965">
        <ele>137</ele>
        <time>2025-01-10T11:14:24Z</time>
      </trkpt>
      <trkpt lat="43.65562" lon="1.38967">
        <ele>137</ele>
        <time>2025-01-10T11:14:25Z</time>
      </trkpt>
      <trkpt lat="43.65563" lon="1.38968">
        <ele>137</ele>
        <time>2025-01-10T11:14:26Z</time>
      </trkpt>
      <trkpt lat="43.65566" lon="1.38976">
        <ele>137</ele>
        <time>2025-01-10T11:14:27Z</time>
      </trkpt>
      <trkpt lat="43.65567" lon="1.38977">
        <ele>137</ele>
        <time>2025-01-10T11:14:28Z</time>
      </trkpt>
      <trkpt lat="43.65567" lon="1.38979">
        <ele>137</ele>
        <time>2025-01-10T11:14:29Z</time>
      </trkpt>
      <trkpt lat="43.65568" lon="1.3898">
        <ele>137</ele>
        <time>2025-01-10T11:14:30Z</time>
      </trkpt>
      <trkpt lat="43.65569" lon="1.38981">
        <ele>137</ele>
        <time>2025-01-10T11:14:31Z</time>
      </trkpt>
      <trkpt lat="43.65573" lon="1.38988">
        <ele>137</ele>
        <time>2025-01-10T11:14:32Z</time>
      </trkpt>
      <trkpt lat="43.65574" lon="1.38989">
        <ele>137</ele>
        <time>2025-01-10T11:14:33Z</time>
      </trkpt>
      <trkpt lat="43.65576" lon="1.3899">
        <ele>137</ele>
        <time>2025-01-10T11:14:34Z</time>
      </trkpt>
      <trkpt lat="43.65577" lon="1.38991">
        <ele>136</ele>
        <time>2025-01-10T11:14:35Z</time>
      </trkpt>
      <trkpt lat="43.65579" lon="1.38992">
        <ele>136</ele>
        <time>2025-01-10T11:14:36Z</time>
      </trkpt>
      <trkpt lat="43.6558" lon="1.38993">
        <ele>136</ele>
        <time>2025-01-10T11:14:37Z</time>
      </trkpt>
      <trkpt lat="43.65581" lon="1.38994">
        <ele>136</ele>
        <time>2025-01-10T11:14:38Z</time>
      </trkpt>
      <trkpt lat="43.65582" lon="1.38994">
        <ele>136</ele>
        <time>2025-01-10T11:14:39Z</time>
      </trkpt>
      <trkpt lat="43.65583" lon="1.38994">
        <ele>136</ele>
        <time>2025-01-10T11:14:40Z</time>
      </trkpt>
      <trkpt lat="43.65583" lon="1.38994">
        <ele>136</ele>
        <time>2025-01-10T11:14:41Z</time>
      </trkpt>
      <trkpt lat="43.65584" lon="1.38994">
        <ele>136</ele>
        <time>2025-01-10T11:14:42Z</time>
      </trkpt>
      <trkpt lat="43.65585" lon="1.38994">
        <ele>136</ele>
        <time>2025-01-10T11:14:43Z</time>
      </trkpt>
      <trkpt lat="43.65586" lon="1.38994">
        <ele>136</ele>
        <time>2025-01-10T11:14:44Z</time>
      </trkpt>
      <trkpt lat="43.65586" lon="1.38994">
        <ele>136</ele>
        <time>2025-01-10T11:14:45Z</time>
      </trkpt>
      <trkpt lat="43.65594" lon="1.38992">
        <ele>136</ele>
        <time>2025-01-10T11:14:46Z</time>
      </trkpt>
      <trkpt lat="43.65597" lon="1.38989">
        <ele>136</ele>
        <time>2025-01-10T11:14:48Z</time>
      </trkpt>
      <trkpt lat="43.656" lon="1.38987">
        <ele>136</ele>
        <time>2025-01-10T11:14:49Z</time>
      </trkpt>
      <trkpt lat="43.65601" lon="1.38985">
        <ele>136</ele>
        <time>2025-01-10T11:14:50Z</time>
      </trkpt>
      <trkpt lat="43.65602" lon="1.38983">
        <ele>135</ele>
        <time>2025-01-10T11:14:51Z</time>
      </trkpt>
      <trkpt lat="43.65603" lon="1.38981">
        <ele>136</ele>
        <time>2025-01-10T11:14:52Z</time>
      </trkpt>
      <trkpt lat="43.65604" lon="1.38978">
        <ele>136</ele>
        <time>2025-01-10T11:14:53Z</time>
      </trkpt>
      <trkpt lat="43.65606" lon="1.38976">
        <ele>136</ele>
        <time>2025-01-10T11:14:54Z</time>
      </trkpt>
      <trkpt lat="43.65607" lon="1.38978">
        <ele>137</ele>
        <time>2025-01-10T11:14:55Z</time>
      </trkpt>
      <trkpt lat="43.65608" lon="1.3898">
        <ele>137</ele>
        <time>2025-01-10T11:14:56Z</time>
      </trkpt>
      <trkpt lat="43.65609" lon="1.38982">
        <ele>137</ele>
        <time>2025-01-10T11:14:57Z</time>
      </trkpt>
      <trkpt lat="43.6561" lon="1.38984">
        <ele>137</ele>
        <time>2025-01-10T11:14:58Z</time>
      </trkpt>
      <trkpt lat="43.65611" lon="1.38986">
        <ele>137</ele>
        <time>2025-01-10T11:14:59Z</time>
      </trkpt>
      <trkpt lat="43.65613" lon="1.38989">
        <ele>137</ele>
        <time>2025-01-10T11:15:00Z</time>
      </trkpt>
      <trkpt lat="43.65614" lon="1.38992">
        <ele>137</ele>
        <time>2025-01-10T11:15:01Z</time>
      </trkpt>
      <trkpt lat="43.65615" lon="1.38995">
        <ele>136</ele>
        <time>2025-01-10T11:15:02Z</time>
      </trkpt>
      <trkpt lat="43.65616" lon="1.38998">
        <ele>136</ele>
        <time>2025-01-10T11:15:03Z</time>
      </trkpt>
      <trkpt lat="43.65617" lon="1.39001">
        <ele>136</ele>
        <time>2025-01-10T11:15:04Z</time>
      </trkpt>
      <trkpt lat="43.65618" lon="1.39004">
        <ele>135</ele>
        <time>2025-01-10T11:15:05Z</time>
      </trkpt>
      <trkpt lat="43.65619" lon="1.39007">
        <ele>135</ele>
        <time>2025-01-10T11:15:06Z</time>
      </trkpt>
      <trkpt lat="43.6562" lon="1.39011">
        <ele>135</ele>
        <time>2025-01-10T11:15:07Z</time>
      </trkpt>
      <trkpt lat="43.65621" lon="1.39013">
        <ele>135</ele>
        <time>2025-01-10T11:15:08Z</time>
      </trkpt>
      <trkpt lat="43.65621" lon="1.39015">
        <ele>135</ele>
        <time>2025-01-10T11:15:09Z</time>
      </trkpt>
      <trkpt lat="43.65621" lon="1.39017">
        <ele>134</ele>
        <time>2025-01-10T11:15:10Z</time>
      </trkpt>
      <trkpt lat="43.65622" lon="1.39019">
        <ele>134</ele>
        <time>2025-01-10T11:15:11Z</time>
      </trkpt>
      <trkpt lat="43.65622" lon="1.39021">
        <ele>134</ele>
        <time>2025-01-10T11:15:12Z</time>
      </trkpt>
      <trkpt lat="43.65623" lon="1.39023">
        <ele>134</ele>
        <time>2025-01-10T11:15:13Z</time>
      </trkpt>
      <trkpt lat="43.65624" lon="1.39025">
        <ele>134</ele>
        <time>2025-01-10T11:15:14Z</time>
      </trkpt>
      <trkpt lat="43.65625" lon="1.39028">
        <ele>134</ele>
        <time>2025-01-10T11:15:15Z</time>
      </trkpt>
      <trkpt lat="43.65627" lon="1.39031">
        <ele>134</ele>
        <time>2025-01-10T11:15:16Z</time>
      </trkpt>
      <trkpt lat="43.65628" lon="1.39034">
        <ele>134</ele>
        <time>2025-01-10T11:15:17Z</time>
      </trkpt>
      <trkpt lat="43.65629" lon="1.39037">
        <ele>134</ele>
        <time>2025-01-10T11:15:18Z</time>
      </trkpt>
      <trkpt lat="43.6563" lon="1.3904">
        <ele>134</ele>
        <time>2025-01-10T11:15:19Z</time>
      </trkpt>
      <trkpt lat="43.65631" lon="1.39042">
        <ele>134</ele>
        <time>2025-01-10T11:15:20Z</time>
      </trkpt>
      <trkpt lat="43.65632" lon="1.39045">
        <ele>133</ele>
        <time>2025-01-10T11:15:21Z</time>
      </trkpt>
      <trkpt lat="43.65633" lon="1.39048">
        <ele>133</ele>
        <time>2025-01-10T11:15:22Z</time>
      </trkpt>
      <trkpt lat="43.65634" lon="1.39051">
        <ele>133</ele>
        <time>2025-01-10T11:15:23Z</time>
      </trkpt>
      <trkpt lat="43.65635" lon="1.39054">
        <ele>132</ele>
        <time>2025-01-10T11:15:24Z</time>
      </trkpt>
      <trkpt lat="43.65636" lon="1.39057">
        <ele>132</ele>
        <time>2025-01-10T11:15:25Z</time>
      </trkpt>
      <trkpt lat="43.65637" lon="1.3906">
        <ele>131</ele>
        <time>2025-01-10T11:15:26Z</time>
      </trkpt>
      <trkpt lat="43.65638" lon="1.39064">
        <ele>131</ele>
        <time>2025-01-10T11:15:27Z</time>
      </trkpt>
      <trkpt lat="43.65639" lon="1.39067">
        <ele>131</ele>
        <time>2025-01-10T11:15:28Z</time>
      </trkpt>
      <trkpt lat="43.65639" lon="1.39071">
        <ele>130</ele>
        <time>2025-01-10T11:15:29Z</time>
      </trkpt>
      <trkpt lat="43.6564" lon="1.39074">
        <ele>129</ele>
        <time>2025-01-10T11:15:30Z</time>
      </trkpt>
      <trkpt lat="43.65641" lon="1.39078">
        <ele>128</ele>
        <time>2025-01-10T11:15:31Z</time>
      </trkpt>
      <trkpt lat="43.65642" lon="1.39082">
        <ele>127</ele>
        <time>2025-01-10T11:15:32Z</time>
      </trkpt>
      <trkpt lat="43.65643" lon="1.39086">
        <ele>126</ele>
        <time>2025-01-10T11:15:33Z</time>
      </trkpt>
      <trkpt lat="43.65643" lon="1.3909">
        <ele>126</ele>
        <time>2025-01-10T11:15:34Z</time>
      </trkpt>
      <trkpt lat="43.65643" lon="1.39093">
        <ele>126</ele>
        <time>2025-01-10T11:15:35Z</time>
      </trkpt>
      <trkpt lat="43.65643" lon="1.39097">
        <ele>126</ele>
        <time>2025-01-10T11:15:36Z</time>
      </trkpt>
      <trkpt lat="43.65643" lon="1.391">
        <ele>125</ele>
        <time>2025-01-10T11:15:37Z</time>
      </trkpt>
      <trkpt lat="43.65644" lon="1.39102">
        <ele>125</ele>
        <time>2025-01-10T11:15:38Z</time>
      </trkpt>
      <trkpt lat="43.65645" lon="1.39105">
        <ele>125</ele>
        <time>2025-01-10T11:15:39Z</time>
      </trkpt>
      <trkpt lat="43.65646" lon="1.39107">
        <ele>124</ele>
        <time>2025-01-10T11:15:40Z</time>
      </trkpt>
      <trkpt lat="43.65647" lon="1.39109">
        <ele>124</ele>
        <time>2025-01-10T11:15:41Z</time>
      </trkpt>
      <trkpt lat="43.65648" lon="1.39112">
        <ele>124</ele>
        <time>2025-01-10T11:15:42Z</time>
      </trkpt>
      <trkpt lat="43.65649" lon="1.39113">
        <ele>124</ele>
        <time>2025-01-10T11:15:43Z</time>
      </trkpt>
      <trkpt lat="43.65651" lon="1.39115">
        <ele>124</ele>
        <time>2025-01-10T11:15:44Z</time>
      </trkpt>
      <trkpt lat="43.65652" lon="1.39116">
        <ele>124</ele>
        <time>2025-01-10T11:15:45Z</time>
      </trkpt>
      <trkpt lat="43.65653" lon="1.39118">
        <ele>124</ele>
        <time>2025-01-10T11:15:46Z</time>
      </trkpt>
      <trkpt lat="43.65654" lon="1.39119">
        <ele>123</ele>
        <time>2025-01-10T11:15:47Z</time>
      </trkpt>
      <trkpt lat="43.65655" lon="1.39121">
        <ele>123</ele>
        <time>2025-01-10T11:15:48Z</time>
      </trkpt>
      <trkpt lat="43.65657" lon="1.39122">
        <ele>123</ele>
        <time>2025-01-10T11:15:49Z</time>
      </trkpt>
      <trkpt lat="43.65658" lon="1.39124">
        <ele>122</ele>
        <time>2025-01-10T11:15:50Z</time>
      </trkpt>
      <trkpt lat="43.6566" lon="1.39125">
        <ele>122</ele>
        <time>2025-01-10T11:15:51Z</time>
      </trkpt>
      <trkpt lat="43.65661" lon="1.39127">
        <ele>122</ele>
        <time>2025-01-10T11:15:52Z</time>
      </trkpt>
      <trkpt lat="43.65663" lon="1.39128">
        <ele>122</ele>
        <time>2025-01-10T11:15:53Z</time>
      </trkpt>
      <trkpt lat="43.65664" lon="1.3913">
        <ele>122</ele>
        <time>2025-01-10T11:15:54Z</time>
      </trkpt>
      <trkpt lat="43.65664" lon="1.3913">
        <ele>122</ele>
        <time>2025-01-10T11:15:55Z</time>
      </trkpt>
      <trkpt lat="43.65664" lon="1.39129">
        <ele>122</ele>
        <time>2025-01-10T11:15:56Z</time>
      </trkpt>
      <trkpt lat="43.65664" lon="1.39129">
        <ele>122</ele>
        <time>2025-01-10T11:15:57Z</time>
      </trkpt>
      <trkpt lat="43.65664" lon="1.39129">
        <ele>122</ele>
        <time>2025-01-10T11:15:58Z</time>
      </trkpt>
      <trkpt lat="43.65663" lon="1.39129">
        <ele>122</ele>
        <time>2025-01-10T11:15:59Z</time>
      </trkpt>
      <trkpt lat="43.65663" lon="1.39128">
        <ele>122</ele>
        <time>2025-01-10T11:16:00Z</time>
      </trkpt>
      <trkpt lat="43.65663" lon="1.39128">
        <ele>122</ele>
        <time>2025-01-10T11:16:01Z</time>
      </trkpt>
      <trkpt lat="43.65663" lon="1.39128">
        <ele>122</ele>
        <time>2025-01-10T11:16:02Z</time>
      </trkpt>
      <trkpt lat="43.65663" lon="1.39128">
        <ele>122</ele>
        <time>2025-01-10T11:16:04Z</time>
      </trkpt>
      <trkpt lat="43.65663" lon="1.39127">
        <ele>122</ele>
        <time>2025-01-10T11:16:05Z</time>
      </trkpt>
      <trkpt lat="43.65663" lon="1.39127">
        <ele>122</ele>
        <time>2025-01-10T11:16:06Z</time>
      </trkpt>
      <trkpt lat="43.65663" lon="1.39127">
        <ele>121</ele>
        <time>2025-01-10T11:16:07Z</time>
      </trkpt>
      <trkpt lat="43.65663" lon="1.39127">
        <ele>121</ele>
        <time>2025-01-10T11:16:08Z</time>
      </trkpt>
      <trkpt lat="43.65662" lon="1.39126">
        <ele>121</ele>
        <time>2025-01-10T11:16:09Z</time>
      </trkpt>
      <trkpt lat="43.65662" lon="1.39126">
        <ele>121</ele>
        <time>2025-01-10T11:16:10Z</time>
      </trkpt>
      <trkpt lat="43.65662" lon="1.39126">
        <ele>121</ele>
        <time>2025-01-10T11:16:11Z</time>
      </trkpt>
      <trkpt lat="43.65662" lon="1.39126">
        <ele>121</ele>
        <time>2025-01-10T11:16:12Z</time>
      </trkpt>
      <trkpt lat="43.65662" lon="1.39125">
        <ele>122</ele>
        <time>2025-01-10T11:16:13Z</time>
      </trkpt>
      <trkpt lat="43.65662" lon="1.39125">
        <ele>122</ele>
        <time>2025-01-10T11:16:14Z</time>
      </trkpt>
      <trkpt lat="43.65662" lon="1.39125">
        <ele>122</ele>
        <time>2025-01-10T11:16:15Z</time>
      </trkpt>
      <trkpt lat="43.65662" lon="1.39124">
        <ele>122</ele>
        <time>2025-01-10T11:16:16Z</time>
      </trkpt>
      <trkpt lat="43.65662" lon="1.39124">
        <ele>122</ele>
        <time>2025-01-10T11:16:17Z</time>
      </trkpt>
      <trkpt lat="43.65661" lon="1.39124">
        <ele>122</ele>
        <time>2025-01-10T11:16:18Z</time>
      </trkpt>
      <trkpt lat="43.65661" lon="1.39124">
        <ele>122</ele>
        <time>2025-01-10T11:16:19Z</time>
      </trkpt>
      <trkpt lat="43.65661" lon="1.39123">
        <ele>122</ele>
        <time>2025-01-10T11:16:20Z</time>
      </trkpt>
      <trkpt lat="43.65661" lon="1.39123">
        <ele>122</ele>
        <time>2025-01-10T11:16:21Z</time>
      </trkpt>
      <trkpt lat="43.65661" lon="1.39123">
        <ele>122</ele>
        <time>2025-01-10T11:16:22Z</time>
      </trkpt>
      <trkpt lat="43.65661" lon="1.39123">
        <ele>122</ele>
        <time>2025-01-10T11:16:23Z</time>
      </trkpt>
      <trkpt lat="43.65661" lon="1.39122">
        <ele>122</ele>
        <time>2025-01-10T11:16:24Z</time>
      </trkpt>
      <trkpt lat="43.65661" lon="1.39122">
        <ele>122</ele>
        <time>2025-01-10T11:16:25Z</time>
      </trkpt>
      <trkpt lat="43.65661" lon="1.39122">
        <ele>122</ele>
        <time>2025-01-10T11:16:26Z</time>
      </trkpt>
      <trkpt lat="43.6566" lon="1.39122">
        <ele>122</ele>
        <time>2025-01-10T11:16:27Z</time>
      </trkpt>
      <trkpt lat="43.6566" lon="1.39121">
        <ele>122</ele>
        <time>2025-01-10T11:16:28Z</time>
      </trkpt>
      <trkpt lat="43.6566" lon="1.39121">
        <ele>122</ele>
        <time>2025-01-10T11:16:29Z</time>
      </trkpt>
      <trkpt lat="43.6566" lon="1.39121">
        <ele>122</ele>
        <time>2025-01-10T11:16:30Z</time>
      </trkpt>
      <trkpt lat="43.6566" lon="1.39121">
        <ele>122</ele>
        <time>2025-01-10T11:16:31Z</time>
      </trkpt>
      <trkpt lat="43.6566" lon="1.3912">
        <ele>122</ele>
        <time>2025-01-10T11:16:32Z</time>
      </trkpt>
      <trkpt lat="43.6566" lon="1.3912">
        <ele>122</ele>
        <time>2025-01-10T11:16:33Z</time>
      </trkpt>
      <trkpt lat="43.6566" lon="1.3912">
        <ele>122</ele>
        <time>2025-01-10T11:16:34Z</time>
      </trkpt>
      <trkpt lat="43.6566" lon="1.3912">
        <ele>122</ele>
        <time>2025-01-10T11:16:35Z</time>
      </trkpt>
      <trkpt lat="43.65659" lon="1.39119">
        <ele>122</ele>
        <time>2025-01-10T11:16:36Z</time>
      </trkpt>
      <trkpt lat="43.65659" lon="1.39119">
        <ele>122</ele>
        <time>2025-01-10T11:16:37Z</time>
      </trkpt>
      <trkpt lat="43.65659" lon="1.39119">
        <ele>122</ele>
        <time>2025-01-10T11:16:38Z</time>
      </trkpt>
      <trkpt lat="43.65659" lon="1.39119">
        <ele>122</ele>
        <time>2025-01-10T11:16:39Z</time>
      </trkpt>
      <trkpt lat="43.65659" lon="1.39118">
        <ele>122</ele>
        <time>2025-01-10T11:16:40Z</time>
      </trkpt>
      <trkpt lat="43.65659" lon="1.39119">
        <ele>122</ele>
        <time>2025-01-10T11:16:41Z</time>
      </trkpt>
      <trkpt lat="43.6566" lon="1.39119">
        <ele>122</ele>
        <time>2025-01-10T11:16:42Z</time>
      </trkpt>
      <trkpt lat="43.6566" lon="1.3912">
        <ele>122</ele>
        <time>2025-01-10T11:16:43Z</time>
      </trkpt>
      <trkpt lat="43.6566" lon="1.39121">
        <ele>122</ele>
        <time>2025-01-10T11:16:44Z</time>
      </trkpt>
      <trkpt lat="43.65661" lon="1.39121">
        <ele>122</ele>
        <time>2025-01-10T11:16:45Z</time>
      </trkpt>
      <trkpt lat="43.65661" lon="1.39122">
        <ele>122</ele>
        <time>2025-01-10T11:16:46Z</time>
      </trkpt>
      <trkpt lat="43.65661" lon="1.39122">
        <ele>122</ele>
        <time>2025-01-10T11:16:47Z</time>
      </trkpt>
      <trkpt lat="43.65661" lon="1.39123">
        <ele>122</ele>
        <time>2025-01-10T11:16:48Z</time>
      </trkpt>
      <trkpt lat="43.65662" lon="1.39123">
        <ele>122</ele>
        <time>2025-01-10T11:16:49Z</time>
      </trkpt>
      <trkpt lat="43.65662" lon="1.39124">
        <ele>122</ele>
        <time>2025-01-10T11:16:50Z</time>
      </trkpt>
      <trkpt lat="43.65662" lon="1.39125">
        <ele>122</ele>
        <time>2025-01-10T11:16:51Z</time>
      </trkpt>
      <trkpt lat="43.65663" lon="1.39125">
        <ele>122</ele>
        <time>2025-01-10T11:16:52Z</time>
      </trkpt>
      <trkpt lat="43.65663" lon="1.39126">
        <ele>122</ele>
        <time>2025-01-10T11:16:53Z</time>
      </trkpt>
      <trkpt lat="43.65663" lon="1.39126">
        <ele>122</ele>
        <time>2025-01-10T11:16:54Z</time>
      </trkpt>
      <trkpt lat="43.65664" lon="1.39127">
        <ele>122</ele>
        <time>2025-01-10T11:16:55Z</time>
      </trkpt>
      <trkpt lat="43.65664" lon="1.39128">
        <ele>122</ele>
        <time>2025-01-10T11:16:56Z</time>
      </trkpt>
      <trkpt lat="43.65664" lon="1.39128">
        <ele>122</ele>
        <time>2025-01-10T11:16:57Z</time>
      </trkpt>
      <trkpt lat="43.65665" lon="1.39129">
        <ele>122</ele>
        <time>2025-01-10T11:16:58Z</time>
      </trkpt>
      <trkpt lat="43.65666" lon="1.39129">
        <ele>122</ele>
        <time>2025-01-10T11:16:59Z</time>
      </trkpt>
      <trkpt lat="43.65667" lon="1.39129">
        <ele>122</ele>
        <time>2025-01-10T11:17:00Z</time>
      </trkpt>
      <trkpt lat="43.65668" lon="1.3913">
        <ele>122</ele>
        <time>2025-01-10T11:17:01Z</time>
      </trkpt>
      <trkpt lat="43.65669" lon="1.3913">
        <ele>122</ele>
        <time>2025-01-10T11:17:02Z</time>
      </trkpt>
      <trkpt lat="43.6567" lon="1.3913">
        <ele>121</ele>
        <time>2025-01-10T11:17:03Z</time>
      </trkpt>
      <trkpt lat="43.65672" lon="1.39132">
        <ele>121</ele>
        <time>2025-01-10T11:17:04Z</time>
      </trkpt>
      <trkpt lat="43.65675" lon="1.39133">
        <ele>121</ele>
        <time>2025-01-10T11:17:05Z</time>
      </trkpt>
      <trkpt lat="43.65677" lon="1.39135">
        <ele>121</ele>
        <time>2025-01-10T11:17:06Z</time>
      </trkpt>
      <trkpt lat="43.65679" lon="1.39137">
        <ele>121</ele>
        <time>2025-01-10T11:17:07Z</time>
      </trkpt>
      <trkpt lat="43.65679" lon="1.39137">
        <ele>121</ele>
        <time>2025-01-10T11:17:08Z</time>
      </trkpt>
      <trkpt lat="43.65682" lon="1.39137">
        <ele>121</ele>
        <time>2025-01-10T11:17:09Z</time>
      </trkpt>
      <trkpt lat="43.65684" lon="1.39138">
        <ele>121</ele>
        <time>2025-01-10T11:17:10Z</time>
      </trkpt>
      <trkpt lat="43.65687" lon="1.39139">
        <ele>121</ele>
        <time>2025-01-10T11:17:11Z</time>
      </trkpt>
      <trkpt lat="43.65689" lon="1.3914">
        <ele>121</ele>
        <time>2025-01-10T11:17:12Z</time>
      </trkpt>
      <trkpt lat="43.65691" lon="1.39141">
        <ele>121</ele>
        <time>2025-01-10T11:17:13Z</time>
      </trkpt>
      <trkpt lat="43.65693" lon="1.39143">
        <ele>121</ele>
        <time>2025-01-10T11:17:14Z</time>
      </trkpt>
      <trkpt lat="43.65695" lon="1.39144">
        <ele>121</ele>
        <time>2025-01-10T11:17:15Z</time>
      </trkpt>
      <trkpt lat="43.65697" lon="1.39146">
        <ele>121</ele>
        <time>2025-01-10T11:17:16Z</time>
      </trkpt>
      <trkpt lat="43.65699" lon="1.39147">
        <ele>121</ele>
        <time>2025-01-10T11:17:17Z</time>
      </trkpt>
      <trkpt lat="43.65701" lon="1.3915">
        <ele>121</ele>
        <time>2025-01-10T11:17:18Z</time>
      </trkpt>
      <trkpt lat="43.65704" lon="1.39152">
        <ele>121</ele>
        <time>2025-01-10T11:17:19Z</time>
      </trkpt>
      <trkpt lat="43.65706" lon="1.39154">
        <ele>121</ele>
        <time>2025-01-10T11:17:20Z</time>
      </trkpt>
      <trkpt lat="43.65708" lon="1.39155">
        <ele>121</ele>
        <time>2025-01-10T11:17:21Z</time>
      </trkpt>
      <trkpt lat="43.65709" lon="1.39156">
        <ele>121</ele>
        <time>2025-01-10T11:17:22Z</time>
      </trkpt>
      <trkpt lat="43.65711" lon="1.39157">
        <ele>121</ele>
        <time>2025-01-10T11:17:23Z</time>
      </trkpt>
      <trkpt lat="43.65712" lon="1.39158">
        <ele>121</ele>
        <time>2025-01-10T11:17:24Z</time>
      </trkpt>
      <trkpt lat="43.65713" lon="1.39159">
        <ele>121</ele>
        <time>2025-01-10T11:17:25Z</time>
      </trkpt>
      <trkpt lat="43.65715" lon="1.3916">
        <ele>121</ele>
        <time>2025-01-10T11:17:26Z</time>
      </trkpt>
      <trkpt lat="43.65717" lon="1.39162">
        <ele>121</ele>
        <time>2025-01-10T11:17:27Z</time>
      </trkpt>
      <trkpt lat="43.65719" lon="1.39164">
        <ele>121</ele>
        <time>2025-01-10T11:17:28Z</time>
      </trkpt>
      <trkpt lat="43.65721" lon="1.39166">
        <ele>121</ele>
        <time>2025-01-10T11:17:29Z</time>
      </trkpt>
      <trkpt lat="43.65723" lon="1.39168">
        <ele>121</ele>
        <time>2025-01-10T11:17:30Z</time>
      </trkpt>
      <trkpt lat="43.65725" lon="1.3917">
        <ele>121</ele>
        <time>2025-01-10T11:17:31Z</time>
      </trkpt>
      <trkpt lat="43.65728" lon="1.39173">
        <ele>121</ele>
        <time>2025-01-10T11:17:32Z</time>
      </trkpt>
      <trkpt lat="43.6573" lon="1.39175">
        <ele>122</ele>
        <time>2025-01-10T11:17:33Z</time>
      </trkpt>
      <trkpt lat="43.65733" lon="1.39177">
        <ele>122</ele>
        <time>2025-01-10T11:17:34Z</time>
      </trkpt>
      <trkpt lat="43.65735" lon="1.39179">
        <ele>122</ele>
        <time>2025-01-10T11:17:35Z</time>
      </trkpt>
      <trkpt lat="43.65738" lon="1.39181">
        <ele>122</ele>
        <time>2025-01-10T11:17:36Z</time>
      </trkpt>
      <trkpt lat="43.6574" lon="1.39183">
        <ele>122</ele>
        <time>2025-01-10T11:17:37Z</time>
      </trkpt>
      <trkpt lat="43.65743" lon="1.39185">
        <ele>122</ele>
        <time>2025-01-10T11:17:38Z</time>
      </trkpt>
      <trkpt lat="43.65746" lon="1.39187">
        <ele>122</ele>
        <time>2025-01-10T11:17:39Z</time>
      </trkpt>
      <trkpt lat="43.65748" lon="1.39188">
        <ele>122</ele>
        <time>2025-01-10T11:17:40Z</time>
      </trkpt>
      <trkpt lat="43.65749" lon="1.39188">
        <ele>123</ele>
        <time>2025-01-10T11:17:41Z</time>
      </trkpt>
      <trkpt lat="43.65751" lon="1.39189">
        <ele>123</ele>
        <time>2025-01-10T11:17:42Z</time>
      </trkpt>
      <trkpt lat="43.65752" lon="1.3919">
        <ele>123</ele>
        <time>2025-01-10T11:17:43Z</time>
      </trkpt>
      <trkpt lat="43.65754" lon="1.3919">
        <ele>124</ele>
        <time>2025-01-10T11:17:44Z</time>
      </trkpt>
      <trkpt lat="43.65755" lon="1.39191">
        <ele>124</ele>
        <time>2025-01-10T11:17:45Z</time>
      </trkpt>
      <trkpt lat="43.65756" lon="1.39192">
        <ele>124</ele>
        <time>2025-01-10T11:17:46Z</time>
      </trkpt>
      <trkpt lat="43.65758" lon="1.39192">
        <ele>125</ele>
        <time>2025-01-10T11:17:47Z</time>
      </trkpt>
      <trkpt lat="43.6576" lon="1.39193">
        <ele>125</ele>
        <time>2025-01-10T11:17:48Z</time>
      </trkpt>
      <trkpt lat="43.65761" lon="1.39193">
        <ele>125</ele>
        <time>2025-01-10T11:17:49Z</time>
      </trkpt>
      <trkpt lat="43.65763" lon="1.39194">
        <ele>125</ele>
        <time>2025-01-10T11:17:50Z</time>
      </trkpt>
      <trkpt lat="43.65764" lon="1.39194">
        <ele>125</ele>
        <time>2025-01-10T11:17:51Z</time>
      </trkpt>
      <trkpt lat="43.65766" lon="1.39195">
        <ele>126</ele>
        <time>2025-01-10T11:17:52Z</time>
      </trkpt>
      <trkpt lat="43.65767" lon="1.39195">
        <ele>126</ele>
        <time>2025-01-10T11:17:53Z</time>
      </trkpt>
      <trkpt lat="43.65769" lon="1.39195">
        <ele>126</ele>
        <time>2025-01-10T11:17:54Z</time>
      </trkpt>
      <trkpt lat="43.6577" lon="1.39195">
        <ele>126</ele>
        <time>2025-01-10T11:17:55Z</time>
      </trkpt>
      <trkpt lat="43.65771" lon="1.39195">
        <ele>126</ele>
        <time>2025-01-10T11:17:56Z</time>
      </trkpt>
      <trkpt lat="43.65773" lon="1.39195">
        <ele>126</ele>
        <time>2025-01-10T11:17:57Z</time>
      </trkpt>
      <trkpt lat="43.65774" lon="1.39195">
        <ele>127</ele>
        <time>2025-01-10T11:17:58Z</time>
      </trkpt>
      <trkpt lat="43.65775" lon="1.39195">
        <ele>127</ele>
        <time>2025-01-10T11:17:59Z</time>
      </trkpt>
      <trkpt lat="43.65777" lon="1.39195">
        <ele>127</ele>
        <time>2025-01-10T11:18:00Z</time>
      </trkpt>
      <trkpt lat="43.65779" lon="1.39195">
        <ele>127</ele>
        <time>2025-01-10T11:18:01Z</time>
      </trkpt>
      <trkpt lat="43.6578" lon="1.39195">
        <ele>127</ele>
        <time>2025-01-10T11:18:02Z</time>
      </trkpt>
      <trkpt lat="43.65782" lon="1.39194">
        <ele>127</ele>
        <time>2025-01-10T11:18:03Z</time>
      </trkpt>
      <trkpt lat="43.65783" lon="1.39194">
        <ele>128</ele>
        <time>2025-01-10T11:18:04Z</time>
      </trkpt>
      <trkpt lat="43.65785" lon="1.39194">
        <ele>128</ele>
        <time>2025-01-10T11:18:05Z</time>
      </trkpt>
      <trkpt lat="43.65787" lon="1.39193">
        <ele>129</ele>
        <time>2025-01-10T11:18:06Z</time>
      </trkpt>
      <trkpt lat="43.65789" lon="1.39192">
        <ele>129</ele>
        <time>2025-01-10T11:18:07Z</time>
      </trkpt>
      <trkpt lat="43.65792" lon="1.39191">
        <ele>129</ele>
        <time>2025-01-10T11:18:08Z</time>
      </trkpt>
      <trkpt lat="43.65794" lon="1.3919">
        <ele>130</ele>
        <time>2025-01-10T11:18:09Z</time>
      </trkpt>
      <trkpt lat="43.65796" lon="1.39189">
        <ele>130</ele>
        <time>2025-01-10T11:18:10Z</time>
      </trkpt>
      <trkpt lat="43.65798" lon="1.39189">
        <ele>130</ele>
        <time>2025-01-10T11:18:11Z</time>
      </trkpt>
      <trkpt lat="43.65801" lon="1.39187">
        <ele>130</ele>
        <time>2025-01-10T11:18:12Z</time>
      </trkpt>
      <trkpt lat="43.65802" lon="1.39187">
        <ele>130</ele>
        <time>2025-01-10T11:18:13Z</time>
      </trkpt>
      <trkpt lat="43.65804" lon="1.39186">
        <ele>131</ele>
        <time>2025-01-10T11:18:14Z</time>
      </trkpt>
      <trkpt lat="43.65804" lon="1.39186">
        <ele>131</ele>
        <time>2025-01-10T11:18:15Z</time>
      </trkpt>
      <trkpt lat="43.65808" lon="1.39186">
        <ele>131</ele>
        <time>2025-01-10T11:18:16Z</time>
      </trkpt>
      <trkpt lat="43.65808" lon="1.39186">
        <ele>132</ele>
        <time>2025-01-10T11:18:17Z</time>
      </trkpt>
      <trkpt lat="43.65812" lon="1.39189">
        <ele>132</ele>
        <time>2025-01-10T11:18:18Z</time>
      </trkpt>
      <trkpt lat="43.65814" lon="1.39189">
        <ele>132</ele>
        <time>2025-01-10T11:18:19Z</time>
      </trkpt>
      <trkpt lat="43.65816" lon="1.39189">
        <ele>132</ele>
        <time>2025-01-10T11:18:20Z</time>
      </trkpt>
      <trkpt lat="43.65818" lon="1.39189">
        <ele>132</ele>
        <time>2025-01-10T11:18:21Z</time>
      </trkpt>
      <trkpt lat="43.6582" lon="1.3919">
        <ele>133</ele>
        <time>2025-01-10T11:18:22Z</time>
      </trkpt>
      <trkpt lat="43.65821" lon="1.39191">
        <ele>133</ele>
        <time>2025-01-10T11:18:23Z</time>
      </trkpt>
      <trkpt lat="43.65824" lon="1.39192">
        <ele>132</ele>
        <time>2025-01-10T11:18:24Z</time>
      </trkpt>
      <trkpt lat="43.65827" lon="1.39195">
        <ele>132</ele>
        <time>2025-01-10T11:18:25Z</time>
      </trkpt>
      <trkpt lat="43.65829" lon="1.39196">
        <ele>132</ele>
        <time>2025-01-10T11:18:26Z</time>
      </trkpt>
      <trkpt lat="43.65832" lon="1.39199">
        <ele>132</ele>
        <time>2025-01-10T11:18:27Z</time>
      </trkpt>
      <trkpt lat="43.65833" lon="1.392">
        <ele>132</ele>
        <time>2025-01-10T11:18:28Z</time>
      </trkpt>
      <trkpt lat="43.65836" lon="1.39201">
        <ele>132</ele>
        <time>2025-01-10T11:18:29Z</time>
      </trkpt>
      <trkpt lat="43.6584" lon="1.39203">
        <ele>132</ele>
        <time>2025-01-10T11:18:30Z</time>
      </trkpt>
      <trkpt lat="43.65841" lon="1.39203">
        <ele>132</ele>
        <time>2025-01-10T11:18:31Z</time>
      </trkpt>
      <trkpt lat="43.65844" lon="1.39203">
        <ele>133</ele>
        <time>2025-01-10T11:18:32Z</time>
      </trkpt>
      <trkpt lat="43.65847" lon="1.39203">
        <ele>133</ele>
        <time>2025-01-10T11:18:33Z</time>
      </trkpt>
      <trkpt lat="43.65848" lon="1.39203">
        <ele>133</ele>
        <time>2025-01-10T11:18:34Z</time>
      </trkpt>
      <trkpt lat="43.65852" lon="1.39204">
        <ele>133</ele>
        <time>2025-01-10T11:18:35Z</time>
      </trkpt>
      <trkpt lat="43.65853" lon="1.39205">
        <ele>133</ele>
        <time>2025-01-10T11:18:36Z</time>
      </trkpt>
      <trkpt lat="43.65855" lon="1.39206">
        <ele>133</ele>
        <time>2025-01-10T11:18:37Z</time>
      </trkpt>
      <trkpt lat="43.65857" lon="1.39208">
        <ele>133</ele>
        <time>2025-01-10T11:18:38Z</time>
      </trkpt>
      <trkpt lat="43.65859" lon="1.3921">
        <ele>134</ele>
        <time>2025-01-10T11:18:39Z</time>
      </trkpt>
      <trkpt lat="43.65861" lon="1.39213">
        <ele>134</ele>
        <time>2025-01-10T11:18:40Z</time>
      </trkpt>
      <trkpt lat="43.65863" lon="1.39215">
        <ele>134</ele>
        <time>2025-01-10T11:18:41Z</time>
      </trkpt>
      <trkpt lat="43.65865" lon="1.39216">
        <ele>134</ele>
        <time>2025-01-10T11:18:42Z</time>
      </trkpt>
      <trkpt lat="43.65868" lon="1.39217">
        <ele>134</ele>
        <time>2025-01-10T11:18:43Z</time>
      </trkpt>
      <trkpt lat="43.65872" lon="1.39216">
        <ele>134</ele>
        <time>2025-01-10T11:18:44Z</time>
      </trkpt>
      <trkpt lat="43.65873" lon="1.39216">
        <ele>135</ele>
        <time>2025-01-10T11:18:45Z</time>
      </trkpt>
      <trkpt lat="43.65876" lon="1.39215">
        <ele>135</ele>
        <time>2025-01-10T11:18:46Z</time>
      </trkpt>
      <trkpt lat="43.65879" lon="1.39215">
        <ele>135</ele>
        <time>2025-01-10T11:18:47Z</time>
      </trkpt>
      <trkpt lat="43.65882" lon="1.39215">
        <ele>135</ele>
        <time>2025-01-10T11:18:48Z</time>
      </trkpt>
      <trkpt lat="43.65885" lon="1.39214">
        <ele>135</ele>
        <time>2025-01-10T11:18:49Z</time>
      </trkpt>
      <trkpt lat="43.65887" lon="1.39215">
        <ele>135</ele>
        <time>2025-01-10T11:18:50Z</time>
      </trkpt>
      <trkpt lat="43.6589" lon="1.39215">
        <ele>135</ele>
        <time>2025-01-10T11:18:51Z</time>
      </trkpt>
      <trkpt lat="43.65893" lon="1.39216">
        <ele>135</ele>
        <time>2025-01-10T11:18:52Z</time>
      </trkpt>
      <trkpt lat="43.65896" lon="1.39217">
        <ele>135</ele>
        <time>2025-01-10T11:18:53Z</time>
      </trkpt>
      <trkpt lat="43.65896" lon="1.39217">
        <ele>135</ele>
        <time>2025-01-10T11:18:54Z</time>
      </trkpt>
      <trkpt lat="43.65902" lon="1.39218">
        <ele>135</ele>
        <time>2025-01-10T11:18:55Z</time>
      </trkpt>
      <trkpt lat="43.65904" lon="1.39219">
        <ele>135</ele>
        <time>2025-01-10T11:18:56Z</time>
      </trkpt>
      <trkpt lat="43.65906" lon="1.39221">
        <ele>135</ele>
        <time>2025-01-10T11:18:57Z</time>
      </trkpt>
      <trkpt lat="43.65909" lon="1.39223">
        <ele>134</ele>
        <time>2025-01-10T11:18:58Z</time>
      </trkpt>
      <trkpt lat="43.65911" lon="1.39225">
        <ele>135</ele>
        <time>2025-01-10T11:18:59Z</time>
      </trkpt>
      <trkpt lat="43.65913" lon="1.39226">
        <ele>135</ele>
        <time>2025-01-10T11:19:00Z</time>
      </trkpt>
      <trkpt lat="43.65915" lon="1.39226">
        <ele>135</ele>
        <time>2025-01-10T11:19:01Z</time>
      </trkpt>
      <trkpt lat="43.65918" lon="1.39226">
        <ele>134</ele>
        <time>2025-01-10T11:19:02Z</time>
      </trkpt>
      <trkpt lat="43.6592" lon="1.39225">
        <ele>133</ele>
        <time>2025-01-10T11:19:03Z</time>
      </trkpt>
      <trkpt lat="43.65923" lon="1.39225">
        <ele>133</ele>
        <time>2025-01-10T11:19:04Z</time>
      </trkpt>
      <trkpt lat="43.65926" lon="1.39225">
        <ele>133</ele>
        <time>2025-01-10T11:19:05Z</time>
      </trkpt>
      <trkpt lat="43.65929" lon="1.39226">
        <ele>133</ele>
        <time>2025-01-10T11:19:06Z</time>
      </trkpt>
      <trkpt lat="43.65931" lon="1.39226">
        <ele>133</ele>
        <time>2025-01-10T11:19:07Z</time>
      </trkpt>
      <trkpt lat="43.65934" lon="1.39227">
        <ele>133</ele>
        <time>2025-01-10T11:19:08Z</time>
      </trkpt>
      <trkpt lat="43.65937" lon="1.39227">
        <ele>133</ele>
        <time>2025-01-10T11:19:09Z</time>
      </trkpt>
      <trkpt lat="43.6594" lon="1.39227">
        <ele>132</ele>
        <time>2025-01-10T11:19:10Z</time>
      </trkpt>
      <trkpt lat="43.65942" lon="1.39228">
        <ele>132</ele>
        <time>2025-01-10T11:19:11Z</time>
      </trkpt>
      <trkpt lat="43.65945" lon="1.39227">
        <ele>132</ele>
        <time>2025-01-10T11:19:12Z</time>
      </trkpt>
      <trkpt lat="43.6595" lon="1.39226">
        <ele>131</ele>
        <time>2025-01-10T11:19:13Z</time>
      </trkpt>
      <trkpt lat="43.65952" lon="1.39225">
        <ele>130</ele>
        <time>2025-01-10T11:19:14Z</time>
      </trkpt>
      <trkpt lat="43.65956" lon="1.39227">
        <ele>130</ele>
        <time>2025-01-10T11:19:15Z</time>
      </trkpt>
      <trkpt lat="43.65958" lon="1.39227">
        <ele>129</ele>
        <time>2025-01-10T11:19:16Z</time>
      </trkpt>
      <trkpt lat="43.6596" lon="1.39228">
        <ele>128</ele>
        <time>2025-01-10T11:19:17Z</time>
      </trkpt>
      <trkpt lat="43.65963" lon="1.3923">
        <ele>127</ele>
        <time>2025-01-10T11:19:18Z</time>
      </trkpt>
      <trkpt lat="43.65965" lon="1.39231">
        <ele>126</ele>
        <time>2025-01-10T11:19:19Z</time>
      </trkpt>
      <trkpt lat="43.65968" lon="1.39232">
        <ele>126</ele>
        <time>2025-01-10T11:19:20Z</time>
      </trkpt>
      <trkpt lat="43.6597" lon="1.39233">
        <ele>126</ele>
        <time>2025-01-10T11:19:21Z</time>
      </trkpt>
      <trkpt lat="43.65972" lon="1.39233">
        <ele>126</ele>
        <time>2025-01-10T11:19:22Z</time>
      </trkpt>
      <trkpt lat="43.65974" lon="1.39233">
        <ele>125</ele>
        <time>2025-01-10T11:19:23Z</time>
      </trkpt>
      <trkpt lat="43.65977" lon="1.39233">
        <ele>125</ele>
        <time>2025-01-10T11:19:24Z</time>
      </trkpt>
      <trkpt lat="43.6598" lon="1.39233">
        <ele>124</ele>
        <time>2025-01-10T11:19:25Z</time>
      </trkpt>
      <trkpt lat="43.65983" lon="1.39234">
        <ele>123</ele>
        <time>2025-01-10T11:19:26Z</time>
      </trkpt>
      <trkpt lat="43.65985" lon="1.39234">
        <ele>123</ele>
        <time>2025-01-10T11:19:27Z</time>
      </trkpt>
      <trkpt lat="43.65988" lon="1.39234">
        <ele>122</ele>
        <time>2025-01-10T11:19:28Z</time>
      </trkpt>
      <trkpt lat="43.65991" lon="1.39233">
        <ele>122</ele>
        <time>2025-01-10T11:19:29Z</time>
      </trkpt>
      <trkpt lat="43.65993" lon="1.39232">
        <ele>121</ele>
        <time>2025-01-10T11:19:30Z</time>
      </trkpt>
      <trkpt lat="43.65995" lon="1.39231">
        <ele>121</ele>
        <time>2025-01-10T11:19:31Z</time>
      </trkpt>
      <trkpt lat="43.65998" lon="1.39231">
        <ele>121</ele>
        <time>2025-01-10T11:19:32Z</time>
      </trkpt>
      <trkpt lat="43.66001" lon="1.39229">
        <ele>121</ele>
        <time>2025-01-10T11:19:33Z</time>
      </trkpt>
      <trkpt lat="43.66003" lon="1.39228">
        <ele>121</ele>
        <time>2025-01-10T11:19:34Z</time>
      </trkpt>
      <trkpt lat="43.66005" lon="1.39227">
        <ele>121</ele>
        <time>2025-01-10T11:19:35Z</time>
      </trkpt>
      <trkpt lat="43.66005" lon="1.39227">
        <ele>121</ele>
        <time>2025-01-10T11:19:36Z</time>
      </trkpt>
      <trkpt lat="43.66007" lon="1.39226">
        <ele>121</ele>
        <time>2025-01-10T11:19:37Z</time>
      </trkpt>
      <trkpt lat="43.66009" lon="1.39226">
        <ele>121</ele>
        <time>2025-01-10T11:19:38Z</time>
      </trkpt>
      <trkpt lat="43.6601" lon="1.39225">
        <ele>121</ele>
        <time>2025-01-10T11:19:39Z</time>
      </trkpt>
      <trkpt lat="43.66012" lon="1.39223">
        <ele>121</ele>
        <time>2025-01-10T11:19:40Z</time>
      </trkpt>
      <trkpt lat="43.66014" lon="1.39222">
        <ele>120</ele>
        <time>2025-01-10T11:19:41Z</time>
      </trkpt>
      <trkpt lat="43.66015" lon="1.39221">
        <ele>120</ele>
        <time>2025-01-10T11:19:42Z</time>
      </trkpt>
      <trkpt lat="43.66017" lon="1.3922">
        <ele>121</ele>
        <time>2025-01-10T11:19:43Z</time>
      </trkpt>
      <trkpt lat="43.66019" lon="1.39219">
        <ele>121</ele>
        <time>2025-01-10T11:19:44Z</time>
      </trkpt>
      <trkpt lat="43.66023" lon="1.39217">
        <ele>121</ele>
        <time>2025-01-10T11:19:45Z</time>
      </trkpt>
      <trkpt lat="43.66028" lon="1.39215">
        <ele>121</ele>
        <time>2025-01-10T11:19:46Z</time>
      </trkpt>
      <trkpt lat="43.6603" lon="1.39215">
        <ele>121</ele>
        <time>2025-01-10T11:19:47Z</time>
      </trkpt>
      <trkpt lat="43.66032" lon="1.39215">
        <ele>121</ele>
        <time>2025-01-10T11:19:48Z</time>
      </trkpt>
      <trkpt lat="43.66034" lon="1.39215">
        <ele>120</ele>
        <time>2025-01-10T11:19:49Z</time>
      </trkpt>
      <trkpt lat="43.66036" lon="1.39214">
        <ele>120</ele>
        <time>2025-01-10T11:19:50Z</time>
      </trkpt>
      <trkpt lat="43.66038" lon="1.39214">
        <ele>120</ele>
        <time>2025-01-10T11:19:51Z</time>
      </trkpt>
      <trkpt lat="43.66041" lon="1.39214">
        <ele>120</ele>
        <time>2025-01-10T11:19:52Z</time>
      </trkpt>
      <trkpt lat="43.66045" lon="1.39213">
        <ele>120</ele>
        <time>2025-01-10T11:19:53Z</time>
      </trkpt>
      <trkpt lat="43.66048" lon="1.39212">
        <ele>120</ele>
        <time>2025-01-10T11:19:54Z</time>
      </trkpt>
      <trkpt lat="43.66051" lon="1.39211">
        <ele>120</ele>
        <time>2025-01-10T11:19:55Z</time>
      </trkpt>
      <trkpt lat="43.66053" lon="1.39211">
        <ele>120</ele>
        <time>2025-01-10T11:19:56Z</time>
      </trkpt>
      <trkpt lat="43.66056" lon="1.3921">
        <ele>120</ele>
        <time>2025-01-10T11:19:57Z</time>
      </trkpt>
      <trkpt lat="43.66059" lon="1.3921">
        <ele>120</ele>
        <time>2025-01-10T11:19:58Z</time>
      </trkpt>
      <trkpt lat="43.66061" lon="1.3921">
        <ele>120</ele>
        <time>2025-01-10T11:19:59Z</time>
      </trkpt>
      <trkpt lat="43.66063" lon="1.39211">
        <ele>120</ele>
        <time>2025-01-10T11:20:00Z</time>
      </trkpt>
      <trkpt lat="43.66065" lon="1.39211">
        <ele>120</ele>
        <time>2025-01-10T11:20:01Z</time>
      </trkpt>
      <trkpt lat="43.66067" lon="1.39211">
        <ele>120</ele>
        <time>2025-01-10T11:20:02Z</time>
      </trkpt>
      <trkpt lat="43.66069" lon="1.39211">
        <ele>120</ele>
        <time>2025-01-10T11:20:03Z</time>
      </trkpt>
      <trkpt lat="43.66071" lon="1.39209">
        <ele>120</ele>
        <time>2025-01-10T11:20:04Z</time>
      </trkpt>
      <trkpt lat="43.66073" lon="1.39209">
        <ele>120</ele>
        <time>2025-01-10T11:20:05Z</time>
      </trkpt>
      <trkpt lat="43.66076" lon="1.39209">
        <ele>120</ele>
        <time>2025-01-10T11:20:06Z</time>
      </trkpt>
      <trkpt lat="43.66076" lon="1.39209">
        <ele>120</ele>
        <time>2025-01-10T11:20:07Z</time>
      </trkpt>
      <trkpt lat="43.66079" lon="1.39209">
        <ele>120</ele>
        <time>2025-01-10T11:20:08Z</time>
      </trkpt>
      <trkpt lat="43.66079" lon="1.39209">
        <ele>120</ele>
        <time>2025-01-10T11:20:09Z</time>
      </trkpt>
      <trkpt lat="43.66084" lon="1.39207">
        <ele>120</ele>
        <time>2025-01-10T11:20:10Z</time>
      </trkpt>
      <trkpt lat="43.66085" lon="1.39206">
        <ele>120</ele>
        <time>2025-01-10T11:20:11Z</time>
      </trkpt>
      <trkpt lat="43.66088" lon="1.39205">
        <ele>120</ele>
        <time>2025-01-10T11:20:12Z</time>
      </trkpt>
      <trkpt lat="43.6609" lon="1.39204">
        <ele>120</ele>
        <time>2025-01-10T11:20:13Z</time>
      </trkpt>
      <trkpt lat="43.66092" lon="1.39202">
        <ele>120</ele>
        <time>2025-01-10T11:20:14Z</time>
      </trkpt>
      <trkpt lat="43.66094" lon="1.39201">
        <ele>120</ele>
        <time>2025-01-10T11:20:15Z</time>
      </trkpt>
      <trkpt lat="43.66097" lon="1.392">
        <ele>120</ele>
        <time>2025-01-10T11:20:16Z</time>
      </trkpt>
      <trkpt lat="43.66099" lon="1.392">
        <ele>120</ele>
        <time>2025-01-10T11:20:17Z</time>
      </trkpt>
      <trkpt lat="43.661" lon="1.39199">
        <ele>120</ele>
        <time>2025-01-10T11:20:18Z</time>
      </trkpt>
      <trkpt lat="43.66103" lon="1.39199">
        <ele>121</ele>
        <time>2025-01-10T11:20:19Z</time>
      </trkpt>
      <trkpt lat="43.66105" lon="1.39198">
        <ele>121</ele>
        <time>2025-01-10T11:20:20Z</time>
      </trkpt>
      <trkpt lat="43.66108" lon="1.39198">
        <ele>121</ele>
        <time>2025-01-10T11:20:21Z</time>
      </trkpt>
      <trkpt lat="43.6611" lon="1.39197">
        <ele>120</ele>
        <time>2025-01-10T11:20:22Z</time>
      </trkpt>
      <trkpt lat="43.66112" lon="1.39197">
        <ele>120</ele>
        <time>2025-01-10T11:20:23Z</time>
      </trkpt>
      <trkpt lat="43.66115" lon="1.39197">
        <ele>120</ele>
        <time>2025-01-10T11:20:24Z</time>
      </trkpt>
      <trkpt lat="43.66117" lon="1.39196">
        <ele>120</ele>
        <time>2025-01-10T11:20:25Z</time>
      </trkpt>
      <trkpt lat="43.6612" lon="1.39196">
        <ele>120</ele>
        <time>2025-01-10T11:20:26Z</time>
      </trkpt>
      <trkpt lat="43.66122" lon="1.39195">
        <ele>120</ele>
        <time>2025-01-10T11:20:27Z</time>
      </trkpt>
      <trkpt lat="43.66125" lon="1.39194">
        <ele>120</ele>
        <time>2025-01-10T11:20:28Z</time>
      </trkpt>
      <trkpt lat="43.66128" lon="1.39194">
        <ele>120</ele>
        <time>2025-01-10T11:20:29Z</time>
      </trkpt>
      <trkpt lat="43.6613" lon="1.39192">
        <ele>120</ele>
        <time>2025-01-10T11:20:30Z</time>
      </trkpt>
      <trkpt lat="43.66132" lon="1.39191">
        <ele>120</ele>
        <time>2025-01-10T11:20:31Z</time>
      </trkpt>
      <trkpt lat="43.66134" lon="1.39189">
        <ele>120</ele>
        <time>2025-01-10T11:20:32Z</time>
      </trkpt>
      <trkpt lat="43.66136" lon="1.39188">
        <ele>120</ele>
        <time>2025-01-10T11:20:33Z</time>
      </trkpt>
      <trkpt lat="43.66139" lon="1.39186">
        <ele>120</ele>
        <time>2025-01-10T11:20:34Z</time>
      </trkpt>
      <trkpt lat="43.66141" lon="1.39184">
        <ele>120</ele>
        <time>2025-01-10T11:20:35Z</time>
      </trkpt>
      <trkpt lat="43.66144" lon="1.39183">
        <ele>120</ele>
        <time>2025-01-10T11:20:36Z</time>
      </trkpt>
      <trkpt lat="43.66146" lon="1.39182">
        <ele>120</ele>
        <time>2025-01-10T11:20:37Z</time>
      </trkpt>
      <trkpt lat="43.66148" lon="1.39181">
        <ele>120</ele>
        <time>2025-01-10T11:20:38Z</time>
      </trkpt>
      <trkpt lat="43.66151" lon="1.3918">
        <ele>120</ele>
        <time>2025-01-10T11:20:39Z</time>
      </trkpt>
      <trkpt lat="43.66153" lon="1.39179">
        <ele>120</ele>
        <time>2025-01-10T11:20:40Z</time>
      </trkpt>
      <trkpt lat="43.66155" lon="1.39177">
        <ele>120</ele>
        <time>2025-01-10T11:20:41Z</time>
      </trkpt>
      <trkpt lat="43.66157" lon="1.39176">
        <ele>120</ele>
        <time>2025-01-10T11:20:42Z</time>
      </trkpt>
      <trkpt lat="43.6616" lon="1.39174">
        <ele>120</ele>
        <time>2025-01-10T11:20:43Z</time>
      </trkpt>
      <trkpt lat="43.6616" lon="1.39174">
        <ele>120</ele>
        <time>2025-01-10T11:20:44Z</time>
      </trkpt>
      <trkpt lat="43.66162" lon="1.39171">
        <ele>120</ele>
        <time>2025-01-10T11:20:45Z</time>
      </trkpt>
      <trkpt lat="43.66164" lon="1.39167">
        <ele>120</ele>
        <time>2025-01-10T11:20:46Z</time>
      </trkpt>
      <trkpt lat="43.66167" lon="1.39164">
        <ele>120</ele>
        <time>2025-01-10T11:20:47Z</time>
      </trkpt>
      <trkpt lat="43.66168" lon="1.39163">
        <ele>120</ele>
        <time>2025-01-10T11:20:48Z</time>
      </trkpt>
      <trkpt lat="43.66169" lon="1.39161">
        <ele>120</ele>
        <time>2025-01-10T11:20:49Z</time>
      </trkpt>
      <trkpt lat="43.66171" lon="1.3916">
        <ele>120</ele>
        <time>2025-01-10T11:20:50Z</time>
      </trkpt>
      <trkpt lat="43.66172" lon="1.39159">
        <ele>120</ele>
        <time>2025-01-10T11:20:51Z</time>
      </trkpt>
      <trkpt lat="43.66173" lon="1.39157">
        <ele>120</ele>
        <time>2025-01-10T11:20:52Z</time>
      </trkpt>
      <trkpt lat="43.66174" lon="1.39156">
        <ele>120</ele>
        <time>2025-01-10T11:20:53Z</time>
      </trkpt>
      <trkpt lat="43.66177" lon="1.39155">
        <ele>120</ele>
        <time>2025-01-10T11:20:54Z</time>
      </trkpt>
      <trkpt lat="43.66181" lon="1.39153">
        <ele>120</ele>
        <time>2025-01-10T11:20:55Z</time>
      </trkpt>
      <trkpt lat="43.66184" lon="1.39152">
        <ele>120</ele>
        <time>2025-01-10T11:20:56Z</time>
      </trkpt>
      <trkpt lat="43.66186" lon="1.3915">
        <ele>120</ele>
        <time>2025-01-10T11:20:57Z</time>
      </trkpt>
      <trkpt lat="43.66188" lon="1.39148">
        <ele>120</ele>
        <time>2025-01-10T11:20:58Z</time>
      </trkpt>
      <trkpt lat="43.6619" lon="1.39147">
        <ele>120</ele>
        <time>2025-01-10T11:20:59Z</time>
      </trkpt>
      <trkpt lat="43.66192" lon="1.39145">
        <ele>120</ele>
        <time>2025-01-10T11:21:00Z</time>
      </trkpt>
      <trkpt lat="43.66195" lon="1.39143">
        <ele>120</ele>
        <time>2025-01-10T11:21:01Z</time>
      </trkpt>
      <trkpt lat="43.66197" lon="1.39142">
        <ele>120</ele>
        <time>2025-01-10T11:21:02Z</time>
      </trkpt>
      <trkpt lat="43.662" lon="1.3914">
        <ele>120</ele>
        <time>2025-01-10T11:21:03Z</time>
      </trkpt>
      <trkpt lat="43.66202" lon="1.39139">
        <ele>120</ele>
        <time>2025-01-10T11:21:04Z</time>
      </trkpt>
      <trkpt lat="43.66206" lon="1.39138">
        <ele>120</ele>
        <time>2025-01-10T11:21:05Z</time>
      </trkpt>
      <trkpt lat="43.6621" lon="1.39137">
        <ele>120</ele>
        <time>2025-01-10T11:21:06Z</time>
      </trkpt>
      <trkpt lat="43.66214" lon="1.39136">
        <ele>120</ele>
        <time>2025-01-10T11:21:07Z</time>
      </trkpt>
      <trkpt lat="43.66217" lon="1.39138">
        <ele>120</ele>
        <time>2025-01-10T11:21:08Z</time>
      </trkpt>
      <trkpt lat="43.66219" lon="1.3914">
        <ele>120</ele>
        <time>2025-01-10T11:21:09Z</time>
      </trkpt>
      <trkpt lat="43.66222" lon="1.39142">
        <ele>120</ele>
        <time>2025-01-10T11:21:10Z</time>
      </trkpt>
      <trkpt lat="43.66224" lon="1.39145">
        <ele>120</ele>
        <time>2025-01-10T11:21:11Z</time>
      </trkpt>
      <trkpt lat="43.66226" lon="1.39147">
        <ele>120</ele>
        <time>2025-01-10T11:21:12Z</time>
      </trkpt>
      <trkpt lat="43.66228" lon="1.3915">
        <ele>120</ele>
        <time>2025-01-10T11:21:13Z</time>
      </trkpt>
      <trkpt lat="43.6623" lon="1.39152">
        <ele>120</ele>
        <time>2025-01-10T11:21:14Z</time>
      </trkpt>
      <trkpt lat="43.66232" lon="1.39154">
        <ele>120</ele>
        <time>2025-01-10T11:21:15Z</time>
      </trkpt>
      <trkpt lat="43.66234" lon="1.39157">
        <ele>120</ele>
        <time>2025-01-10T11:21:16Z</time>
      </trkpt>
      <trkpt lat="43.66236" lon="1.39159">
        <ele>120</ele>
        <time>2025-01-10T11:21:17Z</time>
      </trkpt>
      <trkpt lat="43.66238" lon="1.39161">
        <ele>120</ele>
        <time>2025-01-10T11:21:18Z</time>
      </trkpt>
      <trkpt lat="43.66238" lon="1.39161">
        <ele>120</ele>
        <time>2025-01-10T11:21:19Z</time>
      </trkpt>
      <trkpt lat="43.66242" lon="1.39164">
        <ele>120</ele>
        <time>2025-01-10T11:21:20Z</time>
      </trkpt>
      <trkpt lat="43.66244" lon="1.39164">
        <ele>120</ele>
        <time>2025-01-10T11:21:21Z</time>
      </trkpt>
      <trkpt lat="43.66245" lon="1.39164">
        <ele>120</ele>
        <time>2025-01-10T11:21:22Z</time>
      </trkpt>
      <trkpt lat="43.66247" lon="1.39161">
        <ele>120</ele>
        <time>2025-01-10T11:21:23Z</time>
      </trkpt>
      <trkpt lat="43.66248" lon="1.39158">
        <ele>120</ele>
        <time>2025-01-10T11:21:24Z</time>
      </trkpt>
      <trkpt lat="43.66248" lon="1.39156">
        <ele>120</ele>
        <time>2025-01-10T11:21:25Z</time>
      </trkpt>
      <trkpt lat="43.66248" lon="1.39156">
        <ele>120</ele>
        <time>2025-01-10T11:21:26Z</time>
      </trkpt>
      <trkpt lat="43.66249" lon="1.39151">
        <ele>120</ele>
        <time>2025-01-10T11:21:27Z</time>
      </trkpt>
      <trkpt lat="43.6625" lon="1.39147">
        <ele>120</ele>
        <time>2025-01-10T11:21:28Z</time>
      </trkpt>
      <trkpt lat="43.6625" lon="1.39144">
        <ele>120</ele>
        <time>2025-01-10T11:21:29Z</time>
      </trkpt>
      <trkpt lat="43.66249" lon="1.3914">
        <ele>120</ele>
        <time>2025-01-10T11:21:30Z</time>
      </trkpt>
      <trkpt lat="43.66249" lon="1.39137">
        <ele>120</ele>
        <time>2025-01-10T11:21:31Z</time>
      </trkpt>
      <trkpt lat="43.66249" lon="1.39133">
        <ele>120</ele>
        <time>2025-01-10T11:21:32Z</time>
      </trkpt>
      <trkpt lat="43.66249" lon="1.39129">
        <ele>120</ele>
        <time>2025-01-10T11:21:33Z</time>
      </trkpt>
      <trkpt lat="43.66249" lon="1.39126">
        <ele>120</ele>
        <time>2025-01-10T11:21:34Z</time>
      </trkpt>
      <trkpt lat="43.66249" lon="1.39121">
        <ele>120</ele>
        <time>2025-01-10T11:21:35Z</time>
      </trkpt>
      <trkpt lat="43.66249" lon="1.39118">
        <ele>120</ele>
        <time>2025-01-10T11:21:36Z</time>
      </trkpt>
      <trkpt lat="43.66249" lon="1.39112">
        <ele>120</ele>
        <time>2025-01-10T11:21:37Z</time>
      </trkpt>
      <trkpt lat="43.66249" lon="1.39111">
        <ele>120</ele>
        <time>2025-01-10T11:21:38Z</time>
      </trkpt>
      <trkpt lat="43.6625" lon="1.39107">
        <ele>120</ele>
        <time>2025-01-10T11:21:39Z</time>
      </trkpt>
      <trkpt lat="43.66251" lon="1.39104">
        <ele>120</ele>
        <time>2025-01-10T11:21:40Z</time>
      </trkpt>
      <trkpt lat="43.66252" lon="1.39101">
        <ele>120</ele>
        <time>2025-01-10T11:21:41Z</time>
      </trkpt>
      <trkpt lat="43.66254" lon="1.39099">
        <ele>119</ele>
        <time>2025-01-10T11:21:42Z</time>
      </trkpt>
      <trkpt lat="43.66255" lon="1.39096">
        <ele>119</ele>
        <time>2025-01-10T11:21:43Z</time>
      </trkpt>
      <trkpt lat="43.66256" lon="1.39094">
        <ele>119</ele>
        <time>2025-01-10T11:21:44Z</time>
      </trkpt>
      <trkpt lat="43.66258" lon="1.39091">
        <ele>119</ele>
        <time>2025-01-10T11:21:45Z</time>
      </trkpt>
      <trkpt lat="43.6626" lon="1.39088">
        <ele>119</ele>
        <time>2025-01-10T11:21:46Z</time>
      </trkpt>
      <trkpt lat="43.6626" lon="1.39088">
        <ele>119</ele>
        <time>2025-01-10T11:21:47Z</time>
      </trkpt>
      <trkpt lat="43.66261" lon="1.39085">
        <ele>119</ele>
        <time>2025-01-10T11:21:48Z</time>
      </trkpt>
      <trkpt lat="43.66263" lon="1.39081">
        <ele>119</ele>
        <time>2025-01-10T11:21:49Z</time>
      </trkpt>
      <trkpt lat="43.66264" lon="1.39078">
        <ele>119</ele>
        <time>2025-01-10T11:21:50Z</time>
      </trkpt>
      <trkpt lat="43.66265" lon="1.39075">
        <ele>119</ele>
        <time>2025-01-10T11:21:51Z</time>
      </trkpt>
      <trkpt lat="43.66265" lon="1.39073">
        <ele>119</ele>
        <time>2025-01-10T11:21:52Z</time>
      </trkpt>
      <trkpt lat="43.66266" lon="1.3907">
        <ele>119</ele>
        <time>2025-01-10T11:21:53Z</time>
      </trkpt>
      <trkpt lat="43.66266" lon="1.39067">
        <ele>118</ele>
        <time>2025-01-10T11:21:54Z</time>
      </trkpt>
      <trkpt lat="43.66265" lon="1.39064">
        <ele>118</ele>
        <time>2025-01-10T11:21:55Z</time>
      </trkpt>
      <trkpt lat="43.66265" lon="1.3906">
        <ele>118</ele>
        <time>2025-01-10T11:21:56Z</time>
      </trkpt>
      <trkpt lat="43.66265" lon="1.39056">
        <ele>118</ele>
        <time>2025-01-10T11:21:57Z</time>
      </trkpt>
      <trkpt lat="43.66265" lon="1.39056">
        <ele>118</ele>
        <time>2025-01-10T11:21:58Z</time>
      </trkpt>
      <trkpt lat="43.66265" lon="1.39052">
        <ele>118</ele>
        <time>2025-01-10T11:21:59Z</time>
      </trkpt>
      <trkpt lat="43.66266" lon="1.3905">
        <ele>118</ele>
        <time>2025-01-10T11:22:00Z</time>
      </trkpt>
      <trkpt lat="43.66267" lon="1.39047">
        <ele>118</ele>
        <time>2025-01-10T11:22:01Z</time>
      </trkpt>
      <trkpt lat="43.66268" lon="1.39045">
        <ele>117</ele>
        <time>2025-01-10T11:22:02Z</time>
      </trkpt>
      <trkpt lat="43.6627" lon="1.39038">
        <ele>118</ele>
        <time>2025-01-10T11:22:03Z</time>
      </trkpt>
      <trkpt lat="43.66276" lon="1.39028">
        <ele>118</ele>
        <time>2025-01-10T11:22:05Z</time>
      </trkpt>
      <trkpt lat="43.66277" lon="1.39026">
        <ele>118</ele>
        <time>2025-01-10T11:22:06Z</time>
      </trkpt>
      <trkpt lat="43.66278" lon="1.39025">
        <ele>118</ele>
        <time>2025-01-10T11:22:07Z</time>
      </trkpt>
      <trkpt lat="43.66278" lon="1.39023">
        <ele>118</ele>
        <time>2025-01-10T11:22:08Z</time>
      </trkpt>
      <trkpt lat="43.66279" lon="1.39022">
        <ele>118</ele>
        <time>2025-01-10T11:22:09Z</time>
      </trkpt>
      <trkpt lat="43.66283" lon="1.39014">
        <ele>118</ele>
        <time>2025-01-10T11:22:10Z</time>
      </trkpt>
      <trkpt lat="43.66284" lon="1.39012">
        <ele>118</ele>
        <time>2025-01-10T11:22:11Z</time>
      </trkpt>
      <trkpt lat="43.66285" lon="1.39009">
        <ele>118</ele>
        <time>2025-01-10T11:22:12Z</time>
      </trkpt>
      <trkpt lat="43.66287" lon="1.39007">
        <ele>118</ele>
        <time>2025-01-10T11:22:13Z</time>
      </trkpt>
      <trkpt lat="43.66288" lon="1.39005">
        <ele>118</ele>
        <time>2025-01-10T11:22:14Z</time>
      </trkpt>
      <trkpt lat="43.66291" lon="1.39">
        <ele>119</ele>
        <time>2025-01-10T11:22:15Z</time>
      </trkpt>
      <trkpt lat="43.66294" lon="1.38995">
        <ele>119</ele>
        <time>2025-01-10T11:22:16Z</time>
      </trkpt>
      <trkpt lat="43.66295" lon="1.38993">
        <ele>119</ele>
        <time>2025-01-10T11:22:17Z</time>
      </trkpt>
      <trkpt lat="43.66297" lon="1.38991">
        <ele>119</ele>
        <time>2025-01-10T11:22:18Z</time>
      </trkpt>
      <trkpt lat="43.66298" lon="1.3899">
        <ele>119</ele>
        <time>2025-01-10T11:22:19Z</time>
      </trkpt>
      <trkpt lat="43.66299" lon="1.38988">
        <ele>119</ele>
        <time>2025-01-10T11:22:20Z</time>
      </trkpt>
      <trkpt lat="43.66301" lon="1.38986">
        <ele>119</ele>
        <time>2025-01-10T11:22:21Z</time>
      </trkpt>
      <trkpt lat="43.66302" lon="1.38984">
        <ele>119</ele>
        <time>2025-01-10T11:22:22Z</time>
      </trkpt>
      <trkpt lat="43.66303" lon="1.38981">
        <ele>119</ele>
        <time>2025-01-10T11:22:23Z</time>
      </trkpt>
      <trkpt lat="43.66304" lon="1.38978">
        <ele>119</ele>
        <time>2025-01-10T11:22:24Z</time>
      </trkpt>
      <trkpt lat="43.66304" lon="1.38974">
        <ele>119</ele>
        <time>2025-01-10T11:22:25Z</time>
      </trkpt>
      <trkpt lat="43.66304" lon="1.38974">
        <ele>119</ele>
        <time>2025-01-10T11:22:26Z</time>
      </trkpt>
      <trkpt lat="43.66305" lon="1.3897">
        <ele>118</ele>
        <time>2025-01-10T11:22:27Z</time>
      </trkpt>
      <trkpt lat="43.66305" lon="1.3897">
        <ele>118</ele>
        <time>2025-01-10T11:22:28Z</time>
      </trkpt>
      <trkpt lat="43.66305" lon="1.38965">
        <ele>118</ele>
        <time>2025-01-10T11:22:29Z</time>
      </trkpt>
      <trkpt lat="43.66305" lon="1.38965">
        <ele>118</ele>
        <time>2025-01-10T11:22:30Z</time>
      </trkpt>
      <trkpt lat="43.66308" lon="1.38963">
        <ele>118</ele>
        <time>2025-01-10T11:22:31Z</time>
      </trkpt>
      <trkpt lat="43.66309" lon="1.38962">
        <ele>118</ele>
        <time>2025-01-10T11:22:32Z</time>
      </trkpt>
      <trkpt lat="43.66309" lon="1.38962">
        <ele>118</ele>
        <time>2025-01-10T11:22:33Z</time>
      </trkpt>
      <trkpt lat="43.66316" lon="1.38955">
        <ele>118</ele>
        <time>2025-01-10T11:22:34Z</time>
      </trkpt>
      <trkpt lat="43.66317" lon="1.38954">
        <ele>118</ele>
        <time>2025-01-10T11:22:35Z</time>
      </trkpt>
      <trkpt lat="43.66321" lon="1.3895">
        <ele>118</ele>
        <time>2025-01-10T11:22:36Z</time>
      </trkpt>
      <trkpt lat="43.66322" lon="1.38948">
        <ele>119</ele>
        <time>2025-01-10T11:22:37Z</time>
      </trkpt>
      <trkpt lat="43.66324" lon="1.38945">
        <ele>119</ele>
        <time>2025-01-10T11:22:38Z</time>
      </trkpt>
      <trkpt lat="43.66326" lon="1.38943">
        <ele>119</ele>
        <time>2025-01-10T11:22:39Z</time>
      </trkpt>
      <trkpt lat="43.66328" lon="1.3894">
        <ele>119</ele>
        <time>2025-01-10T11:22:40Z</time>
      </trkpt>
      <trkpt lat="43.6633" lon="1.38937">
        <ele>118</ele>
        <time>2025-01-10T11:22:41Z</time>
      </trkpt>
      <trkpt lat="43.66333" lon="1.38934">
        <ele>119</ele>
        <time>2025-01-10T11:22:42Z</time>
      </trkpt>
      <trkpt lat="43.66335" lon="1.3893">
        <ele>119</ele>
        <time>2025-01-10T11:22:43Z</time>
      </trkpt>
      <trkpt lat="43.66335" lon="1.3893">
        <ele>119</ele>
        <time>2025-01-10T11:22:44Z</time>
      </trkpt>
      <trkpt lat="43.66342" lon="1.38921">
        <ele>118</ele>
        <time>2025-01-10T11:22:45Z</time>
      </trkpt>
      <trkpt lat="43.66343" lon="1.38919">
        <ele>117</ele>
        <time>2025-01-10T11:22:46Z</time>
      </trkpt>
      <trkpt lat="43.66345" lon="1.38916">
        <ele>118</ele>
        <time>2025-01-10T11:22:47Z</time>
      </trkpt>
      <trkpt lat="43.66347" lon="1.38914">
        <ele>118</ele>
        <time>2025-01-10T11:22:48Z</time>
      </trkpt>
      <trkpt lat="43.66349" lon="1.38911">
        <ele>118</ele>
        <time>2025-01-10T11:22:49Z</time>
      </trkpt>
      <trkpt lat="43.66351" lon="1.38909">
        <ele>118</ele>
        <time>2025-01-10T11:22:50Z</time>
      </trkpt>
      <trkpt lat="43.66353" lon="1.38907">
        <ele>118</ele>
        <time>2025-01-10T11:22:51Z</time>
      </trkpt>
      <trkpt lat="43.66355" lon="1.38904">
        <ele>118</ele>
        <time>2025-01-10T11:22:52Z</time>
      </trkpt>
      <trkpt lat="43.66357" lon="1.38901">
        <ele>118</ele>
        <time>2025-01-10T11:22:53Z</time>
      </trkpt>
      <trkpt lat="43.66358" lon="1.38897">
        <ele>118</ele>
        <time>2025-01-10T11:22:54Z</time>
      </trkpt>
      <trkpt lat="43.6636" lon="1.38895">
        <ele>118</ele>
        <time>2025-01-10T11:22:55Z</time>
      </trkpt>
      <trkpt lat="43.66361" lon="1.38892">
        <ele>118</ele>
        <time>2025-01-10T11:22:56Z</time>
      </trkpt>
      <trkpt lat="43.66363" lon="1.38888">
        <ele>118</ele>
        <time>2025-01-10T11:22:57Z</time>
      </trkpt>
      <trkpt lat="43.66364" lon="1.38885">
        <ele>118</ele>
        <time>2025-01-10T11:22:58Z</time>
      </trkpt>
      <trkpt lat="43.66365" lon="1.38883">
        <ele>118</ele>
        <time>2025-01-10T11:22:59Z</time>
      </trkpt>
      <trkpt lat="43.66367" lon="1.3888">
        <ele>118</ele>
        <time>2025-01-10T11:23:00Z</time>
      </trkpt>
      <trkpt lat="43.66369" lon="1.38877">
        <ele>118</ele>
        <time>2025-01-10T11:23:01Z</time>
      </trkpt>
      <trkpt lat="43.66371" lon="1.38875">
        <ele>118</ele>
        <time>2025-01-10T11:23:02Z</time>
      </trkpt>
      <trkpt lat="43.66372" lon="1.38873">
        <ele>118</ele>
        <time>2025-01-10T11:23:03Z</time>
      </trkpt>
      <trkpt lat="43.66374" lon="1.38871">
        <ele>118</ele>
        <time>2025-01-10T11:23:04Z</time>
      </trkpt>
      <trkpt lat="43.66376" lon="1.38869">
        <ele>117</ele>
        <time>2025-01-10T11:23:05Z</time>
      </trkpt>
      <trkpt lat="43.66378" lon="1.38866">
        <ele>117</ele>
        <time>2025-01-10T11:23:06Z</time>
      </trkpt>
      <trkpt lat="43.66379" lon="1.38864">
        <ele>117</ele>
        <time>2025-01-10T11:23:07Z</time>
      </trkpt>
      <trkpt lat="43.66381" lon="1.38861">
        <ele>117</ele>
        <time>2025-01-10T11:23:08Z</time>
      </trkpt>
      <trkpt lat="43.66383" lon="1.38859">
        <ele>117</ele>
        <time>2025-01-10T11:23:09Z</time>
      </trkpt>
      <trkpt lat="43.66385" lon="1.38857">
        <ele>117</ele>
        <time>2025-01-10T11:23:10Z</time>
      </trkpt>
      <trkpt lat="43.66387" lon="1.38855">
        <ele>117</ele>
        <time>2025-01-10T11:23:11Z</time>
      </trkpt>
      <trkpt lat="43.6639" lon="1.38853">
        <ele>117</ele>
        <time>2025-01-10T11:23:12Z</time>
      </trkpt>
      <trkpt lat="43.66392" lon="1.38852">
        <ele>117</ele>
        <time>2025-01-10T11:23:13Z</time>
      </trkpt>
      <trkpt lat="43.66395" lon="1.3885">
        <ele>117</ele>
        <time>2025-01-10T11:23:14Z</time>
      </trkpt>
      <trkpt lat="43.66397" lon="1.38848">
        <ele>118</ele>
        <time>2025-01-10T11:23:15Z</time>
      </trkpt>
      <trkpt lat="43.66399" lon="1.38846">
        <ele>118</ele>
        <time>2025-01-10T11:23:16Z</time>
      </trkpt>
      <trkpt lat="43.66401" lon="1.38844">
        <ele>118</ele>
        <time>2025-01-10T11:23:17Z</time>
      </trkpt>
      <trkpt lat="43.66404" lon="1.38842">
        <ele>119</ele>
        <time>2025-01-10T11:23:18Z</time>
      </trkpt>
      <trkpt lat="43.66404" lon="1.38842">
        <ele>119</ele>
        <time>2025-01-10T11:23:19Z</time>
      </trkpt>
      <trkpt lat="43.66409" lon="1.38838">
        <ele>119</ele>
        <time>2025-01-10T11:23:20Z</time>
      </trkpt>
      <trkpt lat="43.66411" lon="1.38837">
        <ele>119</ele>
        <time>2025-01-10T11:23:21Z</time>
      </trkpt>
      <trkpt lat="43.66413" lon="1.38835">
        <ele>119</ele>
        <time>2025-01-10T11:23:22Z</time>
      </trkpt>
      <trkpt lat="43.66415" lon="1.38834">
        <ele>119</ele>
        <time>2025-01-10T11:23:23Z</time>
      </trkpt>
      <trkpt lat="43.66417" lon="1.38832">
        <ele>119</ele>
        <time>2025-01-10T11:23:24Z</time>
      </trkpt>
      <trkpt lat="43.6642" lon="1.3883">
        <ele>119</ele>
        <time>2025-01-10T11:23:25Z</time>
      </trkpt>
      <trkpt lat="43.66422" lon="1.38828">
        <ele>119</ele>
        <time>2025-01-10T11:23:26Z</time>
      </trkpt>
      <trkpt lat="43.66424" lon="1.38826">
        <ele>119</ele>
        <time>2025-01-10T11:23:27Z</time>
      </trkpt>
      <trkpt lat="43.66428" lon="1.38823">
        <ele>119</ele>
        <time>2025-01-10T11:23:28Z</time>
      </trkpt>
      <trkpt lat="43.66429" lon="1.38822">
        <ele>119</ele>
        <time>2025-01-10T11:23:29Z</time>
      </trkpt>
      <trkpt lat="43.66431" lon="1.3882">
        <ele>119</ele>
        <time>2025-01-10T11:23:30Z</time>
      </trkpt>
      <trkpt lat="43.66433" lon="1.38819">
        <ele>119</ele>
        <time>2025-01-10T11:23:31Z</time>
      </trkpt>
      <trkpt lat="43.66433" lon="1.38819">
        <ele>119</ele>
        <time>2025-01-10T11:23:32Z</time>
      </trkpt>
      <trkpt lat="43.66437" lon="1.38817">
        <ele>119</ele>
        <time>2025-01-10T11:23:33Z</time>
      </trkpt>
      <trkpt lat="43.66439" lon="1.38816">
        <ele>119</ele>
        <time>2025-01-10T11:23:34Z</time>
      </trkpt>
      <trkpt lat="43.66441" lon="1.38815">
        <ele>119</ele>
        <time>2025-01-10T11:23:35Z</time>
      </trkpt>
      <trkpt lat="43.66443" lon="1.38814">
        <ele>119</ele>
        <time>2025-01-10T11:23:36Z</time>
      </trkpt>
      <trkpt lat="43.66446" lon="1.38812">
        <ele>120</ele>
        <time>2025-01-10T11:23:37Z</time>
      </trkpt>
      <trkpt lat="43.66448" lon="1.3881">
        <ele>120</ele>
        <time>2025-01-10T11:23:38Z</time>
      </trkpt>
      <trkpt lat="43.66452" lon="1.38806">
        <ele>119</ele>
        <time>2025-01-10T11:23:40Z</time>
      </trkpt>
      <trkpt lat="43.66456" lon="1.38803">
        <ele>119</ele>
        <time>2025-01-10T11:23:41Z</time>
      </trkpt>
      <trkpt lat="43.66457" lon="1.38802">
        <ele>119</ele>
        <time>2025-01-10T11:23:42Z</time>
      </trkpt>
      <trkpt lat="43.66459" lon="1.388">
        <ele>119</ele>
        <time>2025-01-10T11:23:43Z</time>
      </trkpt>
      <trkpt lat="43.66461" lon="1.38798">
        <ele>119</ele>
        <time>2025-01-10T11:23:44Z</time>
      </trkpt>
      <trkpt lat="43.66463" lon="1.38796">
        <ele>119</ele>
        <time>2025-01-10T11:23:45Z</time>
      </trkpt>
      <trkpt lat="43.66465" lon="1.38794">
        <ele>119</ele>
        <time>2025-01-10T11:23:46Z</time>
      </trkpt>
      <trkpt lat="43.66467" lon="1.38792">
        <ele>119</ele>
        <time>2025-01-10T11:23:47Z</time>
      </trkpt>
      <trkpt lat="43.66469" lon="1.3879">
        <ele>119</ele>
        <time>2025-01-10T11:23:48Z</time>
      </trkpt>
      <trkpt lat="43.66471" lon="1.38789">
        <ele>119</ele>
        <time>2025-01-10T11:23:49Z</time>
      </trkpt>
      <trkpt lat="43.66473" lon="1.38787">
        <ele>119</ele>
        <time>2025-01-10T11:23:50Z</time>
      </trkpt>
      <trkpt lat="43.66474" lon="1.38785">
        <ele>119</ele>
        <time>2025-01-10T11:23:51Z</time>
      </trkpt>
      <trkpt lat="43.66476" lon="1.38783">
        <ele>119</ele>
        <time>2025-01-10T11:23:52Z</time>
      </trkpt>
      <trkpt lat="43.66479" lon="1.38781">
        <ele>119</ele>
        <time>2025-01-10T11:23:53Z</time>
      </trkpt>
      <trkpt lat="43.66481" lon="1.3878">
        <ele>119</ele>
        <time>2025-01-10T11:23:54Z</time>
      </trkpt>
      <trkpt lat="43.66484" lon="1.38778">
        <ele>119</ele>
        <time>2025-01-10T11:23:55Z</time>
      </trkpt>
      <trkpt lat="43.66485" lon="1.38776">
        <ele>119</ele>
        <time>2025-01-10T11:23:56Z</time>
      </trkpt>
      <trkpt lat="43.66487" lon="1.38775">
        <ele>119</ele>
        <time>2025-01-10T11:23:57Z</time>
      </trkpt>
      <trkpt lat="43.66489" lon="1.38773">
        <ele>119</ele>
        <time>2025-01-10T11:23:58Z</time>
      </trkpt>
      <trkpt lat="43.66491" lon="1.38771">
        <ele>119</ele>
        <time>2025-01-10T11:23:59Z</time>
      </trkpt>
      <trkpt lat="43.66494" lon="1.38769">
        <ele>119</ele>
        <time>2025-01-10T11:24:00Z</time>
      </trkpt>
      <trkpt lat="43.66496" lon="1.38766">
        <ele>119</ele>
        <time>2025-01-10T11:24:01Z</time>
      </trkpt>
      <trkpt lat="43.66499" lon="1.38764">
        <ele>119</ele>
        <time>2025-01-10T11:24:02Z</time>
      </trkpt>
      <trkpt lat="43.66501" lon="1.38762">
        <ele>119</ele>
        <time>2025-01-10T11:24:03Z</time>
      </trkpt>
      <trkpt lat="43.66504" lon="1.3876">
        <ele>119</ele>
        <time>2025-01-10T11:24:04Z</time>
      </trkpt>
      <trkpt lat="43.66505" lon="1.38757">
        <ele>119</ele>
        <time>2025-01-10T11:24:05Z</time>
      </trkpt>
      <trkpt lat="43.66507" lon="1.38754">
        <ele>119</ele>
        <time>2025-01-10T11:24:06Z</time>
      </trkpt>
      <trkpt lat="43.66509" lon="1.38752">
        <ele>119</ele>
        <time>2025-01-10T11:24:07Z</time>
      </trkpt>
      <trkpt lat="43.6651" lon="1.3875">
        <ele>119</ele>
        <time>2025-01-10T11:24:08Z</time>
      </trkpt>
      <trkpt lat="43.66512" lon="1.38748">
        <ele>119</ele>
        <time>2025-01-10T11:24:09Z</time>
      </trkpt>
      <trkpt lat="43.66514" lon="1.38745">
        <ele>119</ele>
        <time>2025-01-10T11:24:10Z</time>
      </trkpt>
      <trkpt lat="43.66516" lon="1.38743">
        <ele>119</ele>
        <time>2025-01-10T11:24:11Z</time>
      </trkpt>
      <trkpt lat="43.66518" lon="1.38739">
        <ele>119</ele>
        <time>2025-01-10T11:24:12Z</time>
      </trkpt>
      <trkpt lat="43.66519" lon="1.38738">
        <ele>119</ele>
        <time>2025-01-10T11:24:13Z</time>
      </trkpt>
      <trkpt lat="43.6652" lon="1.38736">
        <ele>119</ele>
        <time>2025-01-10T11:24:14Z</time>
      </trkpt>
      <trkpt lat="43.66522" lon="1.38734">
        <ele>118</ele>
        <time>2025-01-10T11:24:15Z</time>
      </trkpt>
      <trkpt lat="43.66525" lon="1.38732">
        <ele>118</ele>
        <time>2025-01-10T11:24:16Z</time>
      </trkpt>
      <trkpt lat="43.66527" lon="1.3873">
        <ele>118</ele>
        <time>2025-01-10T11:24:17Z</time>
      </trkpt>
      <trkpt lat="43.66529" lon="1.38727">
        <ele>118</ele>
        <time>2025-01-10T11:24:18Z</time>
      </trkpt>
      <trkpt lat="43.66531" lon="1.38725">
        <ele>118</ele>
        <time>2025-01-10T11:24:19Z</time>
      </trkpt>
      <trkpt lat="43.66533" lon="1.38722">
        <ele>118</ele>
        <time>2025-01-10T11:24:20Z</time>
      </trkpt>
      <trkpt lat="43.66535" lon="1.38719">
        <ele>118</ele>
        <time>2025-01-10T11:24:21Z</time>
      </trkpt>
      <trkpt lat="43.66539" lon="1.38717">
        <ele>118</ele>
        <time>2025-01-10T11:24:22Z</time>
      </trkpt>
      <trkpt lat="43.66542" lon="1.38715">
        <ele>119</ele>
        <time>2025-01-10T11:24:23Z</time>
      </trkpt>
      <trkpt lat="43.66545" lon="1.38714">
        <ele>119</ele>
        <time>2025-01-10T11:24:24Z</time>
      </trkpt>
      <trkpt lat="43.66548" lon="1.38714">
        <ele>119</ele>
        <time>2025-01-10T11:24:25Z</time>
      </trkpt>
      <trkpt lat="43.66551" lon="1.38715">
        <ele>119</ele>
        <time>2025-01-10T11:24:26Z</time>
      </trkpt>
      <trkpt lat="43.66555" lon="1.38717">
        <ele>119</ele>
        <time>2025-01-10T11:24:27Z</time>
      </trkpt>
      <trkpt lat="43.66557" lon="1.38719">
        <ele>119</ele>
        <time>2025-01-10T11:24:28Z</time>
      </trkpt>
      <trkpt lat="43.6656" lon="1.3872">
        <ele>118</ele>
        <time>2025-01-10T11:24:29Z</time>
      </trkpt>
      <trkpt lat="43.66562" lon="1.38722">
        <ele>118</ele>
        <time>2025-01-10T11:24:30Z</time>
      </trkpt>
      <trkpt lat="43.66564" lon="1.38724">
        <ele>118</ele>
        <time>2025-01-10T11:24:31Z</time>
      </trkpt>
      <trkpt lat="43.66566" lon="1.38726">
        <ele>118</ele>
        <time>2025-01-10T11:24:32Z</time>
      </trkpt>
      <trkpt lat="43.66567" lon="1.38728">
        <ele>118</ele>
        <time>2025-01-10T11:24:33Z</time>
      </trkpt>
      <trkpt lat="43.66569" lon="1.38729">
        <ele>118</ele>
        <time>2025-01-10T11:24:34Z</time>
      </trkpt>
      <trkpt lat="43.66572" lon="1.38732">
        <ele>117</ele>
        <time>2025-01-10T11:24:35Z</time>
      </trkpt>
      <trkpt lat="43.66574" lon="1.38735">
        <ele>117</ele>
        <time>2025-01-10T11:24:36Z</time>
      </trkpt>
      <trkpt lat="43.66577" lon="1.38738">
        <ele>117</ele>
        <time>2025-01-10T11:24:37Z</time>
      </trkpt>
      <trkpt lat="43.6658" lon="1.38741">
        <ele>117</ele>
        <time>2025-01-10T11:24:38Z</time>
      </trkpt>
      <trkpt lat="43.66582" lon="1.38744">
        <ele>117</ele>
        <time>2025-01-10T11:24:39Z</time>
      </trkpt>
      <trkpt lat="43.66583" lon="1.38746">
        <ele>118</ele>
        <time>2025-01-10T11:24:40Z</time>
      </trkpt>
      <trkpt lat="43.66585" lon="1.38747">
        <ele>118</ele>
        <time>2025-01-10T11:24:41Z</time>
      </trkpt>
      <trkpt lat="43.66587" lon="1.3875">
        <ele>118</ele>
        <time>2025-01-10T11:24:42Z</time>
      </trkpt>
      <trkpt lat="43.66588" lon="1.38752">
        <ele>118</ele>
        <time>2025-01-10T11:24:43Z</time>
      </trkpt>
      <trkpt lat="43.6659" lon="1.38754">
        <ele>118</ele>
        <time>2025-01-10T11:24:44Z</time>
      </trkpt>
      <trkpt lat="43.66591" lon="1.38756">
        <ele>118</ele>
        <time>2025-01-10T11:24:45Z</time>
      </trkpt>
      <trkpt lat="43.66592" lon="1.38759">
        <ele>118</ele>
        <time>2025-01-10T11:24:46Z</time>
      </trkpt>
      <trkpt lat="43.66594" lon="1.38761">
        <ele>118</ele>
        <time>2025-01-10T11:24:47Z</time>
      </trkpt>
      <trkpt lat="43.66595" lon="1.38763">
        <ele>118</ele>
        <time>2025-01-10T11:24:48Z</time>
      </trkpt>
      <trkpt lat="43.66595" lon="1.38763">
        <ele>118</ele>
        <time>2025-01-10T11:24:49Z</time>
      </trkpt>
      <trkpt lat="43.66596" lon="1.38767">
        <ele>118</ele>
        <time>2025-01-10T11:24:50Z</time>
      </trkpt>
      <trkpt lat="43.66596" lon="1.38767">
        <ele>118</ele>
        <time>2025-01-10T11:24:51Z</time>
      </trkpt>
      <trkpt lat="43.66598" lon="1.3877">
        <ele>118</ele>
        <time>2025-01-10T11:24:52Z</time>
      </trkpt>
      <trkpt lat="43.66598" lon="1.3877">
        <ele>118</ele>
        <time>2025-01-10T11:24:53Z</time>
      </trkpt>
      <trkpt lat="43.66599" lon="1.38773">
        <ele>118</ele>
        <time>2025-01-10T11:24:54Z</time>
      </trkpt>
      <trkpt lat="43.66599" lon="1.38773">
        <ele>118</ele>
        <time>2025-01-10T11:24:55Z</time>
      </trkpt>
      <trkpt lat="43.666" lon="1.38776">
        <ele>118</ele>
        <time>2025-01-10T11:24:56Z</time>
      </trkpt>
      <trkpt lat="43.666" lon="1.38776">
        <ele>118</ele>
        <time>2025-01-10T11:24:57Z</time>
      </trkpt>
      <trkpt lat="43.66602" lon="1.3878">
        <ele>118</ele>
        <time>2025-01-10T11:24:58Z</time>
      </trkpt>
      <trkpt lat="43.66602" lon="1.3878">
        <ele>118</ele>
        <time>2025-01-10T11:24:59Z</time>
      </trkpt>
      <trkpt lat="43.66603" lon="1.38783">
        <ele>118</ele>
        <time>2025-01-10T11:25:00Z</time>
      </trkpt>
      <trkpt lat="43.66603" lon="1.38783">
        <ele>118</ele>
        <time>2025-01-10T11:25:01Z</time>
      </trkpt>
      <trkpt lat="43.66604" lon="1.38787">
        <ele>118</ele>
        <time>2025-01-10T11:25:02Z</time>
      </trkpt>
      <trkpt lat="43.66604" lon="1.38787">
        <ele>119</ele>
        <time>2025-01-10T11:25:03Z</time>
      </trkpt>
      <trkpt lat="43.66604" lon="1.38791">
        <ele>119</ele>
        <time>2025-01-10T11:25:04Z</time>
      </trkpt>
      <trkpt lat="43.66604" lon="1.38791">
        <ele>119</ele>
        <time>2025-01-10T11:25:05Z</time>
      </trkpt>
      <trkpt lat="43.66605" lon="1.38795">
        <ele>119</ele>
        <time>2025-01-10T11:25:06Z</time>
      </trkpt>
      <trkpt lat="43.66605" lon="1.38795">
        <ele>119</ele>
        <time>2025-01-10T11:25:07Z</time>
      </trkpt>
      <trkpt lat="43.66605" lon="1.38799">
        <ele>119</ele>
        <time>2025-01-10T11:25:08Z</time>
      </trkpt>
      <trkpt lat="43.66605" lon="1.38799">
        <ele>120</ele>
        <time>2025-01-10T11:25:09Z</time>
      </trkpt>
      <trkpt lat="43.66606" lon="1.38802">
        <ele>120</ele>
        <time>2025-01-10T11:25:10Z</time>
      </trkpt>
      <trkpt lat="43.66606" lon="1.38802">
        <ele>120</ele>
        <time>2025-01-10T11:25:11Z</time>
      </trkpt>
      <trkpt lat="43.66606" lon="1.38806">
        <ele>120</ele>
        <time>2025-01-10T11:25:12Z</time>
      </trkpt>
      <trkpt lat="43.66606" lon="1.38806">
        <ele>120</ele>
        <time>2025-01-10T11:25:13Z</time>
      </trkpt>
      <trkpt lat="43.66606" lon="1.38806">
        <ele>120</ele>
        <time>2025-01-10T11:25:14Z</time>
      </trkpt>
      <trkpt lat="43.66607" lon="1.38809">
        <ele>120</ele>
        <time>2025-01-10T11:25:15Z</time>
      </trkpt>
      <trkpt lat="43.66608" lon="1.38812">
        <ele>120</ele>
        <time>2025-01-10T11:25:16Z</time>
      </trkpt>
      <trkpt lat="43.66608" lon="1.38812">
        <ele>120</ele>
        <time>2025-01-10T11:25:17Z</time>
      </trkpt>
      <trkpt lat="43.66609" lon="1.38816">
        <ele>120</ele>
        <time>2025-01-10T11:25:18Z</time>
      </trkpt>
      <trkpt lat="43.66609" lon="1.38816">
        <ele>119</ele>
        <time>2025-01-10T11:25:19Z</time>
      </trkpt>
      <trkpt lat="43.6661" lon="1.38819">
        <ele>120</ele>
        <time>2025-01-10T11:25:20Z</time>
      </trkpt>
      <trkpt lat="43.6661" lon="1.38819">
        <ele>120</ele>
        <time>2025-01-10T11:25:21Z</time>
      </trkpt>
      <trkpt lat="43.6661" lon="1.38822">
        <ele>120</ele>
        <time>2025-01-10T11:25:22Z</time>
      </trkpt>
      <trkpt lat="43.6661" lon="1.38822">
        <ele>119</ele>
        <time>2025-01-10T11:25:23Z</time>
      </trkpt>
      <trkpt lat="43.6661" lon="1.38826">
        <ele>119</ele>
        <time>2025-01-10T11:25:24Z</time>
      </trkpt>
      <trkpt lat="43.6661" lon="1.38826">
        <ele>119</ele>
        <time>2025-01-10T11:25:25Z</time>
      </trkpt>
      <trkpt lat="43.66611" lon="1.3883">
        <ele>119</ele>
        <time>2025-01-10T11:25:26Z</time>
      </trkpt>
      <trkpt lat="43.66611" lon="1.3883">
        <ele>119</ele>
        <time>2025-01-10T11:25:27Z</time>
      </trkpt>
      <trkpt lat="43.66612" lon="1.38834">
        <ele>119</ele>
        <time>2025-01-10T11:25:28Z</time>
      </trkpt>
      <trkpt lat="43.66612" lon="1.38838">
        <ele>119</ele>
        <time>2025-01-10T11:25:29Z</time>
      </trkpt>
      <trkpt lat="43.66613" lon="1.38841">
        <ele>119</ele>
        <time>2025-01-10T11:25:30Z</time>
      </trkpt>
      <trkpt lat="43.66613" lon="1.38845">
        <ele>119</ele>
        <time>2025-01-10T11:25:31Z</time>
      </trkpt>
      <trkpt lat="43.66614" lon="1.38848">
        <ele>119</ele>
        <time>2025-01-10T11:25:32Z</time>
      </trkpt>
      <trkpt lat="43.66614" lon="1.38852">
        <ele>119</ele>
        <time>2025-01-10T11:25:33Z</time>
      </trkpt>
      <trkpt lat="43.66614" lon="1.38856">
        <ele>119</ele>
        <time>2025-01-10T11:25:34Z</time>
      </trkpt>
      <trkpt lat="43.66615" lon="1.38859">
        <ele>119</ele>
        <time>2025-01-10T11:25:35Z</time>
      </trkpt>
      <trkpt lat="43.66615" lon="1.38863">
        <ele>119</ele>
        <time>2025-01-10T11:25:36Z</time>
      </trkpt>
      <trkpt lat="43.66615" lon="1.38867">
        <ele>119</ele>
        <time>2025-01-10T11:25:37Z</time>
      </trkpt>
      <trkpt lat="43.66614" lon="1.38872">
        <ele>119</ele>
        <time>2025-01-10T11:25:38Z</time>
      </trkpt>
      <trkpt lat="43.66614" lon="1.38875">
        <ele>119</ele>
        <time>2025-01-10T11:25:39Z</time>
      </trkpt>
      <trkpt lat="43.66613" lon="1.38879">
        <ele>119</ele>
        <time>2025-01-10T11:25:40Z</time>
      </trkpt>
      <trkpt lat="43.66613" lon="1.38883">
        <ele>119</ele>
        <time>2025-01-10T11:25:41Z</time>
      </trkpt>
      <trkpt lat="43.66613" lon="1.38886">
        <ele>120</ele>
        <time>2025-01-10T11:25:42Z</time>
      </trkpt>
      <trkpt lat="43.66612" lon="1.3889">
        <ele>120</ele>
        <time>2025-01-10T11:25:43Z</time>
      </trkpt>
      <trkpt lat="43.66612" lon="1.38893">
        <ele>120</ele>
        <time>2025-01-10T11:25:44Z</time>
      </trkpt>
      <trkpt lat="43.66611" lon="1.38896">
        <ele>120</ele>
        <time>2025-01-10T11:25:45Z</time>
      </trkpt>
      <trkpt lat="43.66611" lon="1.389">
        <ele>120</ele>
        <time>2025-01-10T11:25:46Z</time>
      </trkpt>
      <trkpt lat="43.66611" lon="1.38903">
        <ele>120</ele>
        <time>2025-01-10T11:25:47Z</time>
      </trkpt>
      <trkpt lat="43.6661" lon="1.38906">
        <ele>120</ele>
        <time>2025-01-10T11:25:48Z</time>
      </trkpt>
      <trkpt lat="43.6661" lon="1.38909">
        <ele>120</ele>
        <time>2025-01-10T11:25:49Z</time>
      </trkpt>
      <trkpt lat="43.6661" lon="1.38913">
        <ele>120</ele>
        <time>2025-01-10T11:25:50Z</time>
      </trkpt>
      <trkpt lat="43.6661" lon="1.38917">
        <ele>120</ele>
        <time>2025-01-10T11:25:51Z</time>
      </trkpt>
      <trkpt lat="43.6661" lon="1.38922">
        <ele>120</ele>
        <time>2025-01-10T11:25:52Z</time>
      </trkpt>
      <trkpt lat="43.6661" lon="1.38924">
        <ele>120</ele>
        <time>2025-01-10T11:25:53Z</time>
      </trkpt>
      <trkpt lat="43.66609" lon="1.38927">
        <ele>120</ele>
        <time>2025-01-10T11:25:54Z</time>
      </trkpt>
      <trkpt lat="43.66609" lon="1.38931">
        <ele>120</ele>
        <time>2025-01-10T11:25:55Z</time>
      </trkpt>
      <trkpt lat="43.66609" lon="1.38934">
        <ele>120</ele>
        <time>2025-01-10T11:25:56Z</time>
      </trkpt>
      <trkpt lat="43.66609" lon="1.38938">
        <ele>120</ele>
        <time>2025-01-10T11:25:57Z</time>
      </trkpt>
      <trkpt lat="43.66609" lon="1.3894">
        <ele>120</ele>
        <time>2025-01-10T11:25:58Z</time>
      </trkpt>
      <trkpt lat="43.66609" lon="1.38943">
        <ele>120</ele>
        <time>2025-01-10T11:25:59Z</time>
      </trkpt>
      <trkpt lat="43.66609" lon="1.38943">
        <ele>120</ele>
        <time>2025-01-10T11:26:00Z</time>
      </trkpt>
      <trkpt lat="43.66609" lon="1.38948">
        <ele>120</ele>
        <time>2025-01-10T11:26:01Z</time>
      </trkpt>
      <trkpt lat="43.66608" lon="1.38952">
        <ele>119</ele>
        <time>2025-01-10T11:26:02Z</time>
      </trkpt>
      <trkpt lat="43.66609" lon="1.38955">
        <ele>119</ele>
        <time>2025-01-10T11:26:03Z</time>
      </trkpt>
      <trkpt lat="43.66609" lon="1.38959">
        <ele>119</ele>
        <time>2025-01-10T11:26:04Z</time>
      </trkpt>
      <trkpt lat="43.66609" lon="1.38962">
        <ele>119</ele>
        <time>2025-01-10T11:26:05Z</time>
      </trkpt>
      <trkpt lat="43.66609" lon="1.38965">
        <ele>119</ele>
        <time>2025-01-10T11:26:06Z</time>
      </trkpt>
      <trkpt lat="43.66609" lon="1.38969">
        <ele>119</ele>
        <time>2025-01-10T11:26:07Z</time>
      </trkpt>
      <trkpt lat="43.66609" lon="1.38972">
        <ele>119</ele>
        <time>2025-01-10T11:26:08Z</time>
      </trkpt>
      <trkpt lat="43.66608" lon="1.38975">
        <ele>119</ele>
        <time>2025-01-10T11:26:09Z</time>
      </trkpt>
      <trkpt lat="43.66608" lon="1.38979">
        <ele>119</ele>
        <time>2025-01-10T11:26:10Z</time>
      </trkpt>
      <trkpt lat="43.66608" lon="1.38983">
        <ele>119</ele>
        <time>2025-01-10T11:26:11Z</time>
      </trkpt>
      <trkpt lat="43.66608" lon="1.38987">
        <ele>119</ele>
        <time>2025-01-10T11:26:12Z</time>
      </trkpt>
      <trkpt lat="43.66607" lon="1.3899">
        <ele>119</ele>
        <time>2025-01-10T11:26:13Z</time>
      </trkpt>
      <trkpt lat="43.66607" lon="1.38994">
        <ele>119</ele>
        <time>2025-01-10T11:26:14Z</time>
      </trkpt>
      <trkpt lat="43.66606" lon="1.38998">
        <ele>119</ele>
        <time>2025-01-10T11:26:15Z</time>
      </trkpt>
      <trkpt lat="43.66605" lon="1.39001">
        <ele>120</ele>
        <time>2025-01-10T11:26:16Z</time>
      </trkpt>
      <trkpt lat="43.66604" lon="1.39005">
        <ele>120</ele>
        <time>2025-01-10T11:26:17Z</time>
      </trkpt>
      <trkpt lat="43.66603" lon="1.39008">
        <ele>120</ele>
        <time>2025-01-10T11:26:18Z</time>
      </trkpt>
      <trkpt lat="43.66602" lon="1.39012">
        <ele>120</ele>
        <time>2025-01-10T11:26:19Z</time>
      </trkpt>
      <trkpt lat="43.66602" lon="1.39016">
        <ele>120</ele>
        <time>2025-01-10T11:26:20Z</time>
      </trkpt>
      <trkpt lat="43.66601" lon="1.39019">
        <ele>120</ele>
        <time>2025-01-10T11:26:21Z</time>
      </trkpt>
      <trkpt lat="43.66601" lon="1.39023">
        <ele>120</ele>
        <time>2025-01-10T11:26:22Z</time>
      </trkpt>
      <trkpt lat="43.666" lon="1.39026">
        <ele>120</ele>
        <time>2025-01-10T11:26:23Z</time>
      </trkpt>
      <trkpt lat="43.666" lon="1.3903">
        <ele>120</ele>
        <time>2025-01-10T11:26:24Z</time>
      </trkpt>
      <trkpt lat="43.66599" lon="1.39034">
        <ele>120</ele>
        <time>2025-01-10T11:26:25Z</time>
      </trkpt>
      <trkpt lat="43.66599" lon="1.39038">
        <ele>120</ele>
        <time>2025-01-10T11:26:26Z</time>
      </trkpt>
      <trkpt lat="43.66598" lon="1.39041">
        <ele>120</ele>
        <time>2025-01-10T11:26:27Z</time>
      </trkpt>
      <trkpt lat="43.66598" lon="1.39046">
        <ele>120</ele>
        <time>2025-01-10T11:26:28Z</time>
      </trkpt>
      <trkpt lat="43.66598" lon="1.39049">
        <ele>120</ele>
        <time>2025-01-10T11:26:29Z</time>
      </trkpt>
      <trkpt lat="43.66597" lon="1.39053">
        <ele>120</ele>
        <time>2025-01-10T11:26:30Z</time>
      </trkpt>
      <trkpt lat="43.66597" lon="1.39056">
        <ele>120</ele>
        <time>2025-01-10T11:26:31Z</time>
      </trkpt>
      <trkpt lat="43.66596" lon="1.3906">
        <ele>120</ele>
        <time>2025-01-10T11:26:32Z</time>
      </trkpt>
      <trkpt lat="43.66596" lon="1.39063">
        <ele>120</ele>
        <time>2025-01-10T11:26:33Z</time>
      </trkpt>
      <trkpt lat="43.66596" lon="1.39066">
        <ele>120</ele>
        <time>2025-01-10T11:26:34Z</time>
      </trkpt>
      <trkpt lat="43.66595" lon="1.39069">
        <ele>120</ele>
        <time>2025-01-10T11:26:35Z</time>
      </trkpt>
      <trkpt lat="43.66595" lon="1.39073">
        <ele>120</ele>
        <time>2025-01-10T11:26:36Z</time>
      </trkpt>
      <trkpt lat="43.66595" lon="1.39077">
        <ele>120</ele>
        <time>2025-01-10T11:26:37Z</time>
      </trkpt>
      <trkpt lat="43.66595" lon="1.39081">
        <ele>120</ele>
        <time>2025-01-10T11:26:38Z</time>
      </trkpt>
      <trkpt lat="43.66596" lon="1.39084">
        <ele>120</ele>
        <time>2025-01-10T11:26:39Z</time>
      </trkpt>
      <trkpt lat="43.66596" lon="1.39087">
        <ele>120</ele>
        <time>2025-01-10T11:26:40Z</time>
      </trkpt>
      <trkpt lat="43.66595" lon="1.3909">
        <ele>120</ele>
        <time>2025-01-10T11:26:41Z</time>
      </trkpt>
      <trkpt lat="43.66595" lon="1.39094">
        <ele>120</ele>
        <time>2025-01-10T11:26:42Z</time>
      </trkpt>
      <trkpt lat="43.66594" lon="1.39098">
        <ele>120</ele>
        <time>2025-01-10T11:26:43Z</time>
      </trkpt>
      <trkpt lat="43.66594" lon="1.39101">
        <ele>120</ele>
        <time>2025-01-10T11:26:44Z</time>
      </trkpt>
      <trkpt lat="43.66593" lon="1.39106">
        <ele>120</ele>
        <time>2025-01-10T11:26:45Z</time>
      </trkpt>
      <trkpt lat="43.66593" lon="1.39107">
        <ele>120</ele>
        <time>2025-01-10T11:26:46Z</time>
      </trkpt>
      <trkpt lat="43.66592" lon="1.3911">
        <ele>120</ele>
        <time>2025-01-10T11:26:47Z</time>
      </trkpt>
      <trkpt lat="43.66592" lon="1.39114">
        <ele>120</ele>
        <time>2025-01-10T11:26:48Z</time>
      </trkpt>
      <trkpt lat="43.66592" lon="1.39117">
        <ele>120</ele>
        <time>2025-01-10T11:26:49Z</time>
      </trkpt>
      <trkpt lat="43.66592" lon="1.3912">
        <ele>120</ele>
        <time>2025-01-10T11:26:50Z</time>
      </trkpt>
      <trkpt lat="43.66591" lon="1.39123">
        <ele>120</ele>
        <time>2025-01-10T11:26:51Z</time>
      </trkpt>
      <trkpt lat="43.66591" lon="1.39125">
        <ele>120</ele>
        <time>2025-01-10T11:26:52Z</time>
      </trkpt>
      <trkpt lat="43.66591" lon="1.39125">
        <ele>120</ele>
        <time>2025-01-10T11:26:53Z</time>
      </trkpt>
      <trkpt lat="43.6659" lon="1.39131">
        <ele>120</ele>
        <time>2025-01-10T11:26:54Z</time>
      </trkpt>
      <trkpt lat="43.66589" lon="1.39134">
        <ele>120</ele>
        <time>2025-01-10T11:26:55Z</time>
      </trkpt>
      <trkpt lat="43.66588" lon="1.39137">
        <ele>120</ele>
        <time>2025-01-10T11:26:56Z</time>
      </trkpt>
      <trkpt lat="43.66588" lon="1.39141">
        <ele>120</ele>
        <time>2025-01-10T11:26:57Z</time>
      </trkpt>
      <trkpt lat="43.66588" lon="1.39145">
        <ele>120</ele>
        <time>2025-01-10T11:26:58Z</time>
      </trkpt>
      <trkpt lat="43.66588" lon="1.39145">
        <ele>120</ele>
        <time>2025-01-10T11:26:59Z</time>
      </trkpt>
      <trkpt lat="43.66587" lon="1.3915">
        <ele>120</ele>
        <time>2025-01-10T11:27:00Z</time>
      </trkpt>
      <trkpt lat="43.66586" lon="1.39155">
        <ele>120</ele>
        <time>2025-01-10T11:27:01Z</time>
      </trkpt>
      <trkpt lat="43.66586" lon="1.3916">
        <ele>120</ele>
        <time>2025-01-10T11:27:02Z</time>
      </trkpt>
      <trkpt lat="43.66586" lon="1.39164">
        <ele>120</ele>
        <time>2025-01-10T11:27:03Z</time>
      </trkpt>
      <trkpt lat="43.66586" lon="1.39167">
        <ele>120</ele>
        <time>2025-01-10T11:27:04Z</time>
      </trkpt>
      <trkpt lat="43.66586" lon="1.39169">
        <ele>120</ele>
        <time>2025-01-10T11:27:05Z</time>
      </trkpt>
      <trkpt lat="43.66586" lon="1.39172">
        <ele>120</ele>
        <time>2025-01-10T11:27:06Z</time>
      </trkpt>
      <trkpt lat="43.66586" lon="1.39175">
        <ele>120</ele>
        <time>2025-01-10T11:27:07Z</time>
      </trkpt>
      <trkpt lat="43.66585" lon="1.39177">
        <ele>120</ele>
        <time>2025-01-10T11:27:08Z</time>
      </trkpt>
      <trkpt lat="43.66585" lon="1.3918">
        <ele>120</ele>
        <time>2025-01-10T11:27:09Z</time>
      </trkpt>
      <trkpt lat="43.66585" lon="1.39184">
        <ele>120</ele>
        <time>2025-01-10T11:27:10Z</time>
      </trkpt>
      <trkpt lat="43.66585" lon="1.39187">
        <ele>120</ele>
        <time>2025-01-10T11:27:11Z</time>
      </trkpt>
      <trkpt lat="43.66585" lon="1.39191">
        <ele>120</ele>
        <time>2025-01-10T11:27:12Z</time>
      </trkpt>
      <trkpt lat="43.66585" lon="1.39194">
        <ele>120</ele>
        <time>2025-01-10T11:27:13Z</time>
      </trkpt>
      <trkpt lat="43.66585" lon="1.39199">
        <ele>120</ele>
        <time>2025-01-10T11:27:14Z</time>
      </trkpt>
      <trkpt lat="43.66584" lon="1.39204">
        <ele>120</ele>
        <time>2025-01-10T11:27:15Z</time>
      </trkpt>
      <trkpt lat="43.66584" lon="1.39209">
        <ele>120</ele>
        <time>2025-01-10T11:27:16Z</time>
      </trkpt>
      <trkpt lat="43.66584" lon="1.39214">
        <ele>120</ele>
        <time>2025-01-10T11:27:17Z</time>
      </trkpt>
      <trkpt lat="43.66583" lon="1.39219">
        <ele>120</ele>
        <time>2025-01-10T11:27:18Z</time>
      </trkpt>
      <trkpt lat="43.66583" lon="1.39221">
        <ele>120</ele>
        <time>2025-01-10T11:27:19Z</time>
      </trkpt>
      <trkpt lat="43.66583" lon="1.39224">
        <ele>120</ele>
        <time>2025-01-10T11:27:20Z</time>
      </trkpt>
      <trkpt lat="43.66583" lon="1.39224">
        <ele>120</ele>
        <time>2025-01-10T11:27:21Z</time>
      </trkpt>
      <trkpt lat="43.66583" lon="1.39226">
        <ele>120</ele>
        <time>2025-01-10T11:27:22Z</time>
      </trkpt>
      <trkpt lat="43.66582" lon="1.39229">
        <ele>120</ele>
        <time>2025-01-10T11:27:23Z</time>
      </trkpt>
      <trkpt lat="43.66582" lon="1.39231">
        <ele>120</ele>
        <time>2025-01-10T11:27:24Z</time>
      </trkpt>
      <trkpt lat="43.6658" lon="1.39242">
        <ele>120</ele>
        <time>2025-01-10T11:27:25Z</time>
      </trkpt>
      <trkpt lat="43.6658" lon="1.39246">
        <ele>121</ele>
        <time>2025-01-10T11:27:26Z</time>
      </trkpt>
      <trkpt lat="43.66579" lon="1.39249">
        <ele>121</ele>
        <time>2025-01-10T11:27:27Z</time>
      </trkpt>
      <trkpt lat="43.6658" lon="1.39253">
        <ele>121</ele>
        <time>2025-01-10T11:27:28Z</time>
      </trkpt>
      <trkpt lat="43.66579" lon="1.39256">
        <ele>121</ele>
        <time>2025-01-10T11:27:29Z</time>
      </trkpt>
      <trkpt lat="43.66579" lon="1.3926">
        <ele>120</ele>
        <time>2025-01-10T11:27:30Z</time>
      </trkpt>
      <trkpt lat="43.66579" lon="1.39263">
        <ele>120</ele>
        <time>2025-01-10T11:27:31Z</time>
      </trkpt>
      <trkpt lat="43.66579" lon="1.39267">
        <ele>120</ele>
        <time>2025-01-10T11:27:32Z</time>
      </trkpt>
      <trkpt lat="43.66578" lon="1.39271">
        <ele>120</ele>
        <time>2025-01-10T11:27:33Z</time>
      </trkpt>
      <trkpt lat="43.66578" lon="1.39275">
        <ele>120</ele>
        <time>2025-01-10T11:27:34Z</time>
      </trkpt>
      <trkpt lat="43.66577" lon="1.39278">
        <ele>120</ele>
        <time>2025-01-10T11:27:35Z</time>
      </trkpt>
      <trkpt lat="43.66577" lon="1.39281">
        <ele>120</ele>
        <time>2025-01-10T11:27:36Z</time>
      </trkpt>
      <trkpt lat="43.66577" lon="1.39284">
        <ele>120</ele>
        <time>2025-01-10T11:27:37Z</time>
      </trkpt>
      <trkpt lat="43.66577" lon="1.39288">
        <ele>120</ele>
        <time>2025-01-10T11:27:38Z</time>
      </trkpt>
      <trkpt lat="43.66577" lon="1.39291">
        <ele>120</ele>
        <time>2025-01-10T11:27:39Z</time>
      </trkpt>
      <trkpt lat="43.66577" lon="1.39294">
        <ele>120</ele>
        <time>2025-01-10T11:27:40Z</time>
      </trkpt>
      <trkpt lat="43.66577" lon="1.39298">
        <ele>120</ele>
        <time>2025-01-10T11:27:41Z</time>
      </trkpt>
      <trkpt lat="43.66577" lon="1.39301">
        <ele>120</ele>
        <time>2025-01-10T11:27:42Z</time>
      </trkpt>
      <trkpt lat="43.66577" lon="1.39305">
        <ele>120</ele>
        <time>2025-01-10T11:27:43Z</time>
      </trkpt>
      <trkpt lat="43.66578" lon="1.3931">
        <ele>120</ele>
        <time>2025-01-10T11:27:44Z</time>
      </trkpt>
      <trkpt lat="43.66578" lon="1.39311">
        <ele>120</ele>
        <time>2025-01-10T11:27:45Z</time>
      </trkpt>
      <trkpt lat="43.66578" lon="1.39316">
        <ele>120</ele>
        <time>2025-01-10T11:27:46Z</time>
      </trkpt>
      <trkpt lat="43.66578" lon="1.39317">
        <ele>120</ele>
        <time>2025-01-10T11:27:47Z</time>
      </trkpt>
      <trkpt lat="43.66578" lon="1.3932">
        <ele>120</ele>
        <time>2025-01-10T11:27:48Z</time>
      </trkpt>
      <trkpt lat="43.66578" lon="1.3932">
        <ele>120</ele>
        <time>2025-01-10T11:27:49Z</time>
      </trkpt>
      <trkpt lat="43.66579" lon="1.39324">
        <ele>120</ele>
        <time>2025-01-10T11:27:50Z</time>
      </trkpt>
      <trkpt lat="43.66579" lon="1.39328">
        <ele>120</ele>
        <time>2025-01-10T11:27:51Z</time>
      </trkpt>
      <trkpt lat="43.6658" lon="1.39331">
        <ele>120</ele>
        <time>2025-01-10T11:27:52Z</time>
      </trkpt>
      <trkpt lat="43.66581" lon="1.39334">
        <ele>120</ele>
        <time>2025-01-10T11:27:53Z</time>
      </trkpt>
      <trkpt lat="43.66581" lon="1.39334">
        <ele>120</ele>
        <time>2025-01-10T11:27:54Z</time>
      </trkpt>
      <trkpt lat="43.66583" lon="1.39342">
        <ele>120</ele>
        <time>2025-01-10T11:27:55Z</time>
      </trkpt>
      <trkpt lat="43.66583" lon="1.39344">
        <ele>120</ele>
        <time>2025-01-10T11:27:56Z</time>
      </trkpt>
      <trkpt lat="43.66584" lon="1.39347">
        <ele>119</ele>
        <time>2025-01-10T11:27:57Z</time>
      </trkpt>
      <trkpt lat="43.66584" lon="1.39351">
        <ele>119</ele>
        <time>2025-01-10T11:27:58Z</time>
      </trkpt>
      <trkpt lat="43.66585" lon="1.39352">
        <ele>119</ele>
        <time>2025-01-10T11:27:59Z</time>
      </trkpt>
      <trkpt lat="43.66585" lon="1.39355">
        <ele>119</ele>
        <time>2025-01-10T11:28:00Z</time>
      </trkpt>
      <trkpt lat="43.66585" lon="1.39359">
        <ele>119</ele>
        <time>2025-01-10T11:28:01Z</time>
      </trkpt>
      <trkpt lat="43.66585" lon="1.39362">
        <ele>119</ele>
        <time>2025-01-10T11:28:02Z</time>
      </trkpt>
      <trkpt lat="43.66586" lon="1.39365">
        <ele>119</ele>
        <time>2025-01-10T11:28:03Z</time>
      </trkpt>
      <trkpt lat="43.66586" lon="1.39368">
        <ele>119</ele>
        <time>2025-01-10T11:28:04Z</time>
      </trkpt>
      <trkpt lat="43.66586" lon="1.39368">
        <ele>119</ele>
        <time>2025-01-10T11:28:05Z</time>
      </trkpt>
      <trkpt lat="43.66587" lon="1.39375">
        <ele>119</ele>
        <time>2025-01-10T11:28:06Z</time>
      </trkpt>
      <trkpt lat="43.66587" lon="1.39375">
        <ele>119</ele>
        <time>2025-01-10T11:28:07Z</time>
      </trkpt>
      <trkpt lat="43.66587" lon="1.39379">
        <ele>119</ele>
        <time>2025-01-10T11:28:08Z</time>
      </trkpt>
      <trkpt lat="43.66588" lon="1.39384">
        <ele>119</ele>
        <time>2025-01-10T11:28:09Z</time>
      </trkpt>
      <trkpt lat="43.66588" lon="1.39388">
        <ele>119</ele>
        <time>2025-01-10T11:28:10Z</time>
      </trkpt>
      <trkpt lat="43.66588" lon="1.39391">
        <ele>119</ele>
        <time>2025-01-10T11:28:11Z</time>
      </trkpt>
      <trkpt lat="43.66589" lon="1.39393">
        <ele>119</ele>
        <time>2025-01-10T11:28:12Z</time>
      </trkpt>
      <trkpt lat="43.66589" lon="1.39396">
        <ele>119</ele>
        <time>2025-01-10T11:28:13Z</time>
      </trkpt>
      <trkpt lat="43.6659" lon="1.39399">
        <ele>119</ele>
        <time>2025-01-10T11:28:14Z</time>
      </trkpt>
      <trkpt lat="43.6659" lon="1.39401">
        <ele>119</ele>
        <time>2025-01-10T11:28:15Z</time>
      </trkpt>
      <trkpt lat="43.66591" lon="1.39409">
        <ele>119</ele>
        <time>2025-01-10T11:28:16Z</time>
      </trkpt>
      <trkpt lat="43.66591" lon="1.39409">
        <ele>119</ele>
        <time>2025-01-10T11:28:17Z</time>
      </trkpt>
      <trkpt lat="43.66591" lon="1.39414">
        <ele>119</ele>
        <time>2025-01-10T11:28:18Z</time>
      </trkpt>
      <trkpt lat="43.66591" lon="1.39418">
        <ele>119</ele>
        <time>2025-01-10T11:28:19Z</time>
      </trkpt>
      <trkpt lat="43.66591" lon="1.39423">
        <ele>119</ele>
        <time>2025-01-10T11:28:20Z</time>
      </trkpt>
      <trkpt lat="43.6659" lon="1.39426">
        <ele>119</ele>
        <time>2025-01-10T11:28:21Z</time>
      </trkpt>
      <trkpt lat="43.66588" lon="1.39429">
        <ele>119</ele>
        <time>2025-01-10T11:28:22Z</time>
      </trkpt>
      <trkpt lat="43.66585" lon="1.39438">
        <ele>119</ele>
        <time>2025-01-10T11:28:23Z</time>
      </trkpt>
      <trkpt lat="43.66584" lon="1.3944">
        <ele>119</ele>
        <time>2025-01-10T11:28:24Z</time>
      </trkpt>
      <trkpt lat="43.66583" lon="1.39441">
        <ele>119</ele>
        <time>2025-01-10T11:28:25Z</time>
      </trkpt>
      <trkpt lat="43.66582" lon="1.39443">
        <ele>119</ele>
        <time>2025-01-10T11:28:26Z</time>
      </trkpt>
      <trkpt lat="43.66578" lon="1.39453">
        <ele>119</ele>
        <time>2025-01-10T11:28:27Z</time>
      </trkpt>
      <trkpt lat="43.66577" lon="1.39455">
        <ele>118</ele>
        <time>2025-01-10T11:28:28Z</time>
      </trkpt>
      <trkpt lat="43.66576" lon="1.39457">
        <ele>118</ele>
        <time>2025-01-10T11:28:29Z</time>
      </trkpt>
      <trkpt lat="43.66575" lon="1.3946">
        <ele>118</ele>
        <time>2025-01-10T11:28:30Z</time>
      </trkpt>
      <trkpt lat="43.66573" lon="1.39462">
        <ele>118</ele>
        <time>2025-01-10T11:28:31Z</time>
      </trkpt>
      <trkpt lat="43.66572" lon="1.39466">
        <ele>118</ele>
        <time>2025-01-10T11:28:32Z</time>
      </trkpt>
      <trkpt lat="43.66571" lon="1.39469">
        <ele>118</ele>
        <time>2025-01-10T11:28:33Z</time>
      </trkpt>
      <trkpt lat="43.66569" lon="1.39473">
        <ele>118</ele>
        <time>2025-01-10T11:28:34Z</time>
      </trkpt>
      <trkpt lat="43.66569" lon="1.39475">
        <ele>118</ele>
        <time>2025-01-10T11:28:35Z</time>
      </trkpt>
      <trkpt lat="43.66568" lon="1.39478">
        <ele>118</ele>
        <time>2025-01-10T11:28:36Z</time>
      </trkpt>
      <trkpt lat="43.66568" lon="1.3948">
        <ele>118</ele>
        <time>2025-01-10T11:28:37Z</time>
      </trkpt>
      <trkpt lat="43.66565" lon="1.39488">
        <ele>118</ele>
        <time>2025-01-10T11:28:38Z</time>
      </trkpt>
      <trkpt lat="43.66564" lon="1.3949">
        <ele>118</ele>
        <time>2025-01-10T11:28:39Z</time>
      </trkpt>
      <trkpt lat="43.66563" lon="1.39491">
        <ele>118</ele>
        <time>2025-01-10T11:28:40Z</time>
      </trkpt>
      <trkpt lat="43.66562" lon="1.39493">
        <ele>118</ele>
        <time>2025-01-10T11:28:41Z</time>
      </trkpt>
      <trkpt lat="43.66558" lon="1.39501">
        <ele>118</ele>
        <time>2025-01-10T11:28:42Z</time>
      </trkpt>
      <trkpt lat="43.66557" lon="1.39504">
        <ele>118</ele>
        <time>2025-01-10T11:28:43Z</time>
      </trkpt>
      <trkpt lat="43.66556" lon="1.39506">
        <ele>118</ele>
        <time>2025-01-10T11:28:44Z</time>
      </trkpt>
      <trkpt lat="43.66555" lon="1.39509">
        <ele>118</ele>
        <time>2025-01-10T11:28:45Z</time>
      </trkpt>
      <trkpt lat="43.66554" lon="1.39511">
        <ele>118</ele>
        <time>2025-01-10T11:28:46Z</time>
      </trkpt>
      <trkpt lat="43.66555" lon="1.39514">
        <ele>118</ele>
        <time>2025-01-10T11:28:47Z</time>
      </trkpt>
      <trkpt lat="43.66555" lon="1.39517">
        <ele>118</ele>
        <time>2025-01-10T11:28:48Z</time>
      </trkpt>
      <trkpt lat="43.66556" lon="1.39522">
        <ele>118</ele>
        <time>2025-01-10T11:28:49Z</time>
      </trkpt>
      <trkpt lat="43.66557" lon="1.39523">
        <ele>118</ele>
        <time>2025-01-10T11:28:50Z</time>
      </trkpt>
      <trkpt lat="43.66557" lon="1.39527">
        <ele>118</ele>
        <time>2025-01-10T11:28:51Z</time>
      </trkpt>
      <trkpt lat="43.66558" lon="1.39529">
        <ele>118</ele>
        <time>2025-01-10T11:28:52Z</time>
      </trkpt>
      <trkpt lat="43.66559" lon="1.39532">
        <ele>118</ele>
        <time>2025-01-10T11:28:53Z</time>
      </trkpt>
      <trkpt lat="43.6656" lon="1.39535">
        <ele>118</ele>
        <time>2025-01-10T11:28:54Z</time>
      </trkpt>
      <trkpt lat="43.6656" lon="1.39535">
        <ele>118</ele>
        <time>2025-01-10T11:28:55Z</time>
      </trkpt>
      <trkpt lat="43.6656" lon="1.39538">
        <ele>118</ele>
        <time>2025-01-10T11:28:56Z</time>
      </trkpt>
      <trkpt lat="43.66561" lon="1.39541">
        <ele>118</ele>
        <time>2025-01-10T11:28:57Z</time>
      </trkpt>
      <trkpt lat="43.66561" lon="1.39544">
        <ele>118</ele>
        <time>2025-01-10T11:28:58Z</time>
      </trkpt>
      <trkpt lat="43.66561" lon="1.39547">
        <ele>118</ele>
        <time>2025-01-10T11:28:59Z</time>
      </trkpt>
      <trkpt lat="43.66562" lon="1.3955">
        <ele>118</ele>
        <time>2025-01-10T11:29:00Z</time>
      </trkpt>
      <trkpt lat="43.66562" lon="1.39553">
        <ele>118</ele>
        <time>2025-01-10T11:29:01Z</time>
      </trkpt>
      <trkpt lat="43.66563" lon="1.39555">
        <ele>118</ele>
        <time>2025-01-10T11:29:02Z</time>
      </trkpt>
      <trkpt lat="43.66564" lon="1.39558">
        <ele>118</ele>
        <time>2025-01-10T11:29:03Z</time>
      </trkpt>
      <trkpt lat="43.66564" lon="1.39561">
        <ele>118</ele>
        <time>2025-01-10T11:29:04Z</time>
      </trkpt>
      <trkpt lat="43.66565" lon="1.39564">
        <ele>118</ele>
        <time>2025-01-10T11:29:05Z</time>
      </trkpt>
      <trkpt lat="43.66565" lon="1.39568">
        <ele>118</ele>
        <time>2025-01-10T11:29:06Z</time>
      </trkpt>
      <trkpt lat="43.66566" lon="1.39572">
        <ele>118</ele>
        <time>2025-01-10T11:29:07Z</time>
      </trkpt>
      <trkpt lat="43.66567" lon="1.39575">
        <ele>118</ele>
        <time>2025-01-10T11:29:08Z</time>
      </trkpt>
      <trkpt lat="43.66568" lon="1.39579">
        <ele>118</ele>
        <time>2025-01-10T11:29:09Z</time>
      </trkpt>
      <trkpt lat="43.66569" lon="1.39582">
        <ele>118</ele>
        <time>2025-01-10T11:29:10Z</time>
      </trkpt>
      <trkpt lat="43.6657" lon="1.39586">
        <ele>118</ele>
        <time>2025-01-10T11:29:11Z</time>
      </trkpt>
      <trkpt lat="43.6657" lon="1.39589">
        <ele>118</ele>
        <time>2025-01-10T11:29:12Z</time>
      </trkpt>
      <trkpt lat="43.66571" lon="1.39593">
        <ele>118</ele>
        <time>2025-01-10T11:29:13Z</time>
      </trkpt>
      <trkpt lat="43.66572" lon="1.39597">
        <ele>118</ele>
        <time>2025-01-10T11:29:14Z</time>
      </trkpt>
      <trkpt lat="43.66573" lon="1.39601">
        <ele>118</ele>
        <time>2025-01-10T11:29:15Z</time>
      </trkpt>
      <trkpt lat="43.66574" lon="1.39603">
        <ele>118</ele>
        <time>2025-01-10T11:29:16Z</time>
      </trkpt>
      <trkpt lat="43.66575" lon="1.39605">
        <ele>118</ele>
        <time>2025-01-10T11:29:17Z</time>
      </trkpt>
      <trkpt lat="43.66576" lon="1.39607">
        <ele>118</ele>
        <time>2025-01-10T11:29:18Z</time>
      </trkpt>
      <trkpt lat="43.66577" lon="1.3961">
        <ele>118</ele>
        <time>2025-01-10T11:29:19Z</time>
      </trkpt>
      <trkpt lat="43.66578" lon="1.39612">
        <ele>118</ele>
        <time>2025-01-10T11:29:20Z</time>
      </trkpt>
      <trkpt lat="43.66579" lon="1.39616">
        <ele>118</ele>
        <time>2025-01-10T11:29:22Z</time>
      </trkpt>
      <trkpt lat="43.6658" lon="1.3962">
        <ele>118</ele>
        <time>2025-01-10T11:29:23Z</time>
      </trkpt>
      <trkpt lat="43.66582" lon="1.39623">
        <ele>118</ele>
        <time>2025-01-10T11:29:24Z</time>
      </trkpt>
      <trkpt lat="43.66582" lon="1.39626">
        <ele>117</ele>
        <time>2025-01-10T11:29:25Z</time>
      </trkpt>
      <trkpt lat="43.66582" lon="1.39628">
        <ele>117</ele>
        <time>2025-01-10T11:29:26Z</time>
      </trkpt>
      <trkpt lat="43.66583" lon="1.39631">
        <ele>117</ele>
        <time>2025-01-10T11:29:27Z</time>
      </trkpt>
      <trkpt lat="43.66583" lon="1.3964">
        <ele>117</ele>
        <time>2025-01-10T11:29:28Z</time>
      </trkpt>
      <trkpt lat="43.66584" lon="1.39642">
        <ele>117</ele>
        <time>2025-01-10T11:29:29Z</time>
      </trkpt>
      <trkpt lat="43.66584" lon="1.39643">
        <ele>117</ele>
        <time>2025-01-10T11:29:30Z</time>
      </trkpt>
      <trkpt lat="43.66584" lon="1.39645">
        <ele>117</ele>
        <time>2025-01-10T11:29:31Z</time>
      </trkpt>
      <trkpt lat="43.66585" lon="1.39656">
        <ele>117</ele>
        <time>2025-01-10T11:29:32Z</time>
      </trkpt>
      <trkpt lat="43.66585" lon="1.39659">
        <ele>117</ele>
        <time>2025-01-10T11:29:33Z</time>
      </trkpt>
      <trkpt lat="43.66585" lon="1.39662">
        <ele>117</ele>
        <time>2025-01-10T11:29:34Z</time>
      </trkpt>
      <trkpt lat="43.66586" lon="1.39665">
        <ele>118</ele>
        <time>2025-01-10T11:29:35Z</time>
      </trkpt>
      <trkpt lat="43.66585" lon="1.3967">
        <ele>118</ele>
        <time>2025-01-10T11:29:36Z</time>
      </trkpt>
      <trkpt lat="43.66585" lon="1.39671">
        <ele>118</ele>
        <time>2025-01-10T11:29:37Z</time>
      </trkpt>
      <trkpt lat="43.66585" lon="1.39674">
        <ele>118</ele>
        <time>2025-01-10T11:29:38Z</time>
      </trkpt>
      <trkpt lat="43.66585" lon="1.39677">
        <ele>118</ele>
        <time>2025-01-10T11:29:39Z</time>
      </trkpt>
      <trkpt lat="43.66584" lon="1.39683">
        <ele>118</ele>
        <time>2025-01-10T11:29:41Z</time>
      </trkpt>
      <trkpt lat="43.66584" lon="1.39683">
        <ele>118</ele>
        <time>2025-01-10T11:29:42Z</time>
      </trkpt>
      <trkpt lat="43.66585" lon="1.39687">
        <ele>118</ele>
        <time>2025-01-10T11:29:43Z</time>
      </trkpt>
      <trkpt lat="43.66585" lon="1.3969">
        <ele>118</ele>
        <time>2025-01-10T11:29:44Z</time>
      </trkpt>
      <trkpt lat="43.66585" lon="1.39694">
        <ele>119</ele>
        <time>2025-01-10T11:29:45Z</time>
      </trkpt>
      <trkpt lat="43.66586" lon="1.39697">
        <ele>119</ele>
        <time>2025-01-10T11:29:46Z</time>
      </trkpt>
      <trkpt lat="43.66585" lon="1.39704">
        <ele>119</ele>
        <time>2025-01-10T11:29:47Z</time>
      </trkpt>
      <trkpt lat="43.66583" lon="1.39711">
        <ele>118</ele>
        <time>2025-01-10T11:29:48Z</time>
      </trkpt>
      <trkpt lat="43.66583" lon="1.39713">
        <ele>118</ele>
        <time>2025-01-10T11:29:49Z</time>
      </trkpt>
      <trkpt lat="43.66583" lon="1.39716">
        <ele>118</ele>
        <time>2025-01-10T11:29:50Z</time>
      </trkpt>
      <trkpt lat="43.66582" lon="1.39718">
        <ele>118</ele>
        <time>2025-01-10T11:29:51Z</time>
      </trkpt>
      <trkpt lat="43.66582" lon="1.39721">
        <ele>118</ele>
        <time>2025-01-10T11:29:52Z</time>
      </trkpt>
      <trkpt lat="43.66581" lon="1.39723">
        <ele>118</ele>
        <time>2025-01-10T11:29:53Z</time>
      </trkpt>
      <trkpt lat="43.6658" lon="1.39727">
        <ele>118</ele>
        <time>2025-01-10T11:29:54Z</time>
      </trkpt>
      <trkpt lat="43.6658" lon="1.39731">
        <ele>118</ele>
        <time>2025-01-10T11:29:55Z</time>
      </trkpt>
      <trkpt lat="43.66579" lon="1.39735">
        <ele>118</ele>
        <time>2025-01-10T11:29:56Z</time>
      </trkpt>
      <trkpt lat="43.66578" lon="1.39738">
        <ele>118</ele>
        <time>2025-01-10T11:29:57Z</time>
      </trkpt>
      <trkpt lat="43.66578" lon="1.39738">
        <ele>118</ele>
        <time>2025-01-10T11:29:58Z</time>
      </trkpt>
      <trkpt lat="43.66577" lon="1.39741">
        <ele>119</ele>
        <time>2025-01-10T11:29:59Z</time>
      </trkpt>
      <trkpt lat="43.66576" lon="1.39744">
        <ele>119</ele>
        <time>2025-01-10T11:30:00Z</time>
      </trkpt>
      <trkpt lat="43.66575" lon="1.39747">
        <ele>119</ele>
        <time>2025-01-10T11:30:01Z</time>
      </trkpt>
      <trkpt lat="43.66574" lon="1.3975">
        <ele>119</ele>
        <time>2025-01-10T11:30:02Z</time>
      </trkpt>
      <trkpt lat="43.66574" lon="1.39755">
        <ele>119</ele>
        <time>2025-01-10T11:30:03Z</time>
      </trkpt>
      <trkpt lat="43.66574" lon="1.39759">
        <ele>119</ele>
        <time>2025-01-10T11:30:04Z</time>
      </trkpt>
      <trkpt lat="43.66574" lon="1.39764">
        <ele>119</ele>
        <time>2025-01-10T11:30:05Z</time>
      </trkpt>
      <trkpt lat="43.66573" lon="1.39767">
        <ele>119</ele>
        <time>2025-01-10T11:30:06Z</time>
      </trkpt>
      <trkpt lat="43.66573" lon="1.3977">
        <ele>119</ele>
        <time>2025-01-10T11:30:07Z</time>
      </trkpt>
      <trkpt lat="43.66572" lon="1.39773">
        <ele>119</ele>
        <time>2025-01-10T11:30:08Z</time>
      </trkpt>
      <trkpt lat="43.66572" lon="1.39776">
        <ele>119</ele>
        <time>2025-01-10T11:30:09Z</time>
      </trkpt>
      <trkpt lat="43.66571" lon="1.3978">
        <ele>119</ele>
        <time>2025-01-10T11:30:10Z</time>
      </trkpt>
      <trkpt lat="43.66571" lon="1.39784">
        <ele>119</ele>
        <time>2025-01-10T11:30:11Z</time>
      </trkpt>
      <trkpt lat="43.66569" lon="1.39795">
        <ele>119</ele>
        <time>2025-01-10T11:30:12Z</time>
      </trkpt>
      <trkpt lat="43.66567" lon="1.39799">
        <ele>119</ele>
        <time>2025-01-10T11:30:13Z</time>
      </trkpt>
      <trkpt lat="43.66566" lon="1.39802">
        <ele>119</ele>
        <time>2025-01-10T11:30:14Z</time>
      </trkpt>
      <trkpt lat="43.66564" lon="1.39806">
        <ele>119</ele>
        <time>2025-01-10T11:30:15Z</time>
      </trkpt>
      <trkpt lat="43.66564" lon="1.39809">
        <ele>118</ele>
        <time>2025-01-10T11:30:16Z</time>
      </trkpt>
      <trkpt lat="43.66564" lon="1.39811">
        <ele>118</ele>
        <time>2025-01-10T11:30:17Z</time>
      </trkpt>
      <trkpt lat="43.66564" lon="1.39811">
        <ele>118</ele>
        <time>2025-01-10T11:30:18Z</time>
      </trkpt>
      <trkpt lat="43.66562" lon="1.39816">
        <ele>118</ele>
        <time>2025-01-10T11:30:19Z</time>
      </trkpt>
      <trkpt lat="43.66561" lon="1.39819">
        <ele>118</ele>
        <time>2025-01-10T11:30:20Z</time>
      </trkpt>
      <trkpt lat="43.66561" lon="1.39819">
        <ele>118</ele>
        <time>2025-01-10T11:30:21Z</time>
      </trkpt>
      <trkpt lat="43.66559" lon="1.39823">
        <ele>118</ele>
        <time>2025-01-10T11:30:22Z</time>
      </trkpt>
      <trkpt lat="43.66558" lon="1.39827">
        <ele>118</ele>
        <time>2025-01-10T11:30:23Z</time>
      </trkpt>
      <trkpt lat="43.66556" lon="1.39831">
        <ele>119</ele>
        <time>2025-01-10T11:30:24Z</time>
      </trkpt>
      <trkpt lat="43.66555" lon="1.39834">
        <ele>119</ele>
        <time>2025-01-10T11:30:25Z</time>
      </trkpt>
      <trkpt lat="43.66555" lon="1.39837">
        <ele>119</ele>
        <time>2025-01-10T11:30:26Z</time>
      </trkpt>
      <trkpt lat="43.66554" lon="1.39839">
        <ele>119</ele>
        <time>2025-01-10T11:30:27Z</time>
      </trkpt>
      <trkpt lat="43.66554" lon="1.39839">
        <ele>119</ele>
        <time>2025-01-10T11:30:28Z</time>
      </trkpt>
      <trkpt lat="43.66554" lon="1.39844">
        <ele>119</ele>
        <time>2025-01-10T11:30:29Z</time>
      </trkpt>
      <trkpt lat="43.66554" lon="1.39844">
        <ele>119</ele>
        <time>2025-01-10T11:30:30Z</time>
      </trkpt>
      <trkpt lat="43.66555" lon="1.39848">
        <ele>119</ele>
        <time>2025-01-10T11:30:31Z</time>
      </trkpt>
      <trkpt lat="43.66554" lon="1.39851">
        <ele>119</ele>
        <time>2025-01-10T11:30:32Z</time>
      </trkpt>
      <trkpt lat="43.66555" lon="1.39853">
        <ele>118</ele>
        <time>2025-01-10T11:30:33Z</time>
      </trkpt>
      <trkpt lat="43.66555" lon="1.39856">
        <ele>118</ele>
        <time>2025-01-10T11:30:34Z</time>
      </trkpt>
      <trkpt lat="43.66555" lon="1.3986">
        <ele>119</ele>
        <time>2025-01-10T11:30:35Z</time>
      </trkpt>
      <trkpt lat="43.66555" lon="1.39863">
        <ele>119</ele>
        <time>2025-01-10T11:30:36Z</time>
      </trkpt>
      <trkpt lat="43.66555" lon="1.39863">
        <ele>119</ele>
        <time>2025-01-10T11:30:37Z</time>
      </trkpt>
      <trkpt lat="43.66555" lon="1.39869">
        <ele>119</ele>
        <time>2025-01-10T11:30:38Z</time>
      </trkpt>
      <trkpt lat="43.66554" lon="1.39872">
        <ele>119</ele>
        <time>2025-01-10T11:30:39Z</time>
      </trkpt>
      <trkpt lat="43.66554" lon="1.39875">
        <ele>119</ele>
        <time>2025-01-10T11:30:40Z</time>
      </trkpt>
      <trkpt lat="43.66553" lon="1.39878">
        <ele>119</ele>
        <time>2025-01-10T11:30:41Z</time>
      </trkpt>
      <trkpt lat="43.66553" lon="1.3988">
        <ele>119</ele>
        <time>2025-01-10T11:30:42Z</time>
      </trkpt>
      <trkpt lat="43.66552" lon="1.39884">
        <ele>119</ele>
        <time>2025-01-10T11:30:43Z</time>
      </trkpt>
      <trkpt lat="43.66551" lon="1.39887">
        <ele>119</ele>
        <time>2025-01-10T11:30:44Z</time>
      </trkpt>
      <trkpt lat="43.6655" lon="1.3989">
        <ele>119</ele>
        <time>2025-01-10T11:30:45Z</time>
      </trkpt>
      <trkpt lat="43.6655" lon="1.39893">
        <ele>118</ele>
        <time>2025-01-10T11:30:46Z</time>
      </trkpt>
      <trkpt lat="43.6655" lon="1.39895">
        <ele>118</ele>
        <time>2025-01-10T11:30:47Z</time>
      </trkpt>
      <trkpt lat="43.6655" lon="1.39895">
        <ele>118</ele>
        <time>2025-01-10T11:30:48Z</time>
      </trkpt>
      <trkpt lat="43.66549" lon="1.39897">
        <ele>118</ele>
        <time>2025-01-10T11:30:49Z</time>
      </trkpt>
      <trkpt lat="43.66549" lon="1.39899">
        <ele>118</ele>
        <time>2025-01-10T11:30:50Z</time>
      </trkpt>
      <trkpt lat="43.66549" lon="1.39901">
        <ele>118</ele>
        <time>2025-01-10T11:30:51Z</time>
      </trkpt>
      <trkpt lat="43.66548" lon="1.39903">
        <ele>118</ele>
        <time>2025-01-10T11:30:52Z</time>
      </trkpt>
      <trkpt lat="43.66547" lon="1.39913">
        <ele>118</ele>
        <time>2025-01-10T11:30:53Z</time>
      </trkpt>
      <trkpt lat="43.66546" lon="1.39916">
        <ele>118</ele>
        <time>2025-01-10T11:30:54Z</time>
      </trkpt>
      <trkpt lat="43.66545" lon="1.39918">
        <ele>118</ele>
        <time>2025-01-10T11:30:55Z</time>
      </trkpt>
      <trkpt lat="43.66544" lon="1.39921">
        <ele>119</ele>
        <time>2025-01-10T11:30:56Z</time>
      </trkpt>
      <trkpt lat="43.66544" lon="1.39924">
        <ele>119</ele>
        <time>2025-01-10T11:30:57Z</time>
      </trkpt>
      <trkpt lat="43.66543" lon="1.39929">
        <ele>119</ele>
        <time>2025-01-10T11:30:58Z</time>
      </trkpt>
      <trkpt lat="43.66542" lon="1.39934">
        <ele>118</ele>
        <time>2025-01-10T11:30:59Z</time>
      </trkpt>
      <trkpt lat="43.66541" lon="1.39938">
        <ele>118</ele>
        <time>2025-01-10T11:31:00Z</time>
      </trkpt>
      <trkpt lat="43.66541" lon="1.39941">
        <ele>118</ele>
        <time>2025-01-10T11:31:01Z</time>
      </trkpt>
      <trkpt lat="43.6654" lon="1.39945">
        <ele>118</ele>
        <time>2025-01-10T11:31:02Z</time>
      </trkpt>
      <trkpt lat="43.66539" lon="1.39948">
        <ele>119</ele>
        <time>2025-01-10T11:31:03Z</time>
      </trkpt>
      <trkpt lat="43.66539" lon="1.39948">
        <ele>119</ele>
        <time>2025-01-10T11:31:04Z</time>
      </trkpt>
      <trkpt lat="43.66539" lon="1.39953">
        <ele>119</ele>
        <time>2025-01-10T11:31:05Z</time>
      </trkpt>
      <trkpt lat="43.66539" lon="1.39957">
        <ele>119</ele>
        <time>2025-01-10T11:31:06Z</time>
      </trkpt>
      <trkpt lat="43.66539" lon="1.39962">
        <ele>119</ele>
        <time>2025-01-10T11:31:07Z</time>
      </trkpt>
      <trkpt lat="43.66538" lon="1.39964">
        <ele>119</ele>
        <time>2025-01-10T11:31:08Z</time>
      </trkpt>
      <trkpt lat="43.66538" lon="1.39966">
        <ele>119</ele>
        <time>2025-01-10T11:31:09Z</time>
      </trkpt>
      <trkpt lat="43.66538" lon="1.39968">
        <ele>119</ele>
        <time>2025-01-10T11:31:10Z</time>
      </trkpt>
      <trkpt lat="43.66537" lon="1.39972">
        <ele>119</ele>
        <time>2025-01-10T11:31:11Z</time>
      </trkpt>
      <trkpt lat="43.66537" lon="1.39975">
        <ele>119</ele>
        <time>2025-01-10T11:31:12Z</time>
      </trkpt>
      <trkpt lat="43.66537" lon="1.39979">
        <ele>119</ele>
        <time>2025-01-10T11:31:13Z</time>
      </trkpt>
      <trkpt lat="43.66537" lon="1.39983">
        <ele>119</ele>
        <time>2025-01-10T11:31:14Z</time>
      </trkpt>
      <trkpt lat="43.66534" lon="1.39986">
        <ele>119</ele>
        <time>2025-01-10T11:31:15Z</time>
      </trkpt>
      <trkpt lat="43.66531" lon="1.3999">
        <ele>119</ele>
        <time>2025-01-10T11:31:16Z</time>
      </trkpt>
      <trkpt lat="43.66529" lon="1.39993">
        <ele>119</ele>
        <time>2025-01-10T11:31:17Z</time>
      </trkpt>
      <trkpt lat="43.66526" lon="1.39995">
        <ele>119</ele>
        <time>2025-01-10T11:31:18Z</time>
      </trkpt>
      <trkpt lat="43.66523" lon="1.39996">
        <ele>120</ele>
        <time>2025-01-10T11:31:19Z</time>
      </trkpt>
      <trkpt lat="43.6652" lon="1.39998">
        <ele>120</ele>
        <time>2025-01-10T11:31:20Z</time>
      </trkpt>
      <trkpt lat="43.6652" lon="1.39998">
        <ele>120</ele>
        <time>2025-01-10T11:31:21Z</time>
      </trkpt>
      <trkpt lat="43.66521" lon="1.39999">
        <ele>120</ele>
        <time>2025-01-10T11:31:22Z</time>
      </trkpt>
      <trkpt lat="43.66533" lon="1.40002">
        <ele>120</ele>
        <time>2025-01-10T11:31:37Z</time>
      </trkpt>
      <trkpt lat="43.66533" lon="1.40002">
        <ele>120</ele>
        <time>2025-01-10T11:31:38Z</time>
      </trkpt>
      <trkpt lat="43.66533" lon="1.40002">
        <ele>121</ele>
        <time>2025-01-10T11:31:39Z</time>
      </trkpt>
      <trkpt lat="43.66535" lon="1.40004">
        <ele>121</ele>
        <time>2025-01-10T11:31:40Z</time>
      </trkpt>
      <trkpt lat="43.66535" lon="1.40004">
        <ele>121</ele>
        <time>2025-01-10T11:31:41Z</time>
      </trkpt>
      <trkpt lat="43.66535" lon="1.40006">
        <ele>121</ele>
        <time>2025-01-10T11:31:42Z</time>
      </trkpt>
      <trkpt lat="43.66535" lon="1.40009">
        <ele>120</ele>
        <time>2025-01-10T11:31:43Z</time>
      </trkpt>
      <trkpt lat="43.66535" lon="1.40012">
        <ele>120</ele>
        <time>2025-01-10T11:31:44Z</time>
      </trkpt>
      <trkpt lat="43.66535" lon="1.40014">
        <ele>120</ele>
        <time>2025-01-10T11:31:45Z</time>
      </trkpt>
      <trkpt lat="43.66537" lon="1.40017">
        <ele>120</ele>
        <time>2025-01-10T11:31:46Z</time>
      </trkpt>
      <trkpt lat="43.66538" lon="1.4002">
        <ele>120</ele>
        <time>2025-01-10T11:31:47Z</time>
      </trkpt>
      <trkpt lat="43.6654" lon="1.40023">
        <ele>120</ele>
        <time>2025-01-10T11:31:48Z</time>
      </trkpt>
      <trkpt lat="43.66541" lon="1.40025">
        <ele>120</ele>
        <time>2025-01-10T11:31:49Z</time>
      </trkpt>
      <trkpt lat="43.66542" lon="1.40028">
        <ele>120</ele>
        <time>2025-01-10T11:31:50Z</time>
      </trkpt>
      <trkpt lat="43.66544" lon="1.40031">
        <ele>121</ele>
        <time>2025-01-10T11:31:51Z</time>
      </trkpt>
      <trkpt lat="43.66545" lon="1.40034">
        <ele>121</ele>
        <time>2025-01-10T11:31:52Z</time>
      </trkpt>
      <trkpt lat="43.66547" lon="1.40038">
        <ele>120</ele>
        <time>2025-01-10T11:31:53Z</time>
      </trkpt>
      <trkpt lat="43.66548" lon="1.40041">
        <ele>120</ele>
        <time>2025-01-10T11:31:54Z</time>
      </trkpt>
      <trkpt lat="43.66548" lon="1.40044">
        <ele>120</ele>
        <time>2025-01-10T11:31:55Z</time>
      </trkpt>
      <trkpt lat="43.66549" lon="1.40047">
        <ele>120</ele>
        <time>2025-01-10T11:31:56Z</time>
      </trkpt>
      <trkpt lat="43.6655" lon="1.40052">
        <ele>120</ele>
        <time>2025-01-10T11:31:57Z</time>
      </trkpt>
      <trkpt lat="43.66551" lon="1.40054">
        <ele>120</ele>
        <time>2025-01-10T11:31:58Z</time>
      </trkpt>
      <trkpt lat="43.66552" lon="1.40056">
        <ele>120</ele>
        <time>2025-01-10T11:31:59Z</time>
      </trkpt>
      <trkpt lat="43.66552" lon="1.40056">
        <ele>121</ele>
        <time>2025-01-10T11:32:00Z</time>
      </trkpt>
      <trkpt lat="43.66554" lon="1.40059">
        <ele>121</ele>
        <time>2025-01-10T11:32:01Z</time>
      </trkpt>
      <trkpt lat="43.66557" lon="1.4006">
        <ele>121</ele>
        <time>2025-01-10T11:32:02Z</time>
      </trkpt>
      <trkpt lat="43.66558" lon="1.40061">
        <ele>122</ele>
        <time>2025-01-10T11:32:03Z</time>
      </trkpt>
      <trkpt lat="43.66559" lon="1.40064">
        <ele>122</ele>
        <time>2025-01-10T11:32:04Z</time>
      </trkpt>
      <trkpt lat="43.66558" lon="1.40068">
        <ele>122</ele>
        <time>2025-01-10T11:32:05Z</time>
      </trkpt>
      <trkpt lat="43.66557" lon="1.40071">
        <ele>122</ele>
        <time>2025-01-10T11:32:06Z</time>
      </trkpt>
      <trkpt lat="43.66556" lon="1.40074">
        <ele>122</ele>
        <time>2025-01-10T11:32:07Z</time>
      </trkpt>
      <trkpt lat="43.66554" lon="1.40076">
        <ele>122</ele>
        <time>2025-01-10T11:32:08Z</time>
      </trkpt>
      <trkpt lat="43.66554" lon="1.40076">
        <ele>122</ele>
        <time>2025-01-10T11:32:09Z</time>
      </trkpt>
      <trkpt lat="43.66552" lon="1.40079">
        <ele>122</ele>
        <time>2025-01-10T11:32:10Z</time>
      </trkpt>
      <trkpt lat="43.66551" lon="1.40081">
        <ele>122</ele>
        <time>2025-01-10T11:32:11Z</time>
      </trkpt>
      <trkpt lat="43.6655" lon="1.40084">
        <ele>122</ele>
        <time>2025-01-10T11:32:12Z</time>
      </trkpt>
      <trkpt lat="43.66548" lon="1.40086">
        <ele>122</ele>
        <time>2025-01-10T11:32:13Z</time>
      </trkpt>
      <trkpt lat="43.66544" lon="1.40093">
        <ele>122</ele>
        <time>2025-01-10T11:32:14Z</time>
      </trkpt>
      <trkpt lat="43.66542" lon="1.40093">
        <ele>122</ele>
        <time>2025-01-10T11:32:15Z</time>
      </trkpt>
      <trkpt lat="43.6654" lon="1.40094">
        <ele>122</ele>
        <time>2025-01-10T11:32:17Z</time>
      </trkpt>
      <trkpt lat="43.66537" lon="1.40094">
        <ele>122</ele>
        <time>2025-01-10T11:32:18Z</time>
      </trkpt>
      <trkpt lat="43.66535" lon="1.40095">
        <ele>122</ele>
        <time>2025-01-10T11:32:19Z</time>
      </trkpt>
      <trkpt lat="43.66535" lon="1.40095">
        <ele>122</ele>
        <time>2025-01-10T11:32:20Z</time>
      </trkpt>
      <trkpt lat="43.66532" lon="1.40097">
        <ele>122</ele>
        <time>2025-01-10T11:32:21Z</time>
      </trkpt>
      <trkpt lat="43.6653" lon="1.40099">
        <ele>121</ele>
        <time>2025-01-10T11:32:22Z</time>
      </trkpt>
      <trkpt lat="43.66529" lon="1.40101">
        <ele>121</ele>
        <time>2025-01-10T11:32:23Z</time>
      </trkpt>
      <trkpt lat="43.66529" lon="1.40101">
        <ele>120</ele>
        <time>2025-01-10T11:32:24Z</time>
      </trkpt>
      <trkpt lat="43.66527" lon="1.40105">
        <ele>120</ele>
        <time>2025-01-10T11:32:25Z</time>
      </trkpt>
      <trkpt lat="43.66527" lon="1.40105">
        <ele>120</ele>
        <time>2025-01-10T11:32:26Z</time>
      </trkpt>
      <trkpt lat="43.66526" lon="1.40107">
        <ele>120</ele>
        <time>2025-01-10T11:32:27Z</time>
      </trkpt>
      <trkpt lat="43.66525" lon="1.4011">
        <ele>120</ele>
        <time>2025-01-10T11:32:28Z</time>
      </trkpt>
      <trkpt lat="43.66524" lon="1.40112">
        <ele>120</ele>
        <time>2025-01-10T11:32:29Z</time>
      </trkpt>
      <trkpt lat="43.66523" lon="1.40115">
        <ele>120</ele>
        <time>2025-01-10T11:32:30Z</time>
      </trkpt>
      <trkpt lat="43.66522" lon="1.40117">
        <ele>120</ele>
        <time>2025-01-10T11:32:31Z</time>
      </trkpt>
      <trkpt lat="43.66521" lon="1.40121">
        <ele>120</ele>
        <time>2025-01-10T11:32:32Z</time>
      </trkpt>
      <trkpt lat="43.66519" lon="1.40125">
        <ele>120</ele>
        <time>2025-01-10T11:32:33Z</time>
      </trkpt>
      <trkpt lat="43.66517" lon="1.40129">
        <ele>120</ele>
        <time>2025-01-10T11:32:34Z</time>
      </trkpt>
      <trkpt lat="43.66515" lon="1.40131">
        <ele>120</ele>
        <time>2025-01-10T11:32:35Z</time>
      </trkpt>
      <trkpt lat="43.66513" lon="1.40134">
        <ele>120</ele>
        <time>2025-01-10T11:32:36Z</time>
      </trkpt>
      <trkpt lat="43.66511" lon="1.40138">
        <ele>120</ele>
        <time>2025-01-10T11:32:37Z</time>
      </trkpt>
      <trkpt lat="43.66509" lon="1.40142">
        <ele>120</ele>
        <time>2025-01-10T11:32:38Z</time>
      </trkpt>
      <trkpt lat="43.66509" lon="1.40142">
        <ele>120</ele>
        <time>2025-01-10T11:32:39Z</time>
      </trkpt>
      <trkpt lat="43.66507" lon="1.40144">
        <ele>120</ele>
        <time>2025-01-10T11:32:40Z</time>
      </trkpt>
      <trkpt lat="43.66506" lon="1.40146">
        <ele>120</ele>
        <time>2025-01-10T11:32:41Z</time>
      </trkpt>
      <trkpt lat="43.66505" lon="1.40148">
        <ele>120</ele>
        <time>2025-01-10T11:32:42Z</time>
      </trkpt>
      <trkpt lat="43.66499" lon="1.40156">
        <ele>120</ele>
        <time>2025-01-10T11:32:43Z</time>
      </trkpt>
      <trkpt lat="43.66498" lon="1.40158">
        <ele>120</ele>
        <time>2025-01-10T11:32:44Z</time>
      </trkpt>
      <trkpt lat="43.66497" lon="1.4016">
        <ele>120</ele>
        <time>2025-01-10T11:32:45Z</time>
      </trkpt>
      <trkpt lat="43.66495" lon="1.40163">
        <ele>120</ele>
        <time>2025-01-10T11:32:46Z</time>
      </trkpt>
      <trkpt lat="43.66494" lon="1.40165">
        <ele>120</ele>
        <time>2025-01-10T11:32:47Z</time>
      </trkpt>
      <trkpt lat="43.66493" lon="1.40168">
        <ele>119</ele>
        <time>2025-01-10T11:32:48Z</time>
      </trkpt>
      <trkpt lat="43.66491" lon="1.4017">
        <ele>119</ele>
        <time>2025-01-10T11:32:49Z</time>
      </trkpt>
      <trkpt lat="43.6649" lon="1.40173">
        <ele>119</ele>
        <time>2025-01-10T11:32:50Z</time>
      </trkpt>
      <trkpt lat="43.6649" lon="1.40173">
        <ele>119</ele>
        <time>2025-01-10T11:32:51Z</time>
      </trkpt>
      <trkpt lat="43.6649" lon="1.40173">
        <ele>120</ele>
        <time>2025-01-10T11:32:52Z</time>
      </trkpt>
      <trkpt lat="43.6649" lon="1.40173">
        <ele>120</ele>
        <time>2025-01-10T11:32:53Z</time>
      </trkpt>
      <trkpt lat="43.66484" lon="1.40182">
        <ele>120</ele>
        <time>2025-01-10T11:32:55Z</time>
      </trkpt>
      <trkpt lat="43.66482" lon="1.40185">
        <ele>120</ele>
        <time>2025-01-10T11:32:56Z</time>
      </trkpt>
      <trkpt lat="43.6648" lon="1.40188">
        <ele>120</ele>
        <time>2025-01-10T11:32:57Z</time>
      </trkpt>
      <trkpt lat="43.66478" lon="1.40191">
        <ele>120</ele>
        <time>2025-01-10T11:32:58Z</time>
      </trkpt>
      <trkpt lat="43.66476" lon="1.40194">
        <ele>120</ele>
        <time>2025-01-10T11:32:59Z</time>
      </trkpt>
      <trkpt lat="43.66475" lon="1.40197">
        <ele>121</ele>
        <time>2025-01-10T11:33:00Z</time>
      </trkpt>
      <trkpt lat="43.66473" lon="1.402">
        <ele>121</ele>
        <time>2025-01-10T11:33:01Z</time>
      </trkpt>
      <trkpt lat="43.66472" lon="1.40203">
        <ele>121</ele>
        <time>2025-01-10T11:33:02Z</time>
      </trkpt>
      <trkpt lat="43.66471" lon="1.40206">
        <ele>121</ele>
        <time>2025-01-10T11:33:03Z</time>
      </trkpt>
      <trkpt lat="43.66469" lon="1.40209">
        <ele>121</ele>
        <time>2025-01-10T11:33:04Z</time>
      </trkpt>
      <trkpt lat="43.66468" lon="1.40212">
        <ele>121</ele>
        <time>2025-01-10T11:33:05Z</time>
      </trkpt>
      <trkpt lat="43.66466" lon="1.40215">
        <ele>121</ele>
        <time>2025-01-10T11:33:06Z</time>
      </trkpt>
      <trkpt lat="43.66465" lon="1.40218">
        <ele>121</ele>
        <time>2025-01-10T11:33:07Z</time>
      </trkpt>
      <trkpt lat="43.66463" lon="1.4022">
        <ele>121</ele>
        <time>2025-01-10T11:33:08Z</time>
      </trkpt>
      <trkpt lat="43.66461" lon="1.40222">
        <ele>121</ele>
        <time>2025-01-10T11:33:09Z</time>
      </trkpt>
      <trkpt lat="43.66459" lon="1.40224">
        <ele>121</ele>
        <time>2025-01-10T11:33:10Z</time>
      </trkpt>
      <trkpt lat="43.66457" lon="1.40226">
        <ele>121</ele>
        <time>2025-01-10T11:33:11Z</time>
      </trkpt>
      <trkpt lat="43.66454" lon="1.40228">
        <ele>121</ele>
        <time>2025-01-10T11:33:12Z</time>
      </trkpt>
      <trkpt lat="43.66452" lon="1.4023">
        <ele>121</ele>
        <time>2025-01-10T11:33:13Z</time>
      </trkpt>
      <trkpt lat="43.66449" lon="1.40233">
        <ele>121</ele>
        <time>2025-01-10T11:33:14Z</time>
      </trkpt>
      <trkpt lat="43.66447" lon="1.40235">
        <ele>121</ele>
        <time>2025-01-10T11:33:15Z</time>
      </trkpt>
      <trkpt lat="43.66445" lon="1.40237">
        <ele>121</ele>
        <time>2025-01-10T11:33:16Z</time>
      </trkpt>
      <trkpt lat="43.66442" lon="1.40239">
        <ele>121</ele>
        <time>2025-01-10T11:33:17Z</time>
      </trkpt>
      <trkpt lat="43.6644" lon="1.40241">
        <ele>121</ele>
        <time>2025-01-10T11:33:18Z</time>
      </trkpt>
      <trkpt lat="43.66438" lon="1.40243">
        <ele>121</ele>
        <time>2025-01-10T11:33:19Z</time>
      </trkpt>
      <trkpt lat="43.66436" lon="1.40246">
        <ele>121</ele>
        <time>2025-01-10T11:33:20Z</time>
      </trkpt>
      <trkpt lat="43.66434" lon="1.40248">
        <ele>121</ele>
        <time>2025-01-10T11:33:21Z</time>
      </trkpt>
      <trkpt lat="43.66433" lon="1.4025">
        <ele>120</ele>
        <time>2025-01-10T11:33:22Z</time>
      </trkpt>
      <trkpt lat="43.66431" lon="1.40253">
        <ele>120</ele>
        <time>2025-01-10T11:33:23Z</time>
      </trkpt>
      <trkpt lat="43.66429" lon="1.40258">
        <ele>120</ele>
        <time>2025-01-10T11:33:24Z</time>
      </trkpt>
      <trkpt lat="43.66427" lon="1.40263">
        <ele>120</ele>
        <time>2025-01-10T11:33:25Z</time>
      </trkpt>
      <trkpt lat="43.66425" lon="1.40268">
        <ele>120</ele>
        <time>2025-01-10T11:33:26Z</time>
      </trkpt>
      <trkpt lat="43.66424" lon="1.40272">
        <ele>120</ele>
        <time>2025-01-10T11:33:27Z</time>
      </trkpt>
      <trkpt lat="43.66422" lon="1.40275">
        <ele>120</ele>
        <time>2025-01-10T11:33:28Z</time>
      </trkpt>
      <trkpt lat="43.6642" lon="1.40279">
        <ele>120</ele>
        <time>2025-01-10T11:33:29Z</time>
      </trkpt>
      <trkpt lat="43.66419" lon="1.4028">
        <ele>120</ele>
        <time>2025-01-10T11:33:30Z</time>
      </trkpt>
      <trkpt lat="43.66417" lon="1.40283">
        <ele>120</ele>
        <time>2025-01-10T11:33:31Z</time>
      </trkpt>
      <trkpt lat="43.66416" lon="1.40285">
        <ele>120</ele>
        <time>2025-01-10T11:33:32Z</time>
      </trkpt>
      <trkpt lat="43.66415" lon="1.40287">
        <ele>120</ele>
        <time>2025-01-10T11:33:33Z</time>
      </trkpt>
      <trkpt lat="43.66413" lon="1.40289">
        <ele>120</ele>
        <time>2025-01-10T11:33:34Z</time>
      </trkpt>
      <trkpt lat="43.66412" lon="1.40291">
        <ele>120</ele>
        <time>2025-01-10T11:33:35Z</time>
      </trkpt>
      <trkpt lat="43.66411" lon="1.40293">
        <ele>120</ele>
        <time>2025-01-10T11:33:36Z</time>
      </trkpt>
      <trkpt lat="43.66409" lon="1.40296">
        <ele>120</ele>
        <time>2025-01-10T11:33:37Z</time>
      </trkpt>
      <trkpt lat="43.66408" lon="1.40299">
        <ele>120</ele>
        <time>2025-01-10T11:33:38Z</time>
      </trkpt>
      <trkpt lat="43.66406" lon="1.40301">
        <ele>120</ele>
        <time>2025-01-10T11:33:39Z</time>
      </trkpt>
      <trkpt lat="43.66404" lon="1.40304">
        <ele>120</ele>
        <time>2025-01-10T11:33:40Z</time>
      </trkpt>
      <trkpt lat="43.66403" lon="1.40306">
        <ele>120</ele>
        <time>2025-01-10T11:33:41Z</time>
      </trkpt>
      <trkpt lat="43.66401" lon="1.40307">
        <ele>120</ele>
        <time>2025-01-10T11:33:42Z</time>
      </trkpt>
      <trkpt lat="43.66398" lon="1.4031">
        <ele>120</ele>
        <time>2025-01-10T11:33:43Z</time>
      </trkpt>
      <trkpt lat="43.66396" lon="1.40312">
        <ele>120</ele>
        <time>2025-01-10T11:33:44Z</time>
      </trkpt>
      <trkpt lat="43.66394" lon="1.40314">
        <ele>121</ele>
        <time>2025-01-10T11:33:45Z</time>
      </trkpt>
      <trkpt lat="43.66391" lon="1.40317">
        <ele>121</ele>
        <time>2025-01-10T11:33:46Z</time>
      </trkpt>
      <trkpt lat="43.66389" lon="1.40319">
        <ele>121</ele>
        <time>2025-01-10T11:33:47Z</time>
      </trkpt>
      <trkpt lat="43.66386" lon="1.40322">
        <ele>121</ele>
        <time>2025-01-10T11:33:48Z</time>
      </trkpt>
      <trkpt lat="43.66383" lon="1.40325">
        <ele>122</ele>
        <time>2025-01-10T11:33:49Z</time>
      </trkpt>
      <trkpt lat="43.66381" lon="1.40326">
        <ele>122</ele>
        <time>2025-01-10T11:33:50Z</time>
      </trkpt>
      <trkpt lat="43.66379" lon="1.40327">
        <ele>122</ele>
        <time>2025-01-10T11:33:51Z</time>
      </trkpt>
      <trkpt lat="43.66376" lon="1.40329">
        <ele>121</ele>
        <time>2025-01-10T11:33:52Z</time>
      </trkpt>
      <trkpt lat="43.66373" lon="1.40331">
        <ele>121</ele>
        <time>2025-01-10T11:33:53Z</time>
      </trkpt>
      <trkpt lat="43.66371" lon="1.40332">
        <ele>121</ele>
        <time>2025-01-10T11:33:54Z</time>
      </trkpt>
      <trkpt lat="43.66368" lon="1.40332">
        <ele>121</ele>
        <time>2025-01-10T11:33:55Z</time>
      </trkpt>
      <trkpt lat="43.66365" lon="1.40333">
        <ele>121</ele>
        <time>2025-01-10T11:33:56Z</time>
      </trkpt>
      <trkpt lat="43.66363" lon="1.40334">
        <ele>121</ele>
        <time>2025-01-10T11:33:57Z</time>
      </trkpt>
      <trkpt lat="43.66362" lon="1.40336">
        <ele>121</ele>
        <time>2025-01-10T11:33:58Z</time>
      </trkpt>
      <trkpt lat="43.66359" lon="1.4034">
        <ele>121</ele>
        <time>2025-01-10T11:33:59Z</time>
      </trkpt>
      <trkpt lat="43.66358" lon="1.40342">
        <ele>121</ele>
        <time>2025-01-10T11:34:00Z</time>
      </trkpt>
      <trkpt lat="43.66356" lon="1.40345">
        <ele>121</ele>
        <time>2025-01-10T11:34:01Z</time>
      </trkpt>
      <trkpt lat="43.66355" lon="1.40348">
        <ele>121</ele>
        <time>2025-01-10T11:34:02Z</time>
      </trkpt>
      <trkpt lat="43.66353" lon="1.40351">
        <ele>121</ele>
        <time>2025-01-10T11:34:03Z</time>
      </trkpt>
      <trkpt lat="43.6635" lon="1.40354">
        <ele>121</ele>
        <time>2025-01-10T11:34:04Z</time>
      </trkpt>
      <trkpt lat="43.66347" lon="1.40356">
        <ele>121</ele>
        <time>2025-01-10T11:34:05Z</time>
      </trkpt>
      <trkpt lat="43.66345" lon="1.40358">
        <ele>121</ele>
        <time>2025-01-10T11:34:06Z</time>
      </trkpt>
      <trkpt lat="43.66342" lon="1.40359">
        <ele>121</ele>
        <time>2025-01-10T11:34:07Z</time>
      </trkpt>
      <trkpt lat="43.66339" lon="1.40361">
        <ele>121</ele>
        <time>2025-01-10T11:34:08Z</time>
      </trkpt>
      <trkpt lat="43.66337" lon="1.40362">
        <ele>121</ele>
        <time>2025-01-10T11:34:09Z</time>
      </trkpt>
      <trkpt lat="43.66334" lon="1.40365">
        <ele>121</ele>
        <time>2025-01-10T11:34:10Z</time>
      </trkpt>
      <trkpt lat="43.66333" lon="1.40365">
        <ele>121</ele>
        <time>2025-01-10T11:34:11Z</time>
      </trkpt>
      <trkpt lat="43.66333" lon="1.40365">
        <ele>121</ele>
        <time>2025-01-10T11:34:12Z</time>
      </trkpt>
      <trkpt lat="43.6633" lon="1.40369">
        <ele>121</ele>
        <time>2025-01-10T11:34:13Z</time>
      </trkpt>
      <trkpt lat="43.66329" lon="1.40371">
        <ele>120</ele>
        <time>2025-01-10T11:34:14Z</time>
      </trkpt>
      <trkpt lat="43.66327" lon="1.40374">
        <ele>120</ele>
        <time>2025-01-10T11:34:15Z</time>
      </trkpt>
      <trkpt lat="43.66325" lon="1.40376">
        <ele>120</ele>
        <time>2025-01-10T11:34:16Z</time>
      </trkpt>
      <trkpt lat="43.66323" lon="1.40378">
        <ele>120</ele>
        <time>2025-01-10T11:34:17Z</time>
      </trkpt>
      <trkpt lat="43.66322" lon="1.40381">
        <ele>120</ele>
        <time>2025-01-10T11:34:18Z</time>
      </trkpt>
      <trkpt lat="43.6632" lon="1.40383">
        <ele>120</ele>
        <time>2025-01-10T11:34:19Z</time>
      </trkpt>
      <trkpt lat="43.66318" lon="1.40385">
        <ele>120</ele>
        <time>2025-01-10T11:34:20Z</time>
      </trkpt>
      <trkpt lat="43.66316" lon="1.40387">
        <ele>120</ele>
        <time>2025-01-10T11:34:21Z</time>
      </trkpt>
      <trkpt lat="43.66312" lon="1.40389">
        <ele>120</ele>
        <time>2025-01-10T11:34:22Z</time>
      </trkpt>
      <trkpt lat="43.66308" lon="1.4039">
        <ele>120</ele>
        <time>2025-01-10T11:34:23Z</time>
      </trkpt>
      <trkpt lat="43.66307" lon="1.40391">
        <ele>120</ele>
        <time>2025-01-10T11:34:24Z</time>
      </trkpt>
      <trkpt lat="43.66305" lon="1.40393">
        <ele>120</ele>
        <time>2025-01-10T11:34:25Z</time>
      </trkpt>
      <trkpt lat="43.66303" lon="1.40395">
        <ele>120</ele>
        <time>2025-01-10T11:34:26Z</time>
      </trkpt>
      <trkpt lat="43.66302" lon="1.40397">
        <ele>120</ele>
        <time>2025-01-10T11:34:27Z</time>
      </trkpt>
      <trkpt lat="43.66301" lon="1.404">
        <ele>120</ele>
        <time>2025-01-10T11:34:28Z</time>
      </trkpt>
      <trkpt lat="43.66301" lon="1.40403">
        <ele>120</ele>
        <time>2025-01-10T11:34:29Z</time>
      </trkpt>
      <trkpt lat="43.66299" lon="1.40405">
        <ele>120</ele>
        <time>2025-01-10T11:34:30Z</time>
      </trkpt>
      <trkpt lat="43.66296" lon="1.40406">
        <ele>120</ele>
        <time>2025-01-10T11:34:31Z</time>
      </trkpt>
      <trkpt lat="43.66294" lon="1.40407">
        <ele>120</ele>
        <time>2025-01-10T11:34:32Z</time>
      </trkpt>
      <trkpt lat="43.66292" lon="1.40412">
        <ele>120</ele>
        <time>2025-01-10T11:34:34Z</time>
      </trkpt>
      <trkpt lat="43.6629" lon="1.40414">
        <ele>120</ele>
        <time>2025-01-10T11:34:35Z</time>
      </trkpt>
      <trkpt lat="43.66288" lon="1.40415">
        <ele>120</ele>
        <time>2025-01-10T11:34:36Z</time>
      </trkpt>
      <trkpt lat="43.66285" lon="1.40416">
        <ele>120</ele>
        <time>2025-01-10T11:34:37Z</time>
      </trkpt>
      <trkpt lat="43.66283" lon="1.40417">
        <ele>120</ele>
        <time>2025-01-10T11:34:38Z</time>
      </trkpt>
      <trkpt lat="43.6628" lon="1.40419">
        <ele>120</ele>
        <time>2025-01-10T11:34:39Z</time>
      </trkpt>
      <trkpt lat="43.66277" lon="1.40421">
        <ele>120</ele>
        <time>2025-01-10T11:34:40Z</time>
      </trkpt>
      <trkpt lat="43.66274" lon="1.40424">
        <ele>120</ele>
        <time>2025-01-10T11:34:41Z</time>
      </trkpt>
      <trkpt lat="43.66273" lon="1.40425">
        <ele>120</ele>
        <time>2025-01-10T11:34:42Z</time>
      </trkpt>
      <trkpt lat="43.6627" lon="1.40427">
        <ele>120</ele>
        <time>2025-01-10T11:34:43Z</time>
      </trkpt>
      <trkpt lat="43.66268" lon="1.40429">
        <ele>120</ele>
        <time>2025-01-10T11:34:44Z</time>
      </trkpt>
      <trkpt lat="43.66265" lon="1.40431">
        <ele>120</ele>
        <time>2025-01-10T11:34:45Z</time>
      </trkpt>
      <trkpt lat="43.66262" lon="1.40432">
        <ele>120</ele>
        <time>2025-01-10T11:34:46Z</time>
      </trkpt>
      <trkpt lat="43.6626" lon="1.40434">
        <ele>120</ele>
        <time>2025-01-10T11:34:47Z</time>
      </trkpt>
      <trkpt lat="43.66257" lon="1.40435">
        <ele>120</ele>
        <time>2025-01-10T11:34:48Z</time>
      </trkpt>
      <trkpt lat="43.66255" lon="1.40437">
        <ele>120</ele>
        <time>2025-01-10T11:34:49Z</time>
      </trkpt>
      <trkpt lat="43.66254" lon="1.40438">
        <ele>120</ele>
        <time>2025-01-10T11:34:50Z</time>
      </trkpt>
      <trkpt lat="43.66251" lon="1.40439">
        <ele>120</ele>
        <time>2025-01-10T11:34:51Z</time>
      </trkpt>
      <trkpt lat="43.66249" lon="1.40441">
        <ele>120</ele>
        <time>2025-01-10T11:34:52Z</time>
      </trkpt>
      <trkpt lat="43.66247" lon="1.40443">
        <ele>120</ele>
        <time>2025-01-10T11:34:53Z</time>
      </trkpt>
      <trkpt lat="43.66244" lon="1.40445">
        <ele>120</ele>
        <time>2025-01-10T11:34:54Z</time>
      </trkpt>
      <trkpt lat="43.66242" lon="1.40447">
        <ele>120</ele>
        <time>2025-01-10T11:34:55Z</time>
      </trkpt>
      <trkpt lat="43.6624" lon="1.40449">
        <ele>120</ele>
        <time>2025-01-10T11:34:56Z</time>
      </trkpt>
      <trkpt lat="43.66236" lon="1.40451">
        <ele>120</ele>
        <time>2025-01-10T11:34:57Z</time>
      </trkpt>
      <trkpt lat="43.66235" lon="1.40452">
        <ele>120</ele>
        <time>2025-01-10T11:34:58Z</time>
      </trkpt>
      <trkpt lat="43.66231" lon="1.40455">
        <ele>120</ele>
        <time>2025-01-10T11:34:59Z</time>
      </trkpt>
      <trkpt lat="43.66229" lon="1.40456">
        <ele>120</ele>
        <time>2025-01-10T11:35:00Z</time>
      </trkpt>
      <trkpt lat="43.66227" lon="1.40458">
        <ele>120</ele>
        <time>2025-01-10T11:35:01Z</time>
      </trkpt>
      <trkpt lat="43.66225" lon="1.40459">
        <ele>120</ele>
        <time>2025-01-10T11:35:02Z</time>
      </trkpt>
      <trkpt lat="43.66222" lon="1.40461">
        <ele>120</ele>
        <time>2025-01-10T11:35:03Z</time>
      </trkpt>
      <trkpt lat="43.6622" lon="1.40463">
        <ele>119</ele>
        <time>2025-01-10T11:35:04Z</time>
      </trkpt>
      <trkpt lat="43.66218" lon="1.40464">
        <ele>119</ele>
        <time>2025-01-10T11:35:05Z</time>
      </trkpt>
      <trkpt lat="43.66215" lon="1.40466">
        <ele>119</ele>
        <time>2025-01-10T11:35:06Z</time>
      </trkpt>
      <trkpt lat="43.66213" lon="1.40469">
        <ele>119</ele>
        <time>2025-01-10T11:35:07Z</time>
      </trkpt>
      <trkpt lat="43.66211" lon="1.40472">
        <ele>119</ele>
        <time>2025-01-10T11:35:08Z</time>
      </trkpt>
      <trkpt lat="43.66208" lon="1.40474">
        <ele>119</ele>
        <time>2025-01-10T11:35:09Z</time>
      </trkpt>
      <trkpt lat="43.66207" lon="1.40475">
        <ele>119</ele>
        <time>2025-01-10T11:35:10Z</time>
      </trkpt>
      <trkpt lat="43.66205" lon="1.40476">
        <ele>119</ele>
        <time>2025-01-10T11:35:11Z</time>
      </trkpt>
      <trkpt lat="43.66201" lon="1.40479">
        <ele>120</ele>
        <time>2025-01-10T11:35:12Z</time>
      </trkpt>
      <trkpt lat="43.662" lon="1.4048">
        <ele>120</ele>
        <time>2025-01-10T11:35:13Z</time>
      </trkpt>
      <trkpt lat="43.66198" lon="1.40481">
        <ele>120</ele>
        <time>2025-01-10T11:35:14Z</time>
      </trkpt>
      <trkpt lat="43.66196" lon="1.40483">
        <ele>120</ele>
        <time>2025-01-10T11:35:15Z</time>
      </trkpt>
      <trkpt lat="43.66194" lon="1.40485">
        <ele>120</ele>
        <time>2025-01-10T11:35:16Z</time>
      </trkpt>
      <trkpt lat="43.66192" lon="1.40487">
        <ele>120</ele>
        <time>2025-01-10T11:35:17Z</time>
      </trkpt>
      <trkpt lat="43.6619" lon="1.4049">
        <ele>120</ele>
        <time>2025-01-10T11:35:18Z</time>
      </trkpt>
      <trkpt lat="43.66188" lon="1.40492">
        <ele>120</ele>
        <time>2025-01-10T11:35:19Z</time>
      </trkpt>
      <trkpt lat="43.66186" lon="1.40494">
        <ele>120</ele>
        <time>2025-01-10T11:35:20Z</time>
      </trkpt>
      <trkpt lat="43.66184" lon="1.40495">
        <ele>120</ele>
        <time>2025-01-10T11:35:21Z</time>
      </trkpt>
      <trkpt lat="43.66181" lon="1.40497">
        <ele>120</ele>
        <time>2025-01-10T11:35:22Z</time>
      </trkpt>
      <trkpt lat="43.6618" lon="1.40497">
        <ele>120</ele>
        <time>2025-01-10T11:35:23Z</time>
      </trkpt>
      <trkpt lat="43.66178" lon="1.40497">
        <ele>120</ele>
        <time>2025-01-10T11:35:24Z</time>
      </trkpt>
      <trkpt lat="43.66177" lon="1.40497">
        <ele>120</ele>
        <time>2025-01-10T11:35:25Z</time>
      </trkpt>
      <trkpt lat="43.66175" lon="1.40497">
        <ele>120</ele>
        <time>2025-01-10T11:35:26Z</time>
      </trkpt>
      <trkpt lat="43.66172" lon="1.40498">
        <ele>120</ele>
        <time>2025-01-10T11:35:27Z</time>
      </trkpt>
      <trkpt lat="43.66169" lon="1.40499">
        <ele>120</ele>
        <time>2025-01-10T11:35:28Z</time>
      </trkpt>
      <trkpt lat="43.66166" lon="1.40501">
        <ele>120</ele>
        <time>2025-01-10T11:35:29Z</time>
      </trkpt>
      <trkpt lat="43.66163" lon="1.40503">
        <ele>120</ele>
        <time>2025-01-10T11:35:30Z</time>
      </trkpt>
      <trkpt lat="43.6616" lon="1.40504">
        <ele>120</ele>
        <time>2025-01-10T11:35:31Z</time>
      </trkpt>
      <trkpt lat="43.66157" lon="1.40505">
        <ele>120</ele>
        <time>2025-01-10T11:35:32Z</time>
      </trkpt>
      <trkpt lat="43.66153" lon="1.40507">
        <ele>120</ele>
        <time>2025-01-10T11:35:33Z</time>
      </trkpt>
      <trkpt lat="43.6615" lon="1.40508">
        <ele>120</ele>
        <time>2025-01-10T11:35:34Z</time>
      </trkpt>
      <trkpt lat="43.66147" lon="1.40509">
        <ele>120</ele>
        <time>2025-01-10T11:35:35Z</time>
      </trkpt>
      <trkpt lat="43.66144" lon="1.4051">
        <ele>120</ele>
        <time>2025-01-10T11:35:36Z</time>
      </trkpt>
      <trkpt lat="43.6614" lon="1.40512">
        <ele>120</ele>
        <time>2025-01-10T11:35:37Z</time>
      </trkpt>
      <trkpt lat="43.66137" lon="1.40513">
        <ele>120</ele>
        <time>2025-01-10T11:35:38Z</time>
      </trkpt>
      <trkpt lat="43.66134" lon="1.40514">
        <ele>120</ele>
        <time>2025-01-10T11:35:39Z</time>
      </trkpt>
      <trkpt lat="43.66131" lon="1.40515">
        <ele>120</ele>
        <time>2025-01-10T11:35:40Z</time>
      </trkpt>
      <trkpt lat="43.66129" lon="1.40516">
        <ele>120</ele>
        <time>2025-01-10T11:35:41Z</time>
      </trkpt>
      <trkpt lat="43.66126" lon="1.40517">
        <ele>120</ele>
        <time>2025-01-10T11:35:42Z</time>
      </trkpt>
      <trkpt lat="43.66124" lon="1.40518">
        <ele>120</ele>
        <time>2025-01-10T11:35:43Z</time>
      </trkpt>
      <trkpt lat="43.66121" lon="1.40519">
        <ele>121</ele>
        <time>2025-01-10T11:35:44Z</time>
      </trkpt>
      <trkpt lat="43.66118" lon="1.40521">
        <ele>121</ele>
        <time>2025-01-10T11:35:45Z</time>
      </trkpt>
      <trkpt lat="43.66117" lon="1.40522">
        <ele>121</ele>
        <time>2025-01-10T11:35:46Z</time>
      </trkpt>
      <trkpt lat="43.66115" lon="1.40523">
        <ele>121</ele>
        <time>2025-01-10T11:35:47Z</time>
      </trkpt>
      <trkpt lat="43.66113" lon="1.40524">
        <ele>120</ele>
        <time>2025-01-10T11:35:48Z</time>
      </trkpt>
      <trkpt lat="43.66111" lon="1.40525">
        <ele>120</ele>
        <time>2025-01-10T11:35:49Z</time>
      </trkpt>
      <trkpt lat="43.66109" lon="1.40526">
        <ele>120</ele>
        <time>2025-01-10T11:35:50Z</time>
      </trkpt>
      <trkpt lat="43.66107" lon="1.40527">
        <ele>121</ele>
        <time>2025-01-10T11:35:51Z</time>
      </trkpt>
      <trkpt lat="43.66105" lon="1.40527">
        <ele>121</ele>
        <time>2025-01-10T11:35:52Z</time>
      </trkpt>
      <trkpt lat="43.66102" lon="1.40527">
        <ele>121</ele>
        <time>2025-01-10T11:35:53Z</time>
      </trkpt>
      <trkpt lat="43.661" lon="1.40526">
        <ele>121</ele>
        <time>2025-01-10T11:35:54Z</time>
      </trkpt>
      <trkpt lat="43.66097" lon="1.40524">
        <ele>121</ele>
        <time>2025-01-10T11:35:55Z</time>
      </trkpt>
      <trkpt lat="43.66094" lon="1.40523">
        <ele>121</ele>
        <time>2025-01-10T11:35:56Z</time>
      </trkpt>
      <trkpt lat="43.66092" lon="1.40522">
        <ele>121</ele>
        <time>2025-01-10T11:35:57Z</time>
      </trkpt>
      <trkpt lat="43.6609" lon="1.40522">
        <ele>121</ele>
        <time>2025-01-10T11:35:58Z</time>
      </trkpt>
      <trkpt lat="43.66088" lon="1.40521">
        <ele>122</ele>
        <time>2025-01-10T11:35:59Z</time>
      </trkpt>
      <trkpt lat="43.66085" lon="1.40522">
        <ele>122</ele>
        <time>2025-01-10T11:36:00Z</time>
      </trkpt>
      <trkpt lat="43.66083" lon="1.40521">
        <ele>122</ele>
        <time>2025-01-10T11:36:01Z</time>
      </trkpt>
      <trkpt lat="43.66081" lon="1.40522">
        <ele>122</ele>
        <time>2025-01-10T11:36:02Z</time>
      </trkpt>
      <trkpt lat="43.66079" lon="1.40522">
        <ele>122</ele>
        <time>2025-01-10T11:36:03Z</time>
      </trkpt>
      <trkpt lat="43.66077" lon="1.40523">
        <ele>122</ele>
        <time>2025-01-10T11:36:04Z</time>
      </trkpt>
      <trkpt lat="43.66075" lon="1.40524">
        <ele>122</ele>
        <time>2025-01-10T11:36:05Z</time>
      </trkpt>
      <trkpt lat="43.66073" lon="1.40524">
        <ele>122</ele>
        <time>2025-01-10T11:36:06Z</time>
      </trkpt>
      <trkpt lat="43.66071" lon="1.40525">
        <ele>121</ele>
        <time>2025-01-10T11:36:07Z</time>
      </trkpt>
      <trkpt lat="43.66068" lon="1.40526">
        <ele>121</ele>
        <time>2025-01-10T11:36:08Z</time>
      </trkpt>
      <trkpt lat="43.66064" lon="1.40526">
        <ele>121</ele>
        <time>2025-01-10T11:36:09Z</time>
      </trkpt>
      <trkpt lat="43.66061" lon="1.40526">
        <ele>121</ele>
        <time>2025-01-10T11:36:10Z</time>
      </trkpt>
      <trkpt lat="43.66058" lon="1.40527">
        <ele>122</ele>
        <time>2025-01-10T11:36:11Z</time>
      </trkpt>
      <trkpt lat="43.66055" lon="1.40527">
        <ele>122</ele>
        <time>2025-01-10T11:36:12Z</time>
      </trkpt>
      <trkpt lat="43.66053" lon="1.40528">
        <ele>122</ele>
        <time>2025-01-10T11:36:13Z</time>
      </trkpt>
      <trkpt lat="43.66051" lon="1.40529">
        <ele>122</ele>
        <time>2025-01-10T11:36:14Z</time>
      </trkpt>
      <trkpt lat="43.66048" lon="1.4053">
        <ele>122</ele>
        <time>2025-01-10T11:36:15Z</time>
      </trkpt>
      <trkpt lat="43.66046" lon="1.40531">
        <ele>122</ele>
        <time>2025-01-10T11:36:16Z</time>
      </trkpt>
      <trkpt lat="43.66044" lon="1.40533">
        <ele>122</ele>
        <time>2025-01-10T11:36:17Z</time>
      </trkpt>
      <trkpt lat="43.66041" lon="1.40534">
        <ele>122</ele>
        <time>2025-01-10T11:36:18Z</time>
      </trkpt>
      <trkpt lat="43.66039" lon="1.40536">
        <ele>122</ele>
        <time>2025-01-10T11:36:19Z</time>
      </trkpt>
      <trkpt lat="43.66037" lon="1.40537">
        <ele>122</ele>
        <time>2025-01-10T11:36:20Z</time>
      </trkpt>
      <trkpt lat="43.66033" lon="1.40537">
        <ele>122</ele>
        <time>2025-01-10T11:36:21Z</time>
      </trkpt>
      <trkpt lat="43.66032" lon="1.40537">
        <ele>122</ele>
        <time>2025-01-10T11:36:22Z</time>
      </trkpt>
      <trkpt lat="43.66032" lon="1.40537">
        <ele>122</ele>
        <time>2025-01-10T11:36:23Z</time>
      </trkpt>
      <trkpt lat="43.66027" lon="1.40535">
        <ele>122</ele>
        <time>2025-01-10T11:36:24Z</time>
      </trkpt>
      <trkpt lat="43.66025" lon="1.40534">
        <ele>122</ele>
        <time>2025-01-10T11:36:25Z</time>
      </trkpt>
      <trkpt lat="43.66023" lon="1.40533">
        <ele>122</ele>
        <time>2025-01-10T11:36:26Z</time>
      </trkpt>
      <trkpt lat="43.66021" lon="1.40532">
        <ele>122</ele>
        <time>2025-01-10T11:36:27Z</time>
      </trkpt>
      <trkpt lat="43.66018" lon="1.40531">
        <ele>122</ele>
        <time>2025-01-10T11:36:28Z</time>
      </trkpt>
      <trkpt lat="43.66016" lon="1.40529">
        <ele>122</ele>
        <time>2025-01-10T11:36:29Z</time>
      </trkpt>
      <trkpt lat="43.66016" lon="1.40529">
        <ele>122</ele>
        <time>2025-01-10T11:36:30Z</time>
      </trkpt>
      <trkpt lat="43.66014" lon="1.40529">
        <ele>122</ele>
        <time>2025-01-10T11:36:31Z</time>
      </trkpt>
      <trkpt lat="43.66012" lon="1.40529">
        <ele>122</ele>
        <time>2025-01-10T11:36:32Z</time>
      </trkpt>
      <trkpt lat="43.6601" lon="1.40529">
        <ele>121</ele>
        <time>2025-01-10T11:36:33Z</time>
      </trkpt>
      <trkpt lat="43.66001" lon="1.40529">
        <ele>121</ele>
        <time>2025-01-10T11:36:34Z</time>
      </trkpt>
      <trkpt lat="43.65998" lon="1.4053">
        <ele>121</ele>
        <time>2025-01-10T11:36:35Z</time>
      </trkpt>
      <trkpt lat="43.65995" lon="1.40531">
        <ele>121</ele>
        <time>2025-01-10T11:36:36Z</time>
      </trkpt>
      <trkpt lat="43.65992" lon="1.40531">
        <ele>121</ele>
        <time>2025-01-10T11:36:37Z</time>
      </trkpt>
      <trkpt lat="43.6599" lon="1.40531">
        <ele>121</ele>
        <time>2025-01-10T11:36:38Z</time>
      </trkpt>
      <trkpt lat="43.65987" lon="1.40532">
        <ele>121</ele>
        <time>2025-01-10T11:36:39Z</time>
      </trkpt>
      <trkpt lat="43.65984" lon="1.40532">
        <ele>122</ele>
        <time>2025-01-10T11:36:40Z</time>
      </trkpt>
      <trkpt lat="43.65982" lon="1.40532">
        <ele>122</ele>
        <time>2025-01-10T11:36:41Z</time>
      </trkpt>
      <trkpt lat="43.6598" lon="1.40532">
        <ele>121</ele>
        <time>2025-01-10T11:36:42Z</time>
      </trkpt>
      <trkpt lat="43.65978" lon="1.40533">
        <ele>121</ele>
        <time>2025-01-10T11:36:43Z</time>
      </trkpt>
      <trkpt lat="43.65975" lon="1.40535">
        <ele>121</ele>
        <time>2025-01-10T11:36:44Z</time>
      </trkpt>
      <trkpt lat="43.65972" lon="1.40536">
        <ele>121</ele>
        <time>2025-01-10T11:36:45Z</time>
      </trkpt>
      <trkpt lat="43.6597" lon="1.40537">
        <ele>121</ele>
        <time>2025-01-10T11:36:46Z</time>
      </trkpt>
      <trkpt lat="43.6597" lon="1.40537">
        <ele>121</ele>
        <time>2025-01-10T11:36:47Z</time>
      </trkpt>
      <trkpt lat="43.65963" lon="1.40539">
        <ele>121</ele>
        <time>2025-01-10T11:36:48Z</time>
      </trkpt>
      <trkpt lat="43.6596" lon="1.4054">
        <ele>122</ele>
        <time>2025-01-10T11:36:49Z</time>
      </trkpt>
      <trkpt lat="43.65957" lon="1.4054">
        <ele>122</ele>
        <time>2025-01-10T11:36:50Z</time>
      </trkpt>
      <trkpt lat="43.65954" lon="1.40541">
        <ele>122</ele>
        <time>2025-01-10T11:36:51Z</time>
      </trkpt>
      <trkpt lat="43.65951" lon="1.40541">
        <ele>122</ele>
        <time>2025-01-10T11:36:52Z</time>
      </trkpt>
      <trkpt lat="43.65948" lon="1.40542">
        <ele>122</ele>
        <time>2025-01-10T11:36:53Z</time>
      </trkpt>
      <trkpt lat="43.65945" lon="1.40543">
        <ele>123</ele>
        <time>2025-01-10T11:36:54Z</time>
      </trkpt>
      <trkpt lat="43.65942" lon="1.40544">
        <ele>123</ele>
        <time>2025-01-10T11:36:55Z</time>
      </trkpt>
      <trkpt lat="43.65939" lon="1.40545">
        <ele>123</ele>
        <time>2025-01-10T11:36:56Z</time>
      </trkpt>
      <trkpt lat="43.65936" lon="1.40545">
        <ele>123</ele>
        <time>2025-01-10T11:36:57Z</time>
      </trkpt>
      <trkpt lat="43.65934" lon="1.40546">
        <ele>123</ele>
        <time>2025-01-10T11:36:58Z</time>
      </trkpt>
      <trkpt lat="43.65931" lon="1.40546">
        <ele>123</ele>
        <time>2025-01-10T11:36:59Z</time>
      </trkpt>
      <trkpt lat="43.65928" lon="1.40547">
        <ele>123</ele>
        <time>2025-01-10T11:37:00Z</time>
      </trkpt>
      <trkpt lat="43.65925" lon="1.40548">
        <ele>123</ele>
        <time>2025-01-10T11:37:01Z</time>
      </trkpt>
      <trkpt lat="43.65923" lon="1.40548">
        <ele>123</ele>
        <time>2025-01-10T11:37:02Z</time>
      </trkpt>
      <trkpt lat="43.6592" lon="1.40548">
        <ele>123</ele>
        <time>2025-01-10T11:37:03Z</time>
      </trkpt>
      <trkpt lat="43.65917" lon="1.4055">
        <ele>123</ele>
        <time>2025-01-10T11:37:04Z</time>
      </trkpt>
      <trkpt lat="43.65914" lon="1.40551">
        <ele>122</ele>
        <time>2025-01-10T11:37:05Z</time>
      </trkpt>
      <trkpt lat="43.65911" lon="1.40553">
        <ele>122</ele>
        <time>2025-01-10T11:37:06Z</time>
      </trkpt>
      <trkpt lat="43.65908" lon="1.40554">
        <ele>122</ele>
        <time>2025-01-10T11:37:07Z</time>
      </trkpt>
      <trkpt lat="43.65905" lon="1.40555">
        <ele>122</ele>
        <time>2025-01-10T11:37:08Z</time>
      </trkpt>
      <trkpt lat="43.65902" lon="1.40556">
        <ele>122</ele>
        <time>2025-01-10T11:37:09Z</time>
      </trkpt>
      <trkpt lat="43.65899" lon="1.40556">
        <ele>122</ele>
        <time>2025-01-10T11:37:10Z</time>
      </trkpt>
      <trkpt lat="43.65896" lon="1.40557">
        <ele>122</ele>
        <time>2025-01-10T11:37:11Z</time>
      </trkpt>
      <trkpt lat="43.65894" lon="1.40557">
        <ele>122</ele>
        <time>2025-01-10T11:37:12Z</time>
      </trkpt>
      <trkpt lat="43.65891" lon="1.40558">
        <ele>122</ele>
        <time>2025-01-10T11:37:13Z</time>
      </trkpt>
      <trkpt lat="43.65889" lon="1.40558">
        <ele>122</ele>
        <time>2025-01-10T11:37:14Z</time>
      </trkpt>
      <trkpt lat="43.65886" lon="1.40558">
        <ele>122</ele>
        <time>2025-01-10T11:37:15Z</time>
      </trkpt>
      <trkpt lat="43.65883" lon="1.40557">
        <ele>122</ele>
        <time>2025-01-10T11:37:16Z</time>
      </trkpt>
      <trkpt lat="43.65881" lon="1.40557">
        <ele>122</ele>
        <time>2025-01-10T11:37:17Z</time>
      </trkpt>
      <trkpt lat="43.65879" lon="1.40557">
        <ele>123</ele>
        <time>2025-01-10T11:37:18Z</time>
      </trkpt>
      <trkpt lat="43.65876" lon="1.40558">
        <ele>123</ele>
        <time>2025-01-10T11:37:19Z</time>
      </trkpt>
      <trkpt lat="43.65874" lon="1.40558">
        <ele>123</ele>
        <time>2025-01-10T11:37:20Z</time>
      </trkpt>
      <trkpt lat="43.65872" lon="1.40558">
        <ele>123</ele>
        <time>2025-01-10T11:37:21Z</time>
      </trkpt>
      <trkpt lat="43.6587" lon="1.40558">
        <ele>123</ele>
        <time>2025-01-10T11:37:22Z</time>
      </trkpt>
      <trkpt lat="43.65868" lon="1.40558">
        <ele>123</ele>
        <time>2025-01-10T11:37:23Z</time>
      </trkpt>
      <trkpt lat="43.65866" lon="1.40558">
        <ele>123</ele>
        <time>2025-01-10T11:37:24Z</time>
      </trkpt>
      <trkpt lat="43.65863" lon="1.40559">
        <ele>123</ele>
        <time>2025-01-10T11:37:25Z</time>
      </trkpt>
      <trkpt lat="43.6586" lon="1.4056">
        <ele>123</ele>
        <time>2025-01-10T11:37:26Z</time>
      </trkpt>
      <trkpt lat="43.65858" lon="1.4056">
        <ele>123</ele>
        <time>2025-01-10T11:37:27Z</time>
      </trkpt>
      <trkpt lat="43.65858" lon="1.4056">
        <ele>123</ele>
        <time>2025-01-10T11:37:28Z</time>
      </trkpt>
      <trkpt lat="43.65855" lon="1.40562">
        <ele>122</ele>
        <time>2025-01-10T11:37:29Z</time>
      </trkpt>
      <trkpt lat="43.65854" lon="1.40567">
        <ele>122</ele>
        <time>2025-01-10T11:37:30Z</time>
      </trkpt>
      <trkpt lat="43.65853" lon="1.40569">
        <ele>122</ele>
        <time>2025-01-10T11:37:31Z</time>
      </trkpt>
      <trkpt lat="43.65852" lon="1.40572">
        <ele>122</ele>
        <time>2025-01-10T11:37:32Z</time>
      </trkpt>
      <trkpt lat="43.65851" lon="1.40574">
        <ele>122</ele>
        <time>2025-01-10T11:37:33Z</time>
      </trkpt>
      <trkpt lat="43.65849" lon="1.40576">
        <ele>122</ele>
        <time>2025-01-10T11:37:34Z</time>
      </trkpt>
      <trkpt lat="43.65847" lon="1.40577">
        <ele>122</ele>
        <time>2025-01-10T11:37:35Z</time>
      </trkpt>
      <trkpt lat="43.65845" lon="1.40577">
        <ele>122</ele>
        <time>2025-01-10T11:37:36Z</time>
      </trkpt>
      <trkpt lat="43.65843" lon="1.40576">
        <ele>122</ele>
        <time>2025-01-10T11:37:37Z</time>
      </trkpt>
      <trkpt lat="43.65841" lon="1.40575">
        <ele>122</ele>
        <time>2025-01-10T11:37:38Z</time>
      </trkpt>
      <trkpt lat="43.65839" lon="1.40574">
        <ele>123</ele>
        <time>2025-01-10T11:37:40Z</time>
      </trkpt>
      <trkpt lat="43.65835" lon="1.40573">
        <ele>123</ele>
        <time>2025-01-10T11:37:41Z</time>
      </trkpt>
      <trkpt lat="43.65833" lon="1.40572">
        <ele>123</ele>
        <time>2025-01-10T11:37:42Z</time>
      </trkpt>
      <trkpt lat="43.65831" lon="1.40571">
        <ele>123</ele>
        <time>2025-01-10T11:37:43Z</time>
      </trkpt>
      <trkpt lat="43.65828" lon="1.4057">
        <ele>123</ele>
        <time>2025-01-10T11:37:44Z</time>
      </trkpt>
      <trkpt lat="43.65825" lon="1.40569">
        <ele>123</ele>
        <time>2025-01-10T11:37:45Z</time>
      </trkpt>
      <trkpt lat="43.65822" lon="1.40567">
        <ele>123</ele>
        <time>2025-01-10T11:37:46Z</time>
      </trkpt>
      <trkpt lat="43.6582" lon="1.40565">
        <ele>123</ele>
        <time>2025-01-10T11:37:47Z</time>
      </trkpt>
      <trkpt lat="43.65817" lon="1.40564">
        <ele>123</ele>
        <time>2025-01-10T11:37:48Z</time>
      </trkpt>
      <trkpt lat="43.65815" lon="1.40563">
        <ele>123</ele>
        <time>2025-01-10T11:37:49Z</time>
      </trkpt>
      <trkpt lat="43.65813" lon="1.40563">
        <ele>123</ele>
        <time>2025-01-10T11:37:50Z</time>
      </trkpt>
      <trkpt lat="43.65811" lon="1.40563">
        <ele>123</ele>
        <time>2025-01-10T11:37:51Z</time>
      </trkpt>
      <trkpt lat="43.65808" lon="1.40563">
        <ele>123</ele>
        <time>2025-01-10T11:37:52Z</time>
      </trkpt>
      <trkpt lat="43.65806" lon="1.40563">
        <ele>123</ele>
        <time>2025-01-10T11:37:53Z</time>
      </trkpt>
      <trkpt lat="43.65803" lon="1.40564">
        <ele>123</ele>
        <time>2025-01-10T11:37:54Z</time>
      </trkpt>
      <trkpt lat="43.658" lon="1.40565">
        <ele>123</ele>
        <time>2025-01-10T11:37:55Z</time>
      </trkpt>
      <trkpt lat="43.65798" lon="1.40565">
        <ele>123</ele>
        <time>2025-01-10T11:37:56Z</time>
      </trkpt>
      <trkpt lat="43.65796" lon="1.40566">
        <ele>123</ele>
        <time>2025-01-10T11:37:57Z</time>
      </trkpt>
      <trkpt lat="43.65794" lon="1.40566">
        <ele>123</ele>
        <time>2025-01-10T11:37:58Z</time>
      </trkpt>
      <trkpt lat="43.65794" lon="1.40566">
        <ele>123</ele>
        <time>2025-01-10T11:37:59Z</time>
      </trkpt>
      <trkpt lat="43.6579" lon="1.40568">
        <ele>123</ele>
        <time>2025-01-10T11:38:00Z</time>
      </trkpt>
      <trkpt lat="43.65788" lon="1.40569">
        <ele>123</ele>
        <time>2025-01-10T11:38:01Z</time>
      </trkpt>
      <trkpt lat="43.65786" lon="1.40569">
        <ele>123</ele>
        <time>2025-01-10T11:38:02Z</time>
      </trkpt>
      <trkpt lat="43.65784" lon="1.40569">
        <ele>123</ele>
        <time>2025-01-10T11:38:03Z</time>
      </trkpt>
      <trkpt lat="43.65781" lon="1.40569">
        <ele>123</ele>
        <time>2025-01-10T11:38:04Z</time>
      </trkpt>
      <trkpt lat="43.65776" lon="1.4057">
        <ele>123</ele>
        <time>2025-01-10T11:38:06Z</time>
      </trkpt>
      <trkpt lat="43.65773" lon="1.40573">
        <ele>123</ele>
        <time>2025-01-10T11:38:07Z</time>
      </trkpt>
      <trkpt lat="43.6577" lon="1.40576">
        <ele>123</ele>
        <time>2025-01-10T11:38:08Z</time>
      </trkpt>
      <trkpt lat="43.65767" lon="1.40578">
        <ele>123</ele>
        <time>2025-01-10T11:38:09Z</time>
      </trkpt>
      <trkpt lat="43.65764" lon="1.40578">
        <ele>123</ele>
        <time>2025-01-10T11:38:10Z</time>
      </trkpt>
      <trkpt lat="43.65761" lon="1.40579">
        <ele>123</ele>
        <time>2025-01-10T11:38:11Z</time>
      </trkpt>
      <trkpt lat="43.65759" lon="1.4058">
        <ele>123</ele>
        <time>2025-01-10T11:38:12Z</time>
      </trkpt>
      <trkpt lat="43.65758" lon="1.40582">
        <ele>123</ele>
        <time>2025-01-10T11:38:13Z</time>
      </trkpt>
      <trkpt lat="43.65756" lon="1.40584">
        <ele>123</ele>
        <time>2025-01-10T11:38:14Z</time>
      </trkpt>
      <trkpt lat="43.65754" lon="1.40586">
        <ele>123</ele>
        <time>2025-01-10T11:38:15Z</time>
      </trkpt>
      <trkpt lat="43.65751" lon="1.40587">
        <ele>123</ele>
        <time>2025-01-10T11:38:16Z</time>
      </trkpt>
      <trkpt lat="43.65746" lon="1.40587">
        <ele>123</ele>
        <time>2025-01-10T11:38:17Z</time>
      </trkpt>
      <trkpt lat="43.65744" lon="1.40587">
        <ele>121</ele>
        <time>2025-01-10T11:38:18Z</time>
      </trkpt>
      <trkpt lat="43.65742" lon="1.40587">
        <ele>121</ele>
        <time>2025-01-10T11:38:19Z</time>
      </trkpt>
      <trkpt lat="43.65739" lon="1.40587">
        <ele>121</ele>
        <time>2025-01-10T11:38:20Z</time>
      </trkpt>
      <trkpt lat="43.65735" lon="1.40587">
        <ele>121</ele>
        <time>2025-01-10T11:38:21Z</time>
      </trkpt>
      <trkpt lat="43.65732" lon="1.40587">
        <ele>121</ele>
        <time>2025-01-10T11:38:22Z</time>
      </trkpt>
      <trkpt lat="43.6573" lon="1.40587">
        <ele>121</ele>
        <time>2025-01-10T11:38:23Z</time>
      </trkpt>
      <trkpt lat="43.65728" lon="1.40588">
        <ele>121</ele>
        <time>2025-01-10T11:38:24Z</time>
      </trkpt>
      <trkpt lat="43.65725" lon="1.40589">
        <ele>121</ele>
        <time>2025-01-10T11:38:25Z</time>
      </trkpt>
      <trkpt lat="43.65723" lon="1.4059">
        <ele>121</ele>
        <time>2025-01-10T11:38:26Z</time>
      </trkpt>
      <trkpt lat="43.65721" lon="1.40591">
        <ele>120</ele>
        <time>2025-01-10T11:38:27Z</time>
      </trkpt>
      <trkpt lat="43.65718" lon="1.40592">
        <ele>120</ele>
        <time>2025-01-10T11:38:28Z</time>
      </trkpt>
      <trkpt lat="43.65716" lon="1.40593">
        <ele>120</ele>
        <time>2025-01-10T11:38:29Z</time>
      </trkpt>
      <trkpt lat="43.65714" lon="1.40594">
        <ele>119</ele>
        <time>2025-01-10T11:38:30Z</time>
      </trkpt>
      <trkpt lat="43.65711" lon="1.40595">
        <ele>119</ele>
        <time>2025-01-10T11:38:31Z</time>
      </trkpt>
      <trkpt lat="43.65709" lon="1.40596">
        <ele>119</ele>
        <time>2025-01-10T11:38:32Z</time>
      </trkpt>
      <trkpt lat="43.65707" lon="1.40597">
        <ele>119</ele>
        <time>2025-01-10T11:38:33Z</time>
      </trkpt>
      <trkpt lat="43.65704" lon="1.40597">
        <ele>119</ele>
        <time>2025-01-10T11:38:34Z</time>
      </trkpt>
      <trkpt lat="43.65701" lon="1.40598">
        <ele>118</ele>
        <time>2025-01-10T11:38:35Z</time>
      </trkpt>
      <trkpt lat="43.65698" lon="1.40597">
        <ele>118</ele>
        <time>2025-01-10T11:38:36Z</time>
      </trkpt>
      <trkpt lat="43.65696" lon="1.40595">
        <ele>119</ele>
        <time>2025-01-10T11:38:37Z</time>
      </trkpt>
      <trkpt lat="43.65693" lon="1.40591">
        <ele>119</ele>
        <time>2025-01-10T11:38:38Z</time>
      </trkpt>
      <trkpt lat="43.65692" lon="1.4059">
        <ele>119</ele>
        <time>2025-01-10T11:38:39Z</time>
      </trkpt>
      <trkpt lat="43.65691" lon="1.40588">
        <ele>120</ele>
        <time>2025-01-10T11:38:40Z</time>
      </trkpt>
      <trkpt lat="43.65691" lon="1.40588">
        <ele>120</ele>
        <time>2025-01-10T11:38:41Z</time>
      </trkpt>
      <trkpt lat="43.65688" lon="1.40587">
        <ele>121</ele>
        <time>2025-01-10T11:38:42Z</time>
      </trkpt>
      <trkpt lat="43.65685" lon="1.4059">
        <ele>121</ele>
        <time>2025-01-10T11:38:43Z</time>
      </trkpt>
      <trkpt lat="43.65684" lon="1.40591">
        <ele>121</ele>
        <time>2025-01-10T11:38:44Z</time>
      </trkpt>
      <trkpt lat="43.65682" lon="1.40593">
        <ele>121</ele>
        <time>2025-01-10T11:38:45Z</time>
      </trkpt>
      <trkpt lat="43.65679" lon="1.40595">
        <ele>121</ele>
        <time>2025-01-10T11:38:46Z</time>
      </trkpt>
      <trkpt lat="43.65677" lon="1.40596">
        <ele>121</ele>
        <time>2025-01-10T11:38:47Z</time>
      </trkpt>
      <trkpt lat="43.65675" lon="1.40597">
        <ele>120</ele>
        <time>2025-01-10T11:38:48Z</time>
      </trkpt>
      <trkpt lat="43.65672" lon="1.40597">
        <ele>120</ele>
        <time>2025-01-10T11:38:49Z</time>
      </trkpt>
      <trkpt lat="43.65668" lon="1.40596">
        <ele>120</ele>
        <time>2025-01-10T11:38:50Z</time>
      </trkpt>
      <trkpt lat="43.65667" lon="1.40596">
        <ele>120</ele>
        <time>2025-01-10T11:38:51Z</time>
      </trkpt>
      <trkpt lat="43.65665" lon="1.40596">
        <ele>120</ele>
        <time>2025-01-10T11:38:52Z</time>
      </trkpt>
      <trkpt lat="43.65662" lon="1.40596">
        <ele>120</ele>
        <time>2025-01-10T11:38:53Z</time>
      </trkpt>
      <trkpt lat="43.65659" lon="1.40596">
        <ele>120</ele>
        <time>2025-01-10T11:38:54Z</time>
      </trkpt>
      <trkpt lat="43.65655" lon="1.40596">
        <ele>120</ele>
        <time>2025-01-10T11:38:55Z</time>
      </trkpt>
      <trkpt lat="43.65652" lon="1.40596">
        <ele>120</ele>
        <time>2025-01-10T11:38:56Z</time>
      </trkpt>
      <trkpt lat="43.65649" lon="1.40596">
        <ele>120</ele>
        <time>2025-01-10T11:38:57Z</time>
      </trkpt>
      <trkpt lat="43.65647" lon="1.40597">
        <ele>119</ele>
        <time>2025-01-10T11:38:58Z</time>
      </trkpt>
      <trkpt lat="43.65643" lon="1.40598">
        <ele>119</ele>
        <time>2025-01-10T11:38:59Z</time>
      </trkpt>
      <trkpt lat="43.6564" lon="1.40598">
        <ele>119</ele>
        <time>2025-01-10T11:39:00Z</time>
      </trkpt>
      <trkpt lat="43.65638" lon="1.40598">
        <ele>119</ele>
        <time>2025-01-10T11:39:01Z</time>
      </trkpt>
      <trkpt lat="43.65635" lon="1.40599">
        <ele>119</ele>
        <time>2025-01-10T11:39:02Z</time>
      </trkpt>
      <trkpt lat="43.65633" lon="1.40598">
        <ele>119</ele>
        <time>2025-01-10T11:39:03Z</time>
      </trkpt>
      <trkpt lat="43.6563" lon="1.40598">
        <ele>119</ele>
        <time>2025-01-10T11:39:04Z</time>
      </trkpt>
      <trkpt lat="43.65628" lon="1.40598">
        <ele>119</ele>
        <time>2025-01-10T11:39:05Z</time>
      </trkpt>
      <trkpt lat="43.65626" lon="1.40598">
        <ele>120</ele>
        <time>2025-01-10T11:39:06Z</time>
      </trkpt>
      <trkpt lat="43.65623" lon="1.40598">
        <ele>120</ele>
        <time>2025-01-10T11:39:07Z</time>
      </trkpt>
      <trkpt lat="43.65623" lon="1.40598">
        <ele>120</ele>
        <time>2025-01-10T11:39:08Z</time>
      </trkpt>
      <trkpt lat="43.6562" lon="1.40598">
        <ele>120</ele>
        <time>2025-01-10T11:39:09Z</time>
      </trkpt>
      <trkpt lat="43.65617" lon="1.40598">
        <ele>120</ele>
        <time>2025-01-10T11:39:10Z</time>
      </trkpt>
      <trkpt lat="43.65616" lon="1.40597">
        <ele>120</ele>
        <time>2025-01-10T11:39:11Z</time>
      </trkpt>
      <trkpt lat="43.65616" lon="1.40597">
        <ele>120</ele>
        <time>2025-01-10T11:39:12Z</time>
      </trkpt>
      <trkpt lat="43.65612" lon="1.40596">
        <ele>120</ele>
        <time>2025-01-10T11:39:13Z</time>
      </trkpt>
      <trkpt lat="43.65612" lon="1.40596">
        <ele>120</ele>
        <time>2025-01-10T11:39:14Z</time>
      </trkpt>
      <trkpt lat="43.65608" lon="1.40596">
        <ele>120</ele>
        <time>2025-01-10T11:39:15Z</time>
      </trkpt>
      <trkpt lat="43.65606" lon="1.40596">
        <ele>120</ele>
        <time>2025-01-10T11:39:16Z</time>
      </trkpt>
      <trkpt lat="43.65604" lon="1.40596">
        <ele>120</ele>
        <time>2025-01-10T11:39:17Z</time>
      </trkpt>
      <trkpt lat="43.65602" lon="1.40596">
        <ele>120</ele>
        <time>2025-01-10T11:39:18Z</time>
      </trkpt>
      <trkpt lat="43.65599" lon="1.40596">
        <ele>120</ele>
        <time>2025-01-10T11:39:19Z</time>
      </trkpt>
      <trkpt lat="43.65596" lon="1.40596">
        <ele>120</ele>
        <time>2025-01-10T11:39:20Z</time>
      </trkpt>
      <trkpt lat="43.65596" lon="1.40596">
        <ele>120</ele>
        <time>2025-01-10T11:39:21Z</time>
      </trkpt>
      <trkpt lat="43.65593" lon="1.40596">
        <ele>120</ele>
        <time>2025-01-10T11:39:22Z</time>
      </trkpt>
      <trkpt lat="43.6559" lon="1.40597">
        <ele>120</ele>
        <time>2025-01-10T11:39:23Z</time>
      </trkpt>
      <trkpt lat="43.65587" lon="1.40597">
        <ele>121</ele>
        <time>2025-01-10T11:39:24Z</time>
      </trkpt>
      <trkpt lat="43.65579" lon="1.40597">
        <ele>120</ele>
        <time>2025-01-10T11:39:25Z</time>
      </trkpt>
      <trkpt lat="43.65577" lon="1.40596">
        <ele>120</ele>
        <time>2025-01-10T11:39:26Z</time>
      </trkpt>
      <trkpt lat="43.65573" lon="1.40596">
        <ele>120</ele>
        <time>2025-01-10T11:39:27Z</time>
      </trkpt>
      <trkpt lat="43.6557" lon="1.40596">
        <ele>120</ele>
        <time>2025-01-10T11:39:28Z</time>
      </trkpt>
      <trkpt lat="43.65567" lon="1.40596">
        <ele>120</ele>
        <time>2025-01-10T11:39:29Z</time>
      </trkpt>
      <trkpt lat="43.65564" lon="1.40596">
        <ele>121</ele>
        <time>2025-01-10T11:39:30Z</time>
      </trkpt>
      <trkpt lat="43.65561" lon="1.40596">
        <ele>121</ele>
        <time>2025-01-10T11:39:31Z</time>
      </trkpt>
      <trkpt lat="43.65558" lon="1.40595">
        <ele>121</ele>
        <time>2025-01-10T11:39:32Z</time>
      </trkpt>
      <trkpt lat="43.65553" lon="1.40594">
        <ele>121</ele>
        <time>2025-01-10T11:39:33Z</time>
      </trkpt>
      <trkpt lat="43.65552" lon="1.40594">
        <ele>121</ele>
        <time>2025-01-10T11:39:34Z</time>
      </trkpt>
      <trkpt lat="43.6555" lon="1.40594">
        <ele>121</ele>
        <time>2025-01-10T11:39:35Z</time>
      </trkpt>
      <trkpt lat="43.65547" lon="1.40593">
        <ele>121</ele>
        <time>2025-01-10T11:39:36Z</time>
      </trkpt>
      <trkpt lat="43.65545" lon="1.40593">
        <ele>121</ele>
        <time>2025-01-10T11:39:37Z</time>
      </trkpt>
      <trkpt lat="43.65542" lon="1.40591">
        <ele>121</ele>
        <time>2025-01-10T11:39:38Z</time>
      </trkpt>
      <trkpt lat="43.65539" lon="1.4059">
        <ele>121</ele>
        <time>2025-01-10T11:39:39Z</time>
      </trkpt>
      <trkpt lat="43.65535" lon="1.40588">
        <ele>121</ele>
        <time>2025-01-10T11:39:40Z</time>
      </trkpt>
      <trkpt lat="43.65534" lon="1.40588">
        <ele>121</ele>
        <time>2025-01-10T11:39:41Z</time>
      </trkpt>
      <trkpt lat="43.65532" lon="1.40586">
        <ele>121</ele>
        <time>2025-01-10T11:39:42Z</time>
      </trkpt>
      <trkpt lat="43.6553" lon="1.40584">
        <ele>121</ele>
        <time>2025-01-10T11:39:43Z</time>
      </trkpt>
      <trkpt lat="43.65528" lon="1.40582">
        <ele>121</ele>
        <time>2025-01-10T11:39:44Z</time>
      </trkpt>
      <trkpt lat="43.65526" lon="1.4058">
        <ele>121</ele>
        <time>2025-01-10T11:39:45Z</time>
      </trkpt>
      <trkpt lat="43.65524" lon="1.4058">
        <ele>121</ele>
        <time>2025-01-10T11:39:46Z</time>
      </trkpt>
      <trkpt lat="43.6552" lon="1.40579">
        <ele>121</ele>
        <time>2025-01-10T11:39:47Z</time>
      </trkpt>
      <trkpt lat="43.65519" lon="1.40578">
        <ele>121</ele>
        <time>2025-01-10T11:39:48Z</time>
      </trkpt>
      <trkpt lat="43.65515" lon="1.40576">
        <ele>121</ele>
        <time>2025-01-10T11:39:49Z</time>
      </trkpt>
      <trkpt lat="43.65514" lon="1.40575">
        <ele>121</ele>
        <time>2025-01-10T11:39:50Z</time>
      </trkpt>
      <trkpt lat="43.65512" lon="1.40574">
        <ele>121</ele>
        <time>2025-01-10T11:39:51Z</time>
      </trkpt>
      <trkpt lat="43.6551" lon="1.40572">
        <ele>121</ele>
        <time>2025-01-10T11:39:52Z</time>
      </trkpt>
      <trkpt lat="43.65508" lon="1.40571">
        <ele>121</ele>
        <time>2025-01-10T11:39:53Z</time>
      </trkpt>
      <trkpt lat="43.65505" lon="1.4057">
        <ele>121</ele>
        <time>2025-01-10T11:39:54Z</time>
      </trkpt>
      <trkpt lat="43.65505" lon="1.4057">
        <ele>121</ele>
        <time>2025-01-10T11:39:55Z</time>
      </trkpt>
      <trkpt lat="43.65502" lon="1.40567">
        <ele>121</ele>
        <time>2025-01-10T11:39:56Z</time>
      </trkpt>
      <trkpt lat="43.655" lon="1.40566">
        <ele>121</ele>
        <time>2025-01-10T11:39:57Z</time>
      </trkpt>
      <trkpt lat="43.65498" lon="1.40565">
        <ele>121</ele>
        <time>2025-01-10T11:39:58Z</time>
      </trkpt>
      <trkpt lat="43.65495" lon="1.40562">
        <ele>121</ele>
        <time>2025-01-10T11:39:59Z</time>
      </trkpt>
      <trkpt lat="43.65493" lon="1.4056">
        <ele>121</ele>
        <time>2025-01-10T11:40:00Z</time>
      </trkpt>
      <trkpt lat="43.6549" lon="1.40559">
        <ele>121</ele>
        <time>2025-01-10T11:40:01Z</time>
      </trkpt>
      <trkpt lat="43.65487" lon="1.40557">
        <ele>121</ele>
        <time>2025-01-10T11:40:02Z</time>
      </trkpt>
      <trkpt lat="43.65484" lon="1.40556">
        <ele>121</ele>
        <time>2025-01-10T11:40:03Z</time>
      </trkpt>
      <trkpt lat="43.65481" lon="1.40554">
        <ele>121</ele>
        <time>2025-01-10T11:40:04Z</time>
      </trkpt>
      <trkpt lat="43.6548" lon="1.40554">
        <ele>121</ele>
        <time>2025-01-10T11:40:05Z</time>
      </trkpt>
      <trkpt lat="43.65477" lon="1.40554">
        <ele>121</ele>
        <time>2025-01-10T11:40:06Z</time>
      </trkpt>
      <trkpt lat="43.65474" lon="1.40554">
        <ele>121</ele>
        <time>2025-01-10T11:40:07Z</time>
      </trkpt>
      <trkpt lat="43.65471" lon="1.40553">
        <ele>121</ele>
        <time>2025-01-10T11:40:08Z</time>
      </trkpt>
      <trkpt lat="43.65468" lon="1.40553">
        <ele>121</ele>
        <time>2025-01-10T11:40:09Z</time>
      </trkpt>
      <trkpt lat="43.65465" lon="1.40552">
        <ele>121</ele>
        <time>2025-01-10T11:40:10Z</time>
      </trkpt>
      <trkpt lat="43.65462" lon="1.40551">
        <ele>121</ele>
        <time>2025-01-10T11:40:11Z</time>
      </trkpt>
      <trkpt lat="43.6546" lon="1.40549">
        <ele>121</ele>
        <time>2025-01-10T11:40:12Z</time>
      </trkpt>
      <trkpt lat="43.65457" lon="1.40548">
        <ele>121</ele>
        <time>2025-01-10T11:40:13Z</time>
      </trkpt>
      <trkpt lat="43.65455" lon="1.40546">
        <ele>121</ele>
        <time>2025-01-10T11:40:14Z</time>
      </trkpt>
      <trkpt lat="43.65452" lon="1.40544">
        <ele>121</ele>
        <time>2025-01-10T11:40:15Z</time>
      </trkpt>
      <trkpt lat="43.6545" lon="1.40542">
        <ele>121</ele>
        <time>2025-01-10T11:40:16Z</time>
      </trkpt>
      <trkpt lat="43.65447" lon="1.40541">
        <ele>121</ele>
        <time>2025-01-10T11:40:17Z</time>
      </trkpt>
      <trkpt lat="43.65445" lon="1.40539">
        <ele>121</ele>
        <time>2025-01-10T11:40:18Z</time>
      </trkpt>
      <trkpt lat="43.65443" lon="1.40538">
        <ele>121</ele>
        <time>2025-01-10T11:40:19Z</time>
      </trkpt>
      <trkpt lat="43.6544" lon="1.40538">
        <ele>121</ele>
        <time>2025-01-10T11:40:20Z</time>
      </trkpt>
      <trkpt lat="43.65437" lon="1.40536">
        <ele>121</ele>
        <time>2025-01-10T11:40:21Z</time>
      </trkpt>
      <trkpt lat="43.65434" lon="1.40534">
        <ele>121</ele>
        <time>2025-01-10T11:40:22Z</time>
      </trkpt>
      <trkpt lat="43.65432" lon="1.40532">
        <ele>121</ele>
        <time>2025-01-10T11:40:23Z</time>
      </trkpt>
      <trkpt lat="43.65431" lon="1.4053">
        <ele>121</ele>
        <time>2025-01-10T11:40:24Z</time>
      </trkpt>
      <trkpt lat="43.65429" lon="1.40527">
        <ele>121</ele>
        <time>2025-01-10T11:40:25Z</time>
      </trkpt>
      <trkpt lat="43.65426" lon="1.40523">
        <ele>121</ele>
        <time>2025-01-10T11:40:26Z</time>
      </trkpt>
      <trkpt lat="43.65425" lon="1.40522">
        <ele>121</ele>
        <time>2025-01-10T11:40:27Z</time>
      </trkpt>
      <trkpt lat="43.65423" lon="1.40519">
        <ele>121</ele>
        <time>2025-01-10T11:40:28Z</time>
      </trkpt>
      <trkpt lat="43.65422" lon="1.40516">
        <ele>121</ele>
        <time>2025-01-10T11:40:29Z</time>
      </trkpt>
      <trkpt lat="43.6542" lon="1.40514">
        <ele>121</ele>
        <time>2025-01-10T11:40:30Z</time>
      </trkpt>
      <trkpt lat="43.65418" lon="1.40511">
        <ele>121</ele>
        <time>2025-01-10T11:40:31Z</time>
      </trkpt>
      <trkpt lat="43.65416" lon="1.40508">
        <ele>121</ele>
        <time>2025-01-10T11:40:32Z</time>
      </trkpt>
      <trkpt lat="43.65415" lon="1.40506">
        <ele>121</ele>
        <time>2025-01-10T11:40:33Z</time>
      </trkpt>
      <trkpt lat="43.65413" lon="1.40504">
        <ele>121</ele>
        <time>2025-01-10T11:40:34Z</time>
      </trkpt>
      <trkpt lat="43.65411" lon="1.40502">
        <ele>121</ele>
        <time>2025-01-10T11:40:35Z</time>
      </trkpt>
      <trkpt lat="43.65409" lon="1.40499">
        <ele>121</ele>
        <time>2025-01-10T11:40:36Z</time>
      </trkpt>
      <trkpt lat="43.65407" lon="1.40497">
        <ele>121</ele>
        <time>2025-01-10T11:40:37Z</time>
      </trkpt>
      <trkpt lat="43.65405" lon="1.40495">
        <ele>121</ele>
        <time>2025-01-10T11:40:38Z</time>
      </trkpt>
      <trkpt lat="43.65405" lon="1.40495">
        <ele>121</ele>
        <time>2025-01-10T11:40:39Z</time>
      </trkpt>
      <trkpt lat="43.65403" lon="1.40494">
        <ele>121</ele>
        <time>2025-01-10T11:40:40Z</time>
      </trkpt>
      <trkpt lat="43.654" lon="1.40494">
        <ele>121</ele>
        <time>2025-01-10T11:40:41Z</time>
      </trkpt>
      <trkpt lat="43.65398" lon="1.40493">
        <ele>121</ele>
        <time>2025-01-10T11:40:42Z</time>
      </trkpt>
      <trkpt lat="43.65396" lon="1.40494">
        <ele>121</ele>
        <time>2025-01-10T11:40:43Z</time>
      </trkpt>
      <trkpt lat="43.65393" lon="1.40494">
        <ele>121</ele>
        <time>2025-01-10T11:40:44Z</time>
      </trkpt>
      <trkpt lat="43.6539" lon="1.40494">
        <ele>121</ele>
        <time>2025-01-10T11:40:45Z</time>
      </trkpt>
      <trkpt lat="43.65386" lon="1.40494">
        <ele>121</ele>
        <time>2025-01-10T11:40:46Z</time>
      </trkpt>
      <trkpt lat="43.65383" lon="1.40493">
        <ele>121</ele>
        <time>2025-01-10T11:40:47Z</time>
      </trkpt>
      <trkpt lat="43.6538" lon="1.40492">
        <ele>121</ele>
        <time>2025-01-10T11:40:48Z</time>
      </trkpt>
      <trkpt lat="43.65378" lon="1.40491">
        <ele>121</ele>
        <time>2025-01-10T11:40:49Z</time>
      </trkpt>
      <trkpt lat="43.65374" lon="1.40489">
        <ele>121</ele>
        <time>2025-01-10T11:40:50Z</time>
      </trkpt>
      <trkpt lat="43.65372" lon="1.40487">
        <ele>121</ele>
        <time>2025-01-10T11:40:51Z</time>
      </trkpt>
      <trkpt lat="43.6537" lon="1.40486">
        <ele>121</ele>
        <time>2025-01-10T11:40:52Z</time>
      </trkpt>
      <trkpt lat="43.65367" lon="1.40485">
        <ele>121</ele>
        <time>2025-01-10T11:40:53Z</time>
      </trkpt>
      <trkpt lat="43.65365" lon="1.40483">
        <ele>121</ele>
        <time>2025-01-10T11:40:54Z</time>
      </trkpt>
      <trkpt lat="43.65363" lon="1.40481">
        <ele>121</ele>
        <time>2025-01-10T11:40:55Z</time>
      </trkpt>
      <trkpt lat="43.6536" lon="1.40479">
        <ele>121</ele>
        <time>2025-01-10T11:40:56Z</time>
      </trkpt>
      <trkpt lat="43.65358" lon="1.40476">
        <ele>121</ele>
        <time>2025-01-10T11:40:57Z</time>
      </trkpt>
      <trkpt lat="43.65356" lon="1.40474">
        <ele>121</ele>
        <time>2025-01-10T11:40:58Z</time>
      </trkpt>
      <trkpt lat="43.65353" lon="1.40472">
        <ele>121</ele>
        <time>2025-01-10T11:40:59Z</time>
      </trkpt>
      <trkpt lat="43.65351" lon="1.40469">
        <ele>121</ele>
        <time>2025-01-10T11:41:00Z</time>
      </trkpt>
      <trkpt lat="43.65349" lon="1.40467">
        <ele>121</ele>
        <time>2025-01-10T11:41:01Z</time>
      </trkpt>
      <trkpt lat="43.65347" lon="1.40464">
        <ele>121</ele>
        <time>2025-01-10T11:41:02Z</time>
      </trkpt>
      <trkpt lat="43.65345" lon="1.40462">
        <ele>121</ele>
        <time>2025-01-10T11:41:03Z</time>
      </trkpt>
      <trkpt lat="43.65343" lon="1.4046">
        <ele>121</ele>
        <time>2025-01-10T11:41:04Z</time>
      </trkpt>
      <trkpt lat="43.6534" lon="1.40458">
        <ele>121</ele>
        <time>2025-01-10T11:41:05Z</time>
      </trkpt>
      <trkpt lat="43.65338" lon="1.40456">
        <ele>121</ele>
        <time>2025-01-10T11:41:06Z</time>
      </trkpt>
      <trkpt lat="43.65336" lon="1.40454">
        <ele>121</ele>
        <time>2025-01-10T11:41:07Z</time>
      </trkpt>
      <trkpt lat="43.65336" lon="1.40454">
        <ele>121</ele>
        <time>2025-01-10T11:41:08Z</time>
      </trkpt>
      <trkpt lat="43.65332" lon="1.40448">
        <ele>121</ele>
        <time>2025-01-10T11:41:09Z</time>
      </trkpt>
      <trkpt lat="43.6533" lon="1.40445">
        <ele>121</ele>
        <time>2025-01-10T11:41:10Z</time>
      </trkpt>
      <trkpt lat="43.65328" lon="1.40443">
        <ele>121</ele>
        <time>2025-01-10T11:41:11Z</time>
      </trkpt>
      <trkpt lat="43.65326" lon="1.4044">
        <ele>121</ele>
        <time>2025-01-10T11:41:12Z</time>
      </trkpt>
      <trkpt lat="43.65323" lon="1.40437">
        <ele>121</ele>
        <time>2025-01-10T11:41:13Z</time>
      </trkpt>
      <trkpt lat="43.6532" lon="1.40433">
        <ele>121</ele>
        <time>2025-01-10T11:41:14Z</time>
      </trkpt>
      <trkpt lat="43.6532" lon="1.40432">
        <ele>121</ele>
        <time>2025-01-10T11:41:15Z</time>
      </trkpt>
      <trkpt lat="43.65318" lon="1.40429">
        <ele>122</ele>
        <time>2025-01-10T11:41:16Z</time>
      </trkpt>
      <trkpt lat="43.65317" lon="1.40426">
        <ele>122</ele>
        <time>2025-01-10T11:41:17Z</time>
      </trkpt>
      <trkpt lat="43.65316" lon="1.40424">
        <ele>122</ele>
        <time>2025-01-10T11:41:18Z</time>
      </trkpt>
      <trkpt lat="43.65314" lon="1.40422">
        <ele>122</ele>
        <time>2025-01-10T11:41:19Z</time>
      </trkpt>
      <trkpt lat="43.65313" lon="1.4042">
        <ele>122</ele>
        <time>2025-01-10T11:41:20Z</time>
      </trkpt>
      <trkpt lat="43.65311" lon="1.40419">
        <ele>122</ele>
        <time>2025-01-10T11:41:21Z</time>
      </trkpt>
      <trkpt lat="43.65309" lon="1.40417">
        <ele>122</ele>
        <time>2025-01-10T11:41:22Z</time>
      </trkpt>
      <trkpt lat="43.65307" lon="1.40416">
        <ele>122</ele>
        <time>2025-01-10T11:41:23Z</time>
      </trkpt>
      <trkpt lat="43.65304" lon="1.40414">
        <ele>122</ele>
        <time>2025-01-10T11:41:24Z</time>
      </trkpt>
      <trkpt lat="43.65302" lon="1.40413">
        <ele>122</ele>
        <time>2025-01-10T11:41:25Z</time>
      </trkpt>
      <trkpt lat="43.653" lon="1.40411">
        <ele>122</ele>
        <time>2025-01-10T11:41:26Z</time>
      </trkpt>
      <trkpt lat="43.65297" lon="1.4041">
        <ele>122</ele>
        <time>2025-01-10T11:41:27Z</time>
      </trkpt>
      <trkpt lat="43.65294" lon="1.40409">
        <ele>122</ele>
        <time>2025-01-10T11:41:28Z</time>
      </trkpt>
      <trkpt lat="43.65291" lon="1.40407">
        <ele>122</ele>
        <time>2025-01-10T11:41:29Z</time>
      </trkpt>
      <trkpt lat="43.65289" lon="1.40406">
        <ele>122</ele>
        <time>2025-01-10T11:41:30Z</time>
      </trkpt>
      <trkpt lat="43.65286" lon="1.40404">
        <ele>122</ele>
        <time>2025-01-10T11:41:31Z</time>
      </trkpt>
      <trkpt lat="43.65284" lon="1.40402">
        <ele>121</ele>
        <time>2025-01-10T11:41:32Z</time>
      </trkpt>
      <trkpt lat="43.65282" lon="1.404">
        <ele>121</ele>
        <time>2025-01-10T11:41:33Z</time>
      </trkpt>
      <trkpt lat="43.6528" lon="1.40398">
        <ele>121</ele>
        <time>2025-01-10T11:41:34Z</time>
      </trkpt>
      <trkpt lat="43.65278" lon="1.40396">
        <ele>121</ele>
        <time>2025-01-10T11:41:35Z</time>
      </trkpt>
      <trkpt lat="43.65276" lon="1.40393">
        <ele>121</ele>
        <time>2025-01-10T11:41:36Z</time>
      </trkpt>
      <trkpt lat="43.65274" lon="1.4039">
        <ele>121</ele>
        <time>2025-01-10T11:41:37Z</time>
      </trkpt>
      <trkpt lat="43.65271" lon="1.40386">
        <ele>121</ele>
        <time>2025-01-10T11:41:38Z</time>
      </trkpt>
      <trkpt lat="43.6527" lon="1.40384">
        <ele>121</ele>
        <time>2025-01-10T11:41:39Z</time>
      </trkpt>
      <trkpt lat="43.65269" lon="1.40382">
        <ele>121</ele>
        <time>2025-01-10T11:41:40Z</time>
      </trkpt>
      <trkpt lat="43.65267" lon="1.4038">
        <ele>121</ele>
        <time>2025-01-10T11:41:41Z</time>
      </trkpt>
      <trkpt lat="43.65265" lon="1.40377">
        <ele>122</ele>
        <time>2025-01-10T11:41:42Z</time>
      </trkpt>
      <trkpt lat="43.65262" lon="1.40376">
        <ele>122</ele>
        <time>2025-01-10T11:41:43Z</time>
      </trkpt>
      <trkpt lat="43.6526" lon="1.40374">
        <ele>122</ele>
        <time>2025-01-10T11:41:44Z</time>
      </trkpt>
      <trkpt lat="43.65258" lon="1.40372">
        <ele>122</ele>
        <time>2025-01-10T11:41:45Z</time>
      </trkpt>
      <trkpt lat="43.65256" lon="1.40369">
        <ele>122</ele>
        <time>2025-01-10T11:41:46Z</time>
      </trkpt>
      <trkpt lat="43.65255" lon="1.40367">
        <ele>122</ele>
        <time>2025-01-10T11:41:47Z</time>
      </trkpt>
      <trkpt lat="43.65255" lon="1.40367">
        <ele>122</ele>
        <time>2025-01-10T11:41:48Z</time>
      </trkpt>
      <trkpt lat="43.65253" lon="1.40364">
        <ele>122</ele>
        <time>2025-01-10T11:41:49Z</time>
      </trkpt>
      <trkpt lat="43.65253" lon="1.40364">
        <ele>122</ele>
        <time>2025-01-10T11:41:50Z</time>
      </trkpt>
      <trkpt lat="43.65251" lon="1.4036">
        <ele>122</ele>
        <time>2025-01-10T11:41:51Z</time>
      </trkpt>
      <trkpt lat="43.65251" lon="1.4036">
        <ele>122</ele>
        <time>2025-01-10T11:41:52Z</time>
      </trkpt>
      <trkpt lat="43.65249" lon="1.40358">
        <ele>122</ele>
        <time>2025-01-10T11:41:53Z</time>
      </trkpt>
      <trkpt lat="43.65249" lon="1.40358">
        <ele>122</ele>
        <time>2025-01-10T11:41:54Z</time>
      </trkpt>
      <trkpt lat="43.65246" lon="1.40355">
        <ele>122</ele>
        <time>2025-01-10T11:41:55Z</time>
      </trkpt>
      <trkpt lat="43.65246" lon="1.40355">
        <ele>122</ele>
        <time>2025-01-10T11:41:56Z</time>
      </trkpt>
      <trkpt lat="43.65244" lon="1.40353">
        <ele>121</ele>
        <time>2025-01-10T11:41:57Z</time>
      </trkpt>
      <trkpt lat="43.65244" lon="1.40353">
        <ele>121</ele>
        <time>2025-01-10T11:41:58Z</time>
      </trkpt>
      <trkpt lat="43.65242" lon="1.4035">
        <ele>121</ele>
        <time>2025-01-10T11:41:59Z</time>
      </trkpt>
      <trkpt lat="43.65242" lon="1.4035">
        <ele>121</ele>
        <time>2025-01-10T11:42:00Z</time>
      </trkpt>
      <trkpt lat="43.65239" lon="1.40347">
        <ele>121</ele>
        <time>2025-01-10T11:42:01Z</time>
      </trkpt>
      <trkpt lat="43.65239" lon="1.40347">
        <ele>122</ele>
        <time>2025-01-10T11:42:02Z</time>
      </trkpt>
      <trkpt lat="43.65236" lon="1.40345">
        <ele>123</ele>
        <time>2025-01-10T11:42:03Z</time>
      </trkpt>
      <trkpt lat="43.65236" lon="1.40345">
        <ele>123</ele>
        <time>2025-01-10T11:42:04Z</time>
      </trkpt>
      <trkpt lat="43.65233" lon="1.40343">
        <ele>123</ele>
        <time>2025-01-10T11:42:06Z</time>
      </trkpt>
      <trkpt lat="43.65231" lon="1.4034">
        <ele>123</ele>
        <time>2025-01-10T11:42:07Z</time>
      </trkpt>
      <trkpt lat="43.65231" lon="1.4034">
        <ele>123</ele>
        <time>2025-01-10T11:42:08Z</time>
      </trkpt>
      <trkpt lat="43.65229" lon="1.40337">
        <ele>122</ele>
        <time>2025-01-10T11:42:09Z</time>
      </trkpt>
      <trkpt lat="43.65229" lon="1.40337">
        <ele>122</ele>
        <time>2025-01-10T11:42:10Z</time>
      </trkpt>
      <trkpt lat="43.65227" lon="1.40334">
        <ele>122</ele>
        <time>2025-01-10T11:42:11Z</time>
      </trkpt>
      <trkpt lat="43.65227" lon="1.40334">
        <ele>122</ele>
        <time>2025-01-10T11:42:12Z</time>
      </trkpt>
      <trkpt lat="43.65225" lon="1.40331">
        <ele>122</ele>
        <time>2025-01-10T11:42:13Z</time>
      </trkpt>
      <trkpt lat="43.65225" lon="1.40331">
        <ele>122</ele>
        <time>2025-01-10T11:42:14Z</time>
      </trkpt>
      <trkpt lat="43.65223" lon="1.40329">
        <ele>122</ele>
        <time>2025-01-10T11:42:15Z</time>
      </trkpt>
      <trkpt lat="43.65223" lon="1.40329">
        <ele>122</ele>
        <time>2025-01-10T11:42:16Z</time>
      </trkpt>
      <trkpt lat="43.6522" lon="1.40327">
        <ele>122</ele>
        <time>2025-01-10T11:42:17Z</time>
      </trkpt>
      <trkpt lat="43.65218" lon="1.40326">
        <ele>122</ele>
        <time>2025-01-10T11:42:18Z</time>
      </trkpt>
      <trkpt lat="43.65217" lon="1.40325">
        <ele>122</ele>
        <time>2025-01-10T11:42:19Z</time>
      </trkpt>
      <trkpt lat="43.65215" lon="1.40323">
        <ele>122</ele>
        <time>2025-01-10T11:42:20Z</time>
      </trkpt>
      <trkpt lat="43.65213" lon="1.40322">
        <ele>122</ele>
        <time>2025-01-10T11:42:21Z</time>
      </trkpt>
      <trkpt lat="43.65211" lon="1.4032">
        <ele>122</ele>
        <time>2025-01-10T11:42:22Z</time>
      </trkpt>
      <trkpt lat="43.65209" lon="1.40318">
        <ele>122</ele>
        <time>2025-01-10T11:42:23Z</time>
      </trkpt>
      <trkpt lat="43.65206" lon="1.40313">
        <ele>122</ele>
        <time>2025-01-10T11:42:25Z</time>
      </trkpt>
      <trkpt lat="43.65204" lon="1.40311">
        <ele>122</ele>
        <time>2025-01-10T11:42:26Z</time>
      </trkpt>
      <trkpt lat="43.65202" lon="1.40309">
        <ele>122</ele>
        <time>2025-01-10T11:42:27Z</time>
      </trkpt>
      <trkpt lat="43.652" lon="1.40307">
        <ele>122</ele>
        <time>2025-01-10T11:42:28Z</time>
      </trkpt>
      <trkpt lat="43.65197" lon="1.40305">
        <ele>122</ele>
        <time>2025-01-10T11:42:29Z</time>
      </trkpt>
      <trkpt lat="43.65196" lon="1.40304">
        <ele>122</ele>
        <time>2025-01-10T11:42:30Z</time>
      </trkpt>
      <trkpt lat="43.65193" lon="1.40302">
        <ele>122</ele>
        <time>2025-01-10T11:42:31Z</time>
      </trkpt>
      <trkpt lat="43.65191" lon="1.40301">
        <ele>122</ele>
        <time>2025-01-10T11:42:32Z</time>
      </trkpt>
      <trkpt lat="43.65189" lon="1.40298">
        <ele>122</ele>
        <time>2025-01-10T11:42:33Z</time>
      </trkpt>
      <trkpt lat="43.65186" lon="1.40296">
        <ele>122</ele>
        <time>2025-01-10T11:42:34Z</time>
      </trkpt>
      <trkpt lat="43.65182" lon="1.40293">
        <ele>122</ele>
        <time>2025-01-10T11:42:35Z</time>
      </trkpt>
      <trkpt lat="43.65181" lon="1.40292">
        <ele>122</ele>
        <time>2025-01-10T11:42:36Z</time>
      </trkpt>
      <trkpt lat="43.65179" lon="1.4029">
        <ele>122</ele>
        <time>2025-01-10T11:42:37Z</time>
      </trkpt>
      <trkpt lat="43.65178" lon="1.40288">
        <ele>122</ele>
        <time>2025-01-10T11:42:38Z</time>
      </trkpt>
      <trkpt lat="43.65176" lon="1.40285">
        <ele>122</ele>
        <time>2025-01-10T11:42:39Z</time>
      </trkpt>
      <trkpt lat="43.65174" lon="1.40283">
        <ele>122</ele>
        <time>2025-01-10T11:42:40Z</time>
      </trkpt>
      <trkpt lat="43.65171" lon="1.40281">
        <ele>122</ele>
        <time>2025-01-10T11:42:41Z</time>
      </trkpt>
      <trkpt lat="43.65169" lon="1.40279">
        <ele>122</ele>
        <time>2025-01-10T11:42:42Z</time>
      </trkpt>
      <trkpt lat="43.65167" lon="1.40277">
        <ele>122</ele>
        <time>2025-01-10T11:42:43Z</time>
      </trkpt>
      <trkpt lat="43.65165" lon="1.40275">
        <ele>122</ele>
        <time>2025-01-10T11:42:44Z</time>
      </trkpt>
      <trkpt lat="43.65162" lon="1.40272">
        <ele>122</ele>
        <time>2025-01-10T11:42:45Z</time>
      </trkpt>
      <trkpt lat="43.6516" lon="1.4027">
        <ele>122</ele>
        <time>2025-01-10T11:42:46Z</time>
      </trkpt>
      <trkpt lat="43.65158" lon="1.40267">
        <ele>122</ele>
        <time>2025-01-10T11:42:47Z</time>
      </trkpt>
      <trkpt lat="43.65157" lon="1.40265">
        <ele>122</ele>
        <time>2025-01-10T11:42:48Z</time>
      </trkpt>
      <trkpt lat="43.65155" lon="1.40263">
        <ele>122</ele>
        <time>2025-01-10T11:42:49Z</time>
      </trkpt>
      <trkpt lat="43.65153" lon="1.40261">
        <ele>122</ele>
        <time>2025-01-10T11:42:50Z</time>
      </trkpt>
      <trkpt lat="43.65151" lon="1.40258">
        <ele>122</ele>
        <time>2025-01-10T11:42:51Z</time>
      </trkpt>
      <trkpt lat="43.6515" lon="1.40256">
        <ele>122</ele>
        <time>2025-01-10T11:42:52Z</time>
      </trkpt>
      <trkpt lat="43.65148" lon="1.40253">
        <ele>122</ele>
        <time>2025-01-10T11:42:53Z</time>
      </trkpt>
      <trkpt lat="43.65146" lon="1.40251">
        <ele>122</ele>
        <time>2025-01-10T11:42:54Z</time>
      </trkpt>
      <trkpt lat="43.65144" lon="1.40249">
        <ele>122</ele>
        <time>2025-01-10T11:42:55Z</time>
      </trkpt>
      <trkpt lat="43.65142" lon="1.40247">
        <ele>123</ele>
        <time>2025-01-10T11:42:56Z</time>
      </trkpt>
      <trkpt lat="43.6514" lon="1.40244">
        <ele>123</ele>
        <time>2025-01-10T11:42:57Z</time>
      </trkpt>
      <trkpt lat="43.65138" lon="1.40242">
        <ele>123</ele>
        <time>2025-01-10T11:42:58Z</time>
      </trkpt>
      <trkpt lat="43.65135" lon="1.4024">
        <ele>123</ele>
        <time>2025-01-10T11:42:59Z</time>
      </trkpt>
      <trkpt lat="43.65133" lon="1.40238">
        <ele>123</ele>
        <time>2025-01-10T11:43:00Z</time>
      </trkpt>
      <trkpt lat="43.65131" lon="1.40236">
        <ele>123</ele>
        <time>2025-01-10T11:43:01Z</time>
      </trkpt>
      <trkpt lat="43.65128" lon="1.40233">
        <ele>123</ele>
        <time>2025-01-10T11:43:02Z</time>
      </trkpt>
      <trkpt lat="43.65127" lon="1.40232">
        <ele>123</ele>
        <time>2025-01-10T11:43:03Z</time>
      </trkpt>
      <trkpt lat="43.65125" lon="1.4023">
        <ele>123</ele>
        <time>2025-01-10T11:43:04Z</time>
      </trkpt>
      <trkpt lat="43.65122" lon="1.40228">
        <ele>123</ele>
        <time>2025-01-10T11:43:05Z</time>
      </trkpt>
      <trkpt lat="43.6512" lon="1.40225">
        <ele>123</ele>
        <time>2025-01-10T11:43:06Z</time>
      </trkpt>
      <trkpt lat="43.65118" lon="1.40223">
        <ele>123</ele>
        <time>2025-01-10T11:43:07Z</time>
      </trkpt>
      <trkpt lat="43.65116" lon="1.4022">
        <ele>123</ele>
        <time>2025-01-10T11:43:08Z</time>
      </trkpt>
      <trkpt lat="43.65114" lon="1.40218">
        <ele>123</ele>
        <time>2025-01-10T11:43:09Z</time>
      </trkpt>
      <trkpt lat="43.65112" lon="1.40216">
        <ele>123</ele>
        <time>2025-01-10T11:43:10Z</time>
      </trkpt>
      <trkpt lat="43.6511" lon="1.40213">
        <ele>123</ele>
        <time>2025-01-10T11:43:11Z</time>
      </trkpt>
      <trkpt lat="43.65108" lon="1.4021">
        <ele>123</ele>
        <time>2025-01-10T11:43:12Z</time>
      </trkpt>
      <trkpt lat="43.65106" lon="1.40207">
        <ele>123</ele>
        <time>2025-01-10T11:43:13Z</time>
      </trkpt>
      <trkpt lat="43.65104" lon="1.40204">
        <ele>123</ele>
        <time>2025-01-10T11:43:14Z</time>
      </trkpt>
      <trkpt lat="43.65103" lon="1.40201">
        <ele>123</ele>
        <time>2025-01-10T11:43:15Z</time>
      </trkpt>
      <trkpt lat="43.65101" lon="1.40199">
        <ele>124</ele>
        <time>2025-01-10T11:43:16Z</time>
      </trkpt>
      <trkpt lat="43.651" lon="1.40197">
        <ele>124</ele>
        <time>2025-01-10T11:43:17Z</time>
      </trkpt>
      <trkpt lat="43.65098" lon="1.40195">
        <ele>124</ele>
        <time>2025-01-10T11:43:18Z</time>
      </trkpt>
      <trkpt lat="43.65096" lon="1.40193">
        <ele>124</ele>
        <time>2025-01-10T11:43:19Z</time>
      </trkpt>
      <trkpt lat="43.65094" lon="1.40191">
        <ele>124</ele>
        <time>2025-01-10T11:43:20Z</time>
      </trkpt>
      <trkpt lat="43.65092" lon="1.40189">
        <ele>124</ele>
        <time>2025-01-10T11:43:21Z</time>
      </trkpt>
      <trkpt lat="43.65089" lon="1.40185">
        <ele>124</ele>
        <time>2025-01-10T11:43:22Z</time>
      </trkpt>
      <trkpt lat="43.65088" lon="1.40184">
        <ele>124</ele>
        <time>2025-01-10T11:43:23Z</time>
      </trkpt>
      <trkpt lat="43.65086" lon="1.4018">
        <ele>124</ele>
        <time>2025-01-10T11:43:24Z</time>
      </trkpt>
      <trkpt lat="43.65085" lon="1.40179">
        <ele>124</ele>
        <time>2025-01-10T11:43:25Z</time>
      </trkpt>
      <trkpt lat="43.65083" lon="1.40176">
        <ele>124</ele>
        <time>2025-01-10T11:43:26Z</time>
      </trkpt>
      <trkpt lat="43.65081" lon="1.40175">
        <ele>123</ele>
        <time>2025-01-10T11:43:27Z</time>
      </trkpt>
      <trkpt lat="43.65079" lon="1.40173">
        <ele>123</ele>
        <time>2025-01-10T11:43:28Z</time>
      </trkpt>
      <trkpt lat="43.65077" lon="1.40172">
        <ele>123</ele>
        <time>2025-01-10T11:43:29Z</time>
      </trkpt>
      <trkpt lat="43.65074" lon="1.4017">
        <ele>123</ele>
        <time>2025-01-10T11:43:30Z</time>
      </trkpt>
      <trkpt lat="43.65071" lon="1.40168">
        <ele>123</ele>
        <time>2025-01-10T11:43:31Z</time>
      </trkpt>
      <trkpt lat="43.6507" lon="1.40167">
        <ele>123</ele>
        <time>2025-01-10T11:43:32Z</time>
      </trkpt>
      <trkpt lat="43.65068" lon="1.40166">
        <ele>123</ele>
        <time>2025-01-10T11:43:33Z</time>
      </trkpt>
      <trkpt lat="43.65068" lon="1.40166">
        <ele>123</ele>
        <time>2025-01-10T11:43:34Z</time>
      </trkpt>
      <trkpt lat="43.65063" lon="1.40162">
        <ele>123</ele>
        <time>2025-01-10T11:43:35Z</time>
      </trkpt>
      <trkpt lat="43.65063" lon="1.40161">
        <ele>123</ele>
        <time>2025-01-10T11:43:36Z</time>
      </trkpt>
      <trkpt lat="43.65061" lon="1.40159">
        <ele>123</ele>
        <time>2025-01-10T11:43:37Z</time>
      </trkpt>
      <trkpt lat="43.65058" lon="1.40157">
        <ele>123</ele>
        <time>2025-01-10T11:43:38Z</time>
      </trkpt>
      <trkpt lat="43.65056" lon="1.40156">
        <ele>123</ele>
        <time>2025-01-10T11:43:39Z</time>
      </trkpt>
      <trkpt lat="43.65054" lon="1.40154">
        <ele>123</ele>
        <time>2025-01-10T11:43:40Z</time>
      </trkpt>
      <trkpt lat="43.65051" lon="1.40152">
        <ele>123</ele>
        <time>2025-01-10T11:43:41Z</time>
      </trkpt>
      <trkpt lat="43.65046" lon="1.40149">
        <ele>123</ele>
        <time>2025-01-10T11:43:43Z</time>
      </trkpt>
      <trkpt lat="43.65043" lon="1.40148">
        <ele>123</ele>
        <time>2025-01-10T11:43:44Z</time>
      </trkpt>
      <trkpt lat="43.65041" lon="1.40146">
        <ele>123</ele>
        <time>2025-01-10T11:43:45Z</time>
      </trkpt>
      <trkpt lat="43.65038" lon="1.40144">
        <ele>122</ele>
        <time>2025-01-10T11:43:46Z</time>
      </trkpt>
      <trkpt lat="43.65036" lon="1.40141">
        <ele>122</ele>
        <time>2025-01-10T11:43:47Z</time>
      </trkpt>
      <trkpt lat="43.65035" lon="1.40138">
        <ele>122</ele>
        <time>2025-01-10T11:43:48Z</time>
      </trkpt>
      <trkpt lat="43.65033" lon="1.40136">
        <ele>122</ele>
        <time>2025-01-10T11:43:49Z</time>
      </trkpt>
      <trkpt lat="43.65031" lon="1.40133">
        <ele>122</ele>
        <time>2025-01-10T11:43:50Z</time>
      </trkpt>
      <trkpt lat="43.65029" lon="1.40131">
        <ele>122</ele>
        <time>2025-01-10T11:43:51Z</time>
      </trkpt>
      <trkpt lat="43.65027" lon="1.40128">
        <ele>122</ele>
        <time>2025-01-10T11:43:52Z</time>
      </trkpt>
      <trkpt lat="43.65025" lon="1.40125">
        <ele>123</ele>
        <time>2025-01-10T11:43:53Z</time>
      </trkpt>
      <trkpt lat="43.65023" lon="1.40123">
        <ele>123</ele>
        <time>2025-01-10T11:43:54Z</time>
      </trkpt>
      <trkpt lat="43.65023" lon="1.40123">
        <ele>123</ele>
        <time>2025-01-10T11:43:55Z</time>
      </trkpt>
      <trkpt lat="43.65022" lon="1.40121">
        <ele>123</ele>
        <time>2025-01-10T11:43:56Z</time>
      </trkpt>
      <trkpt lat="43.6502" lon="1.40119">
        <ele>123</ele>
        <time>2025-01-10T11:43:57Z</time>
      </trkpt>
      <trkpt lat="43.65019" lon="1.40117">
        <ele>123</ele>
        <time>2025-01-10T11:43:58Z</time>
      </trkpt>
      <trkpt lat="43.65014" lon="1.40111">
        <ele>123</ele>
        <time>2025-01-10T11:43:59Z</time>
      </trkpt>
      <trkpt lat="43.6501" lon="1.40107">
        <ele>123</ele>
        <time>2025-01-10T11:44:00Z</time>
      </trkpt>
      <trkpt lat="43.65009" lon="1.40106">
        <ele>123</ele>
        <time>2025-01-10T11:44:01Z</time>
      </trkpt>
      <trkpt lat="43.65007" lon="1.40105">
        <ele>123</ele>
        <time>2025-01-10T11:44:02Z</time>
      </trkpt>
      <trkpt lat="43.65005" lon="1.40103">
        <ele>123</ele>
        <time>2025-01-10T11:44:03Z</time>
      </trkpt>
      <trkpt lat="43.65005" lon="1.40103">
        <ele>124</ele>
        <time>2025-01-10T11:44:04Z</time>
      </trkpt>
      <trkpt lat="43.65" lon="1.40099">
        <ele>124</ele>
        <time>2025-01-10T11:44:05Z</time>
      </trkpt>
      <trkpt lat="43.64999" lon="1.40099">
        <ele>124</ele>
        <time>2025-01-10T11:44:06Z</time>
      </trkpt>
      <trkpt lat="43.64997" lon="1.40097">
        <ele>124</ele>
        <time>2025-01-10T11:44:07Z</time>
      </trkpt>
      <trkpt lat="43.64994" lon="1.40095">
        <ele>123</ele>
        <time>2025-01-10T11:44:08Z</time>
      </trkpt>
      <trkpt lat="43.64991" lon="1.40093">
        <ele>123</ele>
        <time>2025-01-10T11:44:09Z</time>
      </trkpt>
      <trkpt lat="43.64989" lon="1.40091">
        <ele>123</ele>
        <time>2025-01-10T11:44:10Z</time>
      </trkpt>
      <trkpt lat="43.64987" lon="1.40088">
        <ele>123</ele>
        <time>2025-01-10T11:44:11Z</time>
      </trkpt>
      <trkpt lat="43.64984" lon="1.40086">
        <ele>123</ele>
        <time>2025-01-10T11:44:12Z</time>
      </trkpt>
      <trkpt lat="43.64981" lon="1.40083">
        <ele>123</ele>
        <time>2025-01-10T11:44:13Z</time>
      </trkpt>
      <trkpt lat="43.64979" lon="1.40081">
        <ele>123</ele>
        <time>2025-01-10T11:44:14Z</time>
      </trkpt>
      <trkpt lat="43.64976" lon="1.4008">
        <ele>123</ele>
        <time>2025-01-10T11:44:15Z</time>
      </trkpt>
      <trkpt lat="43.64974" lon="1.40078">
        <ele>123</ele>
        <time>2025-01-10T11:44:16Z</time>
      </trkpt>
      <trkpt lat="43.64971" lon="1.40077">
        <ele>122</ele>
        <time>2025-01-10T11:44:17Z</time>
      </trkpt>
      <trkpt lat="43.64971" lon="1.40077">
        <ele>122</ele>
        <time>2025-01-10T11:44:18Z</time>
      </trkpt>
      <trkpt lat="43.64965" lon="1.40075">
        <ele>122</ele>
        <time>2025-01-10T11:44:19Z</time>
      </trkpt>
      <trkpt lat="43.64962" lon="1.40074">
        <ele>122</ele>
        <time>2025-01-10T11:44:20Z</time>
      </trkpt>
      <trkpt lat="43.6496" lon="1.40072">
        <ele>121</ele>
        <time>2025-01-10T11:44:21Z</time>
      </trkpt>
      <trkpt lat="43.64957" lon="1.40069">
        <ele>121</ele>
        <time>2025-01-10T11:44:22Z</time>
      </trkpt>
      <trkpt lat="43.64954" lon="1.40068">
        <ele>121</ele>
        <time>2025-01-10T11:44:23Z</time>
      </trkpt>
      <trkpt lat="43.64952" lon="1.40066">
        <ele>121</ele>
        <time>2025-01-10T11:44:24Z</time>
      </trkpt>
      <trkpt lat="43.64949" lon="1.40065">
        <ele>121</ele>
        <time>2025-01-10T11:44:25Z</time>
      </trkpt>
      <trkpt lat="43.64947" lon="1.40063">
        <ele>121</ele>
        <time>2025-01-10T11:44:26Z</time>
      </trkpt>
      <trkpt lat="43.64946" lon="1.40061">
        <ele>121</ele>
        <time>2025-01-10T11:44:27Z</time>
      </trkpt>
      <trkpt lat="43.64944" lon="1.4006">
        <ele>121</ele>
        <time>2025-01-10T11:44:28Z</time>
      </trkpt>
      <trkpt lat="43.64944" lon="1.4006">
        <ele>121</ele>
        <time>2025-01-10T11:44:29Z</time>
      </trkpt>
      <trkpt lat="43.64941" lon="1.40058">
        <ele>121</ele>
        <time>2025-01-10T11:44:30Z</time>
      </trkpt>
      <trkpt lat="43.64939" lon="1.40057">
        <ele>121</ele>
        <time>2025-01-10T11:44:31Z</time>
      </trkpt>
      <trkpt lat="43.64937" lon="1.40056">
        <ele>121</ele>
        <time>2025-01-10T11:44:32Z</time>
      </trkpt>
      <trkpt lat="43.64935" lon="1.40055">
        <ele>121</ele>
        <time>2025-01-10T11:44:33Z</time>
      </trkpt>
      <trkpt lat="43.64933" lon="1.40054">
        <ele>121</ele>
        <time>2025-01-10T11:44:34Z</time>
      </trkpt>
      <trkpt lat="43.64932" lon="1.40053">
        <ele>121</ele>
        <time>2025-01-10T11:44:35Z</time>
      </trkpt>
      <trkpt lat="43.6493" lon="1.40052">
        <ele>121</ele>
        <time>2025-01-10T11:44:36Z</time>
      </trkpt>
      <trkpt lat="43.64928" lon="1.40051">
        <ele>121</ele>
        <time>2025-01-10T11:44:37Z</time>
      </trkpt>
      <trkpt lat="43.64925" lon="1.40049">
        <ele>121</ele>
        <time>2025-01-10T11:44:38Z</time>
      </trkpt>
      <trkpt lat="43.64922" lon="1.40047">
        <ele>121</ele>
        <time>2025-01-10T11:44:39Z</time>
      </trkpt>
      <trkpt lat="43.64919" lon="1.40046">
        <ele>121</ele>
        <time>2025-01-10T11:44:40Z</time>
      </trkpt>
      <trkpt lat="43.64915" lon="1.40044">
        <ele>121</ele>
        <time>2025-01-10T11:44:41Z</time>
      </trkpt>
      <trkpt lat="43.64911" lon="1.40042">
        <ele>121</ele>
        <time>2025-01-10T11:44:42Z</time>
      </trkpt>
      <trkpt lat="43.64907" lon="1.4004">
        <ele>121</ele>
        <time>2025-01-10T11:44:43Z</time>
      </trkpt>
      <trkpt lat="43.64906" lon="1.40039">
        <ele>121</ele>
        <time>2025-01-10T11:44:44Z</time>
      </trkpt>
      <trkpt lat="43.64904" lon="1.40038">
        <ele>121</ele>
        <time>2025-01-10T11:44:45Z</time>
      </trkpt>
      <trkpt lat="43.64902" lon="1.40037">
        <ele>121</ele>
        <time>2025-01-10T11:44:46Z</time>
      </trkpt>
      <trkpt lat="43.64897" lon="1.40031">
        <ele>121</ele>
        <time>2025-01-10T11:44:47Z</time>
      </trkpt>
      <trkpt lat="43.64895" lon="1.40028">
        <ele>121</ele>
        <time>2025-01-10T11:44:48Z</time>
      </trkpt>
      <trkpt lat="43.64894" lon="1.40025">
        <ele>121</ele>
        <time>2025-01-10T11:44:49Z</time>
      </trkpt>
      <trkpt lat="43.64892" lon="1.40023">
        <ele>121</ele>
        <time>2025-01-10T11:44:50Z</time>
      </trkpt>
      <trkpt lat="43.6489" lon="1.40021">
        <ele>121</ele>
        <time>2025-01-10T11:44:51Z</time>
      </trkpt>
      <trkpt lat="43.64888" lon="1.4002">
        <ele>121</ele>
        <time>2025-01-10T11:44:52Z</time>
      </trkpt>
      <trkpt lat="43.64886" lon="1.40018">
        <ele>121</ele>
        <time>2025-01-10T11:44:53Z</time>
      </trkpt>
      <trkpt lat="43.64884" lon="1.40017">
        <ele>122</ele>
        <time>2025-01-10T11:44:54Z</time>
      </trkpt>
      <trkpt lat="43.64882" lon="1.40016">
        <ele>122</ele>
        <time>2025-01-10T11:44:55Z</time>
      </trkpt>
      <trkpt lat="43.64879" lon="1.40014">
        <ele>122</ele>
        <time>2025-01-10T11:44:57Z</time>
      </trkpt>
      <trkpt lat="43.64876" lon="1.40012">
        <ele>122</ele>
        <time>2025-01-10T11:44:58Z</time>
      </trkpt>
      <trkpt lat="43.6487" lon="1.40009">
        <ele>122</ele>
        <time>2025-01-10T11:44:59Z</time>
      </trkpt>
      <trkpt lat="43.64868" lon="1.40009">
        <ele>122</ele>
        <time>2025-01-10T11:45:00Z</time>
      </trkpt>
      <trkpt lat="43.64868" lon="1.40009">
        <ele>122</ele>
        <time>2025-01-10T11:45:01Z</time>
      </trkpt>
      <trkpt lat="43.64866" lon="1.40008">
        <ele>121</ele>
        <time>2025-01-10T11:45:02Z</time>
      </trkpt>
      <trkpt lat="43.64865" lon="1.40007">
        <ele>122</ele>
        <time>2025-01-10T11:45:03Z</time>
      </trkpt>
      <trkpt lat="43.64863" lon="1.40006">
        <ele>122</ele>
        <time>2025-01-10T11:45:04Z</time>
      </trkpt>
      <trkpt lat="43.64861" lon="1.40005">
        <ele>122</ele>
        <time>2025-01-10T11:45:05Z</time>
      </trkpt>
      <trkpt lat="43.64859" lon="1.40004">
        <ele>122</ele>
        <time>2025-01-10T11:45:06Z</time>
      </trkpt>
      <trkpt lat="43.64856" lon="1.40002">
        <ele>122</ele>
        <time>2025-01-10T11:45:07Z</time>
      </trkpt>
      <trkpt lat="43.64853" lon="1.4">
        <ele>122</ele>
        <time>2025-01-10T11:45:08Z</time>
      </trkpt>
      <trkpt lat="43.6485" lon="1.39998">
        <ele>122</ele>
        <time>2025-01-10T11:45:09Z</time>
      </trkpt>
      <trkpt lat="43.64847" lon="1.39997">
        <ele>122</ele>
        <time>2025-01-10T11:45:10Z</time>
      </trkpt>
      <trkpt lat="43.64844" lon="1.39996">
        <ele>122</ele>
        <time>2025-01-10T11:45:11Z</time>
      </trkpt>
      <trkpt lat="43.64841" lon="1.39995">
        <ele>122</ele>
        <time>2025-01-10T11:45:12Z</time>
      </trkpt>
      <trkpt lat="43.64838" lon="1.39993">
        <ele>122</ele>
        <time>2025-01-10T11:45:13Z</time>
      </trkpt>
      <trkpt lat="43.64838" lon="1.39993">
        <ele>122</ele>
        <time>2025-01-10T11:45:14Z</time>
      </trkpt>
      <trkpt lat="43.64836" lon="1.39992">
        <ele>122</ele>
        <time>2025-01-10T11:45:15Z</time>
      </trkpt>
      <trkpt lat="43.64833" lon="1.39991">
        <ele>122</ele>
        <time>2025-01-10T11:45:16Z</time>
      </trkpt>
      <trkpt lat="43.6483" lon="1.3999">
        <ele>122</ele>
        <time>2025-01-10T11:45:17Z</time>
      </trkpt>
      <trkpt lat="43.64827" lon="1.39988">
        <ele>122</ele>
        <time>2025-01-10T11:45:18Z</time>
      </trkpt>
      <trkpt lat="43.64827" lon="1.39987">
        <ele>122</ele>
        <time>2025-01-10T11:45:19Z</time>
      </trkpt>
      <trkpt lat="43.64825" lon="1.39986">
        <ele>122</ele>
        <time>2025-01-10T11:45:20Z</time>
      </trkpt>
      <trkpt lat="43.64824" lon="1.39985">
        <ele>122</ele>
        <time>2025-01-10T11:45:21Z</time>
      </trkpt>
      <trkpt lat="43.64823" lon="1.39984">
        <ele>123</ele>
        <time>2025-01-10T11:45:22Z</time>
      </trkpt>
      <trkpt lat="43.64821" lon="1.39983">
        <ele>123</ele>
        <time>2025-01-10T11:45:23Z</time>
      </trkpt>
      <trkpt lat="43.6482" lon="1.39982">
        <ele>123</ele>
        <time>2025-01-10T11:45:24Z</time>
      </trkpt>
      <trkpt lat="43.64819" lon="1.39981">
        <ele>123</ele>
        <time>2025-01-10T11:45:25Z</time>
      </trkpt>
      <trkpt lat="43.64815" lon="1.3998">
        <ele>123</ele>
        <time>2025-01-10T11:45:26Z</time>
      </trkpt>
      <trkpt lat="43.64812" lon="1.39979">
        <ele>123</ele>
        <time>2025-01-10T11:45:27Z</time>
      </trkpt>
      <trkpt lat="43.64808" lon="1.39978">
        <ele>123</ele>
        <time>2025-01-10T11:45:28Z</time>
      </trkpt>
      <trkpt lat="43.64805" lon="1.39977">
        <ele>123</ele>
        <time>2025-01-10T11:45:29Z</time>
      </trkpt>
      <trkpt lat="43.64802" lon="1.39977">
        <ele>123</ele>
        <time>2025-01-10T11:45:30Z</time>
      </trkpt>
      <trkpt lat="43.64795" lon="1.39974">
        <ele>123</ele>
        <time>2025-01-10T11:45:31Z</time>
      </trkpt>
      <trkpt lat="43.64792" lon="1.39972">
        <ele>123</ele>
        <time>2025-01-10T11:45:32Z</time>
      </trkpt>
      <trkpt lat="43.6479" lon="1.3997">
        <ele>123</ele>
        <time>2025-01-10T11:45:33Z</time>
      </trkpt>
      <trkpt lat="43.64788" lon="1.39969">
        <ele>123</ele>
        <time>2025-01-10T11:45:35Z</time>
      </trkpt>
      <trkpt lat="43.64786" lon="1.39967">
        <ele>123</ele>
        <time>2025-01-10T11:45:36Z</time>
      </trkpt>
      <trkpt lat="43.64784" lon="1.39967">
        <ele>123</ele>
        <time>2025-01-10T11:45:37Z</time>
      </trkpt>
      <trkpt lat="43.64782" lon="1.39966">
        <ele>123</ele>
        <time>2025-01-10T11:45:38Z</time>
      </trkpt>
      <trkpt lat="43.6478" lon="1.39965">
        <ele>123</ele>
        <time>2025-01-10T11:45:39Z</time>
      </trkpt>
      <trkpt lat="43.64777" lon="1.39965">
        <ele>123</ele>
        <time>2025-01-10T11:45:40Z</time>
      </trkpt>
      <trkpt lat="43.64776" lon="1.39965">
        <ele>123</ele>
        <time>2025-01-10T11:45:41Z</time>
      </trkpt>
      <trkpt lat="43.64775" lon="1.39964">
        <ele>123</ele>
        <time>2025-01-10T11:45:42Z</time>
      </trkpt>
      <trkpt lat="43.64774" lon="1.39964">
        <ele>123</ele>
        <time>2025-01-10T11:45:43Z</time>
      </trkpt>
      <trkpt lat="43.64773" lon="1.39964">
        <ele>124</ele>
        <time>2025-01-10T11:45:44Z</time>
      </trkpt>
      <trkpt lat="43.64772" lon="1.39964">
        <ele>124</ele>
        <time>2025-01-10T11:45:45Z</time>
      </trkpt>
      <trkpt lat="43.64764" lon="1.39961">
        <ele>124</ele>
        <time>2025-01-10T11:45:46Z</time>
      </trkpt>
      <trkpt lat="43.64761" lon="1.3996">
        <ele>124</ele>
        <time>2025-01-10T11:45:47Z</time>
      </trkpt>
      <trkpt lat="43.64759" lon="1.3996">
        <ele>124</ele>
        <time>2025-01-10T11:45:48Z</time>
      </trkpt>
      <trkpt lat="43.64756" lon="1.39959">
        <ele>124</ele>
        <time>2025-01-10T11:45:49Z</time>
      </trkpt>
      <trkpt lat="43.64753" lon="1.39958">
        <ele>124</ele>
        <time>2025-01-10T11:45:50Z</time>
      </trkpt>
      <trkpt lat="43.6475" lon="1.39956">
        <ele>124</ele>
        <time>2025-01-10T11:45:51Z</time>
      </trkpt>
      <trkpt lat="43.64747" lon="1.39955">
        <ele>124</ele>
        <time>2025-01-10T11:45:52Z</time>
      </trkpt>
      <trkpt lat="43.64745" lon="1.39955">
        <ele>124</ele>
        <time>2025-01-10T11:45:53Z</time>
      </trkpt>
      <trkpt lat="43.64742" lon="1.39955">
        <ele>125</ele>
        <time>2025-01-10T11:45:54Z</time>
      </trkpt>
      <trkpt lat="43.6474" lon="1.39955">
        <ele>125</ele>
        <time>2025-01-10T11:45:55Z</time>
      </trkpt>
      <trkpt lat="43.64738" lon="1.39955">
        <ele>125</ele>
        <time>2025-01-10T11:45:56Z</time>
      </trkpt>
      <trkpt lat="43.64735" lon="1.39955">
        <ele>125</ele>
        <time>2025-01-10T11:45:57Z</time>
      </trkpt>
      <trkpt lat="43.64732" lon="1.39955">
        <ele>125</ele>
        <time>2025-01-10T11:45:58Z</time>
      </trkpt>
      <trkpt lat="43.64728" lon="1.39955">
        <ele>125</ele>
        <time>2025-01-10T11:45:59Z</time>
      </trkpt>
      <trkpt lat="43.64725" lon="1.39955">
        <ele>125</ele>
        <time>2025-01-10T11:46:00Z</time>
      </trkpt>
      <trkpt lat="43.64722" lon="1.39956">
        <ele>125</ele>
        <time>2025-01-10T11:46:01Z</time>
      </trkpt>
      <trkpt lat="43.64719" lon="1.39956">
        <ele>125</ele>
        <time>2025-01-10T11:46:02Z</time>
      </trkpt>
      <trkpt lat="43.64717" lon="1.39956">
        <ele>125</ele>
        <time>2025-01-10T11:46:03Z</time>
      </trkpt>
      <trkpt lat="43.64715" lon="1.39956">
        <ele>125</ele>
        <time>2025-01-10T11:46:04Z</time>
      </trkpt>
      <trkpt lat="43.64712" lon="1.39956">
        <ele>125</ele>
        <time>2025-01-10T11:46:05Z</time>
      </trkpt>
      <trkpt lat="43.6471" lon="1.39956">
        <ele>125</ele>
        <time>2025-01-10T11:46:06Z</time>
      </trkpt>
      <trkpt lat="43.64708" lon="1.39956">
        <ele>125</ele>
        <time>2025-01-10T11:46:07Z</time>
      </trkpt>
      <trkpt lat="43.64707" lon="1.39956">
        <ele>125</ele>
        <time>2025-01-10T11:46:08Z</time>
      </trkpt>
      <trkpt lat="43.64705" lon="1.39955">
        <ele>125</ele>
        <time>2025-01-10T11:46:09Z</time>
      </trkpt>
      <trkpt lat="43.64698" lon="1.39953">
        <ele>125</ele>
        <time>2025-01-10T11:46:10Z</time>
      </trkpt>
      <trkpt lat="43.64697" lon="1.39952">
        <ele>125</ele>
        <time>2025-01-10T11:46:11Z</time>
      </trkpt>
      <trkpt lat="43.64696" lon="1.3995">
        <ele>125</ele>
        <time>2025-01-10T11:46:12Z</time>
      </trkpt>
      <trkpt lat="43.64695" lon="1.39949">
        <ele>125</ele>
        <time>2025-01-10T11:46:13Z</time>
      </trkpt>
      <trkpt lat="43.64694" lon="1.39948">
        <ele>125</ele>
        <time>2025-01-10T11:46:14Z</time>
      </trkpt>
      <trkpt lat="43.64693" lon="1.39946">
        <ele>126</ele>
        <time>2025-01-10T11:46:15Z</time>
      </trkpt>
      <trkpt lat="43.64692" lon="1.39945">
        <ele>127</ele>
        <time>2025-01-10T11:46:16Z</time>
      </trkpt>
      <trkpt lat="43.64691" lon="1.39945">
        <ele>127</ele>
        <time>2025-01-10T11:46:17Z</time>
      </trkpt>
      <trkpt lat="43.64689" lon="1.39945">
        <ele>127</ele>
        <time>2025-01-10T11:46:18Z</time>
      </trkpt>
      <trkpt lat="43.64688" lon="1.39945">
        <ele>127</ele>
        <time>2025-01-10T11:46:19Z</time>
      </trkpt>
      <trkpt lat="43.64686" lon="1.39945">
        <ele>127</ele>
        <time>2025-01-10T11:46:20Z</time>
      </trkpt>
      <trkpt lat="43.64685" lon="1.39945">
        <ele>127</ele>
        <time>2025-01-10T11:46:21Z</time>
      </trkpt>
      <trkpt lat="43.64683" lon="1.39945">
        <ele>127</ele>
        <time>2025-01-10T11:46:22Z</time>
      </trkpt>
      <trkpt lat="43.64682" lon="1.39946">
        <ele>127</ele>
        <time>2025-01-10T11:46:23Z</time>
      </trkpt>
      <trkpt lat="43.6468" lon="1.39945">
        <ele>127</ele>
        <time>2025-01-10T11:46:24Z</time>
      </trkpt>
      <trkpt lat="43.64678" lon="1.39945">
        <ele>127</ele>
        <time>2025-01-10T11:46:25Z</time>
      </trkpt>
      <trkpt lat="43.64676" lon="1.39945">
        <ele>127</ele>
        <time>2025-01-10T11:46:26Z</time>
      </trkpt>
      <trkpt lat="43.64673" lon="1.39945">
        <ele>127</ele>
        <time>2025-01-10T11:46:27Z</time>
      </trkpt>
      <trkpt lat="43.64671" lon="1.39944">
        <ele>127</ele>
        <time>2025-01-10T11:46:28Z</time>
      </trkpt>
      <trkpt lat="43.6467" lon="1.39944">
        <ele>127</ele>
        <time>2025-01-10T11:46:29Z</time>
      </trkpt>
      <trkpt lat="43.64668" lon="1.39944">
        <ele>127</ele>
        <time>2025-01-10T11:46:30Z</time>
      </trkpt>
      <trkpt lat="43.64666" lon="1.39943">
        <ele>127</ele>
        <time>2025-01-10T11:46:31Z</time>
      </trkpt>
      <trkpt lat="43.64659" lon="1.39943">
        <ele>127</ele>
        <time>2025-01-10T11:46:32Z</time>
      </trkpt>
      <trkpt lat="43.64657" lon="1.39942">
        <ele>127</ele>
        <time>2025-01-10T11:46:33Z</time>
      </trkpt>
      <trkpt lat="43.64654" lon="1.39942">
        <ele>127</ele>
        <time>2025-01-10T11:46:34Z</time>
      </trkpt>
      <trkpt lat="43.64652" lon="1.39942">
        <ele>127</ele>
        <time>2025-01-10T11:46:35Z</time>
      </trkpt>
      <trkpt lat="43.6465" lon="1.39942">
        <ele>127</ele>
        <time>2025-01-10T11:46:36Z</time>
      </trkpt>
      <trkpt lat="43.64649" lon="1.39942">
        <ele>127</ele>
        <time>2025-01-10T11:46:37Z</time>
      </trkpt>
      <trkpt lat="43.64647" lon="1.39942">
        <ele>127</ele>
        <time>2025-01-10T11:46:38Z</time>
      </trkpt>
      <trkpt lat="43.64646" lon="1.39942">
        <ele>127</ele>
        <time>2025-01-10T11:46:39Z</time>
      </trkpt>
      <trkpt lat="43.64645" lon="1.39942">
        <ele>127</ele>
        <time>2025-01-10T11:46:40Z</time>
      </trkpt>
      <trkpt lat="43.64638" lon="1.39941">
        <ele>127</ele>
        <time>2025-01-10T11:46:41Z</time>
      </trkpt>
      <trkpt lat="43.64636" lon="1.39941">
        <ele>127</ele>
        <time>2025-01-10T11:46:42Z</time>
      </trkpt>
      <trkpt lat="43.64634" lon="1.39942">
        <ele>127</ele>
        <time>2025-01-10T11:46:43Z</time>
      </trkpt>
      <trkpt lat="43.64633" lon="1.39942">
        <ele>127</ele>
        <time>2025-01-10T11:46:44Z</time>
      </trkpt>
      <trkpt lat="43.64631" lon="1.39943">
        <ele>127</ele>
        <time>2025-01-10T11:46:45Z</time>
      </trkpt>
      <trkpt lat="43.6463" lon="1.39943">
        <ele>127</ele>
        <time>2025-01-10T11:46:46Z</time>
      </trkpt>
      <trkpt lat="43.64628" lon="1.39944">
        <ele>127</ele>
        <time>2025-01-10T11:46:47Z</time>
      </trkpt>
      <trkpt lat="43.64625" lon="1.39944">
        <ele>127</ele>
        <time>2025-01-10T11:46:48Z</time>
      </trkpt>
      <trkpt lat="43.64623" lon="1.39945">
        <ele>127</ele>
        <time>2025-01-10T11:46:49Z</time>
      </trkpt>
      <trkpt lat="43.64621" lon="1.39945">
        <ele>127</ele>
        <time>2025-01-10T11:46:50Z</time>
      </trkpt>
      <trkpt lat="43.64617" lon="1.39948">
        <ele>127</ele>
        <time>2025-01-10T11:46:51Z</time>
      </trkpt>
      <trkpt lat="43.64613" lon="1.3995">
        <ele>127</ele>
        <time>2025-01-10T11:46:52Z</time>
      </trkpt>
      <trkpt lat="43.64609" lon="1.39952">
        <ele>127</ele>
        <time>2025-01-10T11:46:53Z</time>
      </trkpt>
      <trkpt lat="43.64606" lon="1.39954">
        <ele>127</ele>
        <time>2025-01-10T11:46:54Z</time>
      </trkpt>
      <trkpt lat="43.64603" lon="1.39956">
        <ele>127</ele>
        <time>2025-01-10T11:46:55Z</time>
      </trkpt>
      <trkpt lat="43.64599" lon="1.39957">
        <ele>127</ele>
        <time>2025-01-10T11:46:56Z</time>
      </trkpt>
      <trkpt lat="43.64595" lon="1.3996">
        <ele>127</ele>
        <time>2025-01-10T11:46:57Z</time>
      </trkpt>
      <trkpt lat="43.6459" lon="1.39963">
        <ele>127</ele>
        <time>2025-01-10T11:46:58Z</time>
      </trkpt>
      <trkpt lat="43.64588" lon="1.39964">
        <ele>127</ele>
        <time>2025-01-10T11:46:59Z</time>
      </trkpt>
      <trkpt lat="43.64586" lon="1.39965">
        <ele>127</ele>
        <time>2025-01-10T11:47:00Z</time>
      </trkpt>
      <trkpt lat="43.64583" lon="1.39966">
        <ele>127</ele>
        <time>2025-01-10T11:47:01Z</time>
      </trkpt>
      <trkpt lat="43.64581" lon="1.39967">
        <ele>127</ele>
        <time>2025-01-10T11:47:02Z</time>
      </trkpt>
      <trkpt lat="43.6458" lon="1.39967">
        <ele>127</ele>
        <time>2025-01-10T11:47:03Z</time>
      </trkpt>
      <trkpt lat="43.64579" lon="1.39967">
        <ele>127</ele>
        <time>2025-01-10T11:47:04Z</time>
      </trkpt>
      <trkpt lat="43.64578" lon="1.39968">
        <ele>127</ele>
        <time>2025-01-10T11:47:05Z</time>
      </trkpt>
      <trkpt lat="43.64577" lon="1.39968">
        <ele>127</ele>
        <time>2025-01-10T11:47:06Z</time>
      </trkpt>
      <trkpt lat="43.64576" lon="1.39969">
        <ele>127</ele>
        <time>2025-01-10T11:47:07Z</time>
      </trkpt>
      <trkpt lat="43.64569" lon="1.39971">
        <ele>127</ele>
        <time>2025-01-10T11:47:08Z</time>
      </trkpt>
      <trkpt lat="43.64566" lon="1.39971">
        <ele>127</ele>
        <time>2025-01-10T11:47:09Z</time>
      </trkpt>
      <trkpt lat="43.64564" lon="1.39971">
        <ele>127</ele>
        <time>2025-01-10T11:47:10Z</time>
      </trkpt>
      <trkpt lat="43.64562" lon="1.39971">
        <ele>127</ele>
        <time>2025-01-10T11:47:11Z</time>
      </trkpt>
      <trkpt lat="43.6456" lon="1.39971">
        <ele>127</ele>
        <time>2025-01-10T11:47:12Z</time>
      </trkpt>
      <trkpt lat="43.64557" lon="1.39971">
        <ele>127</ele>
        <time>2025-01-10T11:47:13Z</time>
      </trkpt>
      <trkpt lat="43.64554" lon="1.3997">
        <ele>127</ele>
        <time>2025-01-10T11:47:14Z</time>
      </trkpt>
      <trkpt lat="43.64551" lon="1.3997">
        <ele>127</ele>
        <time>2025-01-10T11:47:15Z</time>
      </trkpt>
      <trkpt lat="43.64548" lon="1.39969">
        <ele>127</ele>
        <time>2025-01-10T11:47:16Z</time>
      </trkpt>
      <trkpt lat="43.64545" lon="1.39969">
        <ele>127</ele>
        <time>2025-01-10T11:47:17Z</time>
      </trkpt>
      <trkpt lat="43.64542" lon="1.39969">
        <ele>127</ele>
        <time>2025-01-10T11:47:18Z</time>
      </trkpt>
      <trkpt lat="43.64533" lon="1.39967">
        <ele>127</ele>
        <time>2025-01-10T11:47:19Z</time>
      </trkpt>
      <trkpt lat="43.6453" lon="1.39966">
        <ele>127</ele>
        <time>2025-01-10T11:47:20Z</time>
      </trkpt>
      <trkpt lat="43.64527" lon="1.39964">
        <ele>127</ele>
        <time>2025-01-10T11:47:21Z</time>
      </trkpt>
      <trkpt lat="43.64525" lon="1.39963">
        <ele>127</ele>
        <time>2025-01-10T11:47:22Z</time>
      </trkpt>
      <trkpt lat="43.64523" lon="1.39962">
        <ele>127</ele>
        <time>2025-01-10T11:47:23Z</time>
      </trkpt>
      <trkpt lat="43.64521" lon="1.3996">
        <ele>127</ele>
        <time>2025-01-10T11:47:24Z</time>
      </trkpt>
      <trkpt lat="43.64518" lon="1.39959">
        <ele>127</ele>
        <time>2025-01-10T11:47:25Z</time>
      </trkpt>
      <trkpt lat="43.64515" lon="1.39957">
        <ele>127</ele>
        <time>2025-01-10T11:47:26Z</time>
      </trkpt>
      <trkpt lat="43.64512" lon="1.39955">
        <ele>127</ele>
        <time>2025-01-10T11:47:27Z</time>
      </trkpt>
      <trkpt lat="43.6451" lon="1.39952">
        <ele>127</ele>
        <time>2025-01-10T11:47:28Z</time>
      </trkpt>
      <trkpt lat="43.64509" lon="1.39948">
        <ele>128</ele>
        <time>2025-01-10T11:47:29Z</time>
      </trkpt>
      <trkpt lat="43.64507" lon="1.39942">
        <ele>128</ele>
        <time>2025-01-10T11:47:30Z</time>
      </trkpt>
      <trkpt lat="43.64507" lon="1.3994">
        <ele>128</ele>
        <time>2025-01-10T11:47:31Z</time>
      </trkpt>
      <trkpt lat="43.64505" lon="1.39936">
        <ele>129</ele>
        <time>2025-01-10T11:47:32Z</time>
      </trkpt>
      <trkpt lat="43.64504" lon="1.39933">
        <ele>129</ele>
        <time>2025-01-10T11:47:33Z</time>
      </trkpt>
      <trkpt lat="43.64502" lon="1.3993">
        <ele>129</ele>
        <time>2025-01-10T11:47:34Z</time>
      </trkpt>
      <trkpt lat="43.64501" lon="1.39927">
        <ele>129</ele>
        <time>2025-01-10T11:47:35Z</time>
      </trkpt>
      <trkpt lat="43.64498" lon="1.39923">
        <ele>129</ele>
        <time>2025-01-10T11:47:36Z</time>
      </trkpt>
      <trkpt lat="43.64497" lon="1.3992">
        <ele>129</ele>
        <time>2025-01-10T11:47:37Z</time>
      </trkpt>
      <trkpt lat="43.64496" lon="1.39913">
        <ele>129</ele>
        <time>2025-01-10T11:47:38Z</time>
      </trkpt>
      <trkpt lat="43.64496" lon="1.39911">
        <ele>129</ele>
        <time>2025-01-10T11:47:39Z</time>
      </trkpt>
      <trkpt lat="43.64497" lon="1.39908">
        <ele>129</ele>
        <time>2025-01-10T11:47:40Z</time>
      </trkpt>
      <trkpt lat="43.64497" lon="1.39903">
        <ele>129</ele>
        <time>2025-01-10T11:47:41Z</time>
      </trkpt>
      <trkpt lat="43.64497" lon="1.399">
        <ele>129</ele>
        <time>2025-01-10T11:47:42Z</time>
      </trkpt>
      <trkpt lat="43.64497" lon="1.39896">
        <ele>128</ele>
        <time>2025-01-10T11:47:43Z</time>
      </trkpt>
      <trkpt lat="43.64497" lon="1.39892">
        <ele>127</ele>
        <time>2025-01-10T11:47:44Z</time>
      </trkpt>
      <trkpt lat="43.64497" lon="1.39888">
        <ele>127</ele>
        <time>2025-01-10T11:47:45Z</time>
      </trkpt>
      <trkpt lat="43.64497" lon="1.39885">
        <ele>128</ele>
        <time>2025-01-10T11:47:46Z</time>
      </trkpt>
      <trkpt lat="43.64497" lon="1.39881">
        <ele>128</ele>
        <time>2025-01-10T11:47:47Z</time>
      </trkpt>
      <trkpt lat="43.64497" lon="1.39877">
        <ele>128</ele>
        <time>2025-01-10T11:47:48Z</time>
      </trkpt>
      <trkpt lat="43.64497" lon="1.39874">
        <ele>128</ele>
        <time>2025-01-10T11:47:49Z</time>
      </trkpt>
      <trkpt lat="43.64497" lon="1.39871">
        <ele>128</ele>
        <time>2025-01-10T11:47:50Z</time>
      </trkpt>
      <trkpt lat="43.64497" lon="1.39868">
        <ele>128</ele>
        <time>2025-01-10T11:47:51Z</time>
      </trkpt>
      <trkpt lat="43.64497" lon="1.39864">
        <ele>128</ele>
        <time>2025-01-10T11:47:52Z</time>
      </trkpt>
      <trkpt lat="43.64497" lon="1.39861">
        <ele>127</ele>
        <time>2025-01-10T11:47:53Z</time>
      </trkpt>
      <trkpt lat="43.64497" lon="1.39858">
        <ele>127</ele>
        <time>2025-01-10T11:47:54Z</time>
      </trkpt>
      <trkpt lat="43.64498" lon="1.39855">
        <ele>128</ele>
        <time>2025-01-10T11:47:55Z</time>
      </trkpt>
      <trkpt lat="43.64498" lon="1.39852">
        <ele>129</ele>
        <time>2025-01-10T11:47:56Z</time>
      </trkpt>
      <trkpt lat="43.64498" lon="1.39849">
        <ele>129</ele>
        <time>2025-01-10T11:47:57Z</time>
      </trkpt>
      <trkpt lat="43.64498" lon="1.39845">
        <ele>129</ele>
        <time>2025-01-10T11:47:58Z</time>
      </trkpt>
      <trkpt lat="43.64498" lon="1.39842">
        <ele>129</ele>
        <time>2025-01-10T11:47:59Z</time>
      </trkpt>
      <trkpt lat="43.64498" lon="1.39839">
        <ele>129</ele>
        <time>2025-01-10T11:48:00Z</time>
      </trkpt>
      <trkpt lat="43.64498" lon="1.39835">
        <ele>129</ele>
        <time>2025-01-10T11:48:01Z</time>
      </trkpt>
      <trkpt lat="43.64498" lon="1.39832">
        <ele>129</ele>
        <time>2025-01-10T11:48:02Z</time>
      </trkpt>
      <trkpt lat="43.64498" lon="1.39828">
        <ele>129</ele>
        <time>2025-01-10T11:48:03Z</time>
      </trkpt>
      <trkpt lat="43.64498" lon="1.39825">
        <ele>128</ele>
        <time>2025-01-10T11:48:04Z</time>
      </trkpt>
      <trkpt lat="43.64498" lon="1.39821">
        <ele>128</ele>
        <time>2025-01-10T11:48:05Z</time>
      </trkpt>
      <trkpt lat="43.64498" lon="1.39815">
        <ele>128</ele>
        <time>2025-01-10T11:48:07Z</time>
      </trkpt>
      <trkpt lat="43.64498" lon="1.39811">
        <ele>128</ele>
        <time>2025-01-10T11:48:08Z</time>
      </trkpt>
      <trkpt lat="43.64498" lon="1.39808">
        <ele>128</ele>
        <time>2025-01-10T11:48:09Z</time>
      </trkpt>
      <trkpt lat="43.64498" lon="1.39805">
        <ele>128</ele>
        <time>2025-01-10T11:48:10Z</time>
      </trkpt>
      <trkpt lat="43.64498" lon="1.398">
        <ele>128</ele>
        <time>2025-01-10T11:48:11Z</time>
      </trkpt>
      <trkpt lat="43.64498" lon="1.39798">
        <ele>129</ele>
        <time>2025-01-10T11:48:12Z</time>
      </trkpt>
      <trkpt lat="43.64498" lon="1.39795">
        <ele>129</ele>
        <time>2025-01-10T11:48:13Z</time>
      </trkpt>
      <trkpt lat="43.64498" lon="1.39791">
        <ele>129</ele>
        <time>2025-01-10T11:48:14Z</time>
      </trkpt>
      <trkpt lat="43.64498" lon="1.39788">
        <ele>129</ele>
        <time>2025-01-10T11:48:15Z</time>
      </trkpt>
      <trkpt lat="43.64498" lon="1.39784">
        <ele>129</ele>
        <time>2025-01-10T11:48:16Z</time>
      </trkpt>
      <trkpt lat="43.64498" lon="1.39781">
        <ele>129</ele>
        <time>2025-01-10T11:48:17Z</time>
      </trkpt>
      <trkpt lat="43.64498" lon="1.39778">
        <ele>129</ele>
        <time>2025-01-10T11:48:18Z</time>
      </trkpt>
      <trkpt lat="43.64498" lon="1.39774">
        <ele>129</ele>
        <time>2025-01-10T11:48:19Z</time>
      </trkpt>
      <trkpt lat="43.64498" lon="1.39771">
        <ele>128</ele>
        <time>2025-01-10T11:48:20Z</time>
      </trkpt>
      <trkpt lat="43.64498" lon="1.39767">
        <ele>128</ele>
        <time>2025-01-10T11:48:21Z</time>
      </trkpt>
      <trkpt lat="43.64498" lon="1.39764">
        <ele>128</ele>
        <time>2025-01-10T11:48:22Z</time>
      </trkpt>
      <trkpt lat="43.64498" lon="1.39761">
        <ele>128</ele>
        <time>2025-01-10T11:48:23Z</time>
      </trkpt>
      <trkpt lat="43.64498" lon="1.39757">
        <ele>128</ele>
        <time>2025-01-10T11:48:24Z</time>
      </trkpt>
      <trkpt lat="43.64498" lon="1.39754">
        <ele>128</ele>
        <time>2025-01-10T11:48:25Z</time>
      </trkpt>
      <trkpt lat="43.64498" lon="1.39751">
        <ele>128</ele>
        <time>2025-01-10T11:48:26Z</time>
      </trkpt>
      <trkpt lat="43.64498" lon="1.39748">
        <ele>128</ele>
        <time>2025-01-10T11:48:27Z</time>
      </trkpt>
      <trkpt lat="43.64498" lon="1.39744">
        <ele>128</ele>
        <time>2025-01-10T11:48:28Z</time>
      </trkpt>
      <trkpt lat="43.64498" lon="1.39741">
        <ele>128</ele>
        <time>2025-01-10T11:48:29Z</time>
      </trkpt>
      <trkpt lat="43.64498" lon="1.39737">
        <ele>129</ele>
        <time>2025-01-10T11:48:30Z</time>
      </trkpt>
      <trkpt lat="43.64498" lon="1.39734">
        <ele>129</ele>
        <time>2025-01-10T11:48:31Z</time>
      </trkpt>
      <trkpt lat="43.64498" lon="1.3973">
        <ele>128</ele>
        <time>2025-01-10T11:48:32Z</time>
      </trkpt>
      <trkpt lat="43.64498" lon="1.39727">
        <ele>128</ele>
        <time>2025-01-10T11:48:33Z</time>
      </trkpt>
      <trkpt lat="43.64498" lon="1.39724">
        <ele>127</ele>
        <time>2025-01-10T11:48:34Z</time>
      </trkpt>
      <trkpt lat="43.64498" lon="1.3972">
        <ele>128</ele>
        <time>2025-01-10T11:48:35Z</time>
      </trkpt>
      <trkpt lat="43.64498" lon="1.39717">
        <ele>128</ele>
        <time>2025-01-10T11:48:36Z</time>
      </trkpt>
      <trkpt lat="43.64499" lon="1.39713">
        <ele>128</ele>
        <time>2025-01-10T11:48:37Z</time>
      </trkpt>
      <trkpt lat="43.64499" lon="1.3971">
        <ele>128</ele>
        <time>2025-01-10T11:48:38Z</time>
      </trkpt>
      <trkpt lat="43.64499" lon="1.39707">
        <ele>128</ele>
        <time>2025-01-10T11:48:39Z</time>
      </trkpt>
      <trkpt lat="43.64498" lon="1.39703">
        <ele>128</ele>
        <time>2025-01-10T11:48:40Z</time>
      </trkpt>
      <trkpt lat="43.64498" lon="1.397">
        <ele>128</ele>
        <time>2025-01-10T11:48:41Z</time>
      </trkpt>
      <trkpt lat="43.64498" lon="1.39696">
        <ele>128</ele>
        <time>2025-01-10T11:48:42Z</time>
      </trkpt>
      <trkpt lat="43.64498" lon="1.39693">
        <ele>128</ele>
        <time>2025-01-10T11:48:43Z</time>
      </trkpt>
      <trkpt lat="43.64498" lon="1.39689">
        <ele>128</ele>
        <time>2025-01-10T11:48:44Z</time>
      </trkpt>
      <trkpt lat="43.64498" lon="1.39686">
        <ele>128</ele>
        <time>2025-01-10T11:48:45Z</time>
      </trkpt>
      <trkpt lat="43.64498" lon="1.39683">
        <ele>127</ele>
        <time>2025-01-10T11:48:46Z</time>
      </trkpt>
      <trkpt lat="43.64499" lon="1.39679">
        <ele>127</ele>
        <time>2025-01-10T11:48:47Z</time>
      </trkpt>
      <trkpt lat="43.645" lon="1.39676">
        <ele>128</ele>
        <time>2025-01-10T11:48:48Z</time>
      </trkpt>
      <trkpt lat="43.645" lon="1.39673">
        <ele>128</ele>
        <time>2025-01-10T11:48:49Z</time>
      </trkpt>
      <trkpt lat="43.645" lon="1.39669">
        <ele>128</ele>
        <time>2025-01-10T11:48:50Z</time>
      </trkpt>
      <trkpt lat="43.645" lon="1.39666">
        <ele>128</ele>
        <time>2025-01-10T11:48:51Z</time>
      </trkpt>
      <trkpt lat="43.64501" lon="1.39662">
        <ele>128</ele>
        <time>2025-01-10T11:48:52Z</time>
      </trkpt>
      <trkpt lat="43.64501" lon="1.39657">
        <ele>128</ele>
        <time>2025-01-10T11:48:53Z</time>
      </trkpt>
      <trkpt lat="43.64501" lon="1.39655">
        <ele>128</ele>
        <time>2025-01-10T11:48:54Z</time>
      </trkpt>
      <trkpt lat="43.64501" lon="1.39652">
        <ele>129</ele>
        <time>2025-01-10T11:48:55Z</time>
      </trkpt>
      <trkpt lat="43.64501" lon="1.39649">
        <ele>129</ele>
        <time>2025-01-10T11:48:56Z</time>
      </trkpt>
      <trkpt lat="43.64502" lon="1.39646">
        <ele>129</ele>
        <time>2025-01-10T11:48:57Z</time>
      </trkpt>
      <trkpt lat="43.64502" lon="1.39642">
        <ele>128</ele>
        <time>2025-01-10T11:48:58Z</time>
      </trkpt>
      <trkpt lat="43.64502" lon="1.39639">
        <ele>128</ele>
        <time>2025-01-10T11:48:59Z</time>
      </trkpt>
      <trkpt lat="43.64502" lon="1.39636">
        <ele>128</ele>
        <time>2025-01-10T11:49:00Z</time>
      </trkpt>
      <trkpt lat="43.64502" lon="1.39633">
        <ele>128</ele>
        <time>2025-01-10T11:49:01Z</time>
      </trkpt>
      <trkpt lat="43.64502" lon="1.39629">
        <ele>128</ele>
        <time>2025-01-10T11:49:02Z</time>
      </trkpt>
      <trkpt lat="43.64502" lon="1.39626">
        <ele>128</ele>
        <time>2025-01-10T11:49:03Z</time>
      </trkpt>
      <trkpt lat="43.64502" lon="1.39623">
        <ele>128</ele>
        <time>2025-01-10T11:49:04Z</time>
      </trkpt>
      <trkpt lat="43.64502" lon="1.39619">
        <ele>128</ele>
        <time>2025-01-10T11:49:05Z</time>
      </trkpt>
      <trkpt lat="43.64502" lon="1.39616">
        <ele>128</ele>
        <time>2025-01-10T11:49:06Z</time>
      </trkpt>
      <trkpt lat="43.64503" lon="1.39613">
        <ele>128</ele>
        <time>2025-01-10T11:49:07Z</time>
      </trkpt>
      <trkpt lat="43.64503" lon="1.3961">
        <ele>128</ele>
        <time>2025-01-10T11:49:08Z</time>
      </trkpt>
      <trkpt lat="43.64503" lon="1.39607">
        <ele>128</ele>
        <time>2025-01-10T11:49:09Z</time>
      </trkpt>
      <trkpt lat="43.64503" lon="1.39603">
        <ele>128</ele>
        <time>2025-01-10T11:49:10Z</time>
      </trkpt>
      <trkpt lat="43.64503" lon="1.396">
        <ele>128</ele>
        <time>2025-01-10T11:49:11Z</time>
      </trkpt>
      <trkpt lat="43.64503" lon="1.39597">
        <ele>128</ele>
        <time>2025-01-10T11:49:12Z</time>
      </trkpt>
      <trkpt lat="43.64503" lon="1.39594">
        <ele>128</ele>
        <time>2025-01-10T11:49:13Z</time>
      </trkpt>
      <trkpt lat="43.64502" lon="1.39591">
        <ele>129</ele>
        <time>2025-01-10T11:49:14Z</time>
      </trkpt>
      <trkpt lat="43.64503" lon="1.39588">
        <ele>129</ele>
        <time>2025-01-10T11:49:15Z</time>
      </trkpt>
      <trkpt lat="43.64502" lon="1.39584">
        <ele>129</ele>
        <time>2025-01-10T11:49:16Z</time>
      </trkpt>
      <trkpt lat="43.64502" lon="1.3958">
        <ele>129</ele>
        <time>2025-01-10T11:49:17Z</time>
      </trkpt>
      <trkpt lat="43.64502" lon="1.39577">
        <ele>129</ele>
        <time>2025-01-10T11:49:18Z</time>
      </trkpt>
      <trkpt lat="43.64502" lon="1.39574">
        <ele>129</ele>
        <time>2025-01-10T11:49:19Z</time>
      </trkpt>
      <trkpt lat="43.64502" lon="1.39571">
        <ele>129</ele>
        <time>2025-01-10T11:49:20Z</time>
      </trkpt>
      <trkpt lat="43.64501" lon="1.39567">
        <ele>129</ele>
        <time>2025-01-10T11:49:21Z</time>
      </trkpt>
      <trkpt lat="43.64501" lon="1.39564">
        <ele>128</ele>
        <time>2025-01-10T11:49:22Z</time>
      </trkpt>
      <trkpt lat="43.645" lon="1.39561">
        <ele>128</ele>
        <time>2025-01-10T11:49:23Z</time>
      </trkpt>
      <trkpt lat="43.645" lon="1.39558">
        <ele>128</ele>
        <time>2025-01-10T11:49:24Z</time>
      </trkpt>
      <trkpt lat="43.64499" lon="1.39554">
        <ele>128</ele>
        <time>2025-01-10T11:49:25Z</time>
      </trkpt>
      <trkpt lat="43.64498" lon="1.39551">
        <ele>129</ele>
        <time>2025-01-10T11:49:26Z</time>
      </trkpt>
      <trkpt lat="43.64498" lon="1.39548">
        <ele>129</ele>
        <time>2025-01-10T11:49:27Z</time>
      </trkpt>
      <trkpt lat="43.64498" lon="1.39544">
        <ele>129</ele>
        <time>2025-01-10T11:49:28Z</time>
      </trkpt>
      <trkpt lat="43.64497" lon="1.39541">
        <ele>129</ele>
        <time>2025-01-10T11:49:29Z</time>
      </trkpt>
      <trkpt lat="43.64497" lon="1.39537">
        <ele>129</ele>
        <time>2025-01-10T11:49:30Z</time>
      </trkpt>
      <trkpt lat="43.64497" lon="1.39534">
        <ele>129</ele>
        <time>2025-01-10T11:49:31Z</time>
      </trkpt>
      <trkpt lat="43.64497" lon="1.3953">
        <ele>129</ele>
        <time>2025-01-10T11:49:32Z</time>
      </trkpt>
      <trkpt lat="43.64497" lon="1.3953">
        <ele>129</ele>
        <time>2025-01-10T11:49:33Z</time>
      </trkpt>
      <trkpt lat="43.64496" lon="1.39524">
        <ele>129</ele>
        <time>2025-01-10T11:49:34Z</time>
      </trkpt>
      <trkpt lat="43.64495" lon="1.3952">
        <ele>129</ele>
        <time>2025-01-10T11:49:35Z</time>
      </trkpt>
      <trkpt lat="43.64495" lon="1.39517">
        <ele>129</ele>
        <time>2025-01-10T11:49:36Z</time>
      </trkpt>
      <trkpt lat="43.64494" lon="1.39513">
        <ele>130</ele>
        <time>2025-01-10T11:49:37Z</time>
      </trkpt>
      <trkpt lat="43.64494" lon="1.3951">
        <ele>130</ele>
        <time>2025-01-10T11:49:38Z</time>
      </trkpt>
      <trkpt lat="43.64493" lon="1.39507">
        <ele>129</ele>
        <time>2025-01-10T11:49:39Z</time>
      </trkpt>
      <trkpt lat="43.64493" lon="1.39503">
        <ele>129</ele>
        <time>2025-01-10T11:49:40Z</time>
      </trkpt>
      <trkpt lat="43.64492" lon="1.395">
        <ele>129</ele>
        <time>2025-01-10T11:49:41Z</time>
      </trkpt>
      <trkpt lat="43.64491" lon="1.39496">
        <ele>129</ele>
        <time>2025-01-10T11:49:42Z</time>
      </trkpt>
      <trkpt lat="43.64491" lon="1.39492">
        <ele>129</ele>
        <time>2025-01-10T11:49:43Z</time>
      </trkpt>
      <trkpt lat="43.6449" lon="1.3949">
        <ele>130</ele>
        <time>2025-01-10T11:49:44Z</time>
      </trkpt>
      <trkpt lat="43.6449" lon="1.39485">
        <ele>130</ele>
        <time>2025-01-10T11:49:45Z</time>
      </trkpt>
      <trkpt lat="43.64489" lon="1.39483">
        <ele>129</ele>
        <time>2025-01-10T11:49:46Z</time>
      </trkpt>
      <trkpt lat="43.64489" lon="1.3948">
        <ele>129</ele>
        <time>2025-01-10T11:49:47Z</time>
      </trkpt>
      <trkpt lat="43.64488" lon="1.39477">
        <ele>129</ele>
        <time>2025-01-10T11:49:48Z</time>
      </trkpt>
      <trkpt lat="43.64488" lon="1.39474">
        <ele>129</ele>
        <time>2025-01-10T11:49:49Z</time>
      </trkpt>
      <trkpt lat="43.64488" lon="1.3947">
        <ele>130</ele>
        <time>2025-01-10T11:49:50Z</time>
      </trkpt>
      <trkpt lat="43.64487" lon="1.39467">
        <ele>130</ele>
        <time>2025-01-10T11:49:51Z</time>
      </trkpt>
      <trkpt lat="43.64486" lon="1.39462">
        <ele>130</ele>
        <time>2025-01-10T11:49:52Z</time>
      </trkpt>
      <trkpt lat="43.64486" lon="1.39461">
        <ele>130</ele>
        <time>2025-01-10T11:49:53Z</time>
      </trkpt>
      <trkpt lat="43.64485" lon="1.39458">
        <ele>130</ele>
        <time>2025-01-10T11:49:54Z</time>
      </trkpt>
      <trkpt lat="43.64485" lon="1.39455">
        <ele>130</ele>
        <time>2025-01-10T11:49:55Z</time>
      </trkpt>
      <trkpt lat="43.64484" lon="1.39451">
        <ele>130</ele>
        <time>2025-01-10T11:49:56Z</time>
      </trkpt>
      <trkpt lat="43.64484" lon="1.39448">
        <ele>130</ele>
        <time>2025-01-10T11:49:57Z</time>
      </trkpt>
      <trkpt lat="43.64483" lon="1.39445">
        <ele>130</ele>
        <time>2025-01-10T11:49:58Z</time>
      </trkpt>
      <trkpt lat="43.64482" lon="1.39442">
        <ele>130</ele>
        <time>2025-01-10T11:49:59Z</time>
      </trkpt>
      <trkpt lat="43.64482" lon="1.39439">
        <ele>130</ele>
        <time>2025-01-10T11:50:00Z</time>
      </trkpt>
      <trkpt lat="43.64481" lon="1.39435">
        <ele>130</ele>
        <time>2025-01-10T11:50:01Z</time>
      </trkpt>
      <trkpt lat="43.64481" lon="1.3943">
        <ele>130</ele>
        <time>2025-01-10T11:50:02Z</time>
      </trkpt>
      <trkpt lat="43.6448" lon="1.39429">
        <ele>130</ele>
        <time>2025-01-10T11:50:03Z</time>
      </trkpt>
      <trkpt lat="43.6448" lon="1.39425">
        <ele>130</ele>
        <time>2025-01-10T11:50:04Z</time>
      </trkpt>
      <trkpt lat="43.64479" lon="1.39422">
        <ele>130</ele>
        <time>2025-01-10T11:50:05Z</time>
      </trkpt>
      <trkpt lat="43.64479" lon="1.39419">
        <ele>129</ele>
        <time>2025-01-10T11:50:06Z</time>
      </trkpt>
      <trkpt lat="43.64478" lon="1.39416">
        <ele>129</ele>
        <time>2025-01-10T11:50:07Z</time>
      </trkpt>
      <trkpt lat="43.64478" lon="1.39412">
        <ele>129</ele>
        <time>2025-01-10T11:50:08Z</time>
      </trkpt>
      <trkpt lat="43.64477" lon="1.39409">
        <ele>130</ele>
        <time>2025-01-10T11:50:09Z</time>
      </trkpt>
      <trkpt lat="43.64477" lon="1.39406">
        <ele>130</ele>
        <time>2025-01-10T11:50:10Z</time>
      </trkpt>
      <trkpt lat="43.64476" lon="1.39402">
        <ele>129</ele>
        <time>2025-01-10T11:50:11Z</time>
      </trkpt>
      <trkpt lat="43.64475" lon="1.39399">
        <ele>129</ele>
        <time>2025-01-10T11:50:12Z</time>
      </trkpt>
      <trkpt lat="43.64475" lon="1.39395">
        <ele>129</ele>
        <time>2025-01-10T11:50:13Z</time>
      </trkpt>
      <trkpt lat="43.64474" lon="1.39392">
        <ele>130</ele>
        <time>2025-01-10T11:50:14Z</time>
      </trkpt>
      <trkpt lat="43.64473" lon="1.39389">
        <ele>130</ele>
        <time>2025-01-10T11:50:15Z</time>
      </trkpt>
      <trkpt lat="43.64473" lon="1.39385">
        <ele>130</ele>
        <time>2025-01-10T11:50:16Z</time>
      </trkpt>
      <trkpt lat="43.64472" lon="1.39382">
        <ele>130</ele>
        <time>2025-01-10T11:50:17Z</time>
      </trkpt>
      <trkpt lat="43.64472" lon="1.39379">
        <ele>130</ele>
        <time>2025-01-10T11:50:18Z</time>
      </trkpt>
      <trkpt lat="43.64472" lon="1.39375">
        <ele>130</ele>
        <time>2025-01-10T11:50:19Z</time>
      </trkpt>
      <trkpt lat="43.64471" lon="1.39372">
        <ele>130</ele>
        <time>2025-01-10T11:50:20Z</time>
      </trkpt>
      <trkpt lat="43.6447" lon="1.39369">
        <ele>130</ele>
        <time>2025-01-10T11:50:21Z</time>
      </trkpt>
      <trkpt lat="43.6447" lon="1.39365">
        <ele>130</ele>
        <time>2025-01-10T11:50:22Z</time>
      </trkpt>
      <trkpt lat="43.64469" lon="1.39362">
        <ele>130</ele>
        <time>2025-01-10T11:50:23Z</time>
      </trkpt>
      <trkpt lat="43.64469" lon="1.39358">
        <ele>130</ele>
        <time>2025-01-10T11:50:24Z</time>
      </trkpt>
      <trkpt lat="43.64468" lon="1.39355">
        <ele>129</ele>
        <time>2025-01-10T11:50:25Z</time>
      </trkpt>
      <trkpt lat="43.64468" lon="1.39352">
        <ele>130</ele>
        <time>2025-01-10T11:50:26Z</time>
      </trkpt>
      <trkpt lat="43.64467" lon="1.39349">
        <ele>130</ele>
        <time>2025-01-10T11:50:27Z</time>
      </trkpt>
      <trkpt lat="43.64467" lon="1.39346">
        <ele>130</ele>
        <time>2025-01-10T11:50:28Z</time>
      </trkpt>
      <trkpt lat="43.64466" lon="1.39343">
        <ele>130</ele>
        <time>2025-01-10T11:50:29Z</time>
      </trkpt>
      <trkpt lat="43.64465" lon="1.3934">
        <ele>130</ele>
        <time>2025-01-10T11:50:30Z</time>
      </trkpt>
      <trkpt lat="43.64465" lon="1.39337">
        <ele>130</ele>
        <time>2025-01-10T11:50:31Z</time>
      </trkpt>
      <trkpt lat="43.64464" lon="1.39334">
        <ele>129</ele>
        <time>2025-01-10T11:50:32Z</time>
      </trkpt>
      <trkpt lat="43.64463" lon="1.3933">
        <ele>129</ele>
        <time>2025-01-10T11:50:33Z</time>
      </trkpt>
      <trkpt lat="43.64462" lon="1.39327">
        <ele>129</ele>
        <time>2025-01-10T11:50:34Z</time>
      </trkpt>
      <trkpt lat="43.64461" lon="1.39324">
        <ele>129</ele>
        <time>2025-01-10T11:50:35Z</time>
      </trkpt>
      <trkpt lat="43.6446" lon="1.39321">
        <ele>129</ele>
        <time>2025-01-10T11:50:36Z</time>
      </trkpt>
      <trkpt lat="43.64459" lon="1.39318">
        <ele>129</ele>
        <time>2025-01-10T11:50:37Z</time>
      </trkpt>
      <trkpt lat="43.64458" lon="1.39314">
        <ele>129</ele>
        <time>2025-01-10T11:50:38Z</time>
      </trkpt>
      <trkpt lat="43.64457" lon="1.39311">
        <ele>130</ele>
        <time>2025-01-10T11:50:39Z</time>
      </trkpt>
      <trkpt lat="43.64456" lon="1.39306">
        <ele>130</ele>
        <time>2025-01-10T11:50:40Z</time>
      </trkpt>
      <trkpt lat="43.64456" lon="1.39304">
        <ele>130</ele>
        <time>2025-01-10T11:50:41Z</time>
      </trkpt>
      <trkpt lat="43.64456" lon="1.39301">
        <ele>130</ele>
        <time>2025-01-10T11:50:42Z</time>
      </trkpt>
      <trkpt lat="43.64455" lon="1.39298">
        <ele>130</ele>
        <time>2025-01-10T11:50:43Z</time>
      </trkpt>
      <trkpt lat="43.64454" lon="1.39294">
        <ele>130</ele>
        <time>2025-01-10T11:50:44Z</time>
      </trkpt>
      <trkpt lat="43.64454" lon="1.39291">
        <ele>130</ele>
        <time>2025-01-10T11:50:45Z</time>
      </trkpt>
      <trkpt lat="43.64453" lon="1.39287">
        <ele>130</ele>
        <time>2025-01-10T11:50:46Z</time>
      </trkpt>
      <trkpt lat="43.64452" lon="1.39284">
        <ele>130</ele>
        <time>2025-01-10T11:50:47Z</time>
      </trkpt>
      <trkpt lat="43.64452" lon="1.39281">
        <ele>130</ele>
        <time>2025-01-10T11:50:48Z</time>
      </trkpt>
      <trkpt lat="43.64451" lon="1.39277">
        <ele>130</ele>
        <time>2025-01-10T11:50:49Z</time>
      </trkpt>
      <trkpt lat="43.6445" lon="1.39274">
        <ele>130</ele>
        <time>2025-01-10T11:50:50Z</time>
      </trkpt>
      <trkpt lat="43.64449" lon="1.3927">
        <ele>130</ele>
        <time>2025-01-10T11:50:51Z</time>
      </trkpt>
      <trkpt lat="43.64449" lon="1.39267">
        <ele>130</ele>
        <time>2025-01-10T11:50:52Z</time>
      </trkpt>
      <trkpt lat="43.64448" lon="1.39264">
        <ele>130</ele>
        <time>2025-01-10T11:50:53Z</time>
      </trkpt>
      <trkpt lat="43.64447" lon="1.3926">
        <ele>130</ele>
        <time>2025-01-10T11:50:54Z</time>
      </trkpt>
      <trkpt lat="43.64446" lon="1.39257">
        <ele>130</ele>
        <time>2025-01-10T11:50:55Z</time>
      </trkpt>
      <trkpt lat="43.64445" lon="1.39254">
        <ele>130</ele>
        <time>2025-01-10T11:50:56Z</time>
      </trkpt>
      <trkpt lat="43.64445" lon="1.39254">
        <ele>130</ele>
        <time>2025-01-10T11:50:57Z</time>
      </trkpt>
      <trkpt lat="43.64442" lon="1.39248">
        <ele>130</ele>
        <time>2025-01-10T11:50:58Z</time>
      </trkpt>
      <trkpt lat="43.64441" lon="1.39246">
        <ele>130</ele>
        <time>2025-01-10T11:50:59Z</time>
      </trkpt>
      <trkpt lat="43.6444" lon="1.39243">
        <ele>130</ele>
        <time>2025-01-10T11:51:00Z</time>
      </trkpt>
      <trkpt lat="43.64438" lon="1.39241">
        <ele>130</ele>
        <time>2025-01-10T11:51:01Z</time>
      </trkpt>
      <trkpt lat="43.64437" lon="1.39238">
        <ele>130</ele>
        <time>2025-01-10T11:51:02Z</time>
      </trkpt>
      <trkpt lat="43.64435" lon="1.39235">
        <ele>130</ele>
        <time>2025-01-10T11:51:03Z</time>
      </trkpt>
      <trkpt lat="43.64434" lon="1.39232">
        <ele>131</ele>
        <time>2025-01-10T11:51:04Z</time>
      </trkpt>
      <trkpt lat="43.64432" lon="1.39231">
        <ele>131</ele>
        <time>2025-01-10T11:51:05Z</time>
      </trkpt>
      <trkpt lat="43.64431" lon="1.39229">
        <ele>131</ele>
        <time>2025-01-10T11:51:06Z</time>
      </trkpt>
      <trkpt lat="43.64431" lon="1.39229">
        <ele>131</ele>
        <time>2025-01-10T11:51:07Z</time>
      </trkpt>
      <trkpt lat="43.64429" lon="1.39225">
        <ele>131</ele>
        <time>2025-01-10T11:51:08Z</time>
      </trkpt>
      <trkpt lat="43.64429" lon="1.39225">
        <ele>131</ele>
        <time>2025-01-10T11:51:09Z</time>
      </trkpt>
      <trkpt lat="43.64427" lon="1.39222">
        <ele>131</ele>
        <time>2025-01-10T11:51:10Z</time>
      </trkpt>
      <trkpt lat="43.64426" lon="1.3922">
        <ele>131</ele>
        <time>2025-01-10T11:51:11Z</time>
      </trkpt>
      <trkpt lat="43.64426" lon="1.3922">
        <ele>131</ele>
        <time>2025-01-10T11:51:12Z</time>
      </trkpt>
      <trkpt lat="43.64425" lon="1.39216">
        <ele>131</ele>
        <time>2025-01-10T11:51:13Z</time>
      </trkpt>
      <trkpt lat="43.64425" lon="1.39216">
        <ele>131</ele>
        <time>2025-01-10T11:51:14Z</time>
      </trkpt>
      <trkpt lat="43.64423" lon="1.39213">
        <ele>131</ele>
        <time>2025-01-10T11:51:15Z</time>
      </trkpt>
      <trkpt lat="43.64423" lon="1.39213">
        <ele>131</ele>
        <time>2025-01-10T11:51:16Z</time>
      </trkpt>
      <trkpt lat="43.64421" lon="1.39208">
        <ele>131</ele>
        <time>2025-01-10T11:51:17Z</time>
      </trkpt>
      <trkpt lat="43.6442" lon="1.39207">
        <ele>131</ele>
        <time>2025-01-10T11:51:18Z</time>
      </trkpt>
      <trkpt lat="43.6442" lon="1.39207">
        <ele>132</ele>
        <time>2025-01-10T11:51:19Z</time>
      </trkpt>
      <trkpt lat="43.64419" lon="1.39204">
        <ele>132</ele>
        <time>2025-01-10T11:51:20Z</time>
      </trkpt>
      <trkpt lat="43.64419" lon="1.39204">
        <ele>132</ele>
        <time>2025-01-10T11:51:21Z</time>
      </trkpt>
      <trkpt lat="43.64417" lon="1.392">
        <ele>133</ele>
        <time>2025-01-10T11:51:22Z</time>
      </trkpt>
      <trkpt lat="43.64417" lon="1.392">
        <ele>133</ele>
        <time>2025-01-10T11:51:23Z</time>
      </trkpt>
      <trkpt lat="43.64416" lon="1.39196">
        <ele>133</ele>
        <time>2025-01-10T11:51:24Z</time>
      </trkpt>
      <trkpt lat="43.64415" lon="1.39194">
        <ele>133</ele>
        <time>2025-01-10T11:51:25Z</time>
      </trkpt>
      <trkpt lat="43.64415" lon="1.39194">
        <ele>133</ele>
        <time>2025-01-10T11:51:26Z</time>
      </trkpt>
      <trkpt lat="43.64414" lon="1.3919">
        <ele>133</ele>
        <time>2025-01-10T11:51:27Z</time>
      </trkpt>
      <trkpt lat="43.64414" lon="1.3919">
        <ele>133</ele>
        <time>2025-01-10T11:51:28Z</time>
      </trkpt>
      <trkpt lat="43.64413" lon="1.39186">
        <ele>133</ele>
        <time>2025-01-10T11:51:29Z</time>
      </trkpt>
      <trkpt lat="43.64413" lon="1.39186">
        <ele>134</ele>
        <time>2025-01-10T11:51:30Z</time>
      </trkpt>
      <trkpt lat="43.64412" lon="1.39182">
        <ele>134</ele>
        <time>2025-01-10T11:51:31Z</time>
      </trkpt>
      <trkpt lat="43.64412" lon="1.39182">
        <ele>134</ele>
        <time>2025-01-10T11:51:32Z</time>
      </trkpt>
      <trkpt lat="43.64411" lon="1.39178">
        <ele>134</ele>
        <time>2025-01-10T11:51:33Z</time>
      </trkpt>
      <trkpt lat="43.64411" lon="1.39178">
        <ele>134</ele>
        <time>2025-01-10T11:51:34Z</time>
      </trkpt>
      <trkpt lat="43.64411" lon="1.39178">
        <ele>135</ele>
        <time>2025-01-10T11:51:35Z</time>
      </trkpt>
      <trkpt lat="43.64411" lon="1.39174">
        <ele>135</ele>
        <time>2025-01-10T11:51:36Z</time>
      </trkpt>
      <trkpt lat="43.64411" lon="1.3917">
        <ele>135</ele>
        <time>2025-01-10T11:51:37Z</time>
      </trkpt>
      <trkpt lat="43.64411" lon="1.3917">
        <ele>135</ele>
        <time>2025-01-10T11:51:38Z</time>
      </trkpt>
      <trkpt lat="43.64411" lon="1.39166">
        <ele>136</ele>
        <time>2025-01-10T11:51:39Z</time>
      </trkpt>
      <trkpt lat="43.64411" lon="1.39166">
        <ele>136</ele>
        <time>2025-01-10T11:51:40Z</time>
      </trkpt>
      <trkpt lat="43.64411" lon="1.39163">
        <ele>136</ele>
        <time>2025-01-10T11:51:41Z</time>
      </trkpt>
      <trkpt lat="43.64411" lon="1.39163">
        <ele>136</ele>
        <time>2025-01-10T11:51:42Z</time>
      </trkpt>
      <trkpt lat="43.64412" lon="1.39159">
        <ele>136</ele>
        <time>2025-01-10T11:51:43Z</time>
      </trkpt>
      <trkpt lat="43.64412" lon="1.39159">
        <ele>136</ele>
        <time>2025-01-10T11:51:44Z</time>
      </trkpt>
      <trkpt lat="43.64412" lon="1.39155">
        <ele>136</ele>
        <time>2025-01-10T11:51:45Z</time>
      </trkpt>
      <trkpt lat="43.64412" lon="1.39155">
        <ele>136</ele>
        <time>2025-01-10T11:51:46Z</time>
      </trkpt>
      <trkpt lat="43.64413" lon="1.39151">
        <ele>136</ele>
        <time>2025-01-10T11:51:47Z</time>
      </trkpt>
      <trkpt lat="43.64413" lon="1.39151">
        <ele>137</ele>
        <time>2025-01-10T11:51:48Z</time>
      </trkpt>
      <trkpt lat="43.64413" lon="1.39147">
        <ele>137</ele>
        <time>2025-01-10T11:51:49Z</time>
      </trkpt>
      <trkpt lat="43.64413" lon="1.39147">
        <ele>137</ele>
        <time>2025-01-10T11:51:50Z</time>
      </trkpt>
      <trkpt lat="43.64413" lon="1.39143">
        <ele>137</ele>
        <time>2025-01-10T11:51:51Z</time>
      </trkpt>
      <trkpt lat="43.64413" lon="1.39143">
        <ele>137</ele>
        <time>2025-01-10T11:51:52Z</time>
      </trkpt>
      <trkpt lat="43.64412" lon="1.39138">
        <ele>137</ele>
        <time>2025-01-10T11:51:53Z</time>
      </trkpt>
      <trkpt lat="43.64412" lon="1.39137">
        <ele>137</ele>
        <time>2025-01-10T11:51:54Z</time>
      </trkpt>
      <trkpt lat="43.64412" lon="1.39136">
        <ele>138</ele>
        <time>2025-01-10T11:51:55Z</time>
      </trkpt>
      <trkpt lat="43.64412" lon="1.39132">
        <ele>138</ele>
        <time>2025-01-10T11:51:56Z</time>
      </trkpt>
      <trkpt lat="43.64413" lon="1.3913">
        <ele>139</ele>
        <time>2025-01-10T11:51:57Z</time>
      </trkpt>
      <trkpt lat="43.64414" lon="1.39127">
        <ele>139</ele>
        <time>2025-01-10T11:51:58Z</time>
      </trkpt>
      <trkpt lat="43.64415" lon="1.39125">
        <ele>139</ele>
        <time>2025-01-10T11:51:59Z</time>
      </trkpt>
      <trkpt lat="43.64415" lon="1.39125">
        <ele>139</ele>
        <time>2025-01-10T11:52:00Z</time>
      </trkpt>
      <trkpt lat="43.64417" lon="1.39121">
        <ele>139</ele>
        <time>2025-01-10T11:52:01Z</time>
      </trkpt>
      <trkpt lat="43.64418" lon="1.39119">
        <ele>139</ele>
        <time>2025-01-10T11:52:02Z</time>
      </trkpt>
      <trkpt lat="43.64419" lon="1.39117">
        <ele>139</ele>
        <time>2025-01-10T11:52:03Z</time>
      </trkpt>
      <trkpt lat="43.6442" lon="1.39115">
        <ele>140</ele>
        <time>2025-01-10T11:52:04Z</time>
      </trkpt>
      <trkpt lat="43.6442" lon="1.39115">
        <ele>140</ele>
        <time>2025-01-10T11:52:05Z</time>
      </trkpt>
      <trkpt lat="43.64422" lon="1.39112">
        <ele>140</ele>
        <time>2025-01-10T11:52:06Z</time>
      </trkpt>
      <trkpt lat="43.64422" lon="1.39112">
        <ele>141</ele>
        <time>2025-01-10T11:52:07Z</time>
      </trkpt>
      <trkpt lat="43.64424" lon="1.39108">
        <ele>141</ele>
        <time>2025-01-10T11:52:08Z</time>
      </trkpt>
      <trkpt lat="43.64424" lon="1.39108">
        <ele>141</ele>
        <time>2025-01-10T11:52:09Z</time>
      </trkpt>
      <trkpt lat="43.64425" lon="1.39106">
        <ele>141</ele>
        <time>2025-01-10T11:52:10Z</time>
      </trkpt>
      <trkpt lat="43.64425" lon="1.39106">
        <ele>141</ele>
        <time>2025-01-10T11:52:11Z</time>
      </trkpt>
      <trkpt lat="43.64427" lon="1.39103">
        <ele>141</ele>
        <time>2025-01-10T11:52:12Z</time>
      </trkpt>
      <trkpt lat="43.64427" lon="1.39103">
        <ele>141</ele>
        <time>2025-01-10T11:52:13Z</time>
      </trkpt>
      <trkpt lat="43.64429" lon="1.391">
        <ele>141</ele>
        <time>2025-01-10T11:52:14Z</time>
      </trkpt>
      <trkpt lat="43.64429" lon="1.391">
        <ele>141</ele>
        <time>2025-01-10T11:52:15Z</time>
      </trkpt>
      <trkpt lat="43.64431" lon="1.39096">
        <ele>142</ele>
        <time>2025-01-10T11:52:16Z</time>
      </trkpt>
      <trkpt lat="43.64431" lon="1.39096">
        <ele>142</ele>
        <time>2025-01-10T11:52:17Z</time>
      </trkpt>
      <trkpt lat="43.64433" lon="1.39092">
        <ele>142</ele>
        <time>2025-01-10T11:52:18Z</time>
      </trkpt>
      <trkpt lat="43.64434" lon="1.3909">
        <ele>142</ele>
        <time>2025-01-10T11:52:19Z</time>
      </trkpt>
      <trkpt lat="43.64435" lon="1.39087">
        <ele>142</ele>
        <time>2025-01-10T11:52:20Z</time>
      </trkpt>
      <trkpt lat="43.64436" lon="1.39084">
        <ele>143</ele>
        <time>2025-01-10T11:52:21Z</time>
      </trkpt>
      <trkpt lat="43.64437" lon="1.39082">
        <ele>143</ele>
        <time>2025-01-10T11:52:22Z</time>
      </trkpt>
      <trkpt lat="43.64437" lon="1.39082">
        <ele>143</ele>
        <time>2025-01-10T11:52:23Z</time>
      </trkpt>
      <trkpt lat="43.6444" lon="1.39076">
        <ele>143</ele>
        <time>2025-01-10T11:52:24Z</time>
      </trkpt>
      <trkpt lat="43.64441" lon="1.39073">
        <ele>143</ele>
        <time>2025-01-10T11:52:25Z</time>
      </trkpt>
      <trkpt lat="43.64442" lon="1.39071">
        <ele>143</ele>
        <time>2025-01-10T11:52:26Z</time>
      </trkpt>
      <trkpt lat="43.64444" lon="1.39068">
        <ele>143</ele>
        <time>2025-01-10T11:52:27Z</time>
      </trkpt>
      <trkpt lat="43.64445" lon="1.39066">
        <ele>143</ele>
        <time>2025-01-10T11:52:28Z</time>
      </trkpt>
      <trkpt lat="43.64447" lon="1.39064">
        <ele>143</ele>
        <time>2025-01-10T11:52:29Z</time>
      </trkpt>
      <trkpt lat="43.64449" lon="1.39061">
        <ele>143</ele>
        <time>2025-01-10T11:52:30Z</time>
      </trkpt>
      <trkpt lat="43.64451" lon="1.39058">
        <ele>143</ele>
        <time>2025-01-10T11:52:31Z</time>
      </trkpt>
      <trkpt lat="43.64454" lon="1.39053">
        <ele>143</ele>
        <time>2025-01-10T11:52:33Z</time>
      </trkpt>
      <trkpt lat="43.64456" lon="1.39051">
        <ele>143</ele>
        <time>2025-01-10T11:52:34Z</time>
      </trkpt>
      <trkpt lat="43.64458" lon="1.39048">
        <ele>143</ele>
        <time>2025-01-10T11:52:35Z</time>
      </trkpt>
      <trkpt lat="43.6446" lon="1.39045">
        <ele>143</ele>
        <time>2025-01-10T11:52:36Z</time>
      </trkpt>
      <trkpt lat="43.64462" lon="1.39043">
        <ele>143</ele>
        <time>2025-01-10T11:52:37Z</time>
      </trkpt>
      <trkpt lat="43.64464" lon="1.39042">
        <ele>144</ele>
        <time>2025-01-10T11:52:38Z</time>
      </trkpt>
      <trkpt lat="43.64467" lon="1.39041">
        <ele>144</ele>
        <time>2025-01-10T11:52:39Z</time>
      </trkpt>
      <trkpt lat="43.6447" lon="1.3904">
        <ele>144</ele>
        <time>2025-01-10T11:52:40Z</time>
      </trkpt>
      <trkpt lat="43.64473" lon="1.3904">
        <ele>144</ele>
        <time>2025-01-10T11:52:41Z</time>
      </trkpt>
      <trkpt lat="43.64475" lon="1.39039">
        <ele>143</ele>
        <time>2025-01-10T11:52:42Z</time>
      </trkpt>
      <trkpt lat="43.64478" lon="1.39038">
        <ele>143</ele>
        <time>2025-01-10T11:52:43Z</time>
      </trkpt>
      <trkpt lat="43.6448" lon="1.39036">
        <ele>143</ele>
        <time>2025-01-10T11:52:44Z</time>
      </trkpt>
      <trkpt lat="43.64482" lon="1.39033">
        <ele>143</ele>
        <time>2025-01-10T11:52:45Z</time>
      </trkpt>
      <trkpt lat="43.64483" lon="1.3903">
        <ele>143</ele>
        <time>2025-01-10T11:52:46Z</time>
      </trkpt>
      <trkpt lat="43.64484" lon="1.39027">
        <ele>143</ele>
        <time>2025-01-10T11:52:47Z</time>
      </trkpt>
      <trkpt lat="43.64485" lon="1.39024">
        <ele>144</ele>
        <time>2025-01-10T11:52:48Z</time>
      </trkpt>
      <trkpt lat="43.64487" lon="1.39021">
        <ele>144</ele>
        <time>2025-01-10T11:52:49Z</time>
      </trkpt>
      <trkpt lat="43.64488" lon="1.39018">
        <ele>144</ele>
        <time>2025-01-10T11:52:50Z</time>
      </trkpt>
      <trkpt lat="43.64488" lon="1.39014">
        <ele>144</ele>
        <time>2025-01-10T11:52:51Z</time>
      </trkpt>
      <trkpt lat="43.64489" lon="1.39011">
        <ele>144</ele>
        <time>2025-01-10T11:52:52Z</time>
      </trkpt>
      <trkpt lat="43.6449" lon="1.39007">
        <ele>144</ele>
        <time>2025-01-10T11:52:53Z</time>
      </trkpt>
      <trkpt lat="43.64491" lon="1.39004">
        <ele>144</ele>
        <time>2025-01-10T11:52:54Z</time>
      </trkpt>
      <trkpt lat="43.64491" lon="1.39001">
        <ele>144</ele>
        <time>2025-01-10T11:52:55Z</time>
      </trkpt>
      <trkpt lat="43.64492" lon="1.38998">
        <ele>144</ele>
        <time>2025-01-10T11:52:56Z</time>
      </trkpt>
      <trkpt lat="43.64493" lon="1.38995">
        <ele>144</ele>
        <time>2025-01-10T11:52:57Z</time>
      </trkpt>
      <trkpt lat="43.64494" lon="1.38992">
        <ele>144</ele>
        <time>2025-01-10T11:52:58Z</time>
      </trkpt>
      <trkpt lat="43.64495" lon="1.38989">
        <ele>144</ele>
        <time>2025-01-10T11:52:59Z</time>
      </trkpt>
      <trkpt lat="43.64496" lon="1.38986">
        <ele>144</ele>
        <time>2025-01-10T11:53:00Z</time>
      </trkpt>
      <trkpt lat="43.64498" lon="1.38983">
        <ele>144</ele>
        <time>2025-01-10T11:53:01Z</time>
      </trkpt>
      <trkpt lat="43.64499" lon="1.3898">
        <ele>144</ele>
        <time>2025-01-10T11:53:02Z</time>
      </trkpt>
      <trkpt lat="43.645" lon="1.38976">
        <ele>144</ele>
        <time>2025-01-10T11:53:03Z</time>
      </trkpt>
      <trkpt lat="43.64501" lon="1.38973">
        <ele>145</ele>
        <time>2025-01-10T11:53:04Z</time>
      </trkpt>
      <trkpt lat="43.64502" lon="1.38969">
        <ele>145</ele>
        <time>2025-01-10T11:53:05Z</time>
      </trkpt>
      <trkpt lat="43.64503" lon="1.38966">
        <ele>145</ele>
        <time>2025-01-10T11:53:06Z</time>
      </trkpt>
      <trkpt lat="43.64504" lon="1.38963">
        <ele>145</ele>
        <time>2025-01-10T11:53:07Z</time>
      </trkpt>
      <trkpt lat="43.64505" lon="1.3896">
        <ele>145</ele>
        <time>2025-01-10T11:53:08Z</time>
      </trkpt>
      <trkpt lat="43.64507" lon="1.38957">
        <ele>145</ele>
        <time>2025-01-10T11:53:09Z</time>
      </trkpt>
      <trkpt lat="43.64508" lon="1.38953">
        <ele>144</ele>
        <time>2025-01-10T11:53:10Z</time>
      </trkpt>
      <trkpt lat="43.64509" lon="1.3895">
        <ele>144</ele>
        <time>2025-01-10T11:53:11Z</time>
      </trkpt>
      <trkpt lat="43.6451" lon="1.38947">
        <ele>144</ele>
        <time>2025-01-10T11:53:12Z</time>
      </trkpt>
      <trkpt lat="43.64511" lon="1.38944">
        <ele>145</ele>
        <time>2025-01-10T11:53:13Z</time>
      </trkpt>
      <trkpt lat="43.64512" lon="1.3894">
        <ele>145</ele>
        <time>2025-01-10T11:53:14Z</time>
      </trkpt>
      <trkpt lat="43.64513" lon="1.38937">
        <ele>144</ele>
        <time>2025-01-10T11:53:15Z</time>
      </trkpt>
      <trkpt lat="43.64514" lon="1.38934">
        <ele>144</ele>
        <time>2025-01-10T11:53:16Z</time>
      </trkpt>
      <trkpt lat="43.64515" lon="1.3893">
        <ele>144</ele>
        <time>2025-01-10T11:53:17Z</time>
      </trkpt>
      <trkpt lat="43.64516" lon="1.38926">
        <ele>144</ele>
        <time>2025-01-10T11:53:18Z</time>
      </trkpt>
      <trkpt lat="43.64516" lon="1.38922">
        <ele>144</ele>
        <time>2025-01-10T11:53:19Z</time>
      </trkpt>
      <trkpt lat="43.64516" lon="1.38918">
        <ele>144</ele>
        <time>2025-01-10T11:53:20Z</time>
      </trkpt>
      <trkpt lat="43.64516" lon="1.38918">
        <ele>144</ele>
        <time>2025-01-10T11:53:21Z</time>
      </trkpt>
      <trkpt lat="43.64515" lon="1.38911">
        <ele>144</ele>
        <time>2025-01-10T11:53:22Z</time>
      </trkpt>
      <trkpt lat="43.64515" lon="1.38908">
        <ele>144</ele>
        <time>2025-01-10T11:53:23Z</time>
      </trkpt>
      <trkpt lat="43.64514" lon="1.38905">
        <ele>144</ele>
        <time>2025-01-10T11:53:24Z</time>
      </trkpt>
      <trkpt lat="43.64513" lon="1.38901">
        <ele>144</ele>
        <time>2025-01-10T11:53:25Z</time>
      </trkpt>
      <trkpt lat="43.64512" lon="1.38897">
        <ele>144</ele>
        <time>2025-01-10T11:53:26Z</time>
      </trkpt>
      <trkpt lat="43.6451" lon="1.38893">
        <ele>144</ele>
        <time>2025-01-10T11:53:27Z</time>
      </trkpt>
      <trkpt lat="43.6451" lon="1.3889">
        <ele>144</ele>
        <time>2025-01-10T11:53:28Z</time>
      </trkpt>
      <trkpt lat="43.6451" lon="1.3889">
        <ele>144</ele>
        <time>2025-01-10T11:53:29Z</time>
      </trkpt>
      <trkpt lat="43.64509" lon="1.38883">
        <ele>144</ele>
        <time>2025-01-10T11:53:30Z</time>
      </trkpt>
      <trkpt lat="43.64509" lon="1.3888">
        <ele>144</ele>
        <time>2025-01-10T11:53:31Z</time>
      </trkpt>
      <trkpt lat="43.64509" lon="1.38876">
        <ele>144</ele>
        <time>2025-01-10T11:53:32Z</time>
      </trkpt>
      <trkpt lat="43.64508" lon="1.38872">
        <ele>144</ele>
        <time>2025-01-10T11:53:33Z</time>
      </trkpt>
      <trkpt lat="43.64508" lon="1.38868">
        <ele>145</ele>
        <time>2025-01-10T11:53:34Z</time>
      </trkpt>
      <trkpt lat="43.64508" lon="1.38865">
        <ele>145</ele>
        <time>2025-01-10T11:53:35Z</time>
      </trkpt>
      <trkpt lat="43.64509" lon="1.38861">
        <ele>145</ele>
        <time>2025-01-10T11:53:36Z</time>
      </trkpt>
      <trkpt lat="43.64511" lon="1.38858">
        <ele>145</ele>
        <time>2025-01-10T11:53:37Z</time>
      </trkpt>
      <trkpt lat="43.64513" lon="1.38856">
        <ele>145</ele>
        <time>2025-01-10T11:53:38Z</time>
      </trkpt>
      <trkpt lat="43.64515" lon="1.38854">
        <ele>145</ele>
        <time>2025-01-10T11:53:39Z</time>
      </trkpt>
      <trkpt lat="43.64515" lon="1.38854">
        <ele>145</ele>
        <time>2025-01-10T11:53:40Z</time>
      </trkpt>
      <trkpt lat="43.6452" lon="1.38852">
        <ele>145</ele>
        <time>2025-01-10T11:53:41Z</time>
      </trkpt>
      <trkpt lat="43.64523" lon="1.3885">
        <ele>145</ele>
        <time>2025-01-10T11:53:42Z</time>
      </trkpt>
      <trkpt lat="43.64525" lon="1.38849">
        <ele>145</ele>
        <time>2025-01-10T11:53:43Z</time>
      </trkpt>
      <trkpt lat="43.64527" lon="1.38847">
        <ele>145</ele>
        <time>2025-01-10T11:53:44Z</time>
      </trkpt>
      <trkpt lat="43.6453" lon="1.38846">
        <ele>144</ele>
        <time>2025-01-10T11:53:45Z</time>
      </trkpt>
      <trkpt lat="43.64532" lon="1.38846">
        <ele>144</ele>
        <time>2025-01-10T11:53:46Z</time>
      </trkpt>
      <trkpt lat="43.64534" lon="1.38846">
        <ele>144</ele>
        <time>2025-01-10T11:53:47Z</time>
      </trkpt>
      <trkpt lat="43.64534" lon="1.38846">
        <ele>145</ele>
        <time>2025-01-10T11:53:48Z</time>
      </trkpt>
      <trkpt lat="43.64539" lon="1.38844">
        <ele>145</ele>
        <time>2025-01-10T11:53:49Z</time>
      </trkpt>
      <trkpt lat="43.64541" lon="1.38843">
        <ele>145</ele>
        <time>2025-01-10T11:53:50Z</time>
      </trkpt>
      <trkpt lat="43.64544" lon="1.38842">
        <ele>144</ele>
        <time>2025-01-10T11:53:51Z</time>
      </trkpt>
      <trkpt lat="43.64547" lon="1.38842">
        <ele>144</ele>
        <time>2025-01-10T11:53:52Z</time>
      </trkpt>
      <trkpt lat="43.64549" lon="1.38842">
        <ele>144</ele>
        <time>2025-01-10T11:53:53Z</time>
      </trkpt>
      <trkpt lat="43.64551" lon="1.38841">
        <ele>144</ele>
        <time>2025-01-10T11:53:54Z</time>
      </trkpt>
      <trkpt lat="43.64554" lon="1.38841">
        <ele>144</ele>
        <time>2025-01-10T11:53:55Z</time>
      </trkpt>
      <trkpt lat="43.64556" lon="1.38841">
        <ele>144</ele>
        <time>2025-01-10T11:53:56Z</time>
      </trkpt>
      <trkpt lat="43.64559" lon="1.3884">
        <ele>145</ele>
        <time>2025-01-10T11:53:57Z</time>
      </trkpt>
      <trkpt lat="43.64562" lon="1.38839">
        <ele>145</ele>
        <time>2025-01-10T11:53:58Z</time>
      </trkpt>
      <trkpt lat="43.64564" lon="1.38839">
        <ele>145</ele>
        <time>2025-01-10T11:53:59Z</time>
      </trkpt>
      <trkpt lat="43.64566" lon="1.38839">
        <ele>145</ele>
        <time>2025-01-10T11:54:00Z</time>
      </trkpt>
      <trkpt lat="43.64568" lon="1.38838">
        <ele>145</ele>
        <time>2025-01-10T11:54:01Z</time>
      </trkpt>
      <trkpt lat="43.64571" lon="1.38838">
        <ele>145</ele>
        <time>2025-01-10T11:54:02Z</time>
      </trkpt>
      <trkpt lat="43.64573" lon="1.38838">
        <ele>144</ele>
        <time>2025-01-10T11:54:03Z</time>
      </trkpt>
      <trkpt lat="43.64576" lon="1.38837">
        <ele>145</ele>
        <time>2025-01-10T11:54:04Z</time>
      </trkpt>
      <trkpt lat="43.64578" lon="1.38837">
        <ele>145</ele>
        <time>2025-01-10T11:54:05Z</time>
      </trkpt>
      <trkpt lat="43.6458" lon="1.38836">
        <ele>145</ele>
        <time>2025-01-10T11:54:06Z</time>
      </trkpt>
      <trkpt lat="43.6458" lon="1.38836">
        <ele>145</ele>
        <time>2025-01-10T11:54:07Z</time>
      </trkpt>
      <trkpt lat="43.64585" lon="1.38836">
        <ele>145</ele>
        <time>2025-01-10T11:54:08Z</time>
      </trkpt>
      <trkpt lat="43.64587" lon="1.38836">
        <ele>145</ele>
        <time>2025-01-10T11:54:09Z</time>
      </trkpt>
      <trkpt lat="43.6459" lon="1.38835">
        <ele>145</ele>
        <time>2025-01-10T11:54:10Z</time>
      </trkpt>
      <trkpt lat="43.64592" lon="1.38835">
        <ele>145</ele>
        <time>2025-01-10T11:54:11Z</time>
      </trkpt>
      <trkpt lat="43.64595" lon="1.38834">
        <ele>145</ele>
        <time>2025-01-10T11:54:12Z</time>
      </trkpt>
      <trkpt lat="43.64598" lon="1.38834">
        <ele>145</ele>
        <time>2025-01-10T11:54:13Z</time>
      </trkpt>
      <trkpt lat="43.64601" lon="1.38834">
        <ele>145</ele>
        <time>2025-01-10T11:54:14Z</time>
      </trkpt>
      <trkpt lat="43.64603" lon="1.38834">
        <ele>145</ele>
        <time>2025-01-10T11:54:15Z</time>
      </trkpt>
      <trkpt lat="43.64605" lon="1.38834">
        <ele>145</ele>
        <time>2025-01-10T11:54:16Z</time>
      </trkpt>
      <trkpt lat="43.64608" lon="1.38833">
        <ele>145</ele>
        <time>2025-01-10T11:54:17Z</time>
      </trkpt>
      <trkpt lat="43.6461" lon="1.38833">
        <ele>145</ele>
        <time>2025-01-10T11:54:18Z</time>
      </trkpt>
      <trkpt lat="43.64613" lon="1.38832">
        <ele>145</ele>
        <time>2025-01-10T11:54:19Z</time>
      </trkpt>
      <trkpt lat="43.64615" lon="1.38831">
        <ele>145</ele>
        <time>2025-01-10T11:54:20Z</time>
      </trkpt>
      <trkpt lat="43.64618" lon="1.3883">
        <ele>145</ele>
        <time>2025-01-10T11:54:21Z</time>
      </trkpt>
      <trkpt lat="43.64618" lon="1.3883">
        <ele>145</ele>
        <time>2025-01-10T11:54:22Z</time>
      </trkpt>
      <trkpt lat="43.64623" lon="1.38827">
        <ele>145</ele>
        <time>2025-01-10T11:54:23Z</time>
      </trkpt>
      <trkpt lat="43.64624" lon="1.38826">
        <ele>145</ele>
        <time>2025-01-10T11:54:24Z</time>
      </trkpt>
      <trkpt lat="43.64626" lon="1.38825">
        <ele>145</ele>
        <time>2025-01-10T11:54:25Z</time>
      </trkpt>
      <trkpt lat="43.64626" lon="1.38825">
        <ele>145</ele>
        <time>2025-01-10T11:54:26Z</time>
      </trkpt>
      <trkpt lat="43.6463" lon="1.38824">
        <ele>145</ele>
        <time>2025-01-10T11:54:27Z</time>
      </trkpt>
      <trkpt lat="43.64633" lon="1.38823">
        <ele>145</ele>
        <time>2025-01-10T11:54:28Z</time>
      </trkpt>
      <trkpt lat="43.64636" lon="1.38822">
        <ele>145</ele>
        <time>2025-01-10T11:54:29Z</time>
      </trkpt>
      <trkpt lat="43.64638" lon="1.38822">
        <ele>145</ele>
        <time>2025-01-10T11:54:30Z</time>
      </trkpt>
      <trkpt lat="43.6464" lon="1.38821">
        <ele>145</ele>
        <time>2025-01-10T11:54:31Z</time>
      </trkpt>
      <trkpt lat="43.64643" lon="1.38819">
        <ele>145</ele>
        <time>2025-01-10T11:54:32Z</time>
      </trkpt>
      <trkpt lat="43.64645" lon="1.38817">
        <ele>145</ele>
        <time>2025-01-10T11:54:33Z</time>
      </trkpt>
      <trkpt lat="43.64647" lon="1.38816">
        <ele>145</ele>
        <time>2025-01-10T11:54:34Z</time>
      </trkpt>
      <trkpt lat="43.6465" lon="1.38814">
        <ele>145</ele>
        <time>2025-01-10T11:54:35Z</time>
      </trkpt>
      <trkpt lat="43.64652" lon="1.38813">
        <ele>145</ele>
        <time>2025-01-10T11:54:36Z</time>
      </trkpt>
      <trkpt lat="43.64655" lon="1.38812">
        <ele>145</ele>
        <time>2025-01-10T11:54:37Z</time>
      </trkpt>
      <trkpt lat="43.64658" lon="1.38811">
        <ele>145</ele>
        <time>2025-01-10T11:54:38Z</time>
      </trkpt>
      <trkpt lat="43.6466" lon="1.38811">
        <ele>145</ele>
        <time>2025-01-10T11:54:39Z</time>
      </trkpt>
      <trkpt lat="43.64663" lon="1.3881">
        <ele>145</ele>
        <time>2025-01-10T11:54:40Z</time>
      </trkpt>
      <trkpt lat="43.64665" lon="1.38809">
        <ele>145</ele>
        <time>2025-01-10T11:54:41Z</time>
      </trkpt>
      <trkpt lat="43.64667" lon="1.38809">
        <ele>145</ele>
        <time>2025-01-10T11:54:42Z</time>
      </trkpt>
      <trkpt lat="43.64669" lon="1.38808">
        <ele>145</ele>
        <time>2025-01-10T11:54:43Z</time>
      </trkpt>
      <trkpt lat="43.64672" lon="1.38807">
        <ele>145</ele>
        <time>2025-01-10T11:54:44Z</time>
      </trkpt>
      <trkpt lat="43.64675" lon="1.38806">
        <ele>146</ele>
        <time>2025-01-10T11:54:45Z</time>
      </trkpt>
      <trkpt lat="43.64678" lon="1.38805">
        <ele>146</ele>
        <time>2025-01-10T11:54:46Z</time>
      </trkpt>
      <trkpt lat="43.6468" lon="1.38804">
        <ele>146</ele>
        <time>2025-01-10T11:54:47Z</time>
      </trkpt>
      <trkpt lat="43.64683" lon="1.38803">
        <ele>146</ele>
        <time>2025-01-10T11:54:48Z</time>
      </trkpt>
      <trkpt lat="43.64686" lon="1.38802">
        <ele>146</ele>
        <time>2025-01-10T11:54:49Z</time>
      </trkpt>
      <trkpt lat="43.64688" lon="1.38801">
        <ele>146</ele>
        <time>2025-01-10T11:54:50Z</time>
      </trkpt>
      <trkpt lat="43.6469" lon="1.388">
        <ele>145</ele>
        <time>2025-01-10T11:54:51Z</time>
      </trkpt>
      <trkpt lat="43.64693" lon="1.38799">
        <ele>145</ele>
        <time>2025-01-10T11:54:52Z</time>
      </trkpt>
      <trkpt lat="43.64695" lon="1.38798">
        <ele>145</ele>
        <time>2025-01-10T11:54:53Z</time>
      </trkpt>
      <trkpt lat="43.64697" lon="1.38796">
        <ele>145</ele>
        <time>2025-01-10T11:54:54Z</time>
      </trkpt>
      <trkpt lat="43.647" lon="1.38794">
        <ele>145</ele>
        <time>2025-01-10T11:54:55Z</time>
      </trkpt>
      <trkpt lat="43.64703" lon="1.38792">
        <ele>145</ele>
        <time>2025-01-10T11:54:56Z</time>
      </trkpt>
      <trkpt lat="43.64706" lon="1.38791">
        <ele>145</ele>
        <time>2025-01-10T11:54:57Z</time>
      </trkpt>
      <trkpt lat="43.64709" lon="1.3879">
        <ele>145</ele>
        <time>2025-01-10T11:54:58Z</time>
      </trkpt>
      <trkpt lat="43.64712" lon="1.38789">
        <ele>145</ele>
        <time>2025-01-10T11:54:59Z</time>
      </trkpt>
      <trkpt lat="43.64715" lon="1.38788">
        <ele>145</ele>
        <time>2025-01-10T11:55:00Z</time>
      </trkpt>
      <trkpt lat="43.64717" lon="1.38786">
        <ele>145</ele>
        <time>2025-01-10T11:55:01Z</time>
      </trkpt>
      <trkpt lat="43.6472" lon="1.38785">
        <ele>145</ele>
        <time>2025-01-10T11:55:02Z</time>
      </trkpt>
      <trkpt lat="43.64722" lon="1.38783">
        <ele>144</ele>
        <time>2025-01-10T11:55:03Z</time>
      </trkpt>
      <trkpt lat="43.64725" lon="1.38781">
        <ele>144</ele>
        <time>2025-01-10T11:55:04Z</time>
      </trkpt>
      <trkpt lat="43.64727" lon="1.3878">
        <ele>145</ele>
        <time>2025-01-10T11:55:05Z</time>
      </trkpt>
      <trkpt lat="43.64729" lon="1.38778">
        <ele>145</ele>
        <time>2025-01-10T11:55:06Z</time>
      </trkpt>
      <trkpt lat="43.64732" lon="1.38776">
        <ele>145</ele>
        <time>2025-01-10T11:55:07Z</time>
      </trkpt>
      <trkpt lat="43.64734" lon="1.38775">
        <ele>145</ele>
        <time>2025-01-10T11:55:08Z</time>
      </trkpt>
      <trkpt lat="43.64736" lon="1.38774">
        <ele>145</ele>
        <time>2025-01-10T11:55:09Z</time>
      </trkpt>
      <trkpt lat="43.64739" lon="1.38772">
        <ele>145</ele>
        <time>2025-01-10T11:55:10Z</time>
      </trkpt>
      <trkpt lat="43.64741" lon="1.38771">
        <ele>145</ele>
        <time>2025-01-10T11:55:11Z</time>
      </trkpt>
      <trkpt lat="43.64743" lon="1.38769">
        <ele>145</ele>
        <time>2025-01-10T11:55:12Z</time>
      </trkpt>
      <trkpt lat="43.64745" lon="1.38767">
        <ele>145</ele>
        <time>2025-01-10T11:55:13Z</time>
      </trkpt>
      <trkpt lat="43.64747" lon="1.38766">
        <ele>145</ele>
        <time>2025-01-10T11:55:14Z</time>
      </trkpt>
      <trkpt lat="43.64749" lon="1.38764">
        <ele>145</ele>
        <time>2025-01-10T11:55:15Z</time>
      </trkpt>
      <trkpt lat="43.64751" lon="1.38762">
        <ele>145</ele>
        <time>2025-01-10T11:55:16Z</time>
      </trkpt>
      <trkpt lat="43.64753" lon="1.3876">
        <ele>145</ele>
        <time>2025-01-10T11:55:17Z</time>
      </trkpt>
      <trkpt lat="43.64755" lon="1.38759">
        <ele>145</ele>
        <time>2025-01-10T11:55:18Z</time>
      </trkpt>
      <trkpt lat="43.64758" lon="1.38757">
        <ele>145</ele>
        <time>2025-01-10T11:55:19Z</time>
      </trkpt>
      <trkpt lat="43.6476" lon="1.38756">
        <ele>145</ele>
        <time>2025-01-10T11:55:20Z</time>
      </trkpt>
      <trkpt lat="43.64763" lon="1.38755">
        <ele>145</ele>
        <time>2025-01-10T11:55:21Z</time>
      </trkpt>
      <trkpt lat="43.64765" lon="1.38754">
        <ele>145</ele>
        <time>2025-01-10T11:55:22Z</time>
      </trkpt>
      <trkpt lat="43.64767" lon="1.38753">
        <ele>145</ele>
        <time>2025-01-10T11:55:23Z</time>
      </trkpt>
      <trkpt lat="43.64769" lon="1.38751">
        <ele>145</ele>
        <time>2025-01-10T11:55:24Z</time>
      </trkpt>
      <trkpt lat="43.64771" lon="1.38749">
        <ele>145</ele>
        <time>2025-01-10T11:55:25Z</time>
      </trkpt>
      <trkpt lat="43.64773" lon="1.38747">
        <ele>145</ele>
        <time>2025-01-10T11:55:26Z</time>
      </trkpt>
      <trkpt lat="43.64775" lon="1.38746">
        <ele>145</ele>
        <time>2025-01-10T11:55:27Z</time>
      </trkpt>
      <trkpt lat="43.64777" lon="1.38744">
        <ele>145</ele>
        <time>2025-01-10T11:55:28Z</time>
      </trkpt>
      <trkpt lat="43.64779" lon="1.38742">
        <ele>145</ele>
        <time>2025-01-10T11:55:29Z</time>
      </trkpt>
      <trkpt lat="43.64781" lon="1.3874">
        <ele>145</ele>
        <time>2025-01-10T11:55:30Z</time>
      </trkpt>
      <trkpt lat="43.64783" lon="1.38739">
        <ele>145</ele>
        <time>2025-01-10T11:55:31Z</time>
      </trkpt>
      <trkpt lat="43.64785" lon="1.38737">
        <ele>145</ele>
        <time>2025-01-10T11:55:32Z</time>
      </trkpt>
      <trkpt lat="43.64787" lon="1.38736">
        <ele>145</ele>
        <time>2025-01-10T11:55:33Z</time>
      </trkpt>
      <trkpt lat="43.64789" lon="1.38734">
        <ele>145</ele>
        <time>2025-01-10T11:55:34Z</time>
      </trkpt>
      <trkpt lat="43.64791" lon="1.38733">
        <ele>145</ele>
        <time>2025-01-10T11:55:35Z</time>
      </trkpt>
      <trkpt lat="43.64794" lon="1.38731">
        <ele>145</ele>
        <time>2025-01-10T11:55:36Z</time>
      </trkpt>
      <trkpt lat="43.64796" lon="1.38729">
        <ele>145</ele>
        <time>2025-01-10T11:55:37Z</time>
      </trkpt>
      <trkpt lat="43.64796" lon="1.38729">
        <ele>145</ele>
        <time>2025-01-10T11:55:38Z</time>
      </trkpt>
      <trkpt lat="43.64801" lon="1.38726">
        <ele>145</ele>
        <time>2025-01-10T11:55:39Z</time>
      </trkpt>
      <trkpt lat="43.64803" lon="1.38725">
        <ele>145</ele>
        <time>2025-01-10T11:55:40Z</time>
      </trkpt>
      <trkpt lat="43.64805" lon="1.38723">
        <ele>145</ele>
        <time>2025-01-10T11:55:41Z</time>
      </trkpt>
      <trkpt lat="43.64805" lon="1.38723">
        <ele>145</ele>
        <time>2025-01-10T11:55:42Z</time>
      </trkpt>
      <trkpt lat="43.6481" lon="1.3872">
        <ele>145</ele>
        <time>2025-01-10T11:55:43Z</time>
      </trkpt>
      <trkpt lat="43.64812" lon="1.38719">
        <ele>145</ele>
        <time>2025-01-10T11:55:44Z</time>
      </trkpt>
      <trkpt lat="43.64815" lon="1.38717">
        <ele>145</ele>
        <time>2025-01-10T11:55:45Z</time>
      </trkpt>
      <trkpt lat="43.64817" lon="1.38716">
        <ele>145</ele>
        <time>2025-01-10T11:55:46Z</time>
      </trkpt>
      <trkpt lat="43.64819" lon="1.38714">
        <ele>145</ele>
        <time>2025-01-10T11:55:47Z</time>
      </trkpt>
      <trkpt lat="43.64821" lon="1.38713">
        <ele>145</ele>
        <time>2025-01-10T11:55:48Z</time>
      </trkpt>
      <trkpt lat="43.64824" lon="1.38711">
        <ele>145</ele>
        <time>2025-01-10T11:55:49Z</time>
      </trkpt>
      <trkpt lat="43.64826" lon="1.38709">
        <ele>145</ele>
        <time>2025-01-10T11:55:50Z</time>
      </trkpt>
      <trkpt lat="43.64828" lon="1.38707">
        <ele>145</ele>
        <time>2025-01-10T11:55:51Z</time>
      </trkpt>
      <trkpt lat="43.6483" lon="1.38705">
        <ele>145</ele>
        <time>2025-01-10T11:55:52Z</time>
      </trkpt>
      <trkpt lat="43.64832" lon="1.38704">
        <ele>145</ele>
        <time>2025-01-10T11:55:53Z</time>
      </trkpt>
      <trkpt lat="43.64834" lon="1.38703">
        <ele>145</ele>
        <time>2025-01-10T11:55:54Z</time>
      </trkpt>
      <trkpt lat="43.64836" lon="1.38701">
        <ele>145</ele>
        <time>2025-01-10T11:55:55Z</time>
      </trkpt>
      <trkpt lat="43.64839" lon="1.387">
        <ele>145</ele>
        <time>2025-01-10T11:55:56Z</time>
      </trkpt>
      <trkpt lat="43.6484" lon="1.38699">
        <ele>145</ele>
        <time>2025-01-10T11:55:57Z</time>
      </trkpt>
      <trkpt lat="43.6484" lon="1.38699">
        <ele>145</ele>
        <time>2025-01-10T11:55:58Z</time>
      </trkpt>
      <trkpt lat="43.64845" lon="1.38696">
        <ele>145</ele>
        <time>2025-01-10T11:55:59Z</time>
      </trkpt>
      <trkpt lat="43.64847" lon="1.38694">
        <ele>145</ele>
        <time>2025-01-10T11:56:00Z</time>
      </trkpt>
      <trkpt lat="43.64847" lon="1.38694">
        <ele>145</ele>
        <time>2025-01-10T11:56:01Z</time>
      </trkpt>
      <trkpt lat="43.64852" lon="1.3869">
        <ele>145</ele>
        <time>2025-01-10T11:56:02Z</time>
      </trkpt>
      <trkpt lat="43.64854" lon="1.38688">
        <ele>145</ele>
        <time>2025-01-10T11:56:03Z</time>
      </trkpt>
      <trkpt lat="43.64857" lon="1.38687">
        <ele>145</ele>
        <time>2025-01-10T11:56:04Z</time>
      </trkpt>
      <trkpt lat="43.64859" lon="1.38686">
        <ele>145</ele>
        <time>2025-01-10T11:56:05Z</time>
      </trkpt>
      <trkpt lat="43.64862" lon="1.38685">
        <ele>144</ele>
        <time>2025-01-10T11:56:06Z</time>
      </trkpt>
      <trkpt lat="43.64865" lon="1.38683">
        <ele>144</ele>
        <time>2025-01-10T11:56:07Z</time>
      </trkpt>
      <trkpt lat="43.64867" lon="1.38681">
        <ele>144</ele>
        <time>2025-01-10T11:56:08Z</time>
      </trkpt>
      <trkpt lat="43.6487" lon="1.38678">
        <ele>145</ele>
        <time>2025-01-10T11:56:09Z</time>
      </trkpt>
      <trkpt lat="43.64872" lon="1.38677">
        <ele>145</ele>
        <time>2025-01-10T11:56:10Z</time>
      </trkpt>
      <trkpt lat="43.64874" lon="1.38676">
        <ele>145</ele>
        <time>2025-01-10T11:56:11Z</time>
      </trkpt>
      <trkpt lat="43.64877" lon="1.38674">
        <ele>145</ele>
        <time>2025-01-10T11:56:12Z</time>
      </trkpt>
      <trkpt lat="43.64879" lon="1.38673">
        <ele>145</ele>
        <time>2025-01-10T11:56:13Z</time>
      </trkpt>
      <trkpt lat="43.64881" lon="1.38671">
        <ele>145</ele>
        <time>2025-01-10T11:56:14Z</time>
      </trkpt>
      <trkpt lat="43.64883" lon="1.38669">
        <ele>145</ele>
        <time>2025-01-10T11:56:15Z</time>
      </trkpt>
      <trkpt lat="43.64885" lon="1.38668">
        <ele>145</ele>
        <time>2025-01-10T11:56:16Z</time>
      </trkpt>
      <trkpt lat="43.64888" lon="1.38666">
        <ele>145</ele>
        <time>2025-01-10T11:56:17Z</time>
      </trkpt>
      <trkpt lat="43.6489" lon="1.38665">
        <ele>145</ele>
        <time>2025-01-10T11:56:18Z</time>
      </trkpt>
      <trkpt lat="43.64893" lon="1.38663">
        <ele>145</ele>
        <time>2025-01-10T11:56:19Z</time>
      </trkpt>
      <trkpt lat="43.64895" lon="1.38662">
        <ele>145</ele>
        <time>2025-01-10T11:56:20Z</time>
      </trkpt>
      <trkpt lat="43.64897" lon="1.3866">
        <ele>145</ele>
        <time>2025-01-10T11:56:21Z</time>
      </trkpt>
      <trkpt lat="43.649" lon="1.38659">
        <ele>145</ele>
        <time>2025-01-10T11:56:22Z</time>
      </trkpt>
      <trkpt lat="43.64903" lon="1.38658">
        <ele>145</ele>
        <time>2025-01-10T11:56:23Z</time>
      </trkpt>
      <trkpt lat="43.64905" lon="1.38657">
        <ele>145</ele>
        <time>2025-01-10T11:56:24Z</time>
      </trkpt>
      <trkpt lat="43.64908" lon="1.38656">
        <ele>145</ele>
        <time>2025-01-10T11:56:25Z</time>
      </trkpt>
      <trkpt lat="43.6491" lon="1.38655">
        <ele>145</ele>
        <time>2025-01-10T11:56:26Z</time>
      </trkpt>
      <trkpt lat="43.64913" lon="1.38653">
        <ele>145</ele>
        <time>2025-01-10T11:56:27Z</time>
      </trkpt>
      <trkpt lat="43.64915" lon="1.38651">
        <ele>145</ele>
        <time>2025-01-10T11:56:28Z</time>
      </trkpt>
      <trkpt lat="43.64917" lon="1.38649">
        <ele>145</ele>
        <time>2025-01-10T11:56:29Z</time>
      </trkpt>
      <trkpt lat="43.6492" lon="1.38647">
        <ele>145</ele>
        <time>2025-01-10T11:56:30Z</time>
      </trkpt>
      <trkpt lat="43.64923" lon="1.38646">
        <ele>145</ele>
        <time>2025-01-10T11:56:31Z</time>
      </trkpt>
      <trkpt lat="43.64925" lon="1.38644">
        <ele>145</ele>
        <time>2025-01-10T11:56:32Z</time>
      </trkpt>
      <trkpt lat="43.64928" lon="1.38643">
        <ele>145</ele>
        <time>2025-01-10T11:56:33Z</time>
      </trkpt>
      <trkpt lat="43.6493" lon="1.38641">
        <ele>145</ele>
        <time>2025-01-10T11:56:34Z</time>
      </trkpt>
      <trkpt lat="43.64932" lon="1.3864">
        <ele>145</ele>
        <time>2025-01-10T11:56:35Z</time>
      </trkpt>
      <trkpt lat="43.64934" lon="1.38638">
        <ele>145</ele>
        <time>2025-01-10T11:56:36Z</time>
      </trkpt>
      <trkpt lat="43.64936" lon="1.38637">
        <ele>145</ele>
        <time>2025-01-10T11:56:37Z</time>
      </trkpt>
      <trkpt lat="43.64939" lon="1.38636">
        <ele>145</ele>
        <time>2025-01-10T11:56:38Z</time>
      </trkpt>
      <trkpt lat="43.64941" lon="1.38635">
        <ele>145</ele>
        <time>2025-01-10T11:56:39Z</time>
      </trkpt>
      <trkpt lat="43.64944" lon="1.38634">
        <ele>145</ele>
        <time>2025-01-10T11:56:40Z</time>
      </trkpt>
      <trkpt lat="43.64946" lon="1.38633">
        <ele>145</ele>
        <time>2025-01-10T11:56:41Z</time>
      </trkpt>
      <trkpt lat="43.64948" lon="1.38631">
        <ele>145</ele>
        <time>2025-01-10T11:56:42Z</time>
      </trkpt>
      <trkpt lat="43.6495" lon="1.38629">
        <ele>145</ele>
        <time>2025-01-10T11:56:43Z</time>
      </trkpt>
      <trkpt lat="43.64952" lon="1.38627">
        <ele>145</ele>
        <time>2025-01-10T11:56:44Z</time>
      </trkpt>
      <trkpt lat="43.64955" lon="1.38625">
        <ele>145</ele>
        <time>2025-01-10T11:56:45Z</time>
      </trkpt>
      <trkpt lat="43.64957" lon="1.38623">
        <ele>145</ele>
        <time>2025-01-10T11:56:46Z</time>
      </trkpt>
      <trkpt lat="43.6496" lon="1.38622">
        <ele>145</ele>
        <time>2025-01-10T11:56:47Z</time>
      </trkpt>
      <trkpt lat="43.64963" lon="1.38621">
        <ele>145</ele>
        <time>2025-01-10T11:56:48Z</time>
      </trkpt>
      <trkpt lat="43.64965" lon="1.3862">
        <ele>145</ele>
        <time>2025-01-10T11:56:49Z</time>
      </trkpt>
      <trkpt lat="43.64967" lon="1.38619">
        <ele>144</ele>
        <time>2025-01-10T11:56:50Z</time>
      </trkpt>
      <trkpt lat="43.64969" lon="1.38618">
        <ele>144</ele>
        <time>2025-01-10T11:56:51Z</time>
      </trkpt>
      <trkpt lat="43.64971" lon="1.38617">
        <ele>144</ele>
        <time>2025-01-10T11:56:52Z</time>
      </trkpt>
      <trkpt lat="43.64973" lon="1.38616">
        <ele>145</ele>
        <time>2025-01-10T11:56:53Z</time>
      </trkpt>
      <trkpt lat="43.64975" lon="1.38614">
        <ele>145</ele>
        <time>2025-01-10T11:56:54Z</time>
      </trkpt>
      <trkpt lat="43.64977" lon="1.38613">
        <ele>144</ele>
        <time>2025-01-10T11:56:55Z</time>
      </trkpt>
      <trkpt lat="43.64979" lon="1.38612">
        <ele>144</ele>
        <time>2025-01-10T11:56:56Z</time>
      </trkpt>
      <trkpt lat="43.64981" lon="1.3861">
        <ele>144</ele>
        <time>2025-01-10T11:56:57Z</time>
      </trkpt>
      <trkpt lat="43.64986" lon="1.38607">
        <ele>144</ele>
        <time>2025-01-10T11:56:59Z</time>
      </trkpt>
      <trkpt lat="43.64988" lon="1.38605">
        <ele>144</ele>
        <time>2025-01-10T11:57:00Z</time>
      </trkpt>
      <trkpt lat="43.64991" lon="1.38604">
        <ele>144</ele>
        <time>2025-01-10T11:57:01Z</time>
      </trkpt>
      <trkpt lat="43.64993" lon="1.38602">
        <ele>145</ele>
        <time>2025-01-10T11:57:02Z</time>
      </trkpt>
      <trkpt lat="43.64996" lon="1.386">
        <ele>145</ele>
        <time>2025-01-10T11:57:03Z</time>
      </trkpt>
      <trkpt lat="43.64998" lon="1.38599">
        <ele>145</ele>
        <time>2025-01-10T11:57:04Z</time>
      </trkpt>
      <trkpt lat="43.65" lon="1.38597">
        <ele>145</ele>
        <time>2025-01-10T11:57:05Z</time>
      </trkpt>
      <trkpt lat="43.65003" lon="1.38595">
        <ele>144</ele>
        <time>2025-01-10T11:57:06Z</time>
      </trkpt>
      <trkpt lat="43.65006" lon="1.38593">
        <ele>144</ele>
        <time>2025-01-10T11:57:07Z</time>
      </trkpt>
      <trkpt lat="43.65008" lon="1.38592">
        <ele>144</ele>
        <time>2025-01-10T11:57:08Z</time>
      </trkpt>
      <trkpt lat="43.6501" lon="1.3859">
        <ele>144</ele>
        <time>2025-01-10T11:57:09Z</time>
      </trkpt>
      <trkpt lat="43.65012" lon="1.38588">
        <ele>144</ele>
        <time>2025-01-10T11:57:10Z</time>
      </trkpt>
      <trkpt lat="43.65015" lon="1.38587">
        <ele>144</ele>
        <time>2025-01-10T11:57:11Z</time>
      </trkpt>
      <trkpt lat="43.65017" lon="1.38585">
        <ele>144</ele>
        <time>2025-01-10T11:57:12Z</time>
      </trkpt>
      <trkpt lat="43.6502" lon="1.38583">
        <ele>144</ele>
        <time>2025-01-10T11:57:13Z</time>
      </trkpt>
      <trkpt lat="43.65022" lon="1.38582">
        <ele>144</ele>
        <time>2025-01-10T11:57:14Z</time>
      </trkpt>
      <trkpt lat="43.65024" lon="1.38581">
        <ele>144</ele>
        <time>2025-01-10T11:57:15Z</time>
      </trkpt>
      <trkpt lat="43.65027" lon="1.3858">
        <ele>144</ele>
        <time>2025-01-10T11:57:16Z</time>
      </trkpt>
      <trkpt lat="43.65031" lon="1.38578">
        <ele>144</ele>
        <time>2025-01-10T11:57:18Z</time>
      </trkpt>
      <trkpt lat="43.65034" lon="1.38576">
        <ele>144</ele>
        <time>2025-01-10T11:57:19Z</time>
      </trkpt>
      <trkpt lat="43.65037" lon="1.38575">
        <ele>144</ele>
        <time>2025-01-10T11:57:20Z</time>
      </trkpt>
      <trkpt lat="43.65039" lon="1.38574">
        <ele>144</ele>
        <time>2025-01-10T11:57:21Z</time>
      </trkpt>
      <trkpt lat="43.65041" lon="1.38573">
        <ele>144</ele>
        <time>2025-01-10T11:57:22Z</time>
      </trkpt>
      <trkpt lat="43.65044" lon="1.38571">
        <ele>144</ele>
        <time>2025-01-10T11:57:23Z</time>
      </trkpt>
      <trkpt lat="43.65046" lon="1.38569">
        <ele>144</ele>
        <time>2025-01-10T11:57:24Z</time>
      </trkpt>
      <trkpt lat="43.65048" lon="1.38567">
        <ele>144</ele>
        <time>2025-01-10T11:57:25Z</time>
      </trkpt>
      <trkpt lat="43.6505" lon="1.38565">
        <ele>144</ele>
        <time>2025-01-10T11:57:26Z</time>
      </trkpt>
      <trkpt lat="43.65053" lon="1.38564">
        <ele>143</ele>
        <time>2025-01-10T11:57:27Z</time>
      </trkpt>
      <trkpt lat="43.65055" lon="1.38562">
        <ele>143</ele>
        <time>2025-01-10T11:57:28Z</time>
      </trkpt>
      <trkpt lat="43.65058" lon="1.38561">
        <ele>144</ele>
        <time>2025-01-10T11:57:29Z</time>
      </trkpt>
      <trkpt lat="43.6506" lon="1.3856">
        <ele>144</ele>
        <time>2025-01-10T11:57:30Z</time>
      </trkpt>
      <trkpt lat="43.65063" lon="1.38559">
        <ele>144</ele>
        <time>2025-01-10T11:57:31Z</time>
      </trkpt>
      <trkpt lat="43.65066" lon="1.38558">
        <ele>144</ele>
        <time>2025-01-10T11:57:32Z</time>
      </trkpt>
      <trkpt lat="43.65068" lon="1.38557">
        <ele>144</ele>
        <time>2025-01-10T11:57:33Z</time>
      </trkpt>
      <trkpt lat="43.65071" lon="1.38555">
        <ele>144</ele>
        <time>2025-01-10T11:57:34Z</time>
      </trkpt>
      <trkpt lat="43.65073" lon="1.38554">
        <ele>144</ele>
        <time>2025-01-10T11:57:35Z</time>
      </trkpt>
      <trkpt lat="43.65078" lon="1.38551">
        <ele>144</ele>
        <time>2025-01-10T11:57:37Z</time>
      </trkpt>
      <trkpt lat="43.6508" lon="1.3855">
        <ele>144</ele>
        <time>2025-01-10T11:57:38Z</time>
      </trkpt>
      <trkpt lat="43.65083" lon="1.38548">
        <ele>144</ele>
        <time>2025-01-10T11:57:39Z</time>
      </trkpt>
      <trkpt lat="43.65085" lon="1.38547">
        <ele>144</ele>
        <time>2025-01-10T11:57:40Z</time>
      </trkpt>
      <trkpt lat="43.65087" lon="1.38546">
        <ele>144</ele>
        <time>2025-01-10T11:57:41Z</time>
      </trkpt>
      <trkpt lat="43.65089" lon="1.38544">
        <ele>144</ele>
        <time>2025-01-10T11:57:42Z</time>
      </trkpt>
      <trkpt lat="43.65091" lon="1.38542">
        <ele>144</ele>
        <time>2025-01-10T11:57:43Z</time>
      </trkpt>
      <trkpt lat="43.65093" lon="1.38541">
        <ele>144</ele>
        <time>2025-01-10T11:57:44Z</time>
      </trkpt>
      <trkpt lat="43.65095" lon="1.38538">
        <ele>144</ele>
        <time>2025-01-10T11:57:45Z</time>
      </trkpt>
      <trkpt lat="43.65097" lon="1.38536">
        <ele>144</ele>
        <time>2025-01-10T11:57:46Z</time>
      </trkpt>
      <trkpt lat="43.65098" lon="1.38533">
        <ele>144</ele>
        <time>2025-01-10T11:57:47Z</time>
      </trkpt>
      <trkpt lat="43.65099" lon="1.38529">
        <ele>144</ele>
        <time>2025-01-10T11:57:48Z</time>
      </trkpt>
      <trkpt lat="43.651" lon="1.38526">
        <ele>144</ele>
        <time>2025-01-10T11:57:49Z</time>
      </trkpt>
      <trkpt lat="43.651" lon="1.38522">
        <ele>144</ele>
        <time>2025-01-10T11:57:50Z</time>
      </trkpt>
      <trkpt lat="43.65101" lon="1.38519">
        <ele>144</ele>
        <time>2025-01-10T11:57:51Z</time>
      </trkpt>
      <trkpt lat="43.65102" lon="1.38517">
        <ele>144</ele>
        <time>2025-01-10T11:57:52Z</time>
      </trkpt>
      <trkpt lat="43.65103" lon="1.38513">
        <ele>144</ele>
        <time>2025-01-10T11:57:53Z</time>
      </trkpt>
      <trkpt lat="43.65103" lon="1.3851">
        <ele>145</ele>
        <time>2025-01-10T11:57:54Z</time>
      </trkpt>
      <trkpt lat="43.65103" lon="1.38506">
        <ele>145</ele>
        <time>2025-01-10T11:57:55Z</time>
      </trkpt>
      <trkpt lat="43.65102" lon="1.38503">
        <ele>145</ele>
        <time>2025-01-10T11:57:56Z</time>
      </trkpt>
      <trkpt lat="43.65102" lon="1.385">
        <ele>144</ele>
        <time>2025-01-10T11:57:57Z</time>
      </trkpt>
      <trkpt lat="43.65101" lon="1.38497">
        <ele>144</ele>
        <time>2025-01-10T11:57:58Z</time>
      </trkpt>
      <trkpt lat="43.651" lon="1.38494">
        <ele>145</ele>
        <time>2025-01-10T11:57:59Z</time>
      </trkpt>
      <trkpt lat="43.65099" lon="1.3849">
        <ele>145</ele>
        <time>2025-01-10T11:58:00Z</time>
      </trkpt>
      <trkpt lat="43.65098" lon="1.38487">
        <ele>145</ele>
        <time>2025-01-10T11:58:01Z</time>
      </trkpt>
      <trkpt lat="43.65097" lon="1.38484">
        <ele>145</ele>
        <time>2025-01-10T11:58:02Z</time>
      </trkpt>
      <trkpt lat="43.65097" lon="1.38481">
        <ele>145</ele>
        <time>2025-01-10T11:58:03Z</time>
      </trkpt>
      <trkpt lat="43.65096" lon="1.38479">
        <ele>145</ele>
        <time>2025-01-10T11:58:04Z</time>
      </trkpt>
      <trkpt lat="43.65096" lon="1.38475">
        <ele>145</ele>
        <time>2025-01-10T11:58:05Z</time>
      </trkpt>
      <trkpt lat="43.65096" lon="1.38473">
        <ele>145</ele>
        <time>2025-01-10T11:58:06Z</time>
      </trkpt>
      <trkpt lat="43.65095" lon="1.3847">
        <ele>145</ele>
        <time>2025-01-10T11:58:07Z</time>
      </trkpt>
      <trkpt lat="43.65094" lon="1.38467">
        <ele>145</ele>
        <time>2025-01-10T11:58:08Z</time>
      </trkpt>
      <trkpt lat="43.65093" lon="1.38464">
        <ele>145</ele>
        <time>2025-01-10T11:58:09Z</time>
      </trkpt>
      <trkpt lat="43.65092" lon="1.38461">
        <ele>145</ele>
        <time>2025-01-10T11:58:10Z</time>
      </trkpt>
      <trkpt lat="43.65092" lon="1.38458">
        <ele>145</ele>
        <time>2025-01-10T11:58:11Z</time>
      </trkpt>
      <trkpt lat="43.65091" lon="1.38454">
        <ele>145</ele>
        <time>2025-01-10T11:58:12Z</time>
      </trkpt>
      <trkpt lat="43.6509" lon="1.38451">
        <ele>144</ele>
        <time>2025-01-10T11:58:13Z</time>
      </trkpt>
      <trkpt lat="43.6509" lon="1.38448">
        <ele>144</ele>
        <time>2025-01-10T11:58:14Z</time>
      </trkpt>
      <trkpt lat="43.65089" lon="1.38445">
        <ele>144</ele>
        <time>2025-01-10T11:58:15Z</time>
      </trkpt>
      <trkpt lat="43.65089" lon="1.38441">
        <ele>144</ele>
        <time>2025-01-10T11:58:16Z</time>
      </trkpt>
      <trkpt lat="43.65088" lon="1.38439">
        <ele>145</ele>
        <time>2025-01-10T11:58:17Z</time>
      </trkpt>
      <trkpt lat="43.65088" lon="1.38436">
        <ele>145</ele>
        <time>2025-01-10T11:58:18Z</time>
      </trkpt>
      <trkpt lat="43.65087" lon="1.38433">
        <ele>145</ele>
        <time>2025-01-10T11:58:19Z</time>
      </trkpt>
      <trkpt lat="43.65085" lon="1.3843">
        <ele>146</ele>
        <time>2025-01-10T11:58:20Z</time>
      </trkpt>
      <trkpt lat="43.65084" lon="1.38426">
        <ele>146</ele>
        <time>2025-01-10T11:58:21Z</time>
      </trkpt>
      <trkpt lat="43.65083" lon="1.38423">
        <ele>146</ele>
        <time>2025-01-10T11:58:22Z</time>
      </trkpt>
      <trkpt lat="43.65082" lon="1.38419">
        <ele>146</ele>
        <time>2025-01-10T11:58:23Z</time>
      </trkpt>
      <trkpt lat="43.65082" lon="1.38416">
        <ele>146</ele>
        <time>2025-01-10T11:58:24Z</time>
      </trkpt>
      <trkpt lat="43.65081" lon="1.38412">
        <ele>146</ele>
        <time>2025-01-10T11:58:25Z</time>
      </trkpt>
      <trkpt lat="43.6508" lon="1.38409">
        <ele>146</ele>
        <time>2025-01-10T11:58:26Z</time>
      </trkpt>
      <trkpt lat="43.65079" lon="1.38405">
        <ele>145</ele>
        <time>2025-01-10T11:58:27Z</time>
      </trkpt>
      <trkpt lat="43.65078" lon="1.38401">
        <ele>145</ele>
        <time>2025-01-10T11:58:28Z</time>
      </trkpt>
      <trkpt lat="43.65077" lon="1.38398">
        <ele>145</ele>
        <time>2025-01-10T11:58:29Z</time>
      </trkpt>
      <trkpt lat="43.65075" lon="1.38394">
        <ele>145</ele>
        <time>2025-01-10T11:58:30Z</time>
      </trkpt>
      <trkpt lat="43.65074" lon="1.3839">
        <ele>145</ele>
        <time>2025-01-10T11:58:31Z</time>
      </trkpt>
      <trkpt lat="43.65073" lon="1.38387">
        <ele>145</ele>
        <time>2025-01-10T11:58:32Z</time>
      </trkpt>
      <trkpt lat="43.65072" lon="1.38383">
        <ele>146</ele>
        <time>2025-01-10T11:58:33Z</time>
      </trkpt>
      <trkpt lat="43.65072" lon="1.38383">
        <ele>146</ele>
        <time>2025-01-10T11:58:34Z</time>
      </trkpt>
      <trkpt lat="43.65069" lon="1.38377">
        <ele>146</ele>
        <time>2025-01-10T11:58:35Z</time>
      </trkpt>
      <trkpt lat="43.65064" lon="1.38371">
        <ele>145</ele>
        <time>2025-01-10T11:58:37Z</time>
      </trkpt>
      <trkpt lat="43.65063" lon="1.38367">
        <ele>145</ele>
        <time>2025-01-10T11:58:38Z</time>
      </trkpt>
      <trkpt lat="43.65061" lon="1.38364">
        <ele>146</ele>
        <time>2025-01-10T11:58:39Z</time>
      </trkpt>
      <trkpt lat="43.6506" lon="1.38361">
        <ele>146</ele>
        <time>2025-01-10T11:58:40Z</time>
      </trkpt>
      <trkpt lat="43.65059" lon="1.38358">
        <ele>146</ele>
        <time>2025-01-10T11:58:41Z</time>
      </trkpt>
      <trkpt lat="43.65058" lon="1.38355">
        <ele>146</ele>
        <time>2025-01-10T11:58:42Z</time>
      </trkpt>
      <trkpt lat="43.65057" lon="1.38351">
        <ele>146</ele>
        <time>2025-01-10T11:58:43Z</time>
      </trkpt>
      <trkpt lat="43.65056" lon="1.38348">
        <ele>146</ele>
        <time>2025-01-10T11:58:44Z</time>
      </trkpt>
      <trkpt lat="43.65054" lon="1.38345">
        <ele>145</ele>
        <time>2025-01-10T11:58:45Z</time>
      </trkpt>
      <trkpt lat="43.65054" lon="1.38342">
        <ele>145</ele>
        <time>2025-01-10T11:58:46Z</time>
      </trkpt>
      <trkpt lat="43.65052" lon="1.38338">
        <ele>145</ele>
        <time>2025-01-10T11:58:47Z</time>
      </trkpt>
      <trkpt lat="43.65051" lon="1.38335">
        <ele>146</ele>
        <time>2025-01-10T11:58:48Z</time>
      </trkpt>
      <trkpt lat="43.6505" lon="1.38332">
        <ele>146</ele>
        <time>2025-01-10T11:58:49Z</time>
      </trkpt>
      <trkpt lat="43.6505" lon="1.38329">
        <ele>146</ele>
        <time>2025-01-10T11:58:50Z</time>
      </trkpt>
      <trkpt lat="43.65049" lon="1.38326">
        <ele>146</ele>
        <time>2025-01-10T11:58:51Z</time>
      </trkpt>
      <trkpt lat="43.65049" lon="1.38319">
        <ele>145</ele>
        <time>2025-01-10T11:58:53Z</time>
      </trkpt>
      <trkpt lat="43.65048" lon="1.38314">
        <ele>145</ele>
        <time>2025-01-10T11:58:54Z</time>
      </trkpt>
      <trkpt lat="43.65047" lon="1.38312">
        <ele>146</ele>
        <time>2025-01-10T11:58:55Z</time>
      </trkpt>
      <trkpt lat="43.65047" lon="1.38309">
        <ele>146</ele>
        <time>2025-01-10T11:58:56Z</time>
      </trkpt>
      <trkpt lat="43.65046" lon="1.38305">
        <ele>146</ele>
        <time>2025-01-10T11:58:57Z</time>
      </trkpt>
      <trkpt lat="43.65045" lon="1.38302">
        <ele>146</ele>
        <time>2025-01-10T11:58:58Z</time>
      </trkpt>
      <trkpt lat="43.65044" lon="1.38299">
        <ele>146</ele>
        <time>2025-01-10T11:58:59Z</time>
      </trkpt>
      <trkpt lat="43.65043" lon="1.38296">
        <ele>146</ele>
        <time>2025-01-10T11:59:00Z</time>
      </trkpt>
      <trkpt lat="43.65042" lon="1.38293">
        <ele>146</ele>
        <time>2025-01-10T11:59:01Z</time>
      </trkpt>
      <trkpt lat="43.65041" lon="1.3829">
        <ele>146</ele>
        <time>2025-01-10T11:59:02Z</time>
      </trkpt>
      <trkpt lat="43.6504" lon="1.38287">
        <ele>146</ele>
        <time>2025-01-10T11:59:03Z</time>
      </trkpt>
      <trkpt lat="43.65039" lon="1.38284">
        <ele>146</ele>
        <time>2025-01-10T11:59:04Z</time>
      </trkpt>
      <trkpt lat="43.65038" lon="1.38281">
        <ele>146</ele>
        <time>2025-01-10T11:59:05Z</time>
      </trkpt>
      <trkpt lat="43.65037" lon="1.38277">
        <ele>146</ele>
        <time>2025-01-10T11:59:06Z</time>
      </trkpt>
      <trkpt lat="43.65036" lon="1.38274">
        <ele>146</ele>
        <time>2025-01-10T11:59:07Z</time>
      </trkpt>
      <trkpt lat="43.65034" lon="1.3827">
        <ele>146</ele>
        <time>2025-01-10T11:59:08Z</time>
      </trkpt>
      <trkpt lat="43.65034" lon="1.38268">
        <ele>146</ele>
        <time>2025-01-10T11:59:09Z</time>
      </trkpt>
      <trkpt lat="43.65033" lon="1.38264">
        <ele>146</ele>
        <time>2025-01-10T11:59:10Z</time>
      </trkpt>
      <trkpt lat="43.65033" lon="1.38264">
        <ele>146</ele>
        <time>2025-01-10T11:59:11Z</time>
      </trkpt>
      <trkpt lat="43.65032" lon="1.38257">
        <ele>146</ele>
        <time>2025-01-10T11:59:12Z</time>
      </trkpt>
      <trkpt lat="43.65031" lon="1.38254">
        <ele>146</ele>
        <time>2025-01-10T11:59:13Z</time>
      </trkpt>
      <trkpt lat="43.6503" lon="1.3825">
        <ele>145</ele>
        <time>2025-01-10T11:59:14Z</time>
      </trkpt>
      <trkpt lat="43.65029" lon="1.38247">
        <ele>145</ele>
        <time>2025-01-10T11:59:15Z</time>
      </trkpt>
      <trkpt lat="43.65028" lon="1.38244">
        <ele>145</ele>
        <time>2025-01-10T11:59:16Z</time>
      </trkpt>
      <trkpt lat="43.65027" lon="1.3824">
        <ele>145</ele>
        <time>2025-01-10T11:59:17Z</time>
      </trkpt>
      <trkpt lat="43.65025" lon="1.38237">
        <ele>145</ele>
        <time>2025-01-10T11:59:18Z</time>
      </trkpt>
      <trkpt lat="43.65025" lon="1.38233">
        <ele>145</ele>
        <time>2025-01-10T11:59:19Z</time>
      </trkpt>
      <trkpt lat="43.65024" lon="1.3823">
        <ele>145</ele>
        <time>2025-01-10T11:59:20Z</time>
      </trkpt>
      <trkpt lat="43.65022" lon="1.38227">
        <ele>145</ele>
        <time>2025-01-10T11:59:21Z</time>
      </trkpt>
      <trkpt lat="43.6502" lon="1.38224">
        <ele>145</ele>
        <time>2025-01-10T11:59:22Z</time>
      </trkpt>
      <trkpt lat="43.65019" lon="1.38221">
        <ele>145</ele>
        <time>2025-01-10T11:59:23Z</time>
      </trkpt>
      <trkpt lat="43.65018" lon="1.38217">
        <ele>145</ele>
        <time>2025-01-10T11:59:24Z</time>
      </trkpt>
      <trkpt lat="43.65017" lon="1.38214">
        <ele>145</ele>
        <time>2025-01-10T11:59:25Z</time>
      </trkpt>
      <trkpt lat="43.65016" lon="1.38211">
        <ele>145</ele>
        <time>2025-01-10T11:59:26Z</time>
      </trkpt>
      <trkpt lat="43.65015" lon="1.38208">
        <ele>145</ele>
        <time>2025-01-10T11:59:27Z</time>
      </trkpt>
      <trkpt lat="43.65014" lon="1.38205">
        <ele>145</ele>
        <time>2025-01-10T11:59:28Z</time>
      </trkpt>
      <trkpt lat="43.65013" lon="1.38202">
        <ele>145</ele>
        <time>2025-01-10T11:59:29Z</time>
      </trkpt>
      <trkpt lat="43.65011" lon="1.38199">
        <ele>145</ele>
        <time>2025-01-10T11:59:30Z</time>
      </trkpt>
      <trkpt lat="43.65011" lon="1.38199">
        <ele>145</ele>
        <time>2025-01-10T11:59:31Z</time>
      </trkpt>
      <trkpt lat="43.65009" lon="1.38192">
        <ele>145</ele>
        <time>2025-01-10T11:59:32Z</time>
      </trkpt>
      <trkpt lat="43.65007" lon="1.3819">
        <ele>145</ele>
        <time>2025-01-10T11:59:33Z</time>
      </trkpt>
      <trkpt lat="43.65004" lon="1.38188">
        <ele>145</ele>
        <time>2025-01-10T11:59:34Z</time>
      </trkpt>
      <trkpt lat="43.65002" lon="1.38186">
        <ele>145</ele>
        <time>2025-01-10T11:59:35Z</time>
      </trkpt>
      <trkpt lat="43.65" lon="1.38183">
        <ele>145</ele>
        <time>2025-01-10T11:59:36Z</time>
      </trkpt>
      <trkpt lat="43.64998" lon="1.38181">
        <ele>145</ele>
        <time>2025-01-10T11:59:37Z</time>
      </trkpt>
      <trkpt lat="43.64996" lon="1.38178">
        <ele>146</ele>
        <time>2025-01-10T11:59:38Z</time>
      </trkpt>
      <trkpt lat="43.64995" lon="1.38174">
        <ele>146</ele>
        <time>2025-01-10T11:59:39Z</time>
      </trkpt>
      <trkpt lat="43.64994" lon="1.38172">
        <ele>146</ele>
        <time>2025-01-10T11:59:40Z</time>
      </trkpt>
      <trkpt lat="43.64994" lon="1.38168">
        <ele>146</ele>
        <time>2025-01-10T11:59:41Z</time>
      </trkpt>
      <trkpt lat="43.64994" lon="1.38165">
        <ele>146</ele>
        <time>2025-01-10T11:59:42Z</time>
      </trkpt>
      <trkpt lat="43.64996" lon="1.38162">
        <ele>146</ele>
        <time>2025-01-10T11:59:43Z</time>
      </trkpt>
      <trkpt lat="43.64997" lon="1.38159">
        <ele>146</ele>
        <time>2025-01-10T11:59:44Z</time>
      </trkpt>
      <trkpt lat="43.64998" lon="1.38156">
        <ele>146</ele>
        <time>2025-01-10T11:59:45Z</time>
      </trkpt>
      <trkpt lat="43.64999" lon="1.38153">
        <ele>146</ele>
        <time>2025-01-10T11:59:46Z</time>
      </trkpt>
      <trkpt lat="43.64999" lon="1.38149">
        <ele>146</ele>
        <time>2025-01-10T11:59:47Z</time>
      </trkpt>
      <trkpt lat="43.65" lon="1.38146">
        <ele>146</ele>
        <time>2025-01-10T11:59:48Z</time>
      </trkpt>
      <trkpt lat="43.65" lon="1.38146">
        <ele>146</ele>
        <time>2025-01-10T11:59:49Z</time>
      </trkpt>
      <trkpt lat="43.65" lon="1.38139">
        <ele>146</ele>
        <time>2025-01-10T11:59:50Z</time>
      </trkpt>
      <trkpt lat="43.65" lon="1.38139">
        <ele>146</ele>
        <time>2025-01-10T11:59:51Z</time>
      </trkpt>
      <trkpt lat="43.65" lon="1.38133">
        <ele>146</ele>
        <time>2025-01-10T11:59:52Z</time>
      </trkpt>
      <trkpt lat="43.65" lon="1.38129">
        <ele>145</ele>
        <time>2025-01-10T11:59:53Z</time>
      </trkpt>
      <trkpt lat="43.64999" lon="1.38126">
        <ele>145</ele>
        <time>2025-01-10T11:59:54Z</time>
      </trkpt>
      <trkpt lat="43.64997" lon="1.38123">
        <ele>145</ele>
        <time>2025-01-10T11:59:55Z</time>
      </trkpt>
      <trkpt lat="43.64996" lon="1.38119">
        <ele>145</ele>
        <time>2025-01-10T11:59:56Z</time>
      </trkpt>
      <trkpt lat="43.64995" lon="1.38116">
        <ele>145</ele>
        <time>2025-01-10T11:59:57Z</time>
      </trkpt>
      <trkpt lat="43.64995" lon="1.38116">
        <ele>145</ele>
        <time>2025-01-10T11:59:58Z</time>
      </trkpt>
      <trkpt lat="43.64994" lon="1.38112">
        <ele>145</ele>
        <time>2025-01-10T11:59:59Z</time>
      </trkpt>
      <trkpt lat="43.64992" lon="1.38107">
        <ele>145</ele>
        <time>2025-01-10T12:00:00Z</time>
      </trkpt>
      <trkpt lat="43.64992" lon="1.38104">
        <ele>145</ele>
        <time>2025-01-10T12:00:01Z</time>
      </trkpt>
      <trkpt lat="43.6499" lon="1.38101">
        <ele>145</ele>
        <time>2025-01-10T12:00:02Z</time>
      </trkpt>
      <trkpt lat="43.64989" lon="1.38098">
        <ele>144</ele>
        <time>2025-01-10T12:00:03Z</time>
      </trkpt>
      <trkpt lat="43.64988" lon="1.38095">
        <ele>144</ele>
        <time>2025-01-10T12:00:04Z</time>
      </trkpt>
      <trkpt lat="43.64987" lon="1.38092">
        <ele>144</ele>
        <time>2025-01-10T12:00:05Z</time>
      </trkpt>
      <trkpt lat="43.64986" lon="1.38089">
        <ele>145</ele>
        <time>2025-01-10T12:00:06Z</time>
      </trkpt>
      <trkpt lat="43.64985" lon="1.38087">
        <ele>145</ele>
        <time>2025-01-10T12:00:07Z</time>
      </trkpt>
      <trkpt lat="43.64985" lon="1.38087">
        <ele>145</ele>
        <time>2025-01-10T12:00:08Z</time>
      </trkpt>
      <trkpt lat="43.64984" lon="1.38081">
        <ele>145</ele>
        <time>2025-01-10T12:00:09Z</time>
      </trkpt>
      <trkpt lat="43.64983" lon="1.38078">
        <ele>145</ele>
        <time>2025-01-10T12:00:10Z</time>
      </trkpt>
      <trkpt lat="43.64982" lon="1.38075">
        <ele>145</ele>
        <time>2025-01-10T12:00:11Z</time>
      </trkpt>
      <trkpt lat="43.64982" lon="1.38075">
        <ele>145</ele>
        <time>2025-01-10T12:00:12Z</time>
      </trkpt>
      <trkpt lat="43.6498" lon="1.38068">
        <ele>145</ele>
        <time>2025-01-10T12:00:13Z</time>
      </trkpt>
      <trkpt lat="43.64979" lon="1.38065">
        <ele>145</ele>
        <time>2025-01-10T12:00:14Z</time>
      </trkpt>
      <trkpt lat="43.64978" lon="1.38062">
        <ele>145</ele>
        <time>2025-01-10T12:00:15Z</time>
      </trkpt>
      <trkpt lat="43.64977" lon="1.38059">
        <ele>145</ele>
        <time>2025-01-10T12:00:16Z</time>
      </trkpt>
      <trkpt lat="43.64976" lon="1.38057">
        <ele>145</ele>
        <time>2025-01-10T12:00:17Z</time>
      </trkpt>
      <trkpt lat="43.64975" lon="1.38054">
        <ele>145</ele>
        <time>2025-01-10T12:00:18Z</time>
      </trkpt>
      <trkpt lat="43.64974" lon="1.38051">
        <ele>145</ele>
        <time>2025-01-10T12:00:19Z</time>
      </trkpt>
      <trkpt lat="43.64973" lon="1.38048">
        <ele>145</ele>
        <time>2025-01-10T12:00:20Z</time>
      </trkpt>
      <trkpt lat="43.64972" lon="1.38045">
        <ele>145</ele>
        <time>2025-01-10T12:00:21Z</time>
      </trkpt>
      <trkpt lat="43.64971" lon="1.38041">
        <ele>145</ele>
        <time>2025-01-10T12:00:22Z</time>
      </trkpt>
      <trkpt lat="43.64969" lon="1.38038">
        <ele>145</ele>
        <time>2025-01-10T12:00:23Z</time>
      </trkpt>
      <trkpt lat="43.64968" lon="1.38034">
        <ele>145</ele>
        <time>2025-01-10T12:00:24Z</time>
      </trkpt>
      <trkpt lat="43.64967" lon="1.38031">
        <ele>145</ele>
        <time>2025-01-10T12:00:25Z</time>
      </trkpt>
      <trkpt lat="43.64966" lon="1.38028">
        <ele>145</ele>
        <time>2025-01-10T12:00:26Z</time>
      </trkpt>
      <trkpt lat="43.64965" lon="1.38024">
        <ele>144</ele>
        <time>2025-01-10T12:00:27Z</time>
      </trkpt>
      <trkpt lat="43.64964" lon="1.38021">
        <ele>144</ele>
        <time>2025-01-10T12:00:28Z</time>
      </trkpt>
      <trkpt lat="43.64962" lon="1.38018">
        <ele>144</ele>
        <time>2025-01-10T12:00:29Z</time>
      </trkpt>
      <trkpt lat="43.64961" lon="1.38015">
        <ele>144</ele>
        <time>2025-01-10T12:00:30Z</time>
      </trkpt>
      <trkpt lat="43.6496" lon="1.38012">
        <ele>144</ele>
        <time>2025-01-10T12:00:31Z</time>
      </trkpt>
      <trkpt lat="43.64959" lon="1.38009">
        <ele>144</ele>
        <time>2025-01-10T12:00:32Z</time>
      </trkpt>
      <trkpt lat="43.64958" lon="1.38006">
        <ele>144</ele>
        <time>2025-01-10T12:00:33Z</time>
      </trkpt>
      <trkpt lat="43.64957" lon="1.38002">
        <ele>144</ele>
        <time>2025-01-10T12:00:34Z</time>
      </trkpt>
      <trkpt lat="43.64955" lon="1.37999">
        <ele>145</ele>
        <time>2025-01-10T12:00:35Z</time>
      </trkpt>
      <trkpt lat="43.64953" lon="1.37997">
        <ele>145</ele>
        <time>2025-01-10T12:00:36Z</time>
      </trkpt>
      <trkpt lat="43.64952" lon="1.37994">
        <ele>145</ele>
        <time>2025-01-10T12:00:37Z</time>
      </trkpt>
      <trkpt lat="43.6495" lon="1.3799">
        <ele>145</ele>
        <time>2025-01-10T12:00:38Z</time>
      </trkpt>
      <trkpt lat="43.6495" lon="1.3799">
        <ele>145</ele>
        <time>2025-01-10T12:00:39Z</time>
      </trkpt>
      <trkpt lat="43.64948" lon="1.37982">
        <ele>144</ele>
        <time>2025-01-10T12:00:40Z</time>
      </trkpt>
      <trkpt lat="43.64947" lon="1.37978">
        <ele>144</ele>
        <time>2025-01-10T12:00:41Z</time>
      </trkpt>
      <trkpt lat="43.64947" lon="1.37975">
        <ele>145</ele>
        <time>2025-01-10T12:00:42Z</time>
      </trkpt>
      <trkpt lat="43.64947" lon="1.37971">
        <ele>145</ele>
        <time>2025-01-10T12:00:43Z</time>
      </trkpt>
      <trkpt lat="43.64947" lon="1.37967">
        <ele>145</ele>
        <time>2025-01-10T12:00:44Z</time>
      </trkpt>
      <trkpt lat="43.64947" lon="1.37964">
        <ele>145</ele>
        <time>2025-01-10T12:00:45Z</time>
      </trkpt>
      <trkpt lat="43.64947" lon="1.37964">
        <ele>144</ele>
        <time>2025-01-10T12:00:46Z</time>
      </trkpt>
      <trkpt lat="43.64947" lon="1.37957">
        <ele>145</ele>
        <time>2025-01-10T12:00:47Z</time>
      </trkpt>
      <trkpt lat="43.64946" lon="1.37953">
        <ele>145</ele>
        <time>2025-01-10T12:00:48Z</time>
      </trkpt>
      <trkpt lat="43.64945" lon="1.3795">
        <ele>145</ele>
        <time>2025-01-10T12:00:49Z</time>
      </trkpt>
      <trkpt lat="43.64945" lon="1.3795">
        <ele>145</ele>
        <time>2025-01-10T12:00:50Z</time>
      </trkpt>
    </trkseg>
  </trk>
</gpx>